<?xml version="1.0" encoding="UTF-8" standalone="no" ?>
<gpx xmlns="http://www.topografix.com/GPX/1/1" xmlns:xsi="http://www.w3.org/2001/XMLSchema-instance" xsi:schemaLocation="http://www.topografix.com/GPX/1/1 http://www.topografix.com/GPX/1/1/gpx.xsd" version="1.1" creator="VisuGPX - https://www.visugpx.com">
  <metadata>
    <name>VTT - Taulignan</name>
    <desc><![CDATA[Rando VTT vraiment très sympa. C\'était leur première édition ;)]]></desc>
  </metadata>
  <trk>
    <name><![CDATA[06-SEP-15 11:39:01]]></name>
    <trkseg>
      <trkpt lat="44.44523" lon="4.97921">
        <ele>205.86</ele>
        <time>2015-09-06T06:08:11Z</time>
      </trkpt>
      <trkpt lat="44.44555" lon="4.97916">
        <ele>207.3</ele>
        <time>2015-09-06T06:08:21Z</time>
      </trkpt>
      <trkpt lat="44.44577" lon="4.97916">
        <ele>209.22</ele>
        <time>2015-09-06T06:08:29Z</time>
      </trkpt>
      <trkpt lat="44.44585" lon="4.97873">
        <ele>210.67</ele>
        <time>2015-09-06T06:08:41Z</time>
      </trkpt>
      <trkpt lat="44.44592" lon="4.97803">
        <ele>211.63</ele>
        <time>2015-09-06T06:08:58Z</time>
      </trkpt>
      <trkpt lat="44.44598" lon="4.97746">
        <ele>214.03</ele>
        <time>2015-09-06T06:09:12Z</time>
      </trkpt>
      <trkpt lat="44.44605" lon="4.97682">
        <ele>215.47</ele>
        <time>2015-09-06T06:09:27Z</time>
      </trkpt>
      <trkpt lat="44.44608" lon="4.97636">
        <ele>219.32</ele>
        <time>2015-09-06T06:09:38Z</time>
      </trkpt>
      <trkpt lat="44.44613" lon="4.9757">
        <ele>221.24</ele>
        <time>2015-09-06T06:09:53Z</time>
      </trkpt>
      <trkpt lat="44.44616" lon="4.97531">
        <ele>221.72</ele>
        <time>2015-09-06T06:10:02Z</time>
      </trkpt>
      <trkpt lat="44.44617" lon="4.97525">
        <ele>221.24</ele>
        <time>2015-09-06T06:10:03Z</time>
      </trkpt>
      <trkpt lat="44.44622" lon="4.97488">
        <ele>217.4</ele>
        <time>2015-09-06T06:10:07Z</time>
      </trkpt>
      <trkpt lat="44.44625" lon="4.97455">
        <ele>215.95</ele>
        <time>2015-09-06T06:10:10Z</time>
      </trkpt>
      <trkpt lat="44.44629" lon="4.97421">
        <ele>212.59</ele>
        <time>2015-09-06T06:10:13Z</time>
      </trkpt>
      <trkpt lat="44.44641" lon="4.97347">
        <ele>210.67</ele>
        <time>2015-09-06T06:10:20Z</time>
      </trkpt>
      <trkpt lat="44.44644" lon="4.97339">
        <ele>210.67</ele>
        <time>2015-09-06T06:10:21Z</time>
      </trkpt>
      <trkpt lat="44.44647" lon="4.97334">
        <ele>210.67</ele>
        <time>2015-09-06T06:10:22Z</time>
      </trkpt>
      <trkpt lat="44.44649" lon="4.97331">
        <ele>210.19</ele>
        <time>2015-09-06T06:10:23Z</time>
      </trkpt>
      <trkpt lat="44.44652" lon="4.9733">
        <ele>210.19</ele>
        <time>2015-09-06T06:10:24Z</time>
      </trkpt>
      <trkpt lat="44.44654" lon="4.97329">
        <ele>210.19</ele>
        <time>2015-09-06T06:10:25Z</time>
      </trkpt>
      <trkpt lat="44.44656" lon="4.97327">
        <ele>210.67</ele>
        <time>2015-09-06T06:10:26Z</time>
      </trkpt>
      <trkpt lat="44.44658" lon="4.97327">
        <ele>211.15</ele>
        <time>2015-09-06T06:10:27Z</time>
      </trkpt>
      <trkpt lat="44.4466" lon="4.97326">
        <ele>211.15</ele>
        <time>2015-09-06T06:10:28Z</time>
      </trkpt>
      <trkpt lat="44.44663" lon="4.97326">
        <ele>211.15</ele>
        <time>2015-09-06T06:10:29Z</time>
      </trkpt>
      <trkpt lat="44.44666" lon="4.97326">
        <ele>211.15</ele>
        <time>2015-09-06T06:10:30Z</time>
      </trkpt>
      <trkpt lat="44.44669" lon="4.97325">
        <ele>211.15</ele>
        <time>2015-09-06T06:10:31Z</time>
      </trkpt>
      <trkpt lat="44.44672" lon="4.97325">
        <ele>211.63</ele>
        <time>2015-09-06T06:10:32Z</time>
      </trkpt>
      <trkpt lat="44.44712" lon="4.9733">
        <ele>214.51</ele>
        <time>2015-09-06T06:10:45Z</time>
      </trkpt>
      <trkpt lat="44.44751" lon="4.97342">
        <ele>216.43</ele>
        <time>2015-09-06T06:10:58Z</time>
      </trkpt>
      <trkpt lat="44.44775" lon="4.97348">
        <ele>218.84</ele>
        <time>2015-09-06T06:11:06Z</time>
      </trkpt>
      <trkpt lat="44.44815" lon="4.97357">
        <ele>220.76</ele>
        <time>2015-09-06T06:11:19Z</time>
      </trkpt>
      <trkpt lat="44.44844" lon="4.97365">
        <ele>222.2</ele>
        <time>2015-09-06T06:11:31Z</time>
      </trkpt>
      <trkpt lat="44.44879" lon="4.9737">
        <ele>224.12</ele>
        <time>2015-09-06T06:11:43Z</time>
      </trkpt>
      <trkpt lat="44.44909" lon="4.97373">
        <ele>226.53</ele>
        <time>2015-09-06T06:11:54Z</time>
      </trkpt>
      <trkpt lat="44.4494" lon="4.97367">
        <ele>228.93</ele>
        <time>2015-09-06T06:12:06Z</time>
      </trkpt>
      <trkpt lat="44.44952" lon="4.9737">
        <ele>231.33</ele>
        <time>2015-09-06T06:12:11Z</time>
      </trkpt>
      <trkpt lat="44.44986" lon="4.97373">
        <ele>232.3</ele>
        <time>2015-09-06T06:12:25Z</time>
      </trkpt>
      <trkpt lat="44.45008" lon="4.97373">
        <ele>234.7</ele>
        <time>2015-09-06T06:12:36Z</time>
      </trkpt>
      <trkpt lat="44.45034" lon="4.9737">
        <ele>237.1</ele>
        <time>2015-09-06T06:12:48Z</time>
      </trkpt>
      <trkpt lat="44.4506" lon="4.97362">
        <ele>239.51</ele>
        <time>2015-09-06T06:13:01Z</time>
      </trkpt>
      <trkpt lat="44.45081" lon="4.97339">
        <ele>242.39</ele>
        <time>2015-09-06T06:13:13Z</time>
      </trkpt>
      <trkpt lat="44.45107" lon="4.97299">
        <ele>244.31</ele>
        <time>2015-09-06T06:13:27Z</time>
      </trkpt>
      <trkpt lat="44.4513" lon="4.97263">
        <ele>243.83</ele>
        <time>2015-09-06T06:13:39Z</time>
      </trkpt>
      <trkpt lat="44.45131" lon="4.97262">
        <ele>243.83</ele>
        <time>2015-09-06T06:13:40Z</time>
      </trkpt>
      <trkpt lat="44.45132" lon="4.97262">
        <ele>243.83</ele>
        <time>2015-09-06T06:13:41Z</time>
      </trkpt>
      <trkpt lat="44.45134" lon="4.97262">
        <ele>244.79</ele>
        <time>2015-09-06T06:13:42Z</time>
      </trkpt>
      <trkpt lat="44.45136" lon="4.97263">
        <ele>244.31</ele>
        <time>2015-09-06T06:13:43Z</time>
      </trkpt>
      <trkpt lat="44.45138" lon="4.97263">
        <ele>244.31</ele>
        <time>2015-09-06T06:13:44Z</time>
      </trkpt>
      <trkpt lat="44.4514" lon="4.97264">
        <ele>244.31</ele>
        <time>2015-09-06T06:13:45Z</time>
      </trkpt>
      <trkpt lat="44.45143" lon="4.97264">
        <ele>244.31</ele>
        <time>2015-09-06T06:13:46Z</time>
      </trkpt>
      <trkpt lat="44.45145" lon="4.97265">
        <ele>244.31</ele>
        <time>2015-09-06T06:13:47Z</time>
      </trkpt>
      <trkpt lat="44.45147" lon="4.97266">
        <ele>245.75</ele>
        <time>2015-09-06T06:13:48Z</time>
      </trkpt>
      <trkpt lat="44.45149" lon="4.97267">
        <ele>245.27</ele>
        <time>2015-09-06T06:13:49Z</time>
      </trkpt>
      <trkpt lat="44.45151" lon="4.97267">
        <ele>245.27</ele>
        <time>2015-09-06T06:13:50Z</time>
      </trkpt>
      <trkpt lat="44.45153" lon="4.97266">
        <ele>245.27</ele>
        <time>2015-09-06T06:13:51Z</time>
      </trkpt>
      <trkpt lat="44.45156" lon="4.97266">
        <ele>245.27</ele>
        <time>2015-09-06T06:13:52Z</time>
      </trkpt>
      <trkpt lat="44.45158" lon="4.97265">
        <ele>245.75</ele>
        <time>2015-09-06T06:13:53Z</time>
      </trkpt>
      <trkpt lat="44.45161" lon="4.97265">
        <ele>245.75</ele>
        <time>2015-09-06T06:13:54Z</time>
      </trkpt>
      <trkpt lat="44.45167" lon="4.97261">
        <ele>246.72</ele>
        <time>2015-09-06T06:13:57Z</time>
      </trkpt>
      <trkpt lat="44.45169" lon="4.9726">
        <ele>246.72</ele>
        <time>2015-09-06T06:13:58Z</time>
      </trkpt>
      <trkpt lat="44.45171" lon="4.97259">
        <ele>247.2</ele>
        <time>2015-09-06T06:13:59Z</time>
      </trkpt>
      <trkpt lat="44.45174" lon="4.97258">
        <ele>247.68</ele>
        <time>2015-09-06T06:14:00Z</time>
      </trkpt>
      <trkpt lat="44.45176" lon="4.97258">
        <ele>248.64</ele>
        <time>2015-09-06T06:14:01Z</time>
      </trkpt>
      <trkpt lat="44.45178" lon="4.97258">
        <ele>248.64</ele>
        <time>2015-09-06T06:14:02Z</time>
      </trkpt>
      <trkpt lat="44.45207" lon="4.97258">
        <ele>251.52</ele>
        <time>2015-09-06T06:14:15Z</time>
      </trkpt>
      <trkpt lat="44.45237" lon="4.97258">
        <ele>254.41</ele>
        <time>2015-09-06T06:14:28Z</time>
      </trkpt>
      <trkpt lat="44.45239" lon="4.97259">
        <ele>254.41</ele>
        <time>2015-09-06T06:14:29Z</time>
      </trkpt>
      <trkpt lat="44.4524" lon="4.9726">
        <ele>254.89</ele>
        <time>2015-09-06T06:14:30Z</time>
      </trkpt>
      <trkpt lat="44.45258" lon="4.97277">
        <ele>256.81</ele>
        <time>2015-09-06T06:14:40Z</time>
      </trkpt>
      <trkpt lat="44.45259" lon="4.9728">
        <ele>256.81</ele>
        <time>2015-09-06T06:14:41Z</time>
      </trkpt>
      <trkpt lat="44.4526" lon="4.97283">
        <ele>256.81</ele>
        <time>2015-09-06T06:14:42Z</time>
      </trkpt>
      <trkpt lat="44.45261" lon="4.97286">
        <ele>256.81</ele>
        <time>2015-09-06T06:14:43Z</time>
      </trkpt>
      <trkpt lat="44.45262" lon="4.97289">
        <ele>257.29</ele>
        <time>2015-09-06T06:14:44Z</time>
      </trkpt>
      <trkpt lat="44.45263" lon="4.97292">
        <ele>257.29</ele>
        <time>2015-09-06T06:14:45Z</time>
      </trkpt>
      <trkpt lat="44.45264" lon="4.97294">
        <ele>257.29</ele>
        <time>2015-09-06T06:14:46Z</time>
      </trkpt>
      <trkpt lat="44.45266" lon="4.97295">
        <ele>257.77</ele>
        <time>2015-09-06T06:14:47Z</time>
      </trkpt>
      <trkpt lat="44.45269" lon="4.97294">
        <ele>257.77</ele>
        <time>2015-09-06T06:14:48Z</time>
      </trkpt>
      <trkpt lat="44.4527" lon="4.97293">
        <ele>258.25</ele>
        <time>2015-09-06T06:14:49Z</time>
      </trkpt>
      <trkpt lat="44.45279" lon="4.97284">
        <ele>258.73</ele>
        <time>2015-09-06T06:14:52Z</time>
      </trkpt>
      <trkpt lat="44.45289" lon="4.97279">
        <ele>259.69</ele>
        <time>2015-09-06T06:14:58Z</time>
      </trkpt>
      <trkpt lat="44.45292" lon="4.97279">
        <ele>259.69</ele>
        <time>2015-09-06T06:14:59Z</time>
      </trkpt>
      <trkpt lat="44.45294" lon="4.9728">
        <ele>260.17</ele>
        <time>2015-09-06T06:15:00Z</time>
      </trkpt>
      <trkpt lat="44.45296" lon="4.97281">
        <ele>260.65</ele>
        <time>2015-09-06T06:15:01Z</time>
      </trkpt>
      <trkpt lat="44.45297" lon="4.97283">
        <ele>260.65</ele>
        <time>2015-09-06T06:15:02Z</time>
      </trkpt>
      <trkpt lat="44.45299" lon="4.97285">
        <ele>260.65</ele>
        <time>2015-09-06T06:15:03Z</time>
      </trkpt>
      <trkpt lat="44.45301" lon="4.97288">
        <ele>261.14</ele>
        <time>2015-09-06T06:15:04Z</time>
      </trkpt>
      <trkpt lat="44.45303" lon="4.9729">
        <ele>261.14</ele>
        <time>2015-09-06T06:15:05Z</time>
      </trkpt>
      <trkpt lat="44.45305" lon="4.97291">
        <ele>261.62</ele>
        <time>2015-09-06T06:15:06Z</time>
      </trkpt>
      <trkpt lat="44.45307" lon="4.97292">
        <ele>261.62</ele>
        <time>2015-09-06T06:15:07Z</time>
      </trkpt>
      <trkpt lat="44.45308" lon="4.97293">
        <ele>261.62</ele>
        <time>2015-09-06T06:15:08Z</time>
      </trkpt>
      <trkpt lat="44.45307" lon="4.97297">
        <ele>261.62</ele>
        <time>2015-09-06T06:15:11Z</time>
      </trkpt>
      <trkpt lat="44.45308" lon="4.973">
        <ele>261.62</ele>
        <time>2015-09-06T06:15:12Z</time>
      </trkpt>
      <trkpt lat="44.45308" lon="4.97304">
        <ele>261.62</ele>
        <time>2015-09-06T06:15:13Z</time>
      </trkpt>
      <trkpt lat="44.45309" lon="4.97307">
        <ele>261.62</ele>
        <time>2015-09-06T06:15:14Z</time>
      </trkpt>
      <trkpt lat="44.45309" lon="4.97311">
        <ele>262.58</ele>
        <time>2015-09-06T06:15:15Z</time>
      </trkpt>
      <trkpt lat="44.45309" lon="4.97314">
        <ele>262.58</ele>
        <time>2015-09-06T06:15:16Z</time>
      </trkpt>
      <trkpt lat="44.4531" lon="4.97317">
        <ele>262.58</ele>
        <time>2015-09-06T06:15:17Z</time>
      </trkpt>
      <trkpt lat="44.4531" lon="4.97319">
        <ele>263.06</ele>
        <time>2015-09-06T06:15:18Z</time>
      </trkpt>
      <trkpt lat="44.45313" lon="4.97321">
        <ele>263.54</ele>
        <time>2015-09-06T06:15:20Z</time>
      </trkpt>
      <trkpt lat="44.45315" lon="4.97322">
        <ele>263.54</ele>
        <time>2015-09-06T06:15:21Z</time>
      </trkpt>
      <trkpt lat="44.45318" lon="4.97323">
        <ele>263.54</ele>
        <time>2015-09-06T06:15:22Z</time>
      </trkpt>
      <trkpt lat="44.45321" lon="4.97324">
        <ele>264.02</ele>
        <time>2015-09-06T06:15:23Z</time>
      </trkpt>
      <trkpt lat="44.45329" lon="4.97322">
        <ele>265.94</ele>
        <time>2015-09-06T06:15:26Z</time>
      </trkpt>
      <trkpt lat="44.45332" lon="4.97322">
        <ele>265.46</ele>
        <time>2015-09-06T06:15:27Z</time>
      </trkpt>
      <trkpt lat="44.45349" lon="4.97325">
        <ele>266.42</ele>
        <time>2015-09-06T06:15:35Z</time>
      </trkpt>
      <trkpt lat="44.45354" lon="4.97323">
        <ele>267.38</ele>
        <time>2015-09-06T06:15:37Z</time>
      </trkpt>
      <trkpt lat="44.45357" lon="4.97323">
        <ele>267.86</ele>
        <time>2015-09-06T06:15:38Z</time>
      </trkpt>
      <trkpt lat="44.4536" lon="4.97322">
        <ele>267.86</ele>
        <time>2015-09-06T06:15:39Z</time>
      </trkpt>
      <trkpt lat="44.45362" lon="4.97321">
        <ele>267.86</ele>
        <time>2015-09-06T06:15:40Z</time>
      </trkpt>
      <trkpt lat="44.45365" lon="4.9732">
        <ele>267.38</ele>
        <time>2015-09-06T06:15:41Z</time>
      </trkpt>
      <trkpt lat="44.45367" lon="4.97316">
        <ele>267.38</ele>
        <time>2015-09-06T06:15:42Z</time>
      </trkpt>
      <trkpt lat="44.45369" lon="4.97313">
        <ele>267.38</ele>
        <time>2015-09-06T06:15:43Z</time>
      </trkpt>
      <trkpt lat="44.45372" lon="4.9731">
        <ele>267.38</ele>
        <time>2015-09-06T06:15:44Z</time>
      </trkpt>
      <trkpt lat="44.45374" lon="4.97306">
        <ele>267.86</ele>
        <time>2015-09-06T06:15:45Z</time>
      </trkpt>
      <trkpt lat="44.45375" lon="4.97302">
        <ele>267.38</ele>
        <time>2015-09-06T06:15:46Z</time>
      </trkpt>
      <trkpt lat="44.45375" lon="4.97299">
        <ele>267.38</ele>
        <time>2015-09-06T06:15:47Z</time>
      </trkpt>
      <trkpt lat="44.45377" lon="4.97295">
        <ele>267.86</ele>
        <time>2015-09-06T06:15:48Z</time>
      </trkpt>
      <trkpt lat="44.45377" lon="4.97292">
        <ele>267.86</ele>
        <time>2015-09-06T06:15:49Z</time>
      </trkpt>
      <trkpt lat="44.45384" lon="4.97262">
        <ele>267.86</ele>
        <time>2015-09-06T06:15:57Z</time>
      </trkpt>
      <trkpt lat="44.4538" lon="4.97228">
        <ele>268.83</ele>
        <time>2015-09-06T06:16:08Z</time>
      </trkpt>
      <trkpt lat="44.45381" lon="4.97198">
        <ele>267.86</ele>
        <time>2015-09-06T06:16:16Z</time>
      </trkpt>
      <trkpt lat="44.45383" lon="4.97194">
        <ele>267.86</ele>
        <time>2015-09-06T06:16:17Z</time>
      </trkpt>
      <trkpt lat="44.45386" lon="4.97187">
        <ele>266.9</ele>
        <time>2015-09-06T06:16:19Z</time>
      </trkpt>
      <trkpt lat="44.45386" lon="4.97184">
        <ele>265.94</ele>
        <time>2015-09-06T06:16:20Z</time>
      </trkpt>
      <trkpt lat="44.45386" lon="4.97177">
        <ele>267.86</ele>
        <time>2015-09-06T06:16:23Z</time>
      </trkpt>
      <trkpt lat="44.45385" lon="4.97174">
        <ele>267.86</ele>
        <time>2015-09-06T06:16:24Z</time>
      </trkpt>
      <trkpt lat="44.45385" lon="4.9717">
        <ele>268.35</ele>
        <time>2015-09-06T06:16:25Z</time>
      </trkpt>
      <trkpt lat="44.45386" lon="4.97121">
        <ele>267.86</ele>
        <time>2015-09-06T06:16:35Z</time>
      </trkpt>
      <trkpt lat="44.45379" lon="4.97106">
        <ele>267.86</ele>
        <time>2015-09-06T06:16:42Z</time>
      </trkpt>
      <trkpt lat="44.45373" lon="4.971">
        <ele>266.9</ele>
        <time>2015-09-06T06:16:47Z</time>
      </trkpt>
      <trkpt lat="44.45369" lon="4.971">
        <ele>266.9</ele>
        <time>2015-09-06T06:16:48Z</time>
      </trkpt>
      <trkpt lat="44.45365" lon="4.971">
        <ele>266.9</ele>
        <time>2015-09-06T06:16:49Z</time>
      </trkpt>
      <trkpt lat="44.45355" lon="4.97109">
        <ele>266.9</ele>
        <time>2015-09-06T06:16:50Z</time>
      </trkpt>
      <trkpt lat="44.45349" lon="4.97111">
        <ele>266.42</ele>
        <time>2015-09-06T06:16:51Z</time>
      </trkpt>
      <trkpt lat="44.45342" lon="4.97113">
        <ele>265.94</ele>
        <time>2015-09-06T06:16:52Z</time>
      </trkpt>
      <trkpt lat="44.45337" lon="4.97115">
        <ele>265.46</ele>
        <time>2015-09-06T06:16:53Z</time>
      </trkpt>
      <trkpt lat="44.45332" lon="4.97115">
        <ele>265.46</ele>
        <time>2015-09-06T06:16:54Z</time>
      </trkpt>
      <trkpt lat="44.45328" lon="4.97115">
        <ele>264.5</ele>
        <time>2015-09-06T06:16:55Z</time>
      </trkpt>
      <trkpt lat="44.45323" lon="4.97114">
        <ele>263.54</ele>
        <time>2015-09-06T06:16:56Z</time>
      </trkpt>
      <trkpt lat="44.45318" lon="4.97113">
        <ele>262.58</ele>
        <time>2015-09-06T06:16:57Z</time>
      </trkpt>
      <trkpt lat="44.45305" lon="4.97108">
        <ele>261.62</ele>
        <time>2015-09-06T06:17:00Z</time>
      </trkpt>
      <trkpt lat="44.45297" lon="4.97096">
        <ele>261.14</ele>
        <time>2015-09-06T06:17:03Z</time>
      </trkpt>
      <trkpt lat="44.45294" lon="4.97092">
        <ele>260.65</ele>
        <time>2015-09-06T06:17:04Z</time>
      </trkpt>
      <trkpt lat="44.45291" lon="4.9709">
        <ele>260.65</ele>
        <time>2015-09-06T06:17:05Z</time>
      </trkpt>
      <trkpt lat="44.45288" lon="4.97091">
        <ele>260.65</ele>
        <time>2015-09-06T06:17:06Z</time>
      </trkpt>
      <trkpt lat="44.45283" lon="4.97093">
        <ele>260.17</ele>
        <time>2015-09-06T06:17:07Z</time>
      </trkpt>
      <trkpt lat="44.45279" lon="4.97093">
        <ele>260.17</ele>
        <time>2015-09-06T06:17:08Z</time>
      </trkpt>
      <trkpt lat="44.45275" lon="4.97093">
        <ele>259.69</ele>
        <time>2015-09-06T06:17:09Z</time>
      </trkpt>
      <trkpt lat="44.4527" lon="4.97093">
        <ele>259.21</ele>
        <time>2015-09-06T06:17:10Z</time>
      </trkpt>
      <trkpt lat="44.45265" lon="4.97094">
        <ele>258.73</ele>
        <time>2015-09-06T06:17:11Z</time>
      </trkpt>
      <trkpt lat="44.4525" lon="4.97099">
        <ele>257.77</ele>
        <time>2015-09-06T06:17:14Z</time>
      </trkpt>
      <trkpt lat="44.45245" lon="4.97099">
        <ele>257.77</ele>
        <time>2015-09-06T06:17:15Z</time>
      </trkpt>
      <trkpt lat="44.4524" lon="4.97097">
        <ele>257.29</ele>
        <time>2015-09-06T06:17:16Z</time>
      </trkpt>
      <trkpt lat="44.45236" lon="4.97094">
        <ele>256.81</ele>
        <time>2015-09-06T06:17:17Z</time>
      </trkpt>
      <trkpt lat="44.45231" lon="4.9709">
        <ele>256.33</ele>
        <time>2015-09-06T06:17:18Z</time>
      </trkpt>
      <trkpt lat="44.45226" lon="4.97087">
        <ele>255.37</ele>
        <time>2015-09-06T06:17:19Z</time>
      </trkpt>
      <trkpt lat="44.45221" lon="4.97082">
        <ele>254.41</ele>
        <time>2015-09-06T06:17:20Z</time>
      </trkpt>
      <trkpt lat="44.45215" lon="4.97078">
        <ele>253.93</ele>
        <time>2015-09-06T06:17:21Z</time>
      </trkpt>
      <trkpt lat="44.45209" lon="4.97075">
        <ele>253.44</ele>
        <time>2015-09-06T06:17:22Z</time>
      </trkpt>
      <trkpt lat="44.452" lon="4.97071">
        <ele>252.48</ele>
        <time>2015-09-06T06:17:24Z</time>
      </trkpt>
      <trkpt lat="44.45196" lon="4.97071">
        <ele>252</ele>
        <time>2015-09-06T06:17:25Z</time>
      </trkpt>
      <trkpt lat="44.45192" lon="4.97073">
        <ele>252</ele>
        <time>2015-09-06T06:17:26Z</time>
      </trkpt>
      <trkpt lat="44.4519" lon="4.97077">
        <ele>252</ele>
        <time>2015-09-06T06:17:27Z</time>
      </trkpt>
      <trkpt lat="44.45188" lon="4.97081">
        <ele>252.48</ele>
        <time>2015-09-06T06:17:28Z</time>
      </trkpt>
      <trkpt lat="44.45181" lon="4.97103">
        <ele>251.52</ele>
        <time>2015-09-06T06:17:33Z</time>
      </trkpt>
      <trkpt lat="44.45178" lon="4.97105">
        <ele>252</ele>
        <time>2015-09-06T06:17:34Z</time>
      </trkpt>
      <trkpt lat="44.45175" lon="4.97104">
        <ele>251.04</ele>
        <time>2015-09-06T06:17:35Z</time>
      </trkpt>
      <trkpt lat="44.45172" lon="4.97102">
        <ele>251.04</ele>
        <time>2015-09-06T06:17:36Z</time>
      </trkpt>
      <trkpt lat="44.45162" lon="4.97097">
        <ele>250.56</ele>
        <time>2015-09-06T06:17:39Z</time>
      </trkpt>
      <trkpt lat="44.45158" lon="4.97093">
        <ele>250.08</ele>
        <time>2015-09-06T06:17:40Z</time>
      </trkpt>
      <trkpt lat="44.45155" lon="4.9709">
        <ele>250.08</ele>
        <time>2015-09-06T06:17:41Z</time>
      </trkpt>
      <trkpt lat="44.45145" lon="4.97081">
        <ele>249.6</ele>
        <time>2015-09-06T06:17:44Z</time>
      </trkpt>
      <trkpt lat="44.45142" lon="4.97077">
        <ele>249.6</ele>
        <time>2015-09-06T06:17:45Z</time>
      </trkpt>
      <trkpt lat="44.4514" lon="4.97073">
        <ele>249.6</ele>
        <time>2015-09-06T06:17:46Z</time>
      </trkpt>
      <trkpt lat="44.45137" lon="4.97069">
        <ele>249.12</ele>
        <time>2015-09-06T06:17:47Z</time>
      </trkpt>
      <trkpt lat="44.45134" lon="4.97064">
        <ele>249.12</ele>
        <time>2015-09-06T06:17:48Z</time>
      </trkpt>
      <trkpt lat="44.45128" lon="4.97055">
        <ele>248.64</ele>
        <time>2015-09-06T06:17:50Z</time>
      </trkpt>
      <trkpt lat="44.45121" lon="4.97047">
        <ele>247.68</ele>
        <time>2015-09-06T06:17:52Z</time>
      </trkpt>
      <trkpt lat="44.4512" lon="4.97043">
        <ele>247.2</ele>
        <time>2015-09-06T06:17:53Z</time>
      </trkpt>
      <trkpt lat="44.45121" lon="4.97038">
        <ele>247.2</ele>
        <time>2015-09-06T06:17:54Z</time>
      </trkpt>
      <trkpt lat="44.45121" lon="4.97033">
        <ele>247.68</ele>
        <time>2015-09-06T06:17:55Z</time>
      </trkpt>
      <trkpt lat="44.45122" lon="4.97028">
        <ele>247.68</ele>
        <time>2015-09-06T06:17:56Z</time>
      </trkpt>
      <trkpt lat="44.45122" lon="4.97023">
        <ele>247.68</ele>
        <time>2015-09-06T06:17:57Z</time>
      </trkpt>
      <trkpt lat="44.45123" lon="4.97017">
        <ele>247.68</ele>
        <time>2015-09-06T06:17:58Z</time>
      </trkpt>
      <trkpt lat="44.45123" lon="4.97006">
        <ele>248.16</ele>
        <time>2015-09-06T06:18:00Z</time>
      </trkpt>
      <trkpt lat="44.45122" lon="4.97">
        <ele>247.68</ele>
        <time>2015-09-06T06:18:01Z</time>
      </trkpt>
      <trkpt lat="44.45121" lon="4.96994">
        <ele>247.2</ele>
        <time>2015-09-06T06:18:02Z</time>
      </trkpt>
      <trkpt lat="44.45119" lon="4.96988">
        <ele>246.72</ele>
        <time>2015-09-06T06:18:03Z</time>
      </trkpt>
      <trkpt lat="44.45117" lon="4.96982">
        <ele>246.72</ele>
        <time>2015-09-06T06:18:04Z</time>
      </trkpt>
      <trkpt lat="44.45115" lon="4.96976">
        <ele>247.68</ele>
        <time>2015-09-06T06:18:05Z</time>
      </trkpt>
      <trkpt lat="44.45113" lon="4.96971">
        <ele>247.2</ele>
        <time>2015-09-06T06:18:06Z</time>
      </trkpt>
      <trkpt lat="44.4511" lon="4.96966">
        <ele>247.2</ele>
        <time>2015-09-06T06:18:07Z</time>
      </trkpt>
      <trkpt lat="44.45107" lon="4.96961">
        <ele>247.2</ele>
        <time>2015-09-06T06:18:08Z</time>
      </trkpt>
      <trkpt lat="44.45104" lon="4.96956">
        <ele>247.2</ele>
        <time>2015-09-06T06:18:09Z</time>
      </trkpt>
      <trkpt lat="44.45093" lon="4.9693">
        <ele>245.75</ele>
        <time>2015-09-06T06:18:13Z</time>
      </trkpt>
      <trkpt lat="44.4509" lon="4.96923">
        <ele>245.75</ele>
        <time>2015-09-06T06:18:14Z</time>
      </trkpt>
      <trkpt lat="44.45085" lon="4.9691">
        <ele>245.27</ele>
        <time>2015-09-06T06:18:16Z</time>
      </trkpt>
      <trkpt lat="44.45081" lon="4.96905">
        <ele>244.79</ele>
        <time>2015-09-06T06:18:17Z</time>
      </trkpt>
      <trkpt lat="44.45077" lon="4.96899">
        <ele>244.79</ele>
        <time>2015-09-06T06:18:18Z</time>
      </trkpt>
      <trkpt lat="44.45074" lon="4.96892">
        <ele>244.79</ele>
        <time>2015-09-06T06:18:19Z</time>
      </trkpt>
      <trkpt lat="44.45071" lon="4.96886">
        <ele>244.79</ele>
        <time>2015-09-06T06:18:20Z</time>
      </trkpt>
      <trkpt lat="44.45067" lon="4.9688">
        <ele>244.79</ele>
        <time>2015-09-06T06:18:21Z</time>
      </trkpt>
      <trkpt lat="44.45065" lon="4.96874">
        <ele>244.31</ele>
        <time>2015-09-06T06:18:22Z</time>
      </trkpt>
      <trkpt lat="44.45062" lon="4.96867">
        <ele>243.83</ele>
        <time>2015-09-06T06:18:23Z</time>
      </trkpt>
      <trkpt lat="44.45058" lon="4.96855">
        <ele>243.35</ele>
        <time>2015-09-06T06:18:25Z</time>
      </trkpt>
      <trkpt lat="44.45051" lon="4.96827">
        <ele>242.87</ele>
        <time>2015-09-06T06:18:29Z</time>
      </trkpt>
      <trkpt lat="44.45044" lon="4.96808">
        <ele>242.39</ele>
        <time>2015-09-06T06:18:32Z</time>
      </trkpt>
      <trkpt lat="44.45042" lon="4.96802">
        <ele>242.39</ele>
        <time>2015-09-06T06:18:33Z</time>
      </trkpt>
      <trkpt lat="44.4504" lon="4.96795">
        <ele>242.39</ele>
        <time>2015-09-06T06:18:34Z</time>
      </trkpt>
      <trkpt lat="44.45039" lon="4.96788">
        <ele>242.39</ele>
        <time>2015-09-06T06:18:35Z</time>
      </trkpt>
      <trkpt lat="44.45038" lon="4.96781">
        <ele>241.91</ele>
        <time>2015-09-06T06:18:36Z</time>
      </trkpt>
      <trkpt lat="44.45035" lon="4.96768">
        <ele>242.39</ele>
        <time>2015-09-06T06:18:38Z</time>
      </trkpt>
      <trkpt lat="44.45032" lon="4.96763">
        <ele>241.91</ele>
        <time>2015-09-06T06:18:39Z</time>
      </trkpt>
      <trkpt lat="44.45028" lon="4.9676">
        <ele>241.43</ele>
        <time>2015-09-06T06:18:40Z</time>
      </trkpt>
      <trkpt lat="44.4502" lon="4.96754">
        <ele>240.95</ele>
        <time>2015-09-06T06:18:42Z</time>
      </trkpt>
      <trkpt lat="44.45016" lon="4.96751">
        <ele>240.95</ele>
        <time>2015-09-06T06:18:43Z</time>
      </trkpt>
      <trkpt lat="44.4501" lon="4.96742">
        <ele>239.99</ele>
        <time>2015-09-06T06:18:45Z</time>
      </trkpt>
      <trkpt lat="44.45007" lon="4.96737">
        <ele>239.99</ele>
        <time>2015-09-06T06:18:46Z</time>
      </trkpt>
      <trkpt lat="44.45004" lon="4.96732">
        <ele>239.51</ele>
        <time>2015-09-06T06:18:47Z</time>
      </trkpt>
      <trkpt lat="44.45001" lon="4.96726">
        <ele>239.51</ele>
        <time>2015-09-06T06:18:48Z</time>
      </trkpt>
      <trkpt lat="44.44999" lon="4.9672">
        <ele>239.99</ele>
        <time>2015-09-06T06:18:49Z</time>
      </trkpt>
      <trkpt lat="44.44997" lon="4.96714">
        <ele>239.99</ele>
        <time>2015-09-06T06:18:50Z</time>
      </trkpt>
      <trkpt lat="44.44993" lon="4.967">
        <ele>239.02</ele>
        <time>2015-09-06T06:18:52Z</time>
      </trkpt>
      <trkpt lat="44.44985" lon="4.96681">
        <ele>238.54</ele>
        <time>2015-09-06T06:18:55Z</time>
      </trkpt>
      <trkpt lat="44.44982" lon="4.96676">
        <ele>239.02</ele>
        <time>2015-09-06T06:18:56Z</time>
      </trkpt>
      <trkpt lat="44.4498" lon="4.9667">
        <ele>238.54</ele>
        <time>2015-09-06T06:18:57Z</time>
      </trkpt>
      <trkpt lat="44.44977" lon="4.96666">
        <ele>238.54</ele>
        <time>2015-09-06T06:18:58Z</time>
      </trkpt>
      <trkpt lat="44.44974" lon="4.96663">
        <ele>238.54</ele>
        <time>2015-09-06T06:18:59Z</time>
      </trkpt>
      <trkpt lat="44.4497" lon="4.96663">
        <ele>238.54</ele>
        <time>2015-09-06T06:19:00Z</time>
      </trkpt>
      <trkpt lat="44.44965" lon="4.96664">
        <ele>238.54</ele>
        <time>2015-09-06T06:19:01Z</time>
      </trkpt>
      <trkpt lat="44.44925" lon="4.96672">
        <ele>239.51</ele>
        <time>2015-09-06T06:19:08Z</time>
      </trkpt>
      <trkpt lat="44.44921" lon="4.9667">
        <ele>239.51</ele>
        <time>2015-09-06T06:19:09Z</time>
      </trkpt>
      <trkpt lat="44.44917" lon="4.96665">
        <ele>239.51</ele>
        <time>2015-09-06T06:19:10Z</time>
      </trkpt>
      <trkpt lat="44.44916" lon="4.9666">
        <ele>239.99</ele>
        <time>2015-09-06T06:19:11Z</time>
      </trkpt>
      <trkpt lat="44.44915" lon="4.96655">
        <ele>239.51</ele>
        <time>2015-09-06T06:19:12Z</time>
      </trkpt>
      <trkpt lat="44.44915" lon="4.96649">
        <ele>239.51</ele>
        <time>2015-09-06T06:19:13Z</time>
      </trkpt>
      <trkpt lat="44.44915" lon="4.96643">
        <ele>239.02</ele>
        <time>2015-09-06T06:19:14Z</time>
      </trkpt>
      <trkpt lat="44.44915" lon="4.96636">
        <ele>238.54</ele>
        <time>2015-09-06T06:19:15Z</time>
      </trkpt>
      <trkpt lat="44.44915" lon="4.96629">
        <ele>238.54</ele>
        <time>2015-09-06T06:19:16Z</time>
      </trkpt>
      <trkpt lat="44.44914" lon="4.96622">
        <ele>238.06</ele>
        <time>2015-09-06T06:19:17Z</time>
      </trkpt>
      <trkpt lat="44.44912" lon="4.9658">
        <ele>238.06</ele>
        <time>2015-09-06T06:19:22Z</time>
      </trkpt>
      <trkpt lat="44.44911" lon="4.96572">
        <ele>238.06</ele>
        <time>2015-09-06T06:19:23Z</time>
      </trkpt>
      <trkpt lat="44.44896" lon="4.96517">
        <ele>237.1</ele>
        <time>2015-09-06T06:19:30Z</time>
      </trkpt>
      <trkpt lat="44.44891" lon="4.96505">
        <ele>237.1</ele>
        <time>2015-09-06T06:19:32Z</time>
      </trkpt>
      <trkpt lat="44.44888" lon="4.965">
        <ele>236.62</ele>
        <time>2015-09-06T06:19:33Z</time>
      </trkpt>
      <trkpt lat="44.4488" lon="4.96491">
        <ele>236.14</ele>
        <time>2015-09-06T06:19:36Z</time>
      </trkpt>
      <trkpt lat="44.44881" lon="4.96486">
        <ele>236.62</ele>
        <time>2015-09-06T06:19:37Z</time>
      </trkpt>
      <trkpt lat="44.44881" lon="4.96481">
        <ele>236.62</ele>
        <time>2015-09-06T06:19:38Z</time>
      </trkpt>
      <trkpt lat="44.44911" lon="4.96403">
        <ele>236.14</ele>
        <time>2015-09-06T06:19:50Z</time>
      </trkpt>
      <trkpt lat="44.44946" lon="4.96312">
        <ele>236.14</ele>
        <time>2015-09-06T06:20:06Z</time>
      </trkpt>
      <trkpt lat="44.44976" lon="4.96235">
        <ele>237.1</ele>
        <time>2015-09-06T06:20:22Z</time>
      </trkpt>
      <trkpt lat="44.44992" lon="4.96188">
        <ele>237.58</ele>
        <time>2015-09-06T06:20:30Z</time>
      </trkpt>
      <trkpt lat="44.44993" lon="4.9618">
        <ele>236.62</ele>
        <time>2015-09-06T06:20:31Z</time>
      </trkpt>
      <trkpt lat="44.44994" lon="4.96172">
        <ele>235.66</ele>
        <time>2015-09-06T06:20:32Z</time>
      </trkpt>
      <trkpt lat="44.44994" lon="4.96163">
        <ele>235.18</ele>
        <time>2015-09-06T06:20:33Z</time>
      </trkpt>
      <trkpt lat="44.44992" lon="4.96154">
        <ele>234.22</ele>
        <time>2015-09-06T06:20:34Z</time>
      </trkpt>
      <trkpt lat="44.4499" lon="4.96147">
        <ele>233.26</ele>
        <time>2015-09-06T06:20:35Z</time>
      </trkpt>
      <trkpt lat="44.4499" lon="4.96141">
        <ele>232.3</ele>
        <time>2015-09-06T06:20:36Z</time>
      </trkpt>
      <trkpt lat="44.44991" lon="4.96137">
        <ele>231.81</ele>
        <time>2015-09-06T06:20:37Z</time>
      </trkpt>
      <trkpt lat="44.44993" lon="4.96136">
        <ele>231.33</ele>
        <time>2015-09-06T06:20:38Z</time>
      </trkpt>
      <trkpt lat="44.44996" lon="4.96135">
        <ele>231.33</ele>
        <time>2015-09-06T06:20:39Z</time>
      </trkpt>
      <trkpt lat="44.44999" lon="4.96136">
        <ele>230.85</ele>
        <time>2015-09-06T06:20:40Z</time>
      </trkpt>
      <trkpt lat="44.45003" lon="4.96137">
        <ele>230.37</ele>
        <time>2015-09-06T06:20:41Z</time>
      </trkpt>
      <trkpt lat="44.45006" lon="4.96139">
        <ele>231.33</ele>
        <time>2015-09-06T06:20:42Z</time>
      </trkpt>
      <trkpt lat="44.45015" lon="4.96144">
        <ele>231.33</ele>
        <time>2015-09-06T06:20:44Z</time>
      </trkpt>
      <trkpt lat="44.4502" lon="4.96146">
        <ele>230.85</ele>
        <time>2015-09-06T06:20:45Z</time>
      </trkpt>
      <trkpt lat="44.45048" lon="4.96155">
        <ele>227.97</ele>
        <time>2015-09-06T06:20:50Z</time>
      </trkpt>
      <trkpt lat="44.45076" lon="4.96164">
        <ele>227.01</ele>
        <time>2015-09-06T06:20:55Z</time>
      </trkpt>
      <trkpt lat="44.45156" lon="4.96178">
        <ele>225.57</ele>
        <time>2015-09-06T06:21:09Z</time>
      </trkpt>
      <trkpt lat="44.4523" lon="4.96172">
        <ele>224.12</ele>
        <time>2015-09-06T06:21:22Z</time>
      </trkpt>
      <trkpt lat="44.45316" lon="4.9614">
        <ele>222.68</ele>
        <time>2015-09-06T06:21:37Z</time>
      </trkpt>
      <trkpt lat="44.45379" lon="4.96112">
        <ele>222.2</ele>
        <time>2015-09-06T06:21:50Z</time>
      </trkpt>
      <trkpt lat="44.45446" lon="4.96085">
        <ele>224.61</ele>
        <time>2015-09-06T06:22:07Z</time>
      </trkpt>
      <trkpt lat="44.45455" lon="4.9608">
        <ele>226.05</ele>
        <time>2015-09-06T06:22:10Z</time>
      </trkpt>
      <trkpt lat="44.45491" lon="4.96065">
        <ele>227.49</ele>
        <time>2015-09-06T06:22:21Z</time>
      </trkpt>
      <trkpt lat="44.45538" lon="4.96048">
        <ele>230.37</ele>
        <time>2015-09-06T06:22:33Z</time>
      </trkpt>
      <trkpt lat="44.45568" lon="4.96015">
        <ele>230.37</ele>
        <time>2015-09-06T06:22:44Z</time>
      </trkpt>
      <trkpt lat="44.45591" lon="4.95967">
        <ele>232.78</ele>
        <time>2015-09-06T06:22:56Z</time>
      </trkpt>
      <trkpt lat="44.45618" lon="4.9591">
        <ele>233.74</ele>
        <time>2015-09-06T06:23:09Z</time>
      </trkpt>
      <trkpt lat="44.45643" lon="4.95879">
        <ele>235.66</ele>
        <time>2015-09-06T06:23:19Z</time>
      </trkpt>
      <trkpt lat="44.45667" lon="4.95865">
        <ele>235.66</ele>
        <time>2015-09-06T06:23:26Z</time>
      </trkpt>
      <trkpt lat="44.45671" lon="4.95865">
        <ele>235.66</ele>
        <time>2015-09-06T06:23:27Z</time>
      </trkpt>
      <trkpt lat="44.45675" lon="4.95866">
        <ele>235.66</ele>
        <time>2015-09-06T06:23:28Z</time>
      </trkpt>
      <trkpt lat="44.45678" lon="4.95868">
        <ele>235.66</ele>
        <time>2015-09-06T06:23:29Z</time>
      </trkpt>
      <trkpt lat="44.45682" lon="4.9587">
        <ele>235.66</ele>
        <time>2015-09-06T06:23:30Z</time>
      </trkpt>
      <trkpt lat="44.45685" lon="4.95871">
        <ele>235.66</ele>
        <time>2015-09-06T06:23:31Z</time>
      </trkpt>
      <trkpt lat="44.45689" lon="4.95872">
        <ele>236.14</ele>
        <time>2015-09-06T06:23:32Z</time>
      </trkpt>
      <trkpt lat="44.45692" lon="4.95874">
        <ele>236.62</ele>
        <time>2015-09-06T06:23:33Z</time>
      </trkpt>
      <trkpt lat="44.45695" lon="4.95877">
        <ele>236.62</ele>
        <time>2015-09-06T06:23:34Z</time>
      </trkpt>
      <trkpt lat="44.45715" lon="4.95889">
        <ele>233.74</ele>
        <time>2015-09-06T06:23:39Z</time>
      </trkpt>
      <trkpt lat="44.45719" lon="4.95891">
        <ele>234.22</ele>
        <time>2015-09-06T06:23:40Z</time>
      </trkpt>
      <trkpt lat="44.45724" lon="4.95892">
        <ele>234.7</ele>
        <time>2015-09-06T06:23:41Z</time>
      </trkpt>
      <trkpt lat="44.45729" lon="4.95893">
        <ele>233.26</ele>
        <time>2015-09-06T06:23:42Z</time>
      </trkpt>
      <trkpt lat="44.45734" lon="4.95894">
        <ele>233.26</ele>
        <time>2015-09-06T06:23:43Z</time>
      </trkpt>
      <trkpt lat="44.4574" lon="4.95893">
        <ele>232.3</ele>
        <time>2015-09-06T06:23:44Z</time>
      </trkpt>
      <trkpt lat="44.45745" lon="4.9589">
        <ele>231.81</ele>
        <time>2015-09-06T06:23:45Z</time>
      </trkpt>
      <trkpt lat="44.4575" lon="4.95886">
        <ele>230.85</ele>
        <time>2015-09-06T06:23:46Z</time>
      </trkpt>
      <trkpt lat="44.45754" lon="4.9588">
        <ele>230.85</ele>
        <time>2015-09-06T06:23:47Z</time>
      </trkpt>
      <trkpt lat="44.45758" lon="4.95874">
        <ele>230.37</ele>
        <time>2015-09-06T06:23:48Z</time>
      </trkpt>
      <trkpt lat="44.45772" lon="4.95847">
        <ele>228.45</ele>
        <time>2015-09-06T06:23:52Z</time>
      </trkpt>
      <trkpt lat="44.45774" lon="4.95839">
        <ele>228.45</ele>
        <time>2015-09-06T06:23:53Z</time>
      </trkpt>
      <trkpt lat="44.45774" lon="4.95831">
        <ele>227.97</ele>
        <time>2015-09-06T06:23:54Z</time>
      </trkpt>
      <trkpt lat="44.45773" lon="4.95823">
        <ele>227.97</ele>
        <time>2015-09-06T06:23:55Z</time>
      </trkpt>
      <trkpt lat="44.45771" lon="4.95816">
        <ele>228.93</ele>
        <time>2015-09-06T06:23:56Z</time>
      </trkpt>
      <trkpt lat="44.45769" lon="4.95808">
        <ele>228.93</ele>
        <time>2015-09-06T06:23:57Z</time>
      </trkpt>
      <trkpt lat="44.45735" lon="4.95703">
        <ele>228.93</ele>
        <time>2015-09-06T06:24:11Z</time>
      </trkpt>
      <trkpt lat="44.45718" lon="4.95659">
        <ele>228.45</ele>
        <time>2015-09-06T06:24:18Z</time>
      </trkpt>
      <trkpt lat="44.45716" lon="4.95653">
        <ele>228.45</ele>
        <time>2015-09-06T06:24:19Z</time>
      </trkpt>
      <trkpt lat="44.45708" lon="4.95625">
        <ele>230.37</ele>
        <time>2015-09-06T06:24:25Z</time>
      </trkpt>
      <trkpt lat="44.45708" lon="4.95623">
        <ele>230.85</ele>
        <time>2015-09-06T06:24:26Z</time>
      </trkpt>
      <trkpt lat="44.45709" lon="4.95622">
        <ele>231.81</ele>
        <time>2015-09-06T06:24:27Z</time>
      </trkpt>
      <trkpt lat="44.4571" lon="4.95622">
        <ele>232.3</ele>
        <time>2015-09-06T06:24:28Z</time>
      </trkpt>
      <trkpt lat="44.45711" lon="4.95622">
        <ele>232.3</ele>
        <time>2015-09-06T06:24:29Z</time>
      </trkpt>
      <trkpt lat="44.45714" lon="4.95623">
        <ele>232.78</ele>
        <time>2015-09-06T06:24:30Z</time>
      </trkpt>
      <trkpt lat="44.45716" lon="4.95623">
        <ele>232.78</ele>
        <time>2015-09-06T06:24:31Z</time>
      </trkpt>
      <trkpt lat="44.45719" lon="4.95624">
        <ele>232.78</ele>
        <time>2015-09-06T06:24:32Z</time>
      </trkpt>
      <trkpt lat="44.45754" lon="4.95625">
        <ele>234.7</ele>
        <time>2015-09-06T06:24:43Z</time>
      </trkpt>
      <trkpt lat="44.45791" lon="4.95618">
        <ele>238.06</ele>
        <time>2015-09-06T06:24:54Z</time>
      </trkpt>
      <trkpt lat="44.45832" lon="4.95604">
        <ele>238.54</ele>
        <time>2015-09-06T06:25:08Z</time>
      </trkpt>
      <trkpt lat="44.45888" lon="4.95586">
        <ele>239.99</ele>
        <time>2015-09-06T06:25:24Z</time>
      </trkpt>
      <trkpt lat="44.45931" lon="4.95561">
        <ele>241.91</ele>
        <time>2015-09-06T06:25:39Z</time>
      </trkpt>
      <trkpt lat="44.4597" lon="4.95532">
        <ele>244.79</ele>
        <time>2015-09-06T06:25:54Z</time>
      </trkpt>
      <trkpt lat="44.45993" lon="4.95509">
        <ele>247.68</ele>
        <time>2015-09-06T06:26:06Z</time>
      </trkpt>
      <trkpt lat="44.46018" lon="4.9549">
        <ele>250.56</ele>
        <time>2015-09-06T06:26:18Z</time>
      </trkpt>
      <trkpt lat="44.46029" lon="4.95472">
        <ele>252</ele>
        <time>2015-09-06T06:26:25Z</time>
      </trkpt>
      <trkpt lat="44.4603" lon="4.95471">
        <ele>252.48</ele>
        <time>2015-09-06T06:26:26Z</time>
      </trkpt>
      <trkpt lat="44.46032" lon="4.95469">
        <ele>252</ele>
        <time>2015-09-06T06:26:27Z</time>
      </trkpt>
      <trkpt lat="44.46057" lon="4.95445">
        <ele>255.37</ele>
        <time>2015-09-06T06:26:39Z</time>
      </trkpt>
      <trkpt lat="44.4609" lon="4.95432">
        <ele>254.41</ele>
        <time>2015-09-06T06:26:50Z</time>
      </trkpt>
      <trkpt lat="44.46132" lon="4.95434">
        <ele>254.89</ele>
        <time>2015-09-06T06:27:02Z</time>
      </trkpt>
      <trkpt lat="44.46136" lon="4.95436">
        <ele>254.89</ele>
        <time>2015-09-06T06:27:03Z</time>
      </trkpt>
      <trkpt lat="44.46148" lon="4.95444">
        <ele>254.41</ele>
        <time>2015-09-06T06:27:06Z</time>
      </trkpt>
      <trkpt lat="44.46151" lon="4.95447">
        <ele>254.89</ele>
        <time>2015-09-06T06:27:07Z</time>
      </trkpt>
      <trkpt lat="44.46155" lon="4.9545">
        <ele>255.37</ele>
        <time>2015-09-06T06:27:08Z</time>
      </trkpt>
      <trkpt lat="44.46159" lon="4.95451">
        <ele>254.89</ele>
        <time>2015-09-06T06:27:09Z</time>
      </trkpt>
      <trkpt lat="44.46163" lon="4.95452">
        <ele>255.37</ele>
        <time>2015-09-06T06:27:10Z</time>
      </trkpt>
      <trkpt lat="44.46219" lon="4.95468">
        <ele>255.85</ele>
        <time>2015-09-06T06:27:26Z</time>
      </trkpt>
      <trkpt lat="44.46262" lon="4.95492">
        <ele>257.29</ele>
        <time>2015-09-06T06:27:41Z</time>
      </trkpt>
      <trkpt lat="44.46273" lon="4.95499">
        <ele>256.81</ele>
        <time>2015-09-06T06:27:44Z</time>
      </trkpt>
      <trkpt lat="44.46277" lon="4.95502">
        <ele>257.29</ele>
        <time>2015-09-06T06:27:45Z</time>
      </trkpt>
      <trkpt lat="44.4628" lon="4.95505">
        <ele>257.29</ele>
        <time>2015-09-06T06:27:46Z</time>
      </trkpt>
      <trkpt lat="44.46294" lon="4.95519">
        <ele>257.77</ele>
        <time>2015-09-06T06:27:50Z</time>
      </trkpt>
      <trkpt lat="44.46296" lon="4.95524">
        <ele>257.77</ele>
        <time>2015-09-06T06:27:51Z</time>
      </trkpt>
      <trkpt lat="44.46307" lon="4.95541">
        <ele>258.25</ele>
        <time>2015-09-06T06:27:55Z</time>
      </trkpt>
      <trkpt lat="44.46309" lon="4.95545">
        <ele>258.25</ele>
        <time>2015-09-06T06:27:56Z</time>
      </trkpt>
      <trkpt lat="44.46347" lon="4.95591">
        <ele>259.69</ele>
        <time>2015-09-06T06:28:10Z</time>
      </trkpt>
      <trkpt lat="44.46355" lon="4.956">
        <ele>261.14</ele>
        <time>2015-09-06T06:28:13Z</time>
      </trkpt>
      <trkpt lat="44.46398" lon="4.95642">
        <ele>262.1</ele>
        <time>2015-09-06T06:28:28Z</time>
      </trkpt>
      <trkpt lat="44.46427" lon="4.95666">
        <ele>264.02</ele>
        <time>2015-09-06T06:28:39Z</time>
      </trkpt>
      <trkpt lat="44.46462" lon="4.95659">
        <ele>266.9</ele>
        <time>2015-09-06T06:28:52Z</time>
      </trkpt>
      <trkpt lat="44.46478" lon="4.95627">
        <ele>268.35</ele>
        <time>2015-09-06T06:29:03Z</time>
      </trkpt>
      <trkpt lat="44.46497" lon="4.95568">
        <ele>269.31</ele>
        <time>2015-09-06T06:29:17Z</time>
      </trkpt>
      <trkpt lat="44.46511" lon="4.95497">
        <ele>268.83</ele>
        <time>2015-09-06T06:29:30Z</time>
      </trkpt>
      <trkpt lat="44.46513" lon="4.95494">
        <ele>268.35</ele>
        <time>2015-09-06T06:29:31Z</time>
      </trkpt>
      <trkpt lat="44.46515" lon="4.95493">
        <ele>268.35</ele>
        <time>2015-09-06T06:29:32Z</time>
      </trkpt>
      <trkpt lat="44.46516" lon="4.95491">
        <ele>268.83</ele>
        <time>2015-09-06T06:29:33Z</time>
      </trkpt>
      <trkpt lat="44.46518" lon="4.9549">
        <ele>268.83</ele>
        <time>2015-09-06T06:29:34Z</time>
      </trkpt>
      <trkpt lat="44.4652" lon="4.95489">
        <ele>269.31</ele>
        <time>2015-09-06T06:29:35Z</time>
      </trkpt>
      <trkpt lat="44.46522" lon="4.95489">
        <ele>269.79</ele>
        <time>2015-09-06T06:29:36Z</time>
      </trkpt>
      <trkpt lat="44.46523" lon="4.95488">
        <ele>269.79</ele>
        <time>2015-09-06T06:29:37Z</time>
      </trkpt>
      <trkpt lat="44.46525" lon="4.95489">
        <ele>269.79</ele>
        <time>2015-09-06T06:29:38Z</time>
      </trkpt>
      <trkpt lat="44.46527" lon="4.95489">
        <ele>270.27</ele>
        <time>2015-09-06T06:29:39Z</time>
      </trkpt>
      <trkpt lat="44.46529" lon="4.95489">
        <ele>270.75</ele>
        <time>2015-09-06T06:29:40Z</time>
      </trkpt>
      <trkpt lat="44.46531" lon="4.9549">
        <ele>271.71</ele>
        <time>2015-09-06T06:29:41Z</time>
      </trkpt>
      <trkpt lat="44.46566" lon="4.95501">
        <ele>274.59</ele>
        <time>2015-09-06T06:29:55Z</time>
      </trkpt>
      <trkpt lat="44.46588" lon="4.95513">
        <ele>277.96</ele>
        <time>2015-09-06T06:30:06Z</time>
      </trkpt>
      <trkpt lat="44.46621" lon="4.95529">
        <ele>280.84</ele>
        <time>2015-09-06T06:30:20Z</time>
      </trkpt>
      <trkpt lat="44.4665" lon="4.95539">
        <ele>284.21</ele>
        <time>2015-09-06T06:30:32Z</time>
      </trkpt>
      <trkpt lat="44.46679" lon="4.95552">
        <ele>286.61</ele>
        <time>2015-09-06T06:30:48Z</time>
      </trkpt>
      <trkpt lat="44.46687" lon="4.95554">
        <ele>288.53</ele>
        <time>2015-09-06T06:30:53Z</time>
      </trkpt>
      <trkpt lat="44.46714" lon="4.95568">
        <ele>290.94</ele>
        <time>2015-09-06T06:31:11Z</time>
      </trkpt>
      <trkpt lat="44.46728" lon="4.95574">
        <ele>293.82</ele>
        <time>2015-09-06T06:31:19Z</time>
      </trkpt>
      <trkpt lat="44.46751" lon="4.95586">
        <ele>297.18</ele>
        <time>2015-09-06T06:31:34Z</time>
      </trkpt>
      <trkpt lat="44.46768" lon="4.95597">
        <ele>300.07</ele>
        <time>2015-09-06T06:31:45Z</time>
      </trkpt>
      <trkpt lat="44.46777" lon="4.95605">
        <ele>301.51</ele>
        <time>2015-09-06T06:31:52Z</time>
      </trkpt>
      <trkpt lat="44.46779" lon="4.95606">
        <ele>301.99</ele>
        <time>2015-09-06T06:31:53Z</time>
      </trkpt>
      <trkpt lat="44.46781" lon="4.95607">
        <ele>301.99</ele>
        <time>2015-09-06T06:31:54Z</time>
      </trkpt>
      <trkpt lat="44.46782" lon="4.95608">
        <ele>301.99</ele>
        <time>2015-09-06T06:31:55Z</time>
      </trkpt>
      <trkpt lat="44.46783" lon="4.95609">
        <ele>302.47</ele>
        <time>2015-09-06T06:31:56Z</time>
      </trkpt>
      <trkpt lat="44.46785" lon="4.9561">
        <ele>303.43</ele>
        <time>2015-09-06T06:31:57Z</time>
      </trkpt>
      <trkpt lat="44.46799" lon="4.95618">
        <ele>306.8</ele>
        <time>2015-09-06T06:32:06Z</time>
      </trkpt>
      <trkpt lat="44.46812" lon="4.95643">
        <ele>307.28</ele>
        <time>2015-09-06T06:32:18Z</time>
      </trkpt>
      <trkpt lat="44.46816" lon="4.95687">
        <ele>307.28</ele>
        <time>2015-09-06T06:32:29Z</time>
      </trkpt>
      <trkpt lat="44.46818" lon="4.95689">
        <ele>307.28</ele>
        <time>2015-09-06T06:32:30Z</time>
      </trkpt>
      <trkpt lat="44.46821" lon="4.95691">
        <ele>307.28</ele>
        <time>2015-09-06T06:32:31Z</time>
      </trkpt>
      <trkpt lat="44.46854" lon="4.95704">
        <ele>308.24</ele>
        <time>2015-09-06T06:32:42Z</time>
      </trkpt>
      <trkpt lat="44.46882" lon="4.95707">
        <ele>308.24</ele>
        <time>2015-09-06T06:32:53Z</time>
      </trkpt>
      <trkpt lat="44.46884" lon="4.95703">
        <ele>308.24</ele>
        <time>2015-09-06T06:32:54Z</time>
      </trkpt>
      <trkpt lat="44.46885" lon="4.95699">
        <ele>308.24</ele>
        <time>2015-09-06T06:32:55Z</time>
      </trkpt>
      <trkpt lat="44.46885" lon="4.95695">
        <ele>308.72</ele>
        <time>2015-09-06T06:32:56Z</time>
      </trkpt>
      <trkpt lat="44.46884" lon="4.9569">
        <ele>308.72</ele>
        <time>2015-09-06T06:32:57Z</time>
      </trkpt>
      <trkpt lat="44.46891" lon="4.9564">
        <ele>309.2</ele>
        <time>2015-09-06T06:33:09Z</time>
      </trkpt>
      <trkpt lat="44.4692" lon="4.95628">
        <ele>309.2</ele>
        <time>2015-09-06T06:33:20Z</time>
      </trkpt>
      <trkpt lat="44.46959" lon="4.95626">
        <ele>312.09</ele>
        <time>2015-09-06T06:33:33Z</time>
      </trkpt>
      <trkpt lat="44.47009" lon="4.95623">
        <ele>313.53</ele>
        <time>2015-09-06T06:33:48Z</time>
      </trkpt>
      <trkpt lat="44.47027" lon="4.95617">
        <ele>314.01</ele>
        <time>2015-09-06T06:33:52Z</time>
      </trkpt>
      <trkpt lat="44.47032" lon="4.95613">
        <ele>313.53</ele>
        <time>2015-09-06T06:33:53Z</time>
      </trkpt>
      <trkpt lat="44.47073" lon="4.95564">
        <ele>311.12</ele>
        <time>2015-09-06T06:34:02Z</time>
      </trkpt>
      <trkpt lat="44.47078" lon="4.95559">
        <ele>311.12</ele>
        <time>2015-09-06T06:34:03Z</time>
      </trkpt>
      <trkpt lat="44.47087" lon="4.9555">
        <ele>311.12</ele>
        <time>2015-09-06T06:34:05Z</time>
      </trkpt>
      <trkpt lat="44.47092" lon="4.95546">
        <ele>311.12</ele>
        <time>2015-09-06T06:34:06Z</time>
      </trkpt>
      <trkpt lat="44.47101" lon="4.9554">
        <ele>310.64</ele>
        <time>2015-09-06T06:34:08Z</time>
      </trkpt>
      <trkpt lat="44.47105" lon="4.95536">
        <ele>310.64</ele>
        <time>2015-09-06T06:34:09Z</time>
      </trkpt>
      <trkpt lat="44.47107" lon="4.95531">
        <ele>309.68</ele>
        <time>2015-09-06T06:34:10Z</time>
      </trkpt>
      <trkpt lat="44.47108" lon="4.95524">
        <ele>310.16</ele>
        <time>2015-09-06T06:34:11Z</time>
      </trkpt>
      <trkpt lat="44.47106" lon="4.95517">
        <ele>309.68</ele>
        <time>2015-09-06T06:34:12Z</time>
      </trkpt>
      <trkpt lat="44.47105" lon="4.95511">
        <ele>310.16</ele>
        <time>2015-09-06T06:34:13Z</time>
      </trkpt>
      <trkpt lat="44.47103" lon="4.95505">
        <ele>310.64</ele>
        <time>2015-09-06T06:34:14Z</time>
      </trkpt>
      <trkpt lat="44.47097" lon="4.95479">
        <ele>312.09</ele>
        <time>2015-09-06T06:34:19Z</time>
      </trkpt>
      <trkpt lat="44.47098" lon="4.95474">
        <ele>312.09</ele>
        <time>2015-09-06T06:34:20Z</time>
      </trkpt>
      <trkpt lat="44.471" lon="4.9547">
        <ele>312.57</ele>
        <time>2015-09-06T06:34:21Z</time>
      </trkpt>
      <trkpt lat="44.47101" lon="4.95466">
        <ele>313.05</ele>
        <time>2015-09-06T06:34:22Z</time>
      </trkpt>
      <trkpt lat="44.47103" lon="4.95461">
        <ele>313.53</ele>
        <time>2015-09-06T06:34:23Z</time>
      </trkpt>
      <trkpt lat="44.47114" lon="4.95433">
        <ele>316.89</ele>
        <time>2015-09-06T06:34:30Z</time>
      </trkpt>
      <trkpt lat="44.47119" lon="4.95385">
        <ele>319.3</ele>
        <time>2015-09-06T06:34:41Z</time>
      </trkpt>
      <trkpt lat="44.47105" lon="4.95339">
        <ele>322.66</ele>
        <time>2015-09-06T06:34:51Z</time>
      </trkpt>
      <trkpt lat="44.47094" lon="4.95295">
        <ele>326.02</ele>
        <time>2015-09-06T06:35:02Z</time>
      </trkpt>
      <trkpt lat="44.47103" lon="4.95261">
        <ele>327.95</ele>
        <time>2015-09-06T06:35:14Z</time>
      </trkpt>
      <trkpt lat="44.47126" lon="4.95258">
        <ele>330.83</ele>
        <time>2015-09-06T06:35:25Z</time>
      </trkpt>
      <trkpt lat="44.4716" lon="4.95263">
        <ele>332.27</ele>
        <time>2015-09-06T06:35:39Z</time>
      </trkpt>
      <trkpt lat="44.47196" lon="4.95258">
        <ele>334.68</ele>
        <time>2015-09-06T06:35:53Z</time>
      </trkpt>
      <trkpt lat="44.47219" lon="4.95218">
        <ele>334.68</ele>
        <time>2015-09-06T06:36:05Z</time>
      </trkpt>
      <trkpt lat="44.4723" lon="4.95183">
        <ele>333.71</ele>
        <time>2015-09-06T06:36:13Z</time>
      </trkpt>
      <trkpt lat="44.47264" lon="4.95152">
        <ele>334.68</ele>
        <time>2015-09-06T06:36:23Z</time>
      </trkpt>
      <trkpt lat="44.47308" lon="4.9514">
        <ele>335.16</ele>
        <time>2015-09-06T06:36:37Z</time>
      </trkpt>
      <trkpt lat="44.47348" lon="4.95134">
        <ele>336.6</ele>
        <time>2015-09-06T06:36:50Z</time>
      </trkpt>
      <trkpt lat="44.47382" lon="4.95129">
        <ele>337.56</ele>
        <time>2015-09-06T06:37:01Z</time>
      </trkpt>
      <trkpt lat="44.47385" lon="4.95126">
        <ele>337.56</ele>
        <time>2015-09-06T06:37:02Z</time>
      </trkpt>
      <trkpt lat="44.47387" lon="4.95115">
        <ele>339.96</ele>
        <time>2015-09-06T06:37:07Z</time>
      </trkpt>
      <trkpt lat="44.47382" lon="4.95077">
        <ele>342.85</ele>
        <time>2015-09-06T06:37:19Z</time>
      </trkpt>
      <trkpt lat="44.47389" lon="4.95039">
        <ele>343.81</ele>
        <time>2015-09-06T06:37:31Z</time>
      </trkpt>
      <trkpt lat="44.47385" lon="4.9501">
        <ele>344.77</ele>
        <time>2015-09-06T06:37:40Z</time>
      </trkpt>
      <trkpt lat="44.47392" lon="4.94985">
        <ele>346.69</ele>
        <time>2015-09-06T06:37:53Z</time>
      </trkpt>
      <trkpt lat="44.47396" lon="4.94982">
        <ele>347.65</ele>
        <time>2015-09-06T06:37:57Z</time>
      </trkpt>
      <trkpt lat="44.47405" lon="4.94977">
        <ele>348.62</ele>
        <time>2015-09-06T06:38:02Z</time>
      </trkpt>
      <trkpt lat="44.47421" lon="4.9496">
        <ele>351.02</ele>
        <time>2015-09-06T06:38:12Z</time>
      </trkpt>
      <trkpt lat="44.47436" lon="4.94938">
        <ele>352.46</ele>
        <time>2015-09-06T06:38:19Z</time>
      </trkpt>
      <trkpt lat="44.47449" lon="4.94906">
        <ele>354.38</ele>
        <time>2015-09-06T06:38:31Z</time>
      </trkpt>
      <trkpt lat="44.47452" lon="4.9487">
        <ele>355.83</ele>
        <time>2015-09-06T06:38:42Z</time>
      </trkpt>
      <trkpt lat="44.47456" lon="4.94852">
        <ele>356.79</ele>
        <time>2015-09-06T06:38:49Z</time>
      </trkpt>
      <trkpt lat="44.47458" lon="4.94845">
        <ele>358.23</ele>
        <time>2015-09-06T06:38:52Z</time>
      </trkpt>
      <trkpt lat="44.47463" lon="4.94827">
        <ele>360.63</ele>
        <time>2015-09-06T06:39:00Z</time>
      </trkpt>
      <trkpt lat="44.47469" lon="4.94823">
        <ele>361.59</ele>
        <time>2015-09-06T06:39:04Z</time>
      </trkpt>
      <trkpt lat="44.47476" lon="4.94817">
        <ele>362.07</ele>
        <time>2015-09-06T06:39:08Z</time>
      </trkpt>
      <trkpt lat="44.47483" lon="4.94808">
        <ele>363.52</ele>
        <time>2015-09-06T06:39:14Z</time>
      </trkpt>
      <trkpt lat="44.47493" lon="4.94797">
        <ele>364</ele>
        <time>2015-09-06T06:39:22Z</time>
      </trkpt>
      <trkpt lat="44.47502" lon="4.9479">
        <ele>365.44</ele>
        <time>2015-09-06T06:39:28Z</time>
      </trkpt>
      <trkpt lat="44.47513" lon="4.94791">
        <ele>364.48</ele>
        <time>2015-09-06T06:39:35Z</time>
      </trkpt>
      <trkpt lat="44.47542" lon="4.94818">
        <ele>366.4</ele>
        <time>2015-09-06T06:39:50Z</time>
      </trkpt>
      <trkpt lat="44.47572" lon="4.94831">
        <ele>367.36</ele>
        <time>2015-09-06T06:40:04Z</time>
      </trkpt>
      <trkpt lat="44.47596" lon="4.9484">
        <ele>370.24</ele>
        <time>2015-09-06T06:40:15Z</time>
      </trkpt>
      <trkpt lat="44.47608" lon="4.94846">
        <ele>371.69</ele>
        <time>2015-09-06T06:40:20Z</time>
      </trkpt>
      <trkpt lat="44.47629" lon="4.94861">
        <ele>373.61</ele>
        <time>2015-09-06T06:40:31Z</time>
      </trkpt>
      <trkpt lat="44.47656" lon="4.94873">
        <ele>376.49</ele>
        <time>2015-09-06T06:40:46Z</time>
      </trkpt>
      <trkpt lat="44.47679" lon="4.94886">
        <ele>378.9</ele>
        <time>2015-09-06T06:41:00Z</time>
      </trkpt>
      <trkpt lat="44.47685" lon="4.94889">
        <ele>380.82</ele>
        <time>2015-09-06T06:41:03Z</time>
      </trkpt>
      <trkpt lat="44.47695" lon="4.94891">
        <ele>380.82</ele>
        <time>2015-09-06T06:41:08Z</time>
      </trkpt>
      <trkpt lat="44.47725" lon="4.94903">
        <ele>383.22</ele>
        <time>2015-09-06T06:41:25Z</time>
      </trkpt>
      <trkpt lat="44.47748" lon="4.94916">
        <ele>386.11</ele>
        <time>2015-09-06T06:41:38Z</time>
      </trkpt>
      <trkpt lat="44.47769" lon="4.94934">
        <ele>387.55</ele>
        <time>2015-09-06T06:41:50Z</time>
      </trkpt>
      <trkpt lat="44.47791" lon="4.94953">
        <ele>388.99</ele>
        <time>2015-09-06T06:42:03Z</time>
      </trkpt>
      <trkpt lat="44.47796" lon="4.94958">
        <ele>389.95</ele>
        <time>2015-09-06T06:42:06Z</time>
      </trkpt>
      <trkpt lat="44.47806" lon="4.94963">
        <ele>390.91</ele>
        <time>2015-09-06T06:42:12Z</time>
      </trkpt>
      <trkpt lat="44.47818" lon="4.94969">
        <ele>391.39</ele>
        <time>2015-09-06T06:42:20Z</time>
      </trkpt>
      <trkpt lat="44.47824" lon="4.94971">
        <ele>393.32</ele>
        <time>2015-09-06T06:42:24Z</time>
      </trkpt>
      <trkpt lat="44.47848" lon="4.94982">
        <ele>394.28</ele>
        <time>2015-09-06T06:42:38Z</time>
      </trkpt>
      <trkpt lat="44.47872" lon="4.94991">
        <ele>397.64</ele>
        <time>2015-09-06T06:42:51Z</time>
      </trkpt>
      <trkpt lat="44.47891" lon="4.94996">
        <ele>398.6</ele>
        <time>2015-09-06T06:43:01Z</time>
      </trkpt>
      <trkpt lat="44.47899" lon="4.94998">
        <ele>400.05</ele>
        <time>2015-09-06T06:43:05Z</time>
      </trkpt>
      <trkpt lat="44.47922" lon="4.95006">
        <ele>401.97</ele>
        <time>2015-09-06T06:43:18Z</time>
      </trkpt>
      <trkpt lat="44.47936" lon="4.95016">
        <ele>404.85</ele>
        <time>2015-09-06T06:43:28Z</time>
      </trkpt>
      <trkpt lat="44.47953" lon="4.95029">
        <ele>408.22</ele>
        <time>2015-09-06T06:43:39Z</time>
      </trkpt>
      <trkpt lat="44.47955" lon="4.95031">
        <ele>407.74</ele>
        <time>2015-09-06T06:43:40Z</time>
      </trkpt>
      <trkpt lat="44.47975" lon="4.95043">
        <ele>409.18</ele>
        <time>2015-09-06T06:43:52Z</time>
      </trkpt>
      <trkpt lat="44.47987" lon="4.95049">
        <ele>413.02</ele>
        <time>2015-09-06T06:43:59Z</time>
      </trkpt>
      <trkpt lat="44.47989" lon="4.9505">
        <ele>412.54</ele>
        <time>2015-09-06T06:44:00Z</time>
      </trkpt>
      <trkpt lat="44.48005" lon="4.95052">
        <ele>412.54</ele>
        <time>2015-09-06T06:44:08Z</time>
      </trkpt>
      <trkpt lat="44.4803" lon="4.95054">
        <ele>413.5</ele>
        <time>2015-09-06T06:44:21Z</time>
      </trkpt>
      <trkpt lat="44.48056" lon="4.95064">
        <ele>415.91</ele>
        <time>2015-09-06T06:44:32Z</time>
      </trkpt>
      <trkpt lat="44.48078" lon="4.9507">
        <ele>417.83</ele>
        <time>2015-09-06T06:44:45Z</time>
      </trkpt>
      <trkpt lat="44.4808" lon="4.95071">
        <ele>418.31</ele>
        <time>2015-09-06T06:44:46Z</time>
      </trkpt>
      <trkpt lat="44.48088" lon="4.95074">
        <ele>418.79</ele>
        <time>2015-09-06T06:44:51Z</time>
      </trkpt>
      <trkpt lat="44.48102" lon="4.95088">
        <ele>421.19</ele>
        <time>2015-09-06T06:45:01Z</time>
      </trkpt>
      <trkpt lat="44.48104" lon="4.95089">
        <ele>421.19</ele>
        <time>2015-09-06T06:45:02Z</time>
      </trkpt>
      <trkpt lat="44.48133" lon="4.95111">
        <ele>424.56</ele>
        <time>2015-09-06T06:45:21Z</time>
      </trkpt>
      <trkpt lat="44.48147" lon="4.95118">
        <ele>425.52</ele>
        <time>2015-09-06T06:45:29Z</time>
      </trkpt>
      <trkpt lat="44.48162" lon="4.95128">
        <ele>427.44</ele>
        <time>2015-09-06T06:45:38Z</time>
      </trkpt>
      <trkpt lat="44.48166" lon="4.95131">
        <ele>429.37</ele>
        <time>2015-09-06T06:45:41Z</time>
      </trkpt>
      <trkpt lat="44.48196" lon="4.95138">
        <ele>431.29</ele>
        <time>2015-09-06T06:45:58Z</time>
      </trkpt>
      <trkpt lat="44.48215" lon="4.95149">
        <ele>434.17</ele>
        <time>2015-09-06T06:46:12Z</time>
      </trkpt>
      <trkpt lat="44.48224" lon="4.95155">
        <ele>435.61</ele>
        <time>2015-09-06T06:46:19Z</time>
      </trkpt>
      <trkpt lat="44.48231" lon="4.95161">
        <ele>435.61</ele>
        <time>2015-09-06T06:46:24Z</time>
      </trkpt>
      <trkpt lat="44.48236" lon="4.95167">
        <ele>437.06</ele>
        <time>2015-09-06T06:46:29Z</time>
      </trkpt>
      <trkpt lat="44.48249" lon="4.95175">
        <ele>439.94</ele>
        <time>2015-09-06T06:46:37Z</time>
      </trkpt>
      <trkpt lat="44.48271" lon="4.95183">
        <ele>441.86</ele>
        <time>2015-09-06T06:46:49Z</time>
      </trkpt>
      <trkpt lat="44.48303" lon="4.95184">
        <ele>443.31</ele>
        <time>2015-09-06T06:47:07Z</time>
      </trkpt>
      <trkpt lat="44.48326" lon="4.95189">
        <ele>445.71</ele>
        <time>2015-09-06T06:47:22Z</time>
      </trkpt>
      <trkpt lat="44.48348" lon="4.95197">
        <ele>448.59</ele>
        <time>2015-09-06T06:47:35Z</time>
      </trkpt>
      <trkpt lat="44.48369" lon="4.95205">
        <ele>451</ele>
        <time>2015-09-06T06:47:47Z</time>
      </trkpt>
      <trkpt lat="44.48391" lon="4.95221">
        <ele>454.36</ele>
        <time>2015-09-06T06:48:01Z</time>
      </trkpt>
      <trkpt lat="44.48393" lon="4.95222">
        <ele>454.36</ele>
        <time>2015-09-06T06:48:02Z</time>
      </trkpt>
      <trkpt lat="44.48415" lon="4.95244">
        <ele>455.8</ele>
        <time>2015-09-06T06:48:17Z</time>
      </trkpt>
      <trkpt lat="44.48441" lon="4.95271">
        <ele>457.24</ele>
        <time>2015-09-06T06:48:32Z</time>
      </trkpt>
      <trkpt lat="44.48458" lon="4.95296">
        <ele>458.21</ele>
        <time>2015-09-06T06:48:44Z</time>
      </trkpt>
      <trkpt lat="44.4848" lon="4.95318">
        <ele>460.13</ele>
        <time>2015-09-06T06:48:56Z</time>
      </trkpt>
      <trkpt lat="44.48508" lon="4.9533">
        <ele>461.57</ele>
        <time>2015-09-06T06:49:08Z</time>
      </trkpt>
      <trkpt lat="44.48514" lon="4.9533">
        <ele>463.01</ele>
        <time>2015-09-06T06:49:11Z</time>
      </trkpt>
      <trkpt lat="44.48519" lon="4.9533">
        <ele>462.05</ele>
        <time>2015-09-06T06:49:13Z</time>
      </trkpt>
      <trkpt lat="44.48549" lon="4.95339">
        <ele>464.93</ele>
        <time>2015-09-06T06:49:26Z</time>
      </trkpt>
      <trkpt lat="44.48559" lon="4.95341">
        <ele>466.38</ele>
        <time>2015-09-06T06:49:31Z</time>
      </trkpt>
      <trkpt lat="44.48568" lon="4.95347">
        <ele>467.82</ele>
        <time>2015-09-06T06:49:37Z</time>
      </trkpt>
      <trkpt lat="44.48571" lon="4.95349">
        <ele>468.78</ele>
        <time>2015-09-06T06:49:39Z</time>
      </trkpt>
      <trkpt lat="44.48577" lon="4.95355">
        <ele>468.78</ele>
        <time>2015-09-06T06:49:43Z</time>
      </trkpt>
      <trkpt lat="44.48602" lon="4.95382">
        <ele>471.66</ele>
        <time>2015-09-06T06:49:59Z</time>
      </trkpt>
      <trkpt lat="44.48603" lon="4.95383">
        <ele>472.14</ele>
        <time>2015-09-06T06:50:00Z</time>
      </trkpt>
      <trkpt lat="44.48607" lon="4.95386">
        <ele>472.14</ele>
        <time>2015-09-06T06:50:02Z</time>
      </trkpt>
      <trkpt lat="44.48611" lon="4.95394">
        <ele>473.11</ele>
        <time>2015-09-06T06:50:06Z</time>
      </trkpt>
      <trkpt lat="44.48623" lon="4.9541">
        <ele>473.59</ele>
        <time>2015-09-06T06:50:14Z</time>
      </trkpt>
      <trkpt lat="44.48629" lon="4.95413">
        <ele>473.11</ele>
        <time>2015-09-06T06:50:27Z</time>
      </trkpt>
      <trkpt lat="44.48631" lon="4.95413">
        <ele>473.11</ele>
        <time>2015-09-06T06:50:41Z</time>
      </trkpt>
      <trkpt lat="44.48632" lon="4.95413">
        <ele>473.59</ele>
        <time>2015-09-06T06:50:58Z</time>
      </trkpt>
      <trkpt lat="44.48632" lon="4.95414">
        <ele>474.55</ele>
        <time>2015-09-06T06:51:10Z</time>
      </trkpt>
      <trkpt lat="44.48633" lon="4.95414">
        <ele>474.55</ele>
        <time>2015-09-06T06:51:16Z</time>
      </trkpt>
      <trkpt lat="44.48653" lon="4.9543">
        <ele>475.51</ele>
        <time>2015-09-06T06:51:29Z</time>
      </trkpt>
      <trkpt lat="44.48677" lon="4.95435">
        <ele>477.43</ele>
        <time>2015-09-06T06:51:40Z</time>
      </trkpt>
      <trkpt lat="44.48684" lon="4.95439">
        <ele>477.91</ele>
        <time>2015-09-06T06:51:44Z</time>
      </trkpt>
      <trkpt lat="44.48711" lon="4.95446">
        <ele>479.35</ele>
        <time>2015-09-06T06:51:57Z</time>
      </trkpt>
      <trkpt lat="44.48741" lon="4.95459">
        <ele>482.24</ele>
        <time>2015-09-06T06:52:12Z</time>
      </trkpt>
      <trkpt lat="44.4877" lon="4.95472">
        <ele>483.68</ele>
        <time>2015-09-06T06:52:25Z</time>
      </trkpt>
      <trkpt lat="44.48779" lon="4.95476">
        <ele>482.72</ele>
        <time>2015-09-06T06:52:29Z</time>
      </trkpt>
      <trkpt lat="44.48804" lon="4.95492">
        <ele>486.08</ele>
        <time>2015-09-06T06:52:41Z</time>
      </trkpt>
      <trkpt lat="44.48828" lon="4.95511">
        <ele>488.01</ele>
        <time>2015-09-06T06:52:53Z</time>
      </trkpt>
      <trkpt lat="44.48849" lon="4.95511">
        <ele>488.49</ele>
        <time>2015-09-06T06:53:05Z</time>
      </trkpt>
      <trkpt lat="44.48849" lon="4.95511">
        <ele>489.45</ele>
        <time>2015-09-06T06:53:22Z</time>
      </trkpt>
      <trkpt lat="44.4885" lon="4.9551">
        <ele>488.97</ele>
        <time>2015-09-06T06:53:27Z</time>
      </trkpt>
      <trkpt lat="44.48845" lon="4.95505">
        <ele>488.49</ele>
        <time>2015-09-06T06:53:32Z</time>
      </trkpt>
      <trkpt lat="44.48823" lon="4.95506">
        <ele>488.01</ele>
        <time>2015-09-06T06:53:43Z</time>
      </trkpt>
      <trkpt lat="44.4882" lon="4.95506">
        <ele>487.53</ele>
        <time>2015-09-06T06:53:45Z</time>
      </trkpt>
      <trkpt lat="44.48817" lon="4.95508">
        <ele>486.08</ele>
        <time>2015-09-06T06:54:01Z</time>
      </trkpt>
      <trkpt lat="44.48817" lon="4.95509">
        <ele>488.49</ele>
        <time>2015-09-06T06:54:05Z</time>
      </trkpt>
      <trkpt lat="44.48817" lon="4.95515">
        <ele>488.01</ele>
        <time>2015-09-06T06:54:08Z</time>
      </trkpt>
      <trkpt lat="44.48836" lon="4.95563">
        <ele>486.56</ele>
        <time>2015-09-06T06:54:20Z</time>
      </trkpt>
      <trkpt lat="44.48838" lon="4.95569">
        <ele>485.6</ele>
        <time>2015-09-06T06:54:21Z</time>
      </trkpt>
      <trkpt lat="44.48839" lon="4.95576">
        <ele>484.64</ele>
        <time>2015-09-06T06:54:22Z</time>
      </trkpt>
      <trkpt lat="44.4884" lon="4.95582">
        <ele>484.64</ele>
        <time>2015-09-06T06:54:23Z</time>
      </trkpt>
      <trkpt lat="44.4884" lon="4.95586">
        <ele>485.12</ele>
        <time>2015-09-06T06:54:24Z</time>
      </trkpt>
      <trkpt lat="44.4884" lon="4.9559">
        <ele>485.12</ele>
        <time>2015-09-06T06:54:25Z</time>
      </trkpt>
      <trkpt lat="44.48839" lon="4.95592">
        <ele>485.12</ele>
        <time>2015-09-06T06:54:26Z</time>
      </trkpt>
      <trkpt lat="44.48844" lon="4.95602">
        <ele>488.97</ele>
        <time>2015-09-06T06:54:30Z</time>
      </trkpt>
      <trkpt lat="44.48849" lon="4.95606">
        <ele>489.45</ele>
        <time>2015-09-06T06:54:32Z</time>
      </trkpt>
      <trkpt lat="44.48862" lon="4.95609">
        <ele>488.01</ele>
        <time>2015-09-06T06:54:36Z</time>
      </trkpt>
      <trkpt lat="44.48865" lon="4.95607">
        <ele>488.01</ele>
        <time>2015-09-06T06:54:37Z</time>
      </trkpt>
      <trkpt lat="44.48872" lon="4.9562">
        <ele>488.01</ele>
        <time>2015-09-06T06:54:42Z</time>
      </trkpt>
      <trkpt lat="44.48875" lon="4.95671">
        <ele>488.01</ele>
        <time>2015-09-06T06:54:55Z</time>
      </trkpt>
      <trkpt lat="44.48873" lon="4.9569">
        <ele>488.97</ele>
        <time>2015-09-06T06:54:59Z</time>
      </trkpt>
      <trkpt lat="44.48873" lon="4.95696">
        <ele>488.01</ele>
        <time>2015-09-06T06:55:00Z</time>
      </trkpt>
      <trkpt lat="44.48873" lon="4.95703">
        <ele>488.01</ele>
        <time>2015-09-06T06:55:01Z</time>
      </trkpt>
      <trkpt lat="44.48873" lon="4.9571">
        <ele>488.01</ele>
        <time>2015-09-06T06:55:02Z</time>
      </trkpt>
      <trkpt lat="44.48874" lon="4.95716">
        <ele>488.01</ele>
        <time>2015-09-06T06:55:03Z</time>
      </trkpt>
      <trkpt lat="44.48876" lon="4.95723">
        <ele>488.01</ele>
        <time>2015-09-06T06:55:04Z</time>
      </trkpt>
      <trkpt lat="44.48877" lon="4.95729">
        <ele>488.49</ele>
        <time>2015-09-06T06:55:05Z</time>
      </trkpt>
      <trkpt lat="44.48879" lon="4.95735">
        <ele>488.01</ele>
        <time>2015-09-06T06:55:06Z</time>
      </trkpt>
      <trkpt lat="44.4888" lon="4.95741">
        <ele>487.05</ele>
        <time>2015-09-06T06:55:07Z</time>
      </trkpt>
      <trkpt lat="44.48882" lon="4.95747">
        <ele>487.05</ele>
        <time>2015-09-06T06:55:08Z</time>
      </trkpt>
      <trkpt lat="44.48885" lon="4.95759">
        <ele>486.56</ele>
        <time>2015-09-06T06:55:10Z</time>
      </trkpt>
      <trkpt lat="44.48886" lon="4.95766">
        <ele>486.56</ele>
        <time>2015-09-06T06:55:11Z</time>
      </trkpt>
      <trkpt lat="44.48887" lon="4.95773">
        <ele>486.56</ele>
        <time>2015-09-06T06:55:12Z</time>
      </trkpt>
      <trkpt lat="44.48886" lon="4.95779">
        <ele>486.08</ele>
        <time>2015-09-06T06:55:13Z</time>
      </trkpt>
      <trkpt lat="44.48886" lon="4.95785">
        <ele>485.12</ele>
        <time>2015-09-06T06:55:14Z</time>
      </trkpt>
      <trkpt lat="44.48886" lon="4.9579">
        <ele>485.12</ele>
        <time>2015-09-06T06:55:15Z</time>
      </trkpt>
      <trkpt lat="44.48887" lon="4.95794">
        <ele>485.12</ele>
        <time>2015-09-06T06:55:16Z</time>
      </trkpt>
      <trkpt lat="44.48889" lon="4.95797">
        <ele>485.6</ele>
        <time>2015-09-06T06:55:17Z</time>
      </trkpt>
      <trkpt lat="44.48892" lon="4.95799">
        <ele>486.08</ele>
        <time>2015-09-06T06:55:18Z</time>
      </trkpt>
      <trkpt lat="44.48894" lon="4.958">
        <ele>486.08</ele>
        <time>2015-09-06T06:55:19Z</time>
      </trkpt>
      <trkpt lat="44.48907" lon="4.95818">
        <ele>488.97</ele>
        <time>2015-09-06T06:55:29Z</time>
      </trkpt>
      <trkpt lat="44.48907" lon="4.9582">
        <ele>489.45</ele>
        <time>2015-09-06T06:55:30Z</time>
      </trkpt>
      <trkpt lat="44.48899" lon="4.95852">
        <ele>491.85</ele>
        <time>2015-09-06T06:55:41Z</time>
      </trkpt>
      <trkpt lat="44.489" lon="4.95886">
        <ele>494.74</ele>
        <time>2015-09-06T06:55:53Z</time>
      </trkpt>
      <trkpt lat="44.48905" lon="4.95906">
        <ele>497.62</ele>
        <time>2015-09-06T06:56:01Z</time>
      </trkpt>
      <trkpt lat="44.48907" lon="4.95907">
        <ele>497.14</ele>
        <time>2015-09-06T06:56:02Z</time>
      </trkpt>
      <trkpt lat="44.4891" lon="4.95907">
        <ele>497.14</ele>
        <time>2015-09-06T06:56:03Z</time>
      </trkpt>
      <trkpt lat="44.48912" lon="4.95907">
        <ele>498.1</ele>
        <time>2015-09-06T06:56:04Z</time>
      </trkpt>
      <trkpt lat="44.48914" lon="4.95907">
        <ele>497.62</ele>
        <time>2015-09-06T06:56:05Z</time>
      </trkpt>
      <trkpt lat="44.48923" lon="4.95907">
        <ele>499.06</ele>
        <time>2015-09-06T06:56:09Z</time>
      </trkpt>
      <trkpt lat="44.48929" lon="4.95907">
        <ele>498.58</ele>
        <time>2015-09-06T06:56:12Z</time>
      </trkpt>
      <trkpt lat="44.48931" lon="4.95907">
        <ele>499.06</ele>
        <time>2015-09-06T06:56:13Z</time>
      </trkpt>
      <trkpt lat="44.48933" lon="4.95908">
        <ele>499.06</ele>
        <time>2015-09-06T06:56:14Z</time>
      </trkpt>
      <trkpt lat="44.48956" lon="4.95926">
        <ele>501.46</ele>
        <time>2015-09-06T06:56:29Z</time>
      </trkpt>
      <trkpt lat="44.48959" lon="4.95927">
        <ele>501.95</ele>
        <time>2015-09-06T06:56:31Z</time>
      </trkpt>
      <trkpt lat="44.48989" lon="4.95922">
        <ele>503.39</ele>
        <time>2015-09-06T06:56:47Z</time>
      </trkpt>
      <trkpt lat="44.49007" lon="4.95928">
        <ele>504.83</ele>
        <time>2015-09-06T06:56:57Z</time>
      </trkpt>
      <trkpt lat="44.49009" lon="4.95927">
        <ele>504.83</ele>
        <time>2015-09-06T06:56:58Z</time>
      </trkpt>
      <trkpt lat="44.49032" lon="4.95926">
        <ele>508.19</ele>
        <time>2015-09-06T06:57:11Z</time>
      </trkpt>
      <trkpt lat="44.49039" lon="4.95928">
        <ele>508.19</ele>
        <time>2015-09-06T06:57:17Z</time>
      </trkpt>
      <trkpt lat="44.49042" lon="4.95928">
        <ele>508.67</ele>
        <time>2015-09-06T06:57:18Z</time>
      </trkpt>
      <trkpt lat="44.49044" lon="4.95928">
        <ele>508.67</ele>
        <time>2015-09-06T06:57:19Z</time>
      </trkpt>
      <trkpt lat="44.49058" lon="4.95928">
        <ele>511.08</ele>
        <time>2015-09-06T06:57:27Z</time>
      </trkpt>
      <trkpt lat="44.4906" lon="4.95927">
        <ele>511.08</ele>
        <time>2015-09-06T06:57:28Z</time>
      </trkpt>
      <trkpt lat="44.49062" lon="4.95927">
        <ele>511.08</ele>
        <time>2015-09-06T06:57:29Z</time>
      </trkpt>
      <trkpt lat="44.49064" lon="4.95928">
        <ele>510.6</ele>
        <time>2015-09-06T06:57:30Z</time>
      </trkpt>
      <trkpt lat="44.49066" lon="4.95928">
        <ele>511.08</ele>
        <time>2015-09-06T06:57:31Z</time>
      </trkpt>
      <trkpt lat="44.49068" lon="4.95928">
        <ele>511.08</ele>
        <time>2015-09-06T06:57:32Z</time>
      </trkpt>
      <trkpt lat="44.4907" lon="4.95929">
        <ele>511.56</ele>
        <time>2015-09-06T06:57:33Z</time>
      </trkpt>
      <trkpt lat="44.49072" lon="4.95929">
        <ele>513</ele>
        <time>2015-09-06T06:57:34Z</time>
      </trkpt>
      <trkpt lat="44.49074" lon="4.9593">
        <ele>513</ele>
        <time>2015-09-06T06:57:35Z</time>
      </trkpt>
      <trkpt lat="44.49076" lon="4.95931">
        <ele>512.52</ele>
        <time>2015-09-06T06:57:36Z</time>
      </trkpt>
      <trkpt lat="44.49099" lon="4.95936">
        <ele>514.44</ele>
        <time>2015-09-06T06:57:50Z</time>
      </trkpt>
      <trkpt lat="44.4912" lon="4.95946">
        <ele>516.37</ele>
        <time>2015-09-06T06:58:02Z</time>
      </trkpt>
      <trkpt lat="44.4913" lon="4.95952">
        <ele>517.33</ele>
        <time>2015-09-06T06:58:08Z</time>
      </trkpt>
      <trkpt lat="44.49162" lon="4.95963">
        <ele>518.29</ele>
        <time>2015-09-06T06:58:22Z</time>
      </trkpt>
      <trkpt lat="44.49204" lon="4.95952">
        <ele>517.81</ele>
        <time>2015-09-06T06:58:33Z</time>
      </trkpt>
      <trkpt lat="44.49243" lon="4.9593">
        <ele>518.29</ele>
        <time>2015-09-06T06:58:45Z</time>
      </trkpt>
      <trkpt lat="44.49261" lon="4.95913">
        <ele>521.65</ele>
        <time>2015-09-06T06:58:54Z</time>
      </trkpt>
      <trkpt lat="44.49292" lon="4.95872">
        <ele>523.58</ele>
        <time>2015-09-06T06:59:10Z</time>
      </trkpt>
      <trkpt lat="44.49319" lon="4.95838">
        <ele>525.02</ele>
        <time>2015-09-06T06:59:23Z</time>
      </trkpt>
      <trkpt lat="44.49346" lon="4.95809">
        <ele>527.9</ele>
        <time>2015-09-06T06:59:34Z</time>
      </trkpt>
      <trkpt lat="44.49349" lon="4.95807">
        <ele>527.9</ele>
        <time>2015-09-06T06:59:35Z</time>
      </trkpt>
      <trkpt lat="44.49391" lon="4.95774">
        <ele>527.42</ele>
        <time>2015-09-06T06:59:50Z</time>
      </trkpt>
      <trkpt lat="44.4943" lon="4.95737">
        <ele>527.9</ele>
        <time>2015-09-06T07:00:04Z</time>
      </trkpt>
      <trkpt lat="44.49465" lon="4.95745">
        <ele>527.9</ele>
        <time>2015-09-06T07:00:15Z</time>
      </trkpt>
      <trkpt lat="44.49477" lon="4.95782">
        <ele>529.34</ele>
        <time>2015-09-06T07:00:26Z</time>
      </trkpt>
      <trkpt lat="44.49481" lon="4.958">
        <ele>533.19</ele>
        <time>2015-09-06T07:00:33Z</time>
      </trkpt>
      <trkpt lat="44.49497" lon="4.95816">
        <ele>533.67</ele>
        <time>2015-09-06T07:00:42Z</time>
      </trkpt>
      <trkpt lat="44.49532" lon="4.95797">
        <ele>535.11</ele>
        <time>2015-09-06T07:00:57Z</time>
      </trkpt>
      <trkpt lat="44.49558" lon="4.95782">
        <ele>538.48</ele>
        <time>2015-09-06T07:01:09Z</time>
      </trkpt>
      <trkpt lat="44.49561" lon="4.9578">
        <ele>538.96</ele>
        <time>2015-09-06T07:01:10Z</time>
      </trkpt>
      <trkpt lat="44.49592" lon="4.95763">
        <ele>540.4</ele>
        <time>2015-09-06T07:01:24Z</time>
      </trkpt>
      <trkpt lat="44.49612" lon="4.9575">
        <ele>543.76</ele>
        <time>2015-09-06T07:01:33Z</time>
      </trkpt>
      <trkpt lat="44.4963" lon="4.95739">
        <ele>545.2</ele>
        <time>2015-09-06T07:01:41Z</time>
      </trkpt>
      <trkpt lat="44.49647" lon="4.95732">
        <ele>548.09</ele>
        <time>2015-09-06T07:01:48Z</time>
      </trkpt>
      <trkpt lat="44.49658" lon="4.95739">
        <ele>547.13</ele>
        <time>2015-09-06T07:01:53Z</time>
      </trkpt>
      <trkpt lat="44.49659" lon="4.95742">
        <ele>547.13</ele>
        <time>2015-09-06T07:01:54Z</time>
      </trkpt>
      <trkpt lat="44.49664" lon="4.95757">
        <ele>548.57</ele>
        <time>2015-09-06T07:02:00Z</time>
      </trkpt>
      <trkpt lat="44.49667" lon="4.95771">
        <ele>549.05</ele>
        <time>2015-09-06T07:02:05Z</time>
      </trkpt>
      <trkpt lat="44.49667" lon="4.95773">
        <ele>549.53</ele>
        <time>2015-09-06T07:02:06Z</time>
      </trkpt>
      <trkpt lat="44.49668" lon="4.95776">
        <ele>549.53</ele>
        <time>2015-09-06T07:02:07Z</time>
      </trkpt>
      <trkpt lat="44.49668" lon="4.95779">
        <ele>549.53</ele>
        <time>2015-09-06T07:02:08Z</time>
      </trkpt>
      <trkpt lat="44.4967" lon="4.95781">
        <ele>549.53</ele>
        <time>2015-09-06T07:02:09Z</time>
      </trkpt>
      <trkpt lat="44.4967" lon="4.95784">
        <ele>549.53</ele>
        <time>2015-09-06T07:02:10Z</time>
      </trkpt>
      <trkpt lat="44.49671" lon="4.95787">
        <ele>549.53</ele>
        <time>2015-09-06T07:02:11Z</time>
      </trkpt>
      <trkpt lat="44.49672" lon="4.9579">
        <ele>549.53</ele>
        <time>2015-09-06T07:02:12Z</time>
      </trkpt>
      <trkpt lat="44.49678" lon="4.95843">
        <ele>550.49</ele>
        <time>2015-09-06T07:02:26Z</time>
      </trkpt>
      <trkpt lat="44.49678" lon="4.95849">
        <ele>550.49</ele>
        <time>2015-09-06T07:02:27Z</time>
      </trkpt>
      <trkpt lat="44.49683" lon="4.95906">
        <ele>551.45</ele>
        <time>2015-09-06T07:02:39Z</time>
      </trkpt>
      <trkpt lat="44.49683" lon="4.9591">
        <ele>550.97</ele>
        <time>2015-09-06T07:02:40Z</time>
      </trkpt>
      <trkpt lat="44.49684" lon="4.95915">
        <ele>551.45</ele>
        <time>2015-09-06T07:02:41Z</time>
      </trkpt>
      <trkpt lat="44.49685" lon="4.95919">
        <ele>551.93</ele>
        <time>2015-09-06T07:02:42Z</time>
      </trkpt>
      <trkpt lat="44.49699" lon="4.9598">
        <ele>551.93</ele>
        <time>2015-09-06T07:02:54Z</time>
      </trkpt>
      <trkpt lat="44.49709" lon="4.96023">
        <ele>553.38</ele>
        <time>2015-09-06T07:03:05Z</time>
      </trkpt>
      <trkpt lat="44.49721" lon="4.96072">
        <ele>553.86</ele>
        <time>2015-09-06T07:03:16Z</time>
      </trkpt>
      <trkpt lat="44.49741" lon="4.96103">
        <ele>552.41</ele>
        <time>2015-09-06T07:03:23Z</time>
      </trkpt>
      <trkpt lat="44.49744" lon="4.9611">
        <ele>552.41</ele>
        <time>2015-09-06T07:03:24Z</time>
      </trkpt>
      <trkpt lat="44.49755" lon="4.96162">
        <ele>551.45</ele>
        <time>2015-09-06T07:03:32Z</time>
      </trkpt>
      <trkpt lat="44.4975" lon="4.96219">
        <ele>554.34</ele>
        <time>2015-09-06T07:03:44Z</time>
      </trkpt>
      <trkpt lat="44.4975" lon="4.96223">
        <ele>554.34</ele>
        <time>2015-09-06T07:03:45Z</time>
      </trkpt>
      <trkpt lat="44.49759" lon="4.96259">
        <ele>555.78</ele>
        <time>2015-09-06T07:03:55Z</time>
      </trkpt>
      <trkpt lat="44.49767" lon="4.963">
        <ele>555.3</ele>
        <time>2015-09-06T07:04:06Z</time>
      </trkpt>
      <trkpt lat="44.49783" lon="4.96359">
        <ele>555.78</ele>
        <time>2015-09-06T07:04:21Z</time>
      </trkpt>
      <trkpt lat="44.49797" lon="4.96388">
        <ele>555.3</ele>
        <time>2015-09-06T07:04:30Z</time>
      </trkpt>
      <trkpt lat="44.49811" lon="4.96447">
        <ele>554.82</ele>
        <time>2015-09-06T07:04:45Z</time>
      </trkpt>
      <trkpt lat="44.4982" lon="4.96494">
        <ele>556.74</ele>
        <time>2015-09-06T07:04:58Z</time>
      </trkpt>
      <trkpt lat="44.49821" lon="4.96498">
        <ele>555.78</ele>
        <time>2015-09-06T07:04:59Z</time>
      </trkpt>
      <trkpt lat="44.49822" lon="4.96501">
        <ele>555.3</ele>
        <time>2015-09-06T07:05:00Z</time>
      </trkpt>
      <trkpt lat="44.49822" lon="4.96505">
        <ele>555.78</ele>
        <time>2015-09-06T07:05:01Z</time>
      </trkpt>
      <trkpt lat="44.49822" lon="4.96508">
        <ele>555.78</ele>
        <time>2015-09-06T07:05:02Z</time>
      </trkpt>
      <trkpt lat="44.49822" lon="4.9654">
        <ele>556.74</ele>
        <time>2015-09-06T07:05:11Z</time>
      </trkpt>
      <trkpt lat="44.49821" lon="4.96542">
        <ele>557.7</ele>
        <time>2015-09-06T07:05:12Z</time>
      </trkpt>
      <trkpt lat="44.4982" lon="4.96544">
        <ele>558.18</ele>
        <time>2015-09-06T07:05:13Z</time>
      </trkpt>
      <trkpt lat="44.49819" lon="4.96546">
        <ele>558.18</ele>
        <time>2015-09-06T07:05:14Z</time>
      </trkpt>
      <trkpt lat="44.49819" lon="4.96549">
        <ele>558.18</ele>
        <time>2015-09-06T07:05:15Z</time>
      </trkpt>
      <trkpt lat="44.49818" lon="4.96552">
        <ele>558.66</ele>
        <time>2015-09-06T07:05:16Z</time>
      </trkpt>
      <trkpt lat="44.49818" lon="4.96556">
        <ele>559.14</ele>
        <time>2015-09-06T07:05:17Z</time>
      </trkpt>
      <trkpt lat="44.49814" lon="4.96583">
        <ele>562.03</ele>
        <time>2015-09-06T07:05:27Z</time>
      </trkpt>
      <trkpt lat="44.49794" lon="4.96625">
        <ele>561.07</ele>
        <time>2015-09-06T07:05:39Z</time>
      </trkpt>
      <trkpt lat="44.49775" lon="4.96693">
        <ele>560.59</ele>
        <time>2015-09-06T07:05:53Z</time>
      </trkpt>
      <trkpt lat="44.49761" lon="4.9673">
        <ele>562.03</ele>
        <time>2015-09-06T07:06:01Z</time>
      </trkpt>
      <trkpt lat="44.4975" lon="4.96754">
        <ele>563.95</ele>
        <time>2015-09-06T07:06:08Z</time>
      </trkpt>
      <trkpt lat="44.49746" lon="4.96786">
        <ele>567.32</ele>
        <time>2015-09-06T07:06:19Z</time>
      </trkpt>
      <trkpt lat="44.49741" lon="4.96811">
        <ele>569.72</ele>
        <time>2015-09-06T07:06:29Z</time>
      </trkpt>
      <trkpt lat="44.4974" lon="4.96816">
        <ele>568.28</ele>
        <time>2015-09-06T07:06:31Z</time>
      </trkpt>
      <trkpt lat="44.49733" lon="4.96835">
        <ele>572.12</ele>
        <time>2015-09-06T07:06:39Z</time>
      </trkpt>
      <trkpt lat="44.49724" lon="4.96849">
        <ele>571.64</ele>
        <time>2015-09-06T07:06:47Z</time>
      </trkpt>
      <trkpt lat="44.49718" lon="4.96861">
        <ele>572.6</ele>
        <time>2015-09-06T07:06:53Z</time>
      </trkpt>
      <trkpt lat="44.49718" lon="4.96863">
        <ele>572.6</ele>
        <time>2015-09-06T07:06:54Z</time>
      </trkpt>
      <trkpt lat="44.49717" lon="4.96866">
        <ele>573.56</ele>
        <time>2015-09-06T07:06:55Z</time>
      </trkpt>
      <trkpt lat="44.49716" lon="4.96868">
        <ele>573.56</ele>
        <time>2015-09-06T07:06:56Z</time>
      </trkpt>
      <trkpt lat="44.49716" lon="4.9687">
        <ele>573.08</ele>
        <time>2015-09-06T07:06:57Z</time>
      </trkpt>
      <trkpt lat="44.49706" lon="4.96897">
        <ele>575.01</ele>
        <time>2015-09-06T07:07:11Z</time>
      </trkpt>
      <trkpt lat="44.49707" lon="4.96913">
        <ele>575.49</ele>
        <time>2015-09-06T07:07:17Z</time>
      </trkpt>
      <trkpt lat="44.49707" lon="4.96916">
        <ele>575.97</ele>
        <time>2015-09-06T07:07:18Z</time>
      </trkpt>
      <trkpt lat="44.49707" lon="4.96919">
        <ele>576.45</ele>
        <time>2015-09-06T07:07:19Z</time>
      </trkpt>
      <trkpt lat="44.49712" lon="4.96956">
        <ele>578.85</ele>
        <time>2015-09-06T07:07:35Z</time>
      </trkpt>
      <trkpt lat="44.49713" lon="4.96959">
        <ele>578.85</ele>
        <time>2015-09-06T07:07:36Z</time>
      </trkpt>
      <trkpt lat="44.49713" lon="4.96961">
        <ele>579.81</ele>
        <time>2015-09-06T07:07:37Z</time>
      </trkpt>
      <trkpt lat="44.49713" lon="4.96963">
        <ele>580.29</ele>
        <time>2015-09-06T07:07:38Z</time>
      </trkpt>
      <trkpt lat="44.49714" lon="4.96965">
        <ele>580.29</ele>
        <time>2015-09-06T07:07:39Z</time>
      </trkpt>
      <trkpt lat="44.49714" lon="4.96967">
        <ele>579.81</ele>
        <time>2015-09-06T07:07:40Z</time>
      </trkpt>
      <trkpt lat="44.49727" lon="4.96999">
        <ele>581.73</ele>
        <time>2015-09-06T07:07:55Z</time>
      </trkpt>
      <trkpt lat="44.49729" lon="4.97003">
        <ele>582.7</ele>
        <time>2015-09-06T07:07:57Z</time>
      </trkpt>
      <trkpt lat="44.49741" lon="4.97039">
        <ele>584.62</ele>
        <time>2015-09-06T07:08:14Z</time>
      </trkpt>
      <trkpt lat="44.49743" lon="4.97043">
        <ele>586.06</ele>
        <time>2015-09-06T07:08:16Z</time>
      </trkpt>
      <trkpt lat="44.49746" lon="4.97053">
        <ele>586.54</ele>
        <time>2015-09-06T07:08:20Z</time>
      </trkpt>
      <trkpt lat="44.49747" lon="4.97055">
        <ele>586.54</ele>
        <time>2015-09-06T07:08:21Z</time>
      </trkpt>
      <trkpt lat="44.49748" lon="4.97057">
        <ele>586.54</ele>
        <time>2015-09-06T07:08:22Z</time>
      </trkpt>
      <trkpt lat="44.49749" lon="4.9706">
        <ele>586.54</ele>
        <time>2015-09-06T07:08:23Z</time>
      </trkpt>
      <trkpt lat="44.49749" lon="4.97061">
        <ele>587.02</ele>
        <time>2015-09-06T07:08:24Z</time>
      </trkpt>
      <trkpt lat="44.49754" lon="4.97089">
        <ele>589.91</ele>
        <time>2015-09-06T07:08:37Z</time>
      </trkpt>
      <trkpt lat="44.49748" lon="4.97115">
        <ele>591.35</ele>
        <time>2015-09-06T07:08:49Z</time>
      </trkpt>
      <trkpt lat="44.49743" lon="4.97124">
        <ele>592.31</ele>
        <time>2015-09-06T07:08:54Z</time>
      </trkpt>
      <trkpt lat="44.49724" lon="4.97148">
        <ele>594.71</ele>
        <time>2015-09-06T07:09:09Z</time>
      </trkpt>
      <trkpt lat="44.49722" lon="4.97152">
        <ele>595.67</ele>
        <time>2015-09-06T07:09:11Z</time>
      </trkpt>
      <trkpt lat="44.49712" lon="4.97173">
        <ele>597.12</ele>
        <time>2015-09-06T07:09:23Z</time>
      </trkpt>
      <trkpt lat="44.49714" lon="4.97177">
        <ele>597.12</ele>
        <time>2015-09-06T07:09:35Z</time>
      </trkpt>
      <trkpt lat="44.49713" lon="4.97175">
        <ele>595.19</ele>
        <time>2015-09-06T07:09:52Z</time>
      </trkpt>
      <trkpt lat="44.49713" lon="4.97175">
        <ele>595.67</ele>
        <time>2015-09-06T07:10:00Z</time>
      </trkpt>
      <trkpt lat="44.49717" lon="4.97257">
        <ele>594.23</ele>
        <time>2015-09-06T07:15:38Z</time>
      </trkpt>
      <trkpt lat="44.49716" lon="4.97257">
        <ele>594.23</ele>
        <time>2015-09-06T07:15:39Z</time>
      </trkpt>
      <trkpt lat="44.49708" lon="4.9726">
        <ele>594.71</ele>
        <time>2015-09-06T07:15:51Z</time>
      </trkpt>
      <trkpt lat="44.49709" lon="4.97263">
        <ele>594.71</ele>
        <time>2015-09-06T07:15:53Z</time>
      </trkpt>
      <trkpt lat="44.49718" lon="4.97275">
        <ele>596.64</ele>
        <time>2015-09-06T07:15:57Z</time>
      </trkpt>
      <trkpt lat="44.49725" lon="4.97283">
        <ele>597.6</ele>
        <time>2015-09-06T07:15:59Z</time>
      </trkpt>
      <trkpt lat="44.49738" lon="4.97294">
        <ele>601.92</ele>
        <time>2015-09-06T07:16:02Z</time>
      </trkpt>
      <trkpt lat="44.49741" lon="4.97298">
        <ele>602.4</ele>
        <time>2015-09-06T07:16:03Z</time>
      </trkpt>
      <trkpt lat="44.49753" lon="4.97309">
        <ele>600.48</ele>
        <time>2015-09-06T07:16:06Z</time>
      </trkpt>
      <trkpt lat="44.49757" lon="4.97312">
        <ele>600.48</ele>
        <time>2015-09-06T07:16:07Z</time>
      </trkpt>
      <trkpt lat="44.49761" lon="4.97317">
        <ele>600.48</ele>
        <time>2015-09-06T07:16:08Z</time>
      </trkpt>
      <trkpt lat="44.49806" lon="4.97359">
        <ele>602.88</ele>
        <time>2015-09-06T07:16:20Z</time>
      </trkpt>
      <trkpt lat="44.49824" lon="4.97375">
        <ele>606.25</ele>
        <time>2015-09-06T07:16:27Z</time>
      </trkpt>
      <trkpt lat="44.49842" lon="4.97395">
        <ele>609.13</ele>
        <time>2015-09-06T07:16:35Z</time>
      </trkpt>
      <trkpt lat="44.49844" lon="4.97398">
        <ele>609.61</ele>
        <time>2015-09-06T07:16:36Z</time>
      </trkpt>
      <trkpt lat="44.49846" lon="4.97402">
        <ele>609.61</ele>
        <time>2015-09-06T07:16:37Z</time>
      </trkpt>
      <trkpt lat="44.49847" lon="4.97405">
        <ele>610.09</ele>
        <time>2015-09-06T07:16:38Z</time>
      </trkpt>
      <trkpt lat="44.49848" lon="4.97409">
        <ele>610.09</ele>
        <time>2015-09-06T07:16:39Z</time>
      </trkpt>
      <trkpt lat="44.49848" lon="4.97411">
        <ele>610.57</ele>
        <time>2015-09-06T07:16:40Z</time>
      </trkpt>
      <trkpt lat="44.4985" lon="4.97416">
        <ele>611.06</ele>
        <time>2015-09-06T07:16:42Z</time>
      </trkpt>
      <trkpt lat="44.4985" lon="4.97419">
        <ele>611.06</ele>
        <time>2015-09-06T07:16:43Z</time>
      </trkpt>
      <trkpt lat="44.49851" lon="4.97421">
        <ele>611.54</ele>
        <time>2015-09-06T07:16:44Z</time>
      </trkpt>
      <trkpt lat="44.49853" lon="4.97422">
        <ele>612.02</ele>
        <time>2015-09-06T07:16:45Z</time>
      </trkpt>
      <trkpt lat="44.49855" lon="4.97423">
        <ele>612.02</ele>
        <time>2015-09-06T07:16:46Z</time>
      </trkpt>
      <trkpt lat="44.49856" lon="4.97423">
        <ele>612.5</ele>
        <time>2015-09-06T07:16:47Z</time>
      </trkpt>
      <trkpt lat="44.49857" lon="4.97424">
        <ele>612.98</ele>
        <time>2015-09-06T07:16:48Z</time>
      </trkpt>
      <trkpt lat="44.49858" lon="4.97426">
        <ele>613.46</ele>
        <time>2015-09-06T07:16:49Z</time>
      </trkpt>
      <trkpt lat="44.49858" lon="4.97434">
        <ele>614.9</ele>
        <time>2015-09-06T07:16:53Z</time>
      </trkpt>
      <trkpt lat="44.49856" lon="4.97446">
        <ele>617.78</ele>
        <time>2015-09-06T07:17:00Z</time>
      </trkpt>
      <trkpt lat="44.49853" lon="4.97457">
        <ele>621.15</ele>
        <time>2015-09-06T07:17:06Z</time>
      </trkpt>
      <trkpt lat="44.49844" lon="4.97472">
        <ele>624.51</ele>
        <time>2015-09-06T07:17:15Z</time>
      </trkpt>
      <trkpt lat="44.49842" lon="4.97477">
        <ele>626.44</ele>
        <time>2015-09-06T07:17:19Z</time>
      </trkpt>
      <trkpt lat="44.4984" lon="4.97478">
        <ele>626.44</ele>
        <time>2015-09-06T07:17:20Z</time>
      </trkpt>
      <trkpt lat="44.49839" lon="4.97479">
        <ele>626.92</ele>
        <time>2015-09-06T07:17:21Z</time>
      </trkpt>
      <trkpt lat="44.49837" lon="4.9748">
        <ele>627.88</ele>
        <time>2015-09-06T07:17:22Z</time>
      </trkpt>
      <trkpt lat="44.49836" lon="4.97481">
        <ele>627.88</ele>
        <time>2015-09-06T07:17:23Z</time>
      </trkpt>
      <trkpt lat="44.49834" lon="4.97482">
        <ele>628.36</ele>
        <time>2015-09-06T07:17:24Z</time>
      </trkpt>
      <trkpt lat="44.49833" lon="4.97484">
        <ele>628.84</ele>
        <time>2015-09-06T07:17:25Z</time>
      </trkpt>
      <trkpt lat="44.49825" lon="4.97495">
        <ele>632.2</ele>
        <time>2015-09-06T07:17:32Z</time>
      </trkpt>
      <trkpt lat="44.49824" lon="4.97496">
        <ele>632.2</ele>
        <time>2015-09-06T07:17:33Z</time>
      </trkpt>
      <trkpt lat="44.49815" lon="4.9751">
        <ele>635.57</ele>
        <time>2015-09-06T07:17:41Z</time>
      </trkpt>
      <trkpt lat="44.49807" lon="4.97517">
        <ele>637.97</ele>
        <time>2015-09-06T07:17:46Z</time>
      </trkpt>
      <trkpt lat="44.498" lon="4.97524">
        <ele>637.97</ele>
        <time>2015-09-06T07:17:50Z</time>
      </trkpt>
      <trkpt lat="44.49799" lon="4.97526">
        <ele>637.97</ele>
        <time>2015-09-06T07:17:51Z</time>
      </trkpt>
      <trkpt lat="44.49768" lon="4.97554">
        <ele>640.38</ele>
        <time>2015-09-06T07:18:05Z</time>
      </trkpt>
      <trkpt lat="44.49744" lon="4.97586">
        <ele>641.34</ele>
        <time>2015-09-06T07:18:16Z</time>
      </trkpt>
      <trkpt lat="44.4972" lon="4.97607">
        <ele>641.34</ele>
        <time>2015-09-06T07:18:24Z</time>
      </trkpt>
      <trkpt lat="44.49716" lon="4.9761">
        <ele>641.34</ele>
        <time>2015-09-06T07:18:25Z</time>
      </trkpt>
      <trkpt lat="44.49704" lon="4.9762">
        <ele>640.86</ele>
        <time>2015-09-06T07:18:28Z</time>
      </trkpt>
      <trkpt lat="44.4969" lon="4.97627">
        <ele>639.89</ele>
        <time>2015-09-06T07:18:31Z</time>
      </trkpt>
      <trkpt lat="44.49686" lon="4.9763">
        <ele>639.41</ele>
        <time>2015-09-06T07:18:32Z</time>
      </trkpt>
      <trkpt lat="44.49682" lon="4.97633">
        <ele>638.93</ele>
        <time>2015-09-06T07:18:33Z</time>
      </trkpt>
      <trkpt lat="44.49678" lon="4.97635">
        <ele>638.45</ele>
        <time>2015-09-06T07:18:34Z</time>
      </trkpt>
      <trkpt lat="44.49674" lon="4.97637">
        <ele>637.01</ele>
        <time>2015-09-06T07:18:35Z</time>
      </trkpt>
      <trkpt lat="44.4967" lon="4.97637">
        <ele>636.53</ele>
        <time>2015-09-06T07:18:36Z</time>
      </trkpt>
      <trkpt lat="44.49666" lon="4.97636">
        <ele>636.05</ele>
        <time>2015-09-06T07:18:37Z</time>
      </trkpt>
      <trkpt lat="44.49663" lon="4.97633">
        <ele>635.09</ele>
        <time>2015-09-06T07:18:38Z</time>
      </trkpt>
      <trkpt lat="44.49649" lon="4.97626">
        <ele>633.17</ele>
        <time>2015-09-06T07:18:41Z</time>
      </trkpt>
      <trkpt lat="44.49639" lon="4.97621">
        <ele>632.2</ele>
        <time>2015-09-06T07:18:43Z</time>
      </trkpt>
      <trkpt lat="44.49635" lon="4.97617">
        <ele>631.24</ele>
        <time>2015-09-06T07:18:44Z</time>
      </trkpt>
      <trkpt lat="44.49623" lon="4.97606">
        <ele>628.84</ele>
        <time>2015-09-06T07:18:47Z</time>
      </trkpt>
      <trkpt lat="44.49618" lon="4.97604">
        <ele>628.36</ele>
        <time>2015-09-06T07:18:48Z</time>
      </trkpt>
      <trkpt lat="44.49614" lon="4.97601">
        <ele>627.4</ele>
        <time>2015-09-06T07:18:49Z</time>
      </trkpt>
      <trkpt lat="44.49608" lon="4.97601">
        <ele>626.92</ele>
        <time>2015-09-06T07:18:50Z</time>
      </trkpt>
      <trkpt lat="44.49602" lon="4.97601">
        <ele>625.96</ele>
        <time>2015-09-06T07:18:51Z</time>
      </trkpt>
      <trkpt lat="44.49577" lon="4.97602">
        <ele>623.07</ele>
        <time>2015-09-06T07:18:55Z</time>
      </trkpt>
      <trkpt lat="44.49566" lon="4.97602">
        <ele>620.19</ele>
        <time>2015-09-06T07:18:57Z</time>
      </trkpt>
      <trkpt lat="44.4956" lon="4.97604">
        <ele>619.23</ele>
        <time>2015-09-06T07:18:58Z</time>
      </trkpt>
      <trkpt lat="44.4955" lon="4.97609">
        <ele>616.34</ele>
        <time>2015-09-06T07:19:00Z</time>
      </trkpt>
      <trkpt lat="44.49545" lon="4.97612">
        <ele>615.86</ele>
        <time>2015-09-06T07:19:01Z</time>
      </trkpt>
      <trkpt lat="44.4954" lon="4.97616">
        <ele>615.38</ele>
        <time>2015-09-06T07:19:02Z</time>
      </trkpt>
      <trkpt lat="44.49535" lon="4.97618">
        <ele>614.42</ele>
        <time>2015-09-06T07:19:03Z</time>
      </trkpt>
      <trkpt lat="44.4953" lon="4.9762">
        <ele>613.46</ele>
        <time>2015-09-06T07:19:04Z</time>
      </trkpt>
      <trkpt lat="44.49524" lon="4.97621">
        <ele>612.5</ele>
        <time>2015-09-06T07:19:05Z</time>
      </trkpt>
      <trkpt lat="44.49518" lon="4.97622">
        <ele>612.02</ele>
        <time>2015-09-06T07:19:06Z</time>
      </trkpt>
      <trkpt lat="44.49513" lon="4.97624">
        <ele>611.06</ele>
        <time>2015-09-06T07:19:07Z</time>
      </trkpt>
      <trkpt lat="44.49507" lon="4.97626">
        <ele>610.57</ele>
        <time>2015-09-06T07:19:08Z</time>
      </trkpt>
      <trkpt lat="44.49502" lon="4.97628">
        <ele>609.61</ele>
        <time>2015-09-06T07:19:09Z</time>
      </trkpt>
      <trkpt lat="44.49497" lon="4.97631">
        <ele>609.13</ele>
        <time>2015-09-06T07:19:10Z</time>
      </trkpt>
      <trkpt lat="44.49492" lon="4.97634">
        <ele>608.65</ele>
        <time>2015-09-06T07:19:11Z</time>
      </trkpt>
      <trkpt lat="44.49487" lon="4.97636">
        <ele>608.65</ele>
        <time>2015-09-06T07:19:12Z</time>
      </trkpt>
      <trkpt lat="44.49481" lon="4.97638">
        <ele>608.17</ele>
        <time>2015-09-06T07:19:13Z</time>
      </trkpt>
      <trkpt lat="44.49476" lon="4.97639">
        <ele>607.69</ele>
        <time>2015-09-06T07:19:14Z</time>
      </trkpt>
      <trkpt lat="44.49471" lon="4.9764">
        <ele>607.21</ele>
        <time>2015-09-06T07:19:15Z</time>
      </trkpt>
      <trkpt lat="44.49433" lon="4.97646">
        <ele>605.29</ele>
        <time>2015-09-06T07:19:24Z</time>
      </trkpt>
      <trkpt lat="44.49416" lon="4.97647">
        <ele>604.33</ele>
        <time>2015-09-06T07:19:28Z</time>
      </trkpt>
      <trkpt lat="44.49397" lon="4.97636">
        <ele>603.36</ele>
        <time>2015-09-06T07:19:33Z</time>
      </trkpt>
      <trkpt lat="44.49384" lon="4.97616">
        <ele>601.44</ele>
        <time>2015-09-06T07:19:38Z</time>
      </trkpt>
      <trkpt lat="44.49375" lon="4.97605">
        <ele>600</ele>
        <time>2015-09-06T07:19:42Z</time>
      </trkpt>
      <trkpt lat="44.49373" lon="4.97598">
        <ele>599.04</ele>
        <time>2015-09-06T07:19:46Z</time>
      </trkpt>
      <trkpt lat="44.49388" lon="4.9759">
        <ele>595.67</ele>
        <time>2015-09-06T07:19:51Z</time>
      </trkpt>
      <trkpt lat="44.49401" lon="4.97585">
        <ele>592.31</ele>
        <time>2015-09-06T07:19:55Z</time>
      </trkpt>
      <trkpt lat="44.49407" lon="4.97582">
        <ele>590.87</ele>
        <time>2015-09-06T07:19:57Z</time>
      </trkpt>
      <trkpt lat="44.4942" lon="4.97577">
        <ele>589.43</ele>
        <time>2015-09-06T07:20:00Z</time>
      </trkpt>
      <trkpt lat="44.49437" lon="4.97561">
        <ele>586.06</ele>
        <time>2015-09-06T07:20:05Z</time>
      </trkpt>
      <trkpt lat="44.49444" lon="4.97553">
        <ele>585.1</ele>
        <time>2015-09-06T07:20:07Z</time>
      </trkpt>
      <trkpt lat="44.49456" lon="4.97537">
        <ele>582.22</ele>
        <time>2015-09-06T07:20:11Z</time>
      </trkpt>
      <trkpt lat="44.49466" lon="4.97521">
        <ele>578.85</ele>
        <time>2015-09-06T07:20:15Z</time>
      </trkpt>
      <trkpt lat="44.49466" lon="4.97517">
        <ele>578.37</ele>
        <time>2015-09-06T07:20:16Z</time>
      </trkpt>
      <trkpt lat="44.4947" lon="4.97504">
        <ele>575.01</ele>
        <time>2015-09-06T07:20:20Z</time>
      </trkpt>
      <trkpt lat="44.49472" lon="4.97499">
        <ele>574.04</ele>
        <time>2015-09-06T07:20:22Z</time>
      </trkpt>
      <trkpt lat="44.49479" lon="4.97484">
        <ele>572.6</ele>
        <time>2015-09-06T07:20:26Z</time>
      </trkpt>
      <trkpt lat="44.49485" lon="4.97476">
        <ele>572.6</ele>
        <time>2015-09-06T07:20:28Z</time>
      </trkpt>
      <trkpt lat="44.49498" lon="4.97457">
        <ele>571.16</ele>
        <time>2015-09-06T07:20:32Z</time>
      </trkpt>
      <trkpt lat="44.49543" lon="4.97416">
        <ele>568.76</ele>
        <time>2015-09-06T07:20:44Z</time>
      </trkpt>
      <trkpt lat="44.49546" lon="4.97411">
        <ele>567.8</ele>
        <time>2015-09-06T07:20:45Z</time>
      </trkpt>
      <trkpt lat="44.49548" lon="4.97407">
        <ele>567.32</ele>
        <time>2015-09-06T07:20:46Z</time>
      </trkpt>
      <trkpt lat="44.49548" lon="4.97404">
        <ele>567.8</ele>
        <time>2015-09-06T07:20:47Z</time>
      </trkpt>
      <trkpt lat="44.49547" lon="4.97402">
        <ele>567.8</ele>
        <time>2015-09-06T07:20:48Z</time>
      </trkpt>
      <trkpt lat="44.49546" lon="4.97399">
        <ele>567.8</ele>
        <time>2015-09-06T07:20:49Z</time>
      </trkpt>
      <trkpt lat="44.49545" lon="4.97395">
        <ele>568.28</ele>
        <time>2015-09-06T07:20:50Z</time>
      </trkpt>
      <trkpt lat="44.4954" lon="4.97385">
        <ele>568.28</ele>
        <time>2015-09-06T07:20:54Z</time>
      </trkpt>
      <trkpt lat="44.49538" lon="4.97383">
        <ele>568.28</ele>
        <time>2015-09-06T07:20:55Z</time>
      </trkpt>
      <trkpt lat="44.49537" lon="4.97381">
        <ele>568.76</ele>
        <time>2015-09-06T07:20:56Z</time>
      </trkpt>
      <trkpt lat="44.49535" lon="4.97378">
        <ele>569.24</ele>
        <time>2015-09-06T07:20:57Z</time>
      </trkpt>
      <trkpt lat="44.49533" lon="4.97376">
        <ele>569.24</ele>
        <time>2015-09-06T07:20:58Z</time>
      </trkpt>
      <trkpt lat="44.49505" lon="4.97359">
        <ele>572.12</ele>
        <time>2015-09-06T07:21:11Z</time>
      </trkpt>
      <trkpt lat="44.49479" lon="4.97341">
        <ele>575.01</ele>
        <time>2015-09-06T07:21:24Z</time>
      </trkpt>
      <trkpt lat="44.49471" lon="4.97336">
        <ele>577.89</ele>
        <time>2015-09-06T07:21:29Z</time>
      </trkpt>
      <trkpt lat="44.49457" lon="4.97324">
        <ele>579.81</ele>
        <time>2015-09-06T07:21:38Z</time>
      </trkpt>
      <trkpt lat="44.49444" lon="4.97312">
        <ele>581.25</ele>
        <time>2015-09-06T07:21:46Z</time>
      </trkpt>
      <trkpt lat="44.49442" lon="4.9731">
        <ele>581.25</ele>
        <time>2015-09-06T07:21:47Z</time>
      </trkpt>
      <trkpt lat="44.49441" lon="4.97309">
        <ele>581.25</ele>
        <time>2015-09-06T07:21:48Z</time>
      </trkpt>
      <trkpt lat="44.49439" lon="4.97307">
        <ele>581.25</ele>
        <time>2015-09-06T07:21:49Z</time>
      </trkpt>
      <trkpt lat="44.49437" lon="4.97305">
        <ele>581.25</ele>
        <time>2015-09-06T07:21:50Z</time>
      </trkpt>
      <trkpt lat="44.49435" lon="4.97303">
        <ele>581.25</ele>
        <time>2015-09-06T07:21:51Z</time>
      </trkpt>
      <trkpt lat="44.49434" lon="4.97302">
        <ele>581.25</ele>
        <time>2015-09-06T07:21:52Z</time>
      </trkpt>
      <trkpt lat="44.49432" lon="4.973">
        <ele>581.25</ele>
        <time>2015-09-06T07:21:53Z</time>
      </trkpt>
      <trkpt lat="44.4943" lon="4.97298">
        <ele>581.25</ele>
        <time>2015-09-06T07:21:54Z</time>
      </trkpt>
      <trkpt lat="44.49428" lon="4.97296">
        <ele>581.25</ele>
        <time>2015-09-06T07:21:55Z</time>
      </trkpt>
      <trkpt lat="44.49424" lon="4.97294">
        <ele>581.25</ele>
        <time>2015-09-06T07:21:56Z</time>
      </trkpt>
      <trkpt lat="44.49422" lon="4.97292">
        <ele>581.25</ele>
        <time>2015-09-06T07:21:57Z</time>
      </trkpt>
      <trkpt lat="44.49419" lon="4.97289">
        <ele>580.77</ele>
        <time>2015-09-06T07:21:58Z</time>
      </trkpt>
      <trkpt lat="44.49418" lon="4.97286">
        <ele>580.77</ele>
        <time>2015-09-06T07:21:59Z</time>
      </trkpt>
      <trkpt lat="44.49415" lon="4.97283">
        <ele>580.77</ele>
        <time>2015-09-06T07:22:00Z</time>
      </trkpt>
      <trkpt lat="44.49412" lon="4.97281">
        <ele>580.77</ele>
        <time>2015-09-06T07:22:01Z</time>
      </trkpt>
      <trkpt lat="44.4941" lon="4.97279">
        <ele>580.77</ele>
        <time>2015-09-06T07:22:02Z</time>
      </trkpt>
      <trkpt lat="44.49407" lon="4.97277">
        <ele>580.77</ele>
        <time>2015-09-06T07:22:03Z</time>
      </trkpt>
      <trkpt lat="44.49403" lon="4.97276">
        <ele>580.29</ele>
        <time>2015-09-06T07:22:04Z</time>
      </trkpt>
      <trkpt lat="44.49387" lon="4.97261">
        <ele>579.81</ele>
        <time>2015-09-06T07:22:09Z</time>
      </trkpt>
      <trkpt lat="44.49383" lon="4.97258">
        <ele>579.81</ele>
        <time>2015-09-06T07:22:10Z</time>
      </trkpt>
      <trkpt lat="44.49379" lon="4.97255">
        <ele>579.81</ele>
        <time>2015-09-06T07:22:11Z</time>
      </trkpt>
      <trkpt lat="44.4936" lon="4.97234">
        <ele>577.89</ele>
        <time>2015-09-06T07:22:16Z</time>
      </trkpt>
      <trkpt lat="44.49356" lon="4.97229">
        <ele>577.89</ele>
        <time>2015-09-06T07:22:17Z</time>
      </trkpt>
      <trkpt lat="44.49353" lon="4.97223">
        <ele>577.41</ele>
        <time>2015-09-06T07:22:18Z</time>
      </trkpt>
      <trkpt lat="44.4935" lon="4.97216">
        <ele>577.41</ele>
        <time>2015-09-06T07:22:19Z</time>
      </trkpt>
      <trkpt lat="44.49348" lon="4.9721">
        <ele>576.93</ele>
        <time>2015-09-06T07:22:20Z</time>
      </trkpt>
      <trkpt lat="44.49345" lon="4.97203">
        <ele>576.45</ele>
        <time>2015-09-06T07:22:21Z</time>
      </trkpt>
      <trkpt lat="44.49343" lon="4.97196">
        <ele>575.49</ele>
        <time>2015-09-06T07:22:22Z</time>
      </trkpt>
      <trkpt lat="44.49341" lon="4.97189">
        <ele>575.49</ele>
        <time>2015-09-06T07:22:23Z</time>
      </trkpt>
      <trkpt lat="44.49338" lon="4.97183">
        <ele>575.01</ele>
        <time>2015-09-06T07:22:24Z</time>
      </trkpt>
      <trkpt lat="44.49336" lon="4.97177">
        <ele>575.01</ele>
        <time>2015-09-06T07:22:25Z</time>
      </trkpt>
      <trkpt lat="44.49333" lon="4.97172">
        <ele>575.01</ele>
        <time>2015-09-06T07:22:26Z</time>
      </trkpt>
      <trkpt lat="44.4933" lon="4.97167">
        <ele>575.01</ele>
        <time>2015-09-06T07:22:27Z</time>
      </trkpt>
      <trkpt lat="44.49322" lon="4.97154">
        <ele>575.49</ele>
        <time>2015-09-06T07:22:30Z</time>
      </trkpt>
      <trkpt lat="44.49319" lon="4.97149">
        <ele>575.49</ele>
        <time>2015-09-06T07:22:31Z</time>
      </trkpt>
      <trkpt lat="44.49317" lon="4.97144">
        <ele>575.97</ele>
        <time>2015-09-06T07:22:32Z</time>
      </trkpt>
      <trkpt lat="44.49316" lon="4.97139">
        <ele>575.97</ele>
        <time>2015-09-06T07:22:33Z</time>
      </trkpt>
      <trkpt lat="44.49316" lon="4.97136">
        <ele>576.45</ele>
        <time>2015-09-06T07:22:34Z</time>
      </trkpt>
      <trkpt lat="44.49316" lon="4.97133">
        <ele>576.93</ele>
        <time>2015-09-06T07:22:35Z</time>
      </trkpt>
      <trkpt lat="44.49316" lon="4.9713">
        <ele>576.93</ele>
        <time>2015-09-06T07:22:36Z</time>
      </trkpt>
      <trkpt lat="44.49317" lon="4.97116">
        <ele>578.85</ele>
        <time>2015-09-06T07:22:42Z</time>
      </trkpt>
      <trkpt lat="44.4932" lon="4.97113">
        <ele>579.81</ele>
        <time>2015-09-06T07:22:46Z</time>
      </trkpt>
      <trkpt lat="44.4932" lon="4.97111">
        <ele>579.81</ele>
        <time>2015-09-06T07:22:47Z</time>
      </trkpt>
      <trkpt lat="44.49321" lon="4.97108">
        <ele>579.81</ele>
        <time>2015-09-06T07:22:48Z</time>
      </trkpt>
      <trkpt lat="44.49322" lon="4.97105">
        <ele>579.81</ele>
        <time>2015-09-06T07:22:49Z</time>
      </trkpt>
      <trkpt lat="44.49323" lon="4.97102">
        <ele>580.29</ele>
        <time>2015-09-06T07:22:50Z</time>
      </trkpt>
      <trkpt lat="44.49325" lon="4.971">
        <ele>580.29</ele>
        <time>2015-09-06T07:22:51Z</time>
      </trkpt>
      <trkpt lat="44.49326" lon="4.97098">
        <ele>579.81</ele>
        <time>2015-09-06T07:22:52Z</time>
      </trkpt>
      <trkpt lat="44.49329" lon="4.97096">
        <ele>580.29</ele>
        <time>2015-09-06T07:23:01Z</time>
      </trkpt>
      <trkpt lat="44.49332" lon="4.97098">
        <ele>580.29</ele>
        <time>2015-09-06T07:23:03Z</time>
      </trkpt>
      <trkpt lat="44.49333" lon="4.97099">
        <ele>580.29</ele>
        <time>2015-09-06T07:23:04Z</time>
      </trkpt>
      <trkpt lat="44.49335" lon="4.971">
        <ele>580.29</ele>
        <time>2015-09-06T07:23:05Z</time>
      </trkpt>
      <trkpt lat="44.49336" lon="4.97101">
        <ele>580.29</ele>
        <time>2015-09-06T07:23:06Z</time>
      </trkpt>
      <trkpt lat="44.49338" lon="4.97102">
        <ele>580.77</ele>
        <time>2015-09-06T07:23:07Z</time>
      </trkpt>
      <trkpt lat="44.49351" lon="4.97107">
        <ele>580.77</ele>
        <time>2015-09-06T07:23:15Z</time>
      </trkpt>
      <trkpt lat="44.49353" lon="4.97105">
        <ele>581.25</ele>
        <time>2015-09-06T07:23:16Z</time>
      </trkpt>
      <trkpt lat="44.49357" lon="4.97102">
        <ele>581.25</ele>
        <time>2015-09-06T07:23:19Z</time>
      </trkpt>
      <trkpt lat="44.49358" lon="4.97101">
        <ele>580.29</ele>
        <time>2015-09-06T07:23:20Z</time>
      </trkpt>
      <trkpt lat="44.49362" lon="4.97098">
        <ele>579.33</ele>
        <time>2015-09-06T07:23:22Z</time>
      </trkpt>
      <trkpt lat="44.49369" lon="4.97084">
        <ele>578.85</ele>
        <time>2015-09-06T07:23:27Z</time>
      </trkpt>
      <trkpt lat="44.49375" lon="4.9708">
        <ele>576.45</ele>
        <time>2015-09-06T07:23:30Z</time>
      </trkpt>
      <trkpt lat="44.49376" lon="4.9708">
        <ele>576.45</ele>
        <time>2015-09-06T07:23:31Z</time>
      </trkpt>
      <trkpt lat="44.49389" lon="4.97059">
        <ele>573.08</ele>
        <time>2015-09-06T07:23:37Z</time>
      </trkpt>
      <trkpt lat="44.49392" lon="4.97056">
        <ele>573.08</ele>
        <time>2015-09-06T07:23:38Z</time>
      </trkpt>
      <trkpt lat="44.49408" lon="4.97034">
        <ele>570.2</ele>
        <time>2015-09-06T07:23:44Z</time>
      </trkpt>
      <trkpt lat="44.49429" lon="4.97022">
        <ele>569.72</ele>
        <time>2015-09-06T07:23:49Z</time>
      </trkpt>
      <trkpt lat="44.49461" lon="4.96979">
        <ele>567.32</ele>
        <time>2015-09-06T07:24:00Z</time>
      </trkpt>
      <trkpt lat="44.49487" lon="4.9698">
        <ele>564.91</ele>
        <time>2015-09-06T07:24:06Z</time>
      </trkpt>
      <trkpt lat="44.49499" lon="4.96986">
        <ele>563.95</ele>
        <time>2015-09-06T07:24:09Z</time>
      </trkpt>
      <trkpt lat="44.49504" lon="4.96989">
        <ele>563.47</ele>
        <time>2015-09-06T07:24:10Z</time>
      </trkpt>
      <trkpt lat="44.49516" lon="4.96992">
        <ele>562.51</ele>
        <time>2015-09-06T07:24:13Z</time>
      </trkpt>
      <trkpt lat="44.49519" lon="4.96991">
        <ele>562.03</ele>
        <time>2015-09-06T07:24:14Z</time>
      </trkpt>
      <trkpt lat="44.49521" lon="4.96988">
        <ele>562.51</ele>
        <time>2015-09-06T07:24:15Z</time>
      </trkpt>
      <trkpt lat="44.4952" lon="4.9698">
        <ele>562.51</ele>
        <time>2015-09-06T07:24:18Z</time>
      </trkpt>
      <trkpt lat="44.49517" lon="4.96974">
        <ele>560.11</ele>
        <time>2015-09-06T07:24:22Z</time>
      </trkpt>
      <trkpt lat="44.49515" lon="4.96969">
        <ele>560.11</ele>
        <time>2015-09-06T07:24:25Z</time>
      </trkpt>
      <trkpt lat="44.49508" lon="4.96953">
        <ele>558.66</ele>
        <time>2015-09-06T07:24:32Z</time>
      </trkpt>
      <trkpt lat="44.49507" lon="4.96928">
        <ele>554.34</ele>
        <time>2015-09-06T07:24:38Z</time>
      </trkpt>
      <trkpt lat="44.49504" lon="4.9691">
        <ele>550.97</ele>
        <time>2015-09-06T07:24:43Z</time>
      </trkpt>
      <trkpt lat="44.49503" lon="4.96906">
        <ele>550.01</ele>
        <time>2015-09-06T07:24:44Z</time>
      </trkpt>
      <trkpt lat="44.49496" lon="4.96901">
        <ele>548.57</ele>
        <time>2015-09-06T07:24:46Z</time>
      </trkpt>
      <trkpt lat="44.49487" lon="4.96881">
        <ele>549.05</ele>
        <time>2015-09-06T07:24:50Z</time>
      </trkpt>
      <trkpt lat="44.49472" lon="4.96858">
        <ele>545.69</ele>
        <time>2015-09-06T07:24:55Z</time>
      </trkpt>
      <trkpt lat="44.4947" lon="4.96856">
        <ele>545.69</ele>
        <time>2015-09-06T07:24:56Z</time>
      </trkpt>
      <trkpt lat="44.49461" lon="4.9684">
        <ele>542.32</ele>
        <time>2015-09-06T07:25:02Z</time>
      </trkpt>
      <trkpt lat="44.49445" lon="4.96821">
        <ele>539.44</ele>
        <time>2015-09-06T07:25:08Z</time>
      </trkpt>
      <trkpt lat="44.49438" lon="4.96817">
        <ele>537.51</ele>
        <time>2015-09-06T07:25:10Z</time>
      </trkpt>
      <trkpt lat="44.4942" lon="4.96797">
        <ele>536.07</ele>
        <time>2015-09-06T07:25:14Z</time>
      </trkpt>
      <trkpt lat="44.49413" lon="4.96788">
        <ele>535.11</ele>
        <time>2015-09-06T07:25:16Z</time>
      </trkpt>
      <trkpt lat="44.49405" lon="4.9676">
        <ele>531.75</ele>
        <time>2015-09-06T07:25:21Z</time>
      </trkpt>
      <trkpt lat="44.49402" lon="4.96758">
        <ele>531.75</ele>
        <time>2015-09-06T07:25:22Z</time>
      </trkpt>
      <trkpt lat="44.49395" lon="4.96751">
        <ele>528.86</ele>
        <time>2015-09-06T07:25:24Z</time>
      </trkpt>
      <trkpt lat="44.49374" lon="4.96745">
        <ele>526.46</ele>
        <time>2015-09-06T07:25:34Z</time>
      </trkpt>
      <trkpt lat="44.49373" lon="4.96744">
        <ele>525.5</ele>
        <time>2015-09-06T07:25:35Z</time>
      </trkpt>
      <trkpt lat="44.49366" lon="4.96739">
        <ele>524.54</ele>
        <time>2015-09-06T07:25:37Z</time>
      </trkpt>
      <trkpt lat="44.49347" lon="4.96729">
        <ele>523.09</ele>
        <time>2015-09-06T07:25:45Z</time>
      </trkpt>
      <trkpt lat="44.49346" lon="4.96733">
        <ele>525.98</ele>
        <time>2015-09-06T07:25:54Z</time>
      </trkpt>
      <trkpt lat="44.49347" lon="4.96736">
        <ele>527.42</ele>
        <time>2015-09-06T07:25:57Z</time>
      </trkpt>
      <trkpt lat="44.49347" lon="4.96749">
        <ele>528.86</ele>
        <time>2015-09-06T07:26:07Z</time>
      </trkpt>
      <trkpt lat="44.49346" lon="4.96755">
        <ele>530.79</ele>
        <time>2015-09-06T07:26:19Z</time>
      </trkpt>
      <trkpt lat="44.49358" lon="4.96737">
        <ele>532.23</ele>
        <time>2015-09-06T07:26:35Z</time>
      </trkpt>
      <trkpt lat="44.49358" lon="4.96738">
        <ele>532.71</ele>
        <time>2015-09-06T07:26:36Z</time>
      </trkpt>
      <trkpt lat="44.49345" lon="4.96759">
        <ele>535.59</ele>
        <time>2015-09-06T07:26:48Z</time>
      </trkpt>
      <trkpt lat="44.49333" lon="4.96772">
        <ele>537.51</ele>
        <time>2015-09-06T07:26:58Z</time>
      </trkpt>
      <trkpt lat="44.49317" lon="4.96791">
        <ele>539.92</ele>
        <time>2015-09-06T07:27:12Z</time>
      </trkpt>
      <trkpt lat="44.49317" lon="4.96797">
        <ele>540.88</ele>
        <time>2015-09-06T07:27:15Z</time>
      </trkpt>
      <trkpt lat="44.49316" lon="4.96799">
        <ele>541.36</ele>
        <time>2015-09-06T07:27:16Z</time>
      </trkpt>
      <trkpt lat="44.49312" lon="4.96821">
        <ele>544.72</ele>
        <time>2015-09-06T07:27:26Z</time>
      </trkpt>
      <trkpt lat="44.49312" lon="4.96821">
        <ele>545.69</ele>
        <time>2015-09-06T07:27:29Z</time>
      </trkpt>
      <trkpt lat="44.49308" lon="4.96831">
        <ele>546.65</ele>
        <time>2015-09-06T07:27:33Z</time>
      </trkpt>
      <trkpt lat="44.49298" lon="4.96855">
        <ele>550.01</ele>
        <time>2015-09-06T07:27:46Z</time>
      </trkpt>
      <trkpt lat="44.49298" lon="4.96857">
        <ele>550.01</ele>
        <time>2015-09-06T07:27:49Z</time>
      </trkpt>
      <trkpt lat="44.4929" lon="4.9687">
        <ele>552.41</ele>
        <time>2015-09-06T07:27:59Z</time>
      </trkpt>
      <trkpt lat="44.49275" lon="4.96889">
        <ele>554.82</ele>
        <time>2015-09-06T07:28:13Z</time>
      </trkpt>
      <trkpt lat="44.49261" lon="4.96899">
        <ele>557.22</ele>
        <time>2015-09-06T07:28:25Z</time>
      </trkpt>
      <trkpt lat="44.49249" lon="4.96908">
        <ele>559.62</ele>
        <time>2015-09-06T07:28:39Z</time>
      </trkpt>
      <trkpt lat="44.49239" lon="4.96915">
        <ele>562.99</ele>
        <time>2015-09-06T07:28:48Z</time>
      </trkpt>
      <trkpt lat="44.49228" lon="4.96923">
        <ele>565.39</ele>
        <time>2015-09-06T07:29:02Z</time>
      </trkpt>
      <trkpt lat="44.49221" lon="4.96924">
        <ele>568.76</ele>
        <time>2015-09-06T07:29:12Z</time>
      </trkpt>
      <trkpt lat="44.49208" lon="4.96923">
        <ele>571.64</ele>
        <time>2015-09-06T07:29:23Z</time>
      </trkpt>
      <trkpt lat="44.49204" lon="4.96923">
        <ele>572.6</ele>
        <time>2015-09-06T07:29:26Z</time>
      </trkpt>
      <trkpt lat="44.49202" lon="4.96922">
        <ele>573.08</ele>
        <time>2015-09-06T07:29:28Z</time>
      </trkpt>
      <trkpt lat="44.49195" lon="4.96922">
        <ele>575.01</ele>
        <time>2015-09-06T07:29:35Z</time>
      </trkpt>
      <trkpt lat="44.49192" lon="4.96922">
        <ele>574.53</ele>
        <time>2015-09-06T07:29:38Z</time>
      </trkpt>
      <trkpt lat="44.49187" lon="4.96922">
        <ele>575.97</ele>
        <time>2015-09-06T07:29:42Z</time>
      </trkpt>
      <trkpt lat="44.49168" lon="4.96927">
        <ele>578.37</ele>
        <time>2015-09-06T07:29:57Z</time>
      </trkpt>
      <trkpt lat="44.49166" lon="4.96931">
        <ele>580.29</ele>
        <time>2015-09-06T07:30:03Z</time>
      </trkpt>
      <trkpt lat="44.49165" lon="4.96934">
        <ele>580.29</ele>
        <time>2015-09-06T07:30:06Z</time>
      </trkpt>
      <trkpt lat="44.49162" lon="4.9694">
        <ele>580.29</ele>
        <time>2015-09-06T07:30:11Z</time>
      </trkpt>
      <trkpt lat="44.49158" lon="4.96941">
        <ele>580.77</ele>
        <time>2015-09-06T07:30:16Z</time>
      </trkpt>
      <trkpt lat="44.49156" lon="4.96939">
        <ele>582.22</ele>
        <time>2015-09-06T07:30:21Z</time>
      </trkpt>
      <trkpt lat="44.49148" lon="4.96924">
        <ele>583.66</ele>
        <time>2015-09-06T07:30:28Z</time>
      </trkpt>
      <trkpt lat="44.49128" lon="4.96889">
        <ele>582.22</ele>
        <time>2015-09-06T07:30:37Z</time>
      </trkpt>
      <trkpt lat="44.49121" lon="4.96866">
        <ele>580.77</ele>
        <time>2015-09-06T07:30:41Z</time>
      </trkpt>
      <trkpt lat="44.49092" lon="4.96799">
        <ele>577.41</ele>
        <time>2015-09-06T07:30:52Z</time>
      </trkpt>
      <trkpt lat="44.49088" lon="4.96795">
        <ele>576.93</ele>
        <time>2015-09-06T07:30:53Z</time>
      </trkpt>
      <trkpt lat="44.49083" lon="4.96791">
        <ele>576.93</ele>
        <time>2015-09-06T07:30:54Z</time>
      </trkpt>
      <trkpt lat="44.49053" lon="4.96773">
        <ele>576.93</ele>
        <time>2015-09-06T07:31:01Z</time>
      </trkpt>
      <trkpt lat="44.49041" lon="4.9676">
        <ele>576.45</ele>
        <time>2015-09-06T07:31:04Z</time>
      </trkpt>
      <trkpt lat="44.49029" lon="4.96744">
        <ele>576.93</ele>
        <time>2015-09-06T07:31:07Z</time>
      </trkpt>
      <trkpt lat="44.49022" lon="4.96732">
        <ele>575.97</ele>
        <time>2015-09-06T07:31:09Z</time>
      </trkpt>
      <trkpt lat="44.49018" lon="4.96725">
        <ele>575.49</ele>
        <time>2015-09-06T07:31:10Z</time>
      </trkpt>
      <trkpt lat="44.49016" lon="4.96717">
        <ele>575.01</ele>
        <time>2015-09-06T07:31:11Z</time>
      </trkpt>
      <trkpt lat="44.49011" lon="4.96702">
        <ele>573.56</ele>
        <time>2015-09-06T07:31:13Z</time>
      </trkpt>
      <trkpt lat="44.49004" lon="4.96689">
        <ele>573.08</ele>
        <time>2015-09-06T07:31:15Z</time>
      </trkpt>
      <trkpt lat="44.49001" lon="4.96683">
        <ele>572.6</ele>
        <time>2015-09-06T07:31:16Z</time>
      </trkpt>
      <trkpt lat="44.48994" lon="4.96671">
        <ele>571.64</ele>
        <time>2015-09-06T07:31:18Z</time>
      </trkpt>
      <trkpt lat="44.48974" lon="4.96641">
        <ele>569.72</ele>
        <time>2015-09-06T07:31:23Z</time>
      </trkpt>
      <trkpt lat="44.48968" lon="4.96636">
        <ele>569.72</ele>
        <time>2015-09-06T07:31:24Z</time>
      </trkpt>
      <trkpt lat="44.48963" lon="4.96632">
        <ele>568.76</ele>
        <time>2015-09-06T07:31:25Z</time>
      </trkpt>
      <trkpt lat="44.48959" lon="4.96627">
        <ele>568.28</ele>
        <time>2015-09-06T07:31:26Z</time>
      </trkpt>
      <trkpt lat="44.48955" lon="4.96622">
        <ele>567.8</ele>
        <time>2015-09-06T07:31:27Z</time>
      </trkpt>
      <trkpt lat="44.48951" lon="4.96617">
        <ele>567.32</ele>
        <time>2015-09-06T07:31:28Z</time>
      </trkpt>
      <trkpt lat="44.48947" lon="4.96612">
        <ele>566.83</ele>
        <time>2015-09-06T07:31:29Z</time>
      </trkpt>
      <trkpt lat="44.48942" lon="4.96608">
        <ele>566.83</ele>
        <time>2015-09-06T07:31:30Z</time>
      </trkpt>
      <trkpt lat="44.48934" lon="4.96599">
        <ele>566.83</ele>
        <time>2015-09-06T07:31:32Z</time>
      </trkpt>
      <trkpt lat="44.48931" lon="4.96593">
        <ele>566.83</ele>
        <time>2015-09-06T07:31:33Z</time>
      </trkpt>
      <trkpt lat="44.48923" lon="4.96577">
        <ele>564.91</ele>
        <time>2015-09-06T07:31:37Z</time>
      </trkpt>
      <trkpt lat="44.48913" lon="4.96546">
        <ele>564.43</ele>
        <time>2015-09-06T07:31:47Z</time>
      </trkpt>
      <trkpt lat="44.48903" lon="4.96519">
        <ele>562.03</ele>
        <time>2015-09-06T07:31:52Z</time>
      </trkpt>
      <trkpt lat="44.48901" lon="4.96513">
        <ele>561.55</ele>
        <time>2015-09-06T07:31:53Z</time>
      </trkpt>
      <trkpt lat="44.48896" lon="4.965">
        <ele>560.59</ele>
        <time>2015-09-06T07:31:55Z</time>
      </trkpt>
      <trkpt lat="44.48894" lon="4.96495">
        <ele>560.11</ele>
        <time>2015-09-06T07:31:56Z</time>
      </trkpt>
      <trkpt lat="44.48893" lon="4.96491">
        <ele>559.62</ele>
        <time>2015-09-06T07:31:57Z</time>
      </trkpt>
      <trkpt lat="44.48892" lon="4.96488">
        <ele>559.62</ele>
        <time>2015-09-06T07:31:58Z</time>
      </trkpt>
      <trkpt lat="44.48892" lon="4.96488">
        <ele>559.14</ele>
        <time>2015-09-06T07:31:59Z</time>
      </trkpt>
      <trkpt lat="44.48897" lon="4.96491">
        <ele>559.14</ele>
        <time>2015-09-06T07:32:02Z</time>
      </trkpt>
      <trkpt lat="44.48923" lon="4.96508">
        <ele>558.18</ele>
        <time>2015-09-06T07:32:13Z</time>
      </trkpt>
      <trkpt lat="44.48939" lon="4.96515">
        <ele>557.7</ele>
        <time>2015-09-06T07:32:18Z</time>
      </trkpt>
      <trkpt lat="44.48946" lon="4.96517">
        <ele>557.7</ele>
        <time>2015-09-06T07:32:20Z</time>
      </trkpt>
      <trkpt lat="44.48949" lon="4.96518">
        <ele>557.22</ele>
        <time>2015-09-06T07:32:21Z</time>
      </trkpt>
      <trkpt lat="44.48951" lon="4.9652">
        <ele>556.74</ele>
        <time>2015-09-06T07:32:22Z</time>
      </trkpt>
      <trkpt lat="44.48954" lon="4.96521">
        <ele>556.74</ele>
        <time>2015-09-06T07:32:23Z</time>
      </trkpt>
      <trkpt lat="44.48957" lon="4.96523">
        <ele>556.26</ele>
        <time>2015-09-06T07:32:24Z</time>
      </trkpt>
      <trkpt lat="44.4897" lon="4.96529">
        <ele>554.82</ele>
        <time>2015-09-06T07:32:28Z</time>
      </trkpt>
      <trkpt lat="44.48978" lon="4.96531">
        <ele>554.82</ele>
        <time>2015-09-06T07:32:30Z</time>
      </trkpt>
      <trkpt lat="44.49002" lon="4.9654">
        <ele>550.49</ele>
        <time>2015-09-06T07:32:35Z</time>
      </trkpt>
      <trkpt lat="44.49011" lon="4.96546">
        <ele>549.53</ele>
        <time>2015-09-06T07:32:37Z</time>
      </trkpt>
      <trkpt lat="44.49021" lon="4.96552">
        <ele>549.53</ele>
        <time>2015-09-06T07:32:39Z</time>
      </trkpt>
      <trkpt lat="44.49042" lon="4.96562">
        <ele>547.13</ele>
        <time>2015-09-06T07:32:44Z</time>
      </trkpt>
      <trkpt lat="44.49074" lon="4.96581">
        <ele>543.76</ele>
        <time>2015-09-06T07:32:53Z</time>
      </trkpt>
      <trkpt lat="44.49075" lon="4.96587">
        <ele>542.8</ele>
        <time>2015-09-06T07:32:54Z</time>
      </trkpt>
      <trkpt lat="44.49086" lon="4.96602">
        <ele>539.44</ele>
        <time>2015-09-06T07:32:58Z</time>
      </trkpt>
      <trkpt lat="44.49091" lon="4.96609">
        <ele>537.99</ele>
        <time>2015-09-06T07:33:00Z</time>
      </trkpt>
      <trkpt lat="44.49104" lon="4.96612">
        <ele>537.03</ele>
        <time>2015-09-06T07:33:02Z</time>
      </trkpt>
      <trkpt lat="44.49121" lon="4.96616">
        <ele>535.59</ele>
        <time>2015-09-06T07:33:05Z</time>
      </trkpt>
      <trkpt lat="44.49146" lon="4.96623">
        <ele>532.71</ele>
        <time>2015-09-06T07:33:10Z</time>
      </trkpt>
      <trkpt lat="44.4917" lon="4.96617">
        <ele>528.38</ele>
        <time>2015-09-06T07:33:15Z</time>
      </trkpt>
      <trkpt lat="44.49185" lon="4.96613">
        <ele>526.46</ele>
        <time>2015-09-06T07:33:19Z</time>
      </trkpt>
      <trkpt lat="44.49217" lon="4.96627">
        <ele>524.54</ele>
        <time>2015-09-06T07:33:30Z</time>
      </trkpt>
      <trkpt lat="44.4924" lon="4.96642">
        <ele>521.17</ele>
        <time>2015-09-06T07:33:36Z</time>
      </trkpt>
      <trkpt lat="44.49263" lon="4.96654">
        <ele>517.81</ele>
        <time>2015-09-06T07:33:41Z</time>
      </trkpt>
      <trkpt lat="44.49268" lon="4.96655">
        <ele>517.33</ele>
        <time>2015-09-06T07:33:42Z</time>
      </trkpt>
      <trkpt lat="44.49284" lon="4.96645">
        <ele>518.29</ele>
        <time>2015-09-06T07:33:48Z</time>
      </trkpt>
      <trkpt lat="44.49285" lon="4.96636">
        <ele>517.81</ele>
        <time>2015-09-06T07:33:51Z</time>
      </trkpt>
      <trkpt lat="44.49283" lon="4.96628">
        <ele>516.37</ele>
        <time>2015-09-06T07:33:54Z</time>
      </trkpt>
      <trkpt lat="44.49271" lon="4.96602">
        <ele>515.88</ele>
        <time>2015-09-06T07:34:00Z</time>
      </trkpt>
      <trkpt lat="44.49268" lon="4.96598">
        <ele>515.88</ele>
        <time>2015-09-06T07:34:01Z</time>
      </trkpt>
      <trkpt lat="44.49248" lon="4.96575">
        <ele>513</ele>
        <time>2015-09-06T07:34:06Z</time>
      </trkpt>
      <trkpt lat="44.4923" lon="4.96563">
        <ele>512.52</ele>
        <time>2015-09-06T07:34:09Z</time>
      </trkpt>
      <trkpt lat="44.49191" lon="4.96525">
        <ele>509.64</ele>
        <time>2015-09-06T07:34:16Z</time>
      </trkpt>
      <trkpt lat="44.49186" lon="4.9652">
        <ele>508.67</ele>
        <time>2015-09-06T07:34:17Z</time>
      </trkpt>
      <trkpt lat="44.49181" lon="4.96514">
        <ele>508.67</ele>
        <time>2015-09-06T07:34:18Z</time>
      </trkpt>
      <trkpt lat="44.49177" lon="4.96507">
        <ele>508.19</ele>
        <time>2015-09-06T07:34:19Z</time>
      </trkpt>
      <trkpt lat="44.49174" lon="4.96499">
        <ele>507.71</ele>
        <time>2015-09-06T07:34:20Z</time>
      </trkpt>
      <trkpt lat="44.49171" lon="4.96492">
        <ele>507.23</ele>
        <time>2015-09-06T07:34:21Z</time>
      </trkpt>
      <trkpt lat="44.4916" lon="4.96459">
        <ele>503.87</ele>
        <time>2015-09-06T07:34:25Z</time>
      </trkpt>
      <trkpt lat="44.4914" lon="4.96416">
        <ele>500.5</ele>
        <time>2015-09-06T07:34:30Z</time>
      </trkpt>
      <trkpt lat="44.49138" lon="4.96406">
        <ele>500.02</ele>
        <time>2015-09-06T07:34:31Z</time>
      </trkpt>
      <trkpt lat="44.49136" lon="4.96396">
        <ele>500.02</ele>
        <time>2015-09-06T07:34:32Z</time>
      </trkpt>
      <trkpt lat="44.49134" lon="4.96386">
        <ele>499.54</ele>
        <time>2015-09-06T07:34:33Z</time>
      </trkpt>
      <trkpt lat="44.49134" lon="4.96374">
        <ele>498.58</ele>
        <time>2015-09-06T07:34:34Z</time>
      </trkpt>
      <trkpt lat="44.49134" lon="4.96364">
        <ele>498.58</ele>
        <time>2015-09-06T07:34:35Z</time>
      </trkpt>
      <trkpt lat="44.4913" lon="4.96325">
        <ele>494.74</ele>
        <time>2015-09-06T07:34:39Z</time>
      </trkpt>
      <trkpt lat="44.49125" lon="4.963">
        <ele>492.33</ele>
        <time>2015-09-06T07:34:42Z</time>
      </trkpt>
      <trkpt lat="44.49122" lon="4.96294">
        <ele>490.89</ele>
        <time>2015-09-06T07:34:43Z</time>
      </trkpt>
      <trkpt lat="44.49119" lon="4.96289">
        <ele>489.93</ele>
        <time>2015-09-06T07:34:44Z</time>
      </trkpt>
      <trkpt lat="44.49111" lon="4.96279">
        <ele>487.53</ele>
        <time>2015-09-06T07:34:46Z</time>
      </trkpt>
      <trkpt lat="44.49106" lon="4.96275">
        <ele>487.05</ele>
        <time>2015-09-06T07:34:47Z</time>
      </trkpt>
      <trkpt lat="44.491" lon="4.96272">
        <ele>486.56</ele>
        <time>2015-09-06T07:34:48Z</time>
      </trkpt>
      <trkpt lat="44.49067" lon="4.96256">
        <ele>487.53</ele>
        <time>2015-09-06T07:34:57Z</time>
      </trkpt>
      <trkpt lat="44.49055" lon="4.96256">
        <ele>487.53</ele>
        <time>2015-09-06T07:35:00Z</time>
      </trkpt>
      <trkpt lat="44.49011" lon="4.96261">
        <ele>486.08</ele>
        <time>2015-09-06T07:35:11Z</time>
      </trkpt>
      <trkpt lat="44.48996" lon="4.96262">
        <ele>485.12</ele>
        <time>2015-09-06T07:35:14Z</time>
      </trkpt>
      <trkpt lat="44.48922" lon="4.96231">
        <ele>483.2</ele>
        <time>2015-09-06T07:35:28Z</time>
      </trkpt>
      <trkpt lat="44.48917" lon="4.96227">
        <ele>482.72</ele>
        <time>2015-09-06T07:35:29Z</time>
      </trkpt>
      <trkpt lat="44.48864" lon="4.96213">
        <ele>478.39</ele>
        <time>2015-09-06T07:35:36Z</time>
      </trkpt>
      <trkpt lat="44.48816" lon="4.96202">
        <ele>476.47</ele>
        <time>2015-09-06T07:35:44Z</time>
      </trkpt>
      <trkpt lat="44.48783" lon="4.96193">
        <ele>475.51</ele>
        <time>2015-09-06T07:35:49Z</time>
      </trkpt>
      <trkpt lat="44.48737" lon="4.96192">
        <ele>472.14</ele>
        <time>2015-09-06T07:35:55Z</time>
      </trkpt>
      <trkpt lat="44.48729" lon="4.96192">
        <ele>471.66</ele>
        <time>2015-09-06T07:35:56Z</time>
      </trkpt>
      <trkpt lat="44.48708" lon="4.9619">
        <ele>471.18</ele>
        <time>2015-09-06T07:35:59Z</time>
      </trkpt>
      <trkpt lat="44.48668" lon="4.96191">
        <ele>468.78</ele>
        <time>2015-09-06T07:36:05Z</time>
      </trkpt>
      <trkpt lat="44.48649" lon="4.96194">
        <ele>467.34</ele>
        <time>2015-09-06T07:36:08Z</time>
      </trkpt>
      <trkpt lat="44.48591" lon="4.96183">
        <ele>465.42</ele>
        <time>2015-09-06T07:36:19Z</time>
      </trkpt>
      <trkpt lat="44.48526" lon="4.96149">
        <ele>462.53</ele>
        <time>2015-09-06T07:36:30Z</time>
      </trkpt>
      <trkpt lat="44.48497" lon="4.96134">
        <ele>462.53</ele>
        <time>2015-09-06T07:36:35Z</time>
      </trkpt>
      <trkpt lat="44.48475" lon="4.96124">
        <ele>462.53</ele>
        <time>2015-09-06T07:36:40Z</time>
      </trkpt>
      <trkpt lat="44.48422" lon="4.96103">
        <ele>459.17</ele>
        <time>2015-09-06T07:36:51Z</time>
      </trkpt>
      <trkpt lat="44.48396" lon="4.96099">
        <ele>456.28</ele>
        <time>2015-09-06T07:36:56Z</time>
      </trkpt>
      <trkpt lat="44.48367" lon="4.96092">
        <ele>451.48</ele>
        <time>2015-09-06T07:37:03Z</time>
      </trkpt>
      <trkpt lat="44.48348" lon="4.96089">
        <ele>448.59</ele>
        <time>2015-09-06T07:37:08Z</time>
      </trkpt>
      <trkpt lat="44.48339" lon="4.96086">
        <ele>447.63</ele>
        <time>2015-09-06T07:37:10Z</time>
      </trkpt>
      <trkpt lat="44.48316" lon="4.96075">
        <ele>446.19</ele>
        <time>2015-09-06T07:37:15Z</time>
      </trkpt>
      <trkpt lat="44.48294" lon="4.96071">
        <ele>442.34</ele>
        <time>2015-09-06T07:37:21Z</time>
      </trkpt>
      <trkpt lat="44.4823" lon="4.96052">
        <ele>438.98</ele>
        <time>2015-09-06T07:37:34Z</time>
      </trkpt>
      <trkpt lat="44.48218" lon="4.96047">
        <ele>438.98</ele>
        <time>2015-09-06T07:37:36Z</time>
      </trkpt>
      <trkpt lat="44.48212" lon="4.96045">
        <ele>438.98</ele>
        <time>2015-09-06T07:37:37Z</time>
      </trkpt>
      <trkpt lat="44.4816" lon="4.96018">
        <ele>437.54</ele>
        <time>2015-09-06T07:37:46Z</time>
      </trkpt>
      <trkpt lat="44.4813" lon="4.9601">
        <ele>435.61</ele>
        <time>2015-09-06T07:37:51Z</time>
      </trkpt>
      <trkpt lat="44.48124" lon="4.96009">
        <ele>435.13</ele>
        <time>2015-09-06T07:37:52Z</time>
      </trkpt>
      <trkpt lat="44.48093" lon="4.96004">
        <ele>431.77</ele>
        <time>2015-09-06T07:37:57Z</time>
      </trkpt>
      <trkpt lat="44.48081" lon="4.96003">
        <ele>430.81</ele>
        <time>2015-09-06T07:37:59Z</time>
      </trkpt>
      <trkpt lat="44.48076" lon="4.96">
        <ele>430.81</ele>
        <time>2015-09-06T07:38:00Z</time>
      </trkpt>
      <trkpt lat="44.48071" lon="4.95997">
        <ele>430.33</ele>
        <time>2015-09-06T07:38:01Z</time>
      </trkpt>
      <trkpt lat="44.4803" lon="4.95974">
        <ele>431.77</ele>
        <time>2015-09-06T07:38:12Z</time>
      </trkpt>
      <trkpt lat="44.47985" lon="4.95948">
        <ele>433.69</ele>
        <time>2015-09-06T07:38:25Z</time>
      </trkpt>
      <trkpt lat="44.47947" lon="4.95932">
        <ele>435.61</ele>
        <time>2015-09-06T07:38:37Z</time>
      </trkpt>
      <trkpt lat="44.47909" lon="4.95917">
        <ele>437.54</ele>
        <time>2015-09-06T07:38:48Z</time>
      </trkpt>
      <trkpt lat="44.47869" lon="4.95893">
        <ele>439.46</ele>
        <time>2015-09-06T07:39:01Z</time>
      </trkpt>
      <trkpt lat="44.47832" lon="4.95874">
        <ele>441.38</ele>
        <time>2015-09-06T07:39:14Z</time>
      </trkpt>
      <trkpt lat="44.47792" lon="4.95853">
        <ele>445.23</ele>
        <time>2015-09-06T07:39:27Z</time>
      </trkpt>
      <trkpt lat="44.47785" lon="4.95849">
        <ele>446.19</ele>
        <time>2015-09-06T07:39:29Z</time>
      </trkpt>
      <trkpt lat="44.47757" lon="4.95823">
        <ele>445.71</ele>
        <time>2015-09-06T07:39:40Z</time>
      </trkpt>
      <trkpt lat="44.47752" lon="4.95822">
        <ele>444.75</ele>
        <time>2015-09-06T07:39:41Z</time>
      </trkpt>
      <trkpt lat="44.47747" lon="4.95822">
        <ele>444.75</ele>
        <time>2015-09-06T07:39:42Z</time>
      </trkpt>
      <trkpt lat="44.4773" lon="4.95821">
        <ele>443.79</ele>
        <time>2015-09-06T07:39:45Z</time>
      </trkpt>
      <trkpt lat="44.47714" lon="4.95824">
        <ele>442.34</ele>
        <time>2015-09-06T07:39:48Z</time>
      </trkpt>
      <trkpt lat="44.47709" lon="4.95824">
        <ele>441.38</ele>
        <time>2015-09-06T07:39:49Z</time>
      </trkpt>
      <trkpt lat="44.47684" lon="4.95819">
        <ele>438.98</ele>
        <time>2015-09-06T07:39:53Z</time>
      </trkpt>
      <trkpt lat="44.47679" lon="4.95817">
        <ele>438.02</ele>
        <time>2015-09-06T07:39:54Z</time>
      </trkpt>
      <trkpt lat="44.47673" lon="4.95815">
        <ele>438.02</ele>
        <time>2015-09-06T07:39:55Z</time>
      </trkpt>
      <trkpt lat="44.47667" lon="4.95814">
        <ele>437.54</ele>
        <time>2015-09-06T07:39:56Z</time>
      </trkpt>
      <trkpt lat="44.47655" lon="4.95813">
        <ele>437.06</ele>
        <time>2015-09-06T07:39:58Z</time>
      </trkpt>
      <trkpt lat="44.47649" lon="4.95813">
        <ele>436.1</ele>
        <time>2015-09-06T07:39:59Z</time>
      </trkpt>
      <trkpt lat="44.47643" lon="4.95813">
        <ele>436.1</ele>
        <time>2015-09-06T07:40:00Z</time>
      </trkpt>
      <trkpt lat="44.47638" lon="4.95813">
        <ele>435.61</ele>
        <time>2015-09-06T07:40:01Z</time>
      </trkpt>
      <trkpt lat="44.47633" lon="4.95815">
        <ele>435.13</ele>
        <time>2015-09-06T07:40:02Z</time>
      </trkpt>
      <trkpt lat="44.47628" lon="4.95816">
        <ele>434.65</ele>
        <time>2015-09-06T07:40:03Z</time>
      </trkpt>
      <trkpt lat="44.47618" lon="4.95818">
        <ele>433.69</ele>
        <time>2015-09-06T07:40:05Z</time>
      </trkpt>
      <trkpt lat="44.47602" lon="4.95818">
        <ele>431.77</ele>
        <time>2015-09-06T07:40:08Z</time>
      </trkpt>
      <trkpt lat="44.47597" lon="4.95816">
        <ele>431.29</ele>
        <time>2015-09-06T07:40:09Z</time>
      </trkpt>
      <trkpt lat="44.47591" lon="4.95815">
        <ele>431.29</ele>
        <time>2015-09-06T07:40:10Z</time>
      </trkpt>
      <trkpt lat="44.47585" lon="4.95815">
        <ele>430.33</ele>
        <time>2015-09-06T07:40:11Z</time>
      </trkpt>
      <trkpt lat="44.4758" lon="4.95815">
        <ele>429.85</ele>
        <time>2015-09-06T07:40:12Z</time>
      </trkpt>
      <trkpt lat="44.47574" lon="4.95814">
        <ele>429.37</ele>
        <time>2015-09-06T07:40:13Z</time>
      </trkpt>
      <trkpt lat="44.47569" lon="4.95813">
        <ele>428.4</ele>
        <time>2015-09-06T07:40:14Z</time>
      </trkpt>
      <trkpt lat="44.47564" lon="4.95813">
        <ele>427.92</ele>
        <time>2015-09-06T07:40:15Z</time>
      </trkpt>
      <trkpt lat="44.47558" lon="4.95812">
        <ele>426.96</ele>
        <time>2015-09-06T07:40:16Z</time>
      </trkpt>
      <trkpt lat="44.47552" lon="4.95813">
        <ele>426.48</ele>
        <time>2015-09-06T07:40:17Z</time>
      </trkpt>
      <trkpt lat="44.47546" lon="4.95813">
        <ele>426</ele>
        <time>2015-09-06T07:40:18Z</time>
      </trkpt>
      <trkpt lat="44.47541" lon="4.95813">
        <ele>425.52</ele>
        <time>2015-09-06T07:40:19Z</time>
      </trkpt>
      <trkpt lat="44.47515" lon="4.95809">
        <ele>425.04</ele>
        <time>2015-09-06T07:40:24Z</time>
      </trkpt>
      <trkpt lat="44.4751" lon="4.95808">
        <ele>424.56</ele>
        <time>2015-09-06T07:40:25Z</time>
      </trkpt>
      <trkpt lat="44.47504" lon="4.95808">
        <ele>424.08</ele>
        <time>2015-09-06T07:40:26Z</time>
      </trkpt>
      <trkpt lat="44.47493" lon="4.95809">
        <ele>423.12</ele>
        <time>2015-09-06T07:40:28Z</time>
      </trkpt>
      <trkpt lat="44.47461" lon="4.9581">
        <ele>420.71</ele>
        <time>2015-09-06T07:40:34Z</time>
      </trkpt>
      <trkpt lat="44.47456" lon="4.95811">
        <ele>419.75</ele>
        <time>2015-09-06T07:40:35Z</time>
      </trkpt>
      <trkpt lat="44.47445" lon="4.95813">
        <ele>418.31</ele>
        <time>2015-09-06T07:40:37Z</time>
      </trkpt>
      <trkpt lat="44.47434" lon="4.95813">
        <ele>416.39</ele>
        <time>2015-09-06T07:40:39Z</time>
      </trkpt>
      <trkpt lat="44.47429" lon="4.95812">
        <ele>415.91</ele>
        <time>2015-09-06T07:40:40Z</time>
      </trkpt>
      <trkpt lat="44.47425" lon="4.9581">
        <ele>415.91</ele>
        <time>2015-09-06T07:40:41Z</time>
      </trkpt>
      <trkpt lat="44.47412" lon="4.9581">
        <ele>414.95</ele>
        <time>2015-09-06T07:40:44Z</time>
      </trkpt>
      <trkpt lat="44.47408" lon="4.95812">
        <ele>413.98</ele>
        <time>2015-09-06T07:40:45Z</time>
      </trkpt>
      <trkpt lat="44.47403" lon="4.95813">
        <ele>413.02</ele>
        <time>2015-09-06T07:40:46Z</time>
      </trkpt>
      <trkpt lat="44.47398" lon="4.95815">
        <ele>412.54</ele>
        <time>2015-09-06T07:40:47Z</time>
      </trkpt>
      <trkpt lat="44.47392" lon="4.95817">
        <ele>412.06</ele>
        <time>2015-09-06T07:40:48Z</time>
      </trkpt>
      <trkpt lat="44.47386" lon="4.95818">
        <ele>411.58</ele>
        <time>2015-09-06T07:40:49Z</time>
      </trkpt>
      <trkpt lat="44.47381" lon="4.95818">
        <ele>410.62</ele>
        <time>2015-09-06T07:40:50Z</time>
      </trkpt>
      <trkpt lat="44.47376" lon="4.95818">
        <ele>410.62</ele>
        <time>2015-09-06T07:40:51Z</time>
      </trkpt>
      <trkpt lat="44.47371" lon="4.95818">
        <ele>410.62</ele>
        <time>2015-09-06T07:40:52Z</time>
      </trkpt>
      <trkpt lat="44.47365" lon="4.95817">
        <ele>410.14</ele>
        <time>2015-09-06T07:40:53Z</time>
      </trkpt>
      <trkpt lat="44.4736" lon="4.95817">
        <ele>409.66</ele>
        <time>2015-09-06T07:40:54Z</time>
      </trkpt>
      <trkpt lat="44.47355" lon="4.95816">
        <ele>408.7</ele>
        <time>2015-09-06T07:40:55Z</time>
      </trkpt>
      <trkpt lat="44.47351" lon="4.95815">
        <ele>408.22</ele>
        <time>2015-09-06T07:40:56Z</time>
      </trkpt>
      <trkpt lat="44.47335" lon="4.95814">
        <ele>405.81</ele>
        <time>2015-09-06T07:41:00Z</time>
      </trkpt>
      <trkpt lat="44.4733" lon="4.95814">
        <ele>405.33</ele>
        <time>2015-09-06T07:41:01Z</time>
      </trkpt>
      <trkpt lat="44.47326" lon="4.95814">
        <ele>404.37</ele>
        <time>2015-09-06T07:41:02Z</time>
      </trkpt>
      <trkpt lat="44.47305" lon="4.95811">
        <ele>401.01</ele>
        <time>2015-09-06T07:41:07Z</time>
      </trkpt>
      <trkpt lat="44.473" lon="4.95811">
        <ele>400.53</ele>
        <time>2015-09-06T07:41:08Z</time>
      </trkpt>
      <trkpt lat="44.47277" lon="4.95811">
        <ele>399.08</ele>
        <time>2015-09-06T07:41:13Z</time>
      </trkpt>
      <trkpt lat="44.47267" lon="4.95809">
        <ele>398.12</ele>
        <time>2015-09-06T07:41:15Z</time>
      </trkpt>
      <trkpt lat="44.47263" lon="4.95808">
        <ele>397.64</ele>
        <time>2015-09-06T07:41:16Z</time>
      </trkpt>
      <trkpt lat="44.4726" lon="4.95808">
        <ele>396.68</ele>
        <time>2015-09-06T07:41:17Z</time>
      </trkpt>
      <trkpt lat="44.47258" lon="4.95808">
        <ele>396.2</ele>
        <time>2015-09-06T07:41:18Z</time>
      </trkpt>
      <trkpt lat="44.47257" lon="4.95807">
        <ele>395.24</ele>
        <time>2015-09-06T07:41:20Z</time>
      </trkpt>
      <trkpt lat="44.47254" lon="4.95807">
        <ele>395.72</ele>
        <time>2015-09-06T07:41:28Z</time>
      </trkpt>
      <trkpt lat="44.47251" lon="4.95807">
        <ele>395.72</ele>
        <time>2015-09-06T07:41:29Z</time>
      </trkpt>
      <trkpt lat="44.47248" lon="4.95807">
        <ele>395.24</ele>
        <time>2015-09-06T07:41:30Z</time>
      </trkpt>
      <trkpt lat="44.47244" lon="4.95808">
        <ele>394.76</ele>
        <time>2015-09-06T07:41:31Z</time>
      </trkpt>
      <trkpt lat="44.47239" lon="4.95807">
        <ele>394.28</ele>
        <time>2015-09-06T07:41:32Z</time>
      </trkpt>
      <trkpt lat="44.47235" lon="4.95807">
        <ele>394.28</ele>
        <time>2015-09-06T07:41:33Z</time>
      </trkpt>
      <trkpt lat="44.4723" lon="4.95806">
        <ele>393.8</ele>
        <time>2015-09-06T07:41:34Z</time>
      </trkpt>
      <trkpt lat="44.47217" lon="4.95804">
        <ele>391.39</ele>
        <time>2015-09-06T07:41:37Z</time>
      </trkpt>
      <trkpt lat="44.47213" lon="4.95803">
        <ele>390.91</ele>
        <time>2015-09-06T07:41:38Z</time>
      </trkpt>
      <trkpt lat="44.47209" lon="4.95803">
        <ele>390.43</ele>
        <time>2015-09-06T07:41:39Z</time>
      </trkpt>
      <trkpt lat="44.47206" lon="4.95803">
        <ele>389.95</ele>
        <time>2015-09-06T07:41:40Z</time>
      </trkpt>
      <trkpt lat="44.47202" lon="4.95802">
        <ele>388.99</ele>
        <time>2015-09-06T07:41:41Z</time>
      </trkpt>
      <trkpt lat="44.47198" lon="4.95802">
        <ele>388.99</ele>
        <time>2015-09-06T07:41:42Z</time>
      </trkpt>
      <trkpt lat="44.47194" lon="4.95801">
        <ele>388.51</ele>
        <time>2015-09-06T07:41:43Z</time>
      </trkpt>
      <trkpt lat="44.4719" lon="4.95802">
        <ele>387.55</ele>
        <time>2015-09-06T07:41:44Z</time>
      </trkpt>
      <trkpt lat="44.47186" lon="4.95804">
        <ele>387.07</ele>
        <time>2015-09-06T07:41:45Z</time>
      </trkpt>
      <trkpt lat="44.47182" lon="4.95806">
        <ele>386.11</ele>
        <time>2015-09-06T07:41:46Z</time>
      </trkpt>
      <trkpt lat="44.47178" lon="4.95807">
        <ele>385.63</ele>
        <time>2015-09-06T07:41:47Z</time>
      </trkpt>
      <trkpt lat="44.47174" lon="4.95807">
        <ele>384.66</ele>
        <time>2015-09-06T07:41:48Z</time>
      </trkpt>
      <trkpt lat="44.47171" lon="4.95806">
        <ele>384.18</ele>
        <time>2015-09-06T07:41:49Z</time>
      </trkpt>
      <trkpt lat="44.47167" lon="4.95805">
        <ele>383.7</ele>
        <time>2015-09-06T07:41:50Z</time>
      </trkpt>
      <trkpt lat="44.47163" lon="4.95804">
        <ele>382.74</ele>
        <time>2015-09-06T07:41:51Z</time>
      </trkpt>
      <trkpt lat="44.47159" lon="4.95805">
        <ele>382.26</ele>
        <time>2015-09-06T07:41:52Z</time>
      </trkpt>
      <trkpt lat="44.47155" lon="4.95807">
        <ele>381.78</ele>
        <time>2015-09-06T07:41:53Z</time>
      </trkpt>
      <trkpt lat="44.47147" lon="4.95808">
        <ele>380.34</ele>
        <time>2015-09-06T07:41:55Z</time>
      </trkpt>
      <trkpt lat="44.47143" lon="4.95807">
        <ele>380.34</ele>
        <time>2015-09-06T07:41:56Z</time>
      </trkpt>
      <trkpt lat="44.47137" lon="4.95806">
        <ele>379.86</ele>
        <time>2015-09-06T07:41:57Z</time>
      </trkpt>
      <trkpt lat="44.47132" lon="4.95806">
        <ele>378.9</ele>
        <time>2015-09-06T07:41:58Z</time>
      </trkpt>
      <trkpt lat="44.47127" lon="4.95806">
        <ele>377.94</ele>
        <time>2015-09-06T07:41:59Z</time>
      </trkpt>
      <trkpt lat="44.47111" lon="4.95798">
        <ele>374.57</ele>
        <time>2015-09-06T07:42:05Z</time>
      </trkpt>
      <trkpt lat="44.47109" lon="4.95795">
        <ele>374.09</ele>
        <time>2015-09-06T07:42:06Z</time>
      </trkpt>
      <trkpt lat="44.47108" lon="4.95794">
        <ele>373.13</ele>
        <time>2015-09-06T07:42:08Z</time>
      </trkpt>
      <trkpt lat="44.47103" lon="4.95795">
        <ele>372.17</ele>
        <time>2015-09-06T07:42:09Z</time>
      </trkpt>
      <trkpt lat="44.47098" lon="4.95799">
        <ele>371.21</ele>
        <time>2015-09-06T07:42:10Z</time>
      </trkpt>
      <trkpt lat="44.47094" lon="4.95803">
        <ele>371.21</ele>
        <time>2015-09-06T07:42:11Z</time>
      </trkpt>
      <trkpt lat="44.47089" lon="4.95807">
        <ele>370.73</ele>
        <time>2015-09-06T07:42:12Z</time>
      </trkpt>
      <trkpt lat="44.47085" lon="4.9581">
        <ele>369.76</ele>
        <time>2015-09-06T07:42:13Z</time>
      </trkpt>
      <trkpt lat="44.47081" lon="4.95814">
        <ele>369.76</ele>
        <time>2015-09-06T07:42:14Z</time>
      </trkpt>
      <trkpt lat="44.47078" lon="4.95817">
        <ele>368.8</ele>
        <time>2015-09-06T07:42:15Z</time>
      </trkpt>
      <trkpt lat="44.47075" lon="4.95819">
        <ele>367.84</ele>
        <time>2015-09-06T07:42:16Z</time>
      </trkpt>
      <trkpt lat="44.47073" lon="4.95822">
        <ele>366.88</ele>
        <time>2015-09-06T07:42:17Z</time>
      </trkpt>
      <trkpt lat="44.47072" lon="4.95824">
        <ele>366.4</ele>
        <time>2015-09-06T07:42:18Z</time>
      </trkpt>
      <trkpt lat="44.47073" lon="4.95828">
        <ele>366.88</ele>
        <time>2015-09-06T07:42:19Z</time>
      </trkpt>
      <trkpt lat="44.47074" lon="4.95834">
        <ele>366.4</ele>
        <time>2015-09-06T07:42:20Z</time>
      </trkpt>
      <trkpt lat="44.47075" lon="4.95837">
        <ele>366.4</ele>
        <time>2015-09-06T07:42:21Z</time>
      </trkpt>
      <trkpt lat="44.47076" lon="4.9584">
        <ele>366.4</ele>
        <time>2015-09-06T07:42:22Z</time>
      </trkpt>
      <trkpt lat="44.47077" lon="4.95844">
        <ele>366.4</ele>
        <time>2015-09-06T07:42:23Z</time>
      </trkpt>
      <trkpt lat="44.47079" lon="4.95849">
        <ele>365.92</ele>
        <time>2015-09-06T07:42:24Z</time>
      </trkpt>
      <trkpt lat="44.47078" lon="4.95855">
        <ele>365.44</ele>
        <time>2015-09-06T07:42:25Z</time>
      </trkpt>
      <trkpt lat="44.47075" lon="4.95861">
        <ele>364.96</ele>
        <time>2015-09-06T07:42:26Z</time>
      </trkpt>
      <trkpt lat="44.47071" lon="4.95867">
        <ele>364.48</ele>
        <time>2015-09-06T07:42:27Z</time>
      </trkpt>
      <trkpt lat="44.47067" lon="4.95874">
        <ele>364.48</ele>
        <time>2015-09-06T07:42:28Z</time>
      </trkpt>
      <trkpt lat="44.47056" lon="4.95894">
        <ele>364.48</ele>
        <time>2015-09-06T07:42:31Z</time>
      </trkpt>
      <trkpt lat="44.47052" lon="4.959">
        <ele>364.48</ele>
        <time>2015-09-06T07:42:32Z</time>
      </trkpt>
      <trkpt lat="44.47038" lon="4.95914">
        <ele>364</ele>
        <time>2015-09-06T07:42:35Z</time>
      </trkpt>
      <trkpt lat="44.47033" lon="4.95918">
        <ele>364</ele>
        <time>2015-09-06T07:42:36Z</time>
      </trkpt>
      <trkpt lat="44.47029" lon="4.95923">
        <ele>364</ele>
        <time>2015-09-06T07:42:37Z</time>
      </trkpt>
      <trkpt lat="44.47026" lon="4.95929">
        <ele>364</ele>
        <time>2015-09-06T07:42:38Z</time>
      </trkpt>
      <trkpt lat="44.47023" lon="4.95935">
        <ele>364.48</ele>
        <time>2015-09-06T07:42:39Z</time>
      </trkpt>
      <trkpt lat="44.47019" lon="4.95974">
        <ele>365.44</ele>
        <time>2015-09-06T07:42:47Z</time>
      </trkpt>
      <trkpt lat="44.47005" lon="4.96005">
        <ele>364</ele>
        <time>2015-09-06T07:42:55Z</time>
      </trkpt>
      <trkpt lat="44.46995" lon="4.96027">
        <ele>361.11</ele>
        <time>2015-09-06T07:42:58Z</time>
      </trkpt>
      <trkpt lat="44.46989" lon="4.96042">
        <ele>360.15</ele>
        <time>2015-09-06T07:43:00Z</time>
      </trkpt>
      <trkpt lat="44.46984" lon="4.96056">
        <ele>360.15</ele>
        <time>2015-09-06T07:43:02Z</time>
      </trkpt>
      <trkpt lat="44.46982" lon="4.96064">
        <ele>360.15</ele>
        <time>2015-09-06T07:43:03Z</time>
      </trkpt>
      <trkpt lat="44.46981" lon="4.96072">
        <ele>361.11</ele>
        <time>2015-09-06T07:43:04Z</time>
      </trkpt>
      <trkpt lat="44.46981" lon="4.9608">
        <ele>361.59</ele>
        <time>2015-09-06T07:43:05Z</time>
      </trkpt>
      <trkpt lat="44.4698" lon="4.96088">
        <ele>362.07</ele>
        <time>2015-09-06T07:43:06Z</time>
      </trkpt>
      <trkpt lat="44.4698" lon="4.96096">
        <ele>362.55</ele>
        <time>2015-09-06T07:43:07Z</time>
      </trkpt>
      <trkpt lat="44.46979" lon="4.96103">
        <ele>363.04</ele>
        <time>2015-09-06T07:43:08Z</time>
      </trkpt>
      <trkpt lat="44.46979" lon="4.96111">
        <ele>364</ele>
        <time>2015-09-06T07:43:09Z</time>
      </trkpt>
      <trkpt lat="44.46979" lon="4.96116">
        <ele>364.48</ele>
        <time>2015-09-06T07:43:10Z</time>
      </trkpt>
      <trkpt lat="44.46979" lon="4.96121">
        <ele>364.96</ele>
        <time>2015-09-06T07:43:11Z</time>
      </trkpt>
      <trkpt lat="44.46978" lon="4.96125">
        <ele>364.96</ele>
        <time>2015-09-06T07:43:12Z</time>
      </trkpt>
      <trkpt lat="44.46978" lon="4.96129">
        <ele>364.96</ele>
        <time>2015-09-06T07:43:13Z</time>
      </trkpt>
      <trkpt lat="44.46977" lon="4.96132">
        <ele>364.96</ele>
        <time>2015-09-06T07:43:14Z</time>
      </trkpt>
      <trkpt lat="44.46977" lon="4.96136">
        <ele>365.44</ele>
        <time>2015-09-06T07:43:15Z</time>
      </trkpt>
      <trkpt lat="44.46978" lon="4.96141">
        <ele>365.92</ele>
        <time>2015-09-06T07:43:16Z</time>
      </trkpt>
      <trkpt lat="44.46978" lon="4.96145">
        <ele>365.92</ele>
        <time>2015-09-06T07:43:17Z</time>
      </trkpt>
      <trkpt lat="44.46979" lon="4.96151">
        <ele>365.92</ele>
        <time>2015-09-06T07:43:18Z</time>
      </trkpt>
      <trkpt lat="44.46979" lon="4.96201">
        <ele>368.32</ele>
        <time>2015-09-06T07:43:29Z</time>
      </trkpt>
      <trkpt lat="44.46992" lon="4.96237">
        <ele>370.24</ele>
        <time>2015-09-06T07:43:40Z</time>
      </trkpt>
      <trkpt lat="44.47007" lon="4.96244">
        <ele>372.65</ele>
        <time>2015-09-06T07:43:47Z</time>
      </trkpt>
      <trkpt lat="44.47021" lon="4.96245">
        <ele>374.09</ele>
        <time>2015-09-06T07:43:57Z</time>
      </trkpt>
      <trkpt lat="44.47021" lon="4.96246">
        <ele>374.09</ele>
        <time>2015-09-06T07:43:58Z</time>
      </trkpt>
      <trkpt lat="44.47022" lon="4.96248">
        <ele>374.09</ele>
        <time>2015-09-06T07:43:59Z</time>
      </trkpt>
      <trkpt lat="44.47022" lon="4.96249">
        <ele>374.57</ele>
        <time>2015-09-06T07:44:00Z</time>
      </trkpt>
      <trkpt lat="44.47022" lon="4.9625">
        <ele>374.57</ele>
        <time>2015-09-06T07:44:01Z</time>
      </trkpt>
      <trkpt lat="44.47021" lon="4.96252">
        <ele>374.57</ele>
        <time>2015-09-06T07:44:02Z</time>
      </trkpt>
      <trkpt lat="44.47019" lon="4.96259">
        <ele>374.09</ele>
        <time>2015-09-06T07:44:07Z</time>
      </trkpt>
      <trkpt lat="44.47018" lon="4.96261">
        <ele>374.09</ele>
        <time>2015-09-06T07:44:08Z</time>
      </trkpt>
      <trkpt lat="44.47018" lon="4.96265">
        <ele>374.57</ele>
        <time>2015-09-06T07:44:09Z</time>
      </trkpt>
      <trkpt lat="44.47018" lon="4.96268">
        <ele>374.57</ele>
        <time>2015-09-06T07:44:10Z</time>
      </trkpt>
      <trkpt lat="44.47019" lon="4.96271">
        <ele>374.57</ele>
        <time>2015-09-06T07:44:11Z</time>
      </trkpt>
      <trkpt lat="44.47025" lon="4.96305">
        <ele>376.49</ele>
        <time>2015-09-06T07:44:22Z</time>
      </trkpt>
      <trkpt lat="44.47033" lon="4.96341">
        <ele>375.05</ele>
        <time>2015-09-06T07:44:30Z</time>
      </trkpt>
      <trkpt lat="44.47038" lon="4.96362">
        <ele>375.05</ele>
        <time>2015-09-06T07:44:34Z</time>
      </trkpt>
      <trkpt lat="44.47037" lon="4.96366">
        <ele>374.57</ele>
        <time>2015-09-06T07:44:35Z</time>
      </trkpt>
      <trkpt lat="44.47023" lon="4.96406">
        <ele>374.57</ele>
        <time>2015-09-06T07:44:46Z</time>
      </trkpt>
      <trkpt lat="44.46994" lon="4.9643">
        <ele>373.13</ele>
        <time>2015-09-06T07:44:55Z</time>
      </trkpt>
      <trkpt lat="44.46979" lon="4.9645">
        <ele>372.65</ele>
        <time>2015-09-06T07:45:00Z</time>
      </trkpt>
      <trkpt lat="44.46977" lon="4.96457">
        <ele>372.65</ele>
        <time>2015-09-06T07:45:01Z</time>
      </trkpt>
      <trkpt lat="44.46969" lon="4.96487">
        <ele>372.65</ele>
        <time>2015-09-06T07:45:06Z</time>
      </trkpt>
      <trkpt lat="44.46967" lon="4.96494">
        <ele>372.65</ele>
        <time>2015-09-06T07:45:07Z</time>
      </trkpt>
      <trkpt lat="44.46965" lon="4.96513">
        <ele>372.65</ele>
        <time>2015-09-06T07:45:10Z</time>
      </trkpt>
      <trkpt lat="44.46964" lon="4.96519">
        <ele>372.65</ele>
        <time>2015-09-06T07:45:11Z</time>
      </trkpt>
      <trkpt lat="44.46965" lon="4.96533">
        <ele>372.65</ele>
        <time>2015-09-06T07:45:13Z</time>
      </trkpt>
      <trkpt lat="44.46966" lon="4.96539">
        <ele>372.65</ele>
        <time>2015-09-06T07:45:14Z</time>
      </trkpt>
      <trkpt lat="44.4697" lon="4.96557">
        <ele>373.13</ele>
        <time>2015-09-06T07:45:17Z</time>
      </trkpt>
      <trkpt lat="44.4697" lon="4.96563">
        <ele>372.65</ele>
        <time>2015-09-06T07:45:18Z</time>
      </trkpt>
      <trkpt lat="44.46969" lon="4.96569">
        <ele>372.65</ele>
        <time>2015-09-06T07:45:19Z</time>
      </trkpt>
      <trkpt lat="44.46967" lon="4.96574">
        <ele>372.65</ele>
        <time>2015-09-06T07:45:20Z</time>
      </trkpt>
      <trkpt lat="44.46965" lon="4.9658">
        <ele>372.65</ele>
        <time>2015-09-06T07:45:21Z</time>
      </trkpt>
      <trkpt lat="44.46946" lon="4.96628">
        <ele>372.65</ele>
        <time>2015-09-06T07:45:30Z</time>
      </trkpt>
      <trkpt lat="44.46928" lon="4.96661">
        <ele>373.61</ele>
        <time>2015-09-06T07:45:38Z</time>
      </trkpt>
      <trkpt lat="44.46912" lon="4.96681">
        <ele>376.97</ele>
        <time>2015-09-06T07:45:45Z</time>
      </trkpt>
      <trkpt lat="44.46901" lon="4.96703">
        <ele>377.94</ele>
        <time>2015-09-06T07:45:50Z</time>
      </trkpt>
      <trkpt lat="44.4688" lon="4.96751">
        <ele>378.9</ele>
        <time>2015-09-06T07:46:01Z</time>
      </trkpt>
      <trkpt lat="44.46862" lon="4.96791">
        <ele>378.9</ele>
        <time>2015-09-06T07:46:10Z</time>
      </trkpt>
      <trkpt lat="44.46854" lon="4.96804">
        <ele>377.94</ele>
        <time>2015-09-06T07:46:13Z</time>
      </trkpt>
      <trkpt lat="44.46853" lon="4.9681">
        <ele>377.94</ele>
        <time>2015-09-06T07:46:14Z</time>
      </trkpt>
      <trkpt lat="44.46851" lon="4.96816">
        <ele>376.97</ele>
        <time>2015-09-06T07:46:15Z</time>
      </trkpt>
      <trkpt lat="44.4685" lon="4.96822">
        <ele>377.45</ele>
        <time>2015-09-06T07:46:16Z</time>
      </trkpt>
      <trkpt lat="44.46848" lon="4.96828">
        <ele>377.45</ele>
        <time>2015-09-06T07:46:17Z</time>
      </trkpt>
      <trkpt lat="44.46847" lon="4.96834">
        <ele>376.97</ele>
        <time>2015-09-06T07:46:18Z</time>
      </trkpt>
      <trkpt lat="44.46846" lon="4.9684">
        <ele>377.45</ele>
        <time>2015-09-06T07:46:19Z</time>
      </trkpt>
      <trkpt lat="44.46846" lon="4.96847">
        <ele>376.97</ele>
        <time>2015-09-06T07:46:20Z</time>
      </trkpt>
      <trkpt lat="44.46844" lon="4.96853">
        <ele>376.97</ele>
        <time>2015-09-06T07:46:21Z</time>
      </trkpt>
      <trkpt lat="44.46843" lon="4.96859">
        <ele>376.97</ele>
        <time>2015-09-06T07:46:22Z</time>
      </trkpt>
      <trkpt lat="44.46842" lon="4.96865">
        <ele>376.97</ele>
        <time>2015-09-06T07:46:23Z</time>
      </trkpt>
      <trkpt lat="44.46842" lon="4.96871">
        <ele>376.97</ele>
        <time>2015-09-06T07:46:24Z</time>
      </trkpt>
      <trkpt lat="44.4684" lon="4.96877">
        <ele>376.97</ele>
        <time>2015-09-06T07:46:25Z</time>
      </trkpt>
      <trkpt lat="44.46838" lon="4.96884">
        <ele>375.53</ele>
        <time>2015-09-06T07:46:26Z</time>
      </trkpt>
      <trkpt lat="44.46833" lon="4.96898">
        <ele>374.09</ele>
        <time>2015-09-06T07:46:28Z</time>
      </trkpt>
      <trkpt lat="44.4683" lon="4.96905">
        <ele>373.61</ele>
        <time>2015-09-06T07:46:29Z</time>
      </trkpt>
      <trkpt lat="44.46827" lon="4.96911">
        <ele>373.13</ele>
        <time>2015-09-06T07:46:30Z</time>
      </trkpt>
      <trkpt lat="44.46824" lon="4.96914">
        <ele>372.65</ele>
        <time>2015-09-06T07:46:31Z</time>
      </trkpt>
      <trkpt lat="44.46821" lon="4.96918">
        <ele>372.65</ele>
        <time>2015-09-06T07:46:32Z</time>
      </trkpt>
      <trkpt lat="44.46818" lon="4.9692">
        <ele>372.65</ele>
        <time>2015-09-06T07:46:33Z</time>
      </trkpt>
      <trkpt lat="44.46814" lon="4.9692">
        <ele>372.65</ele>
        <time>2015-09-06T07:46:34Z</time>
      </trkpt>
      <trkpt lat="44.4681" lon="4.9692">
        <ele>372.65</ele>
        <time>2015-09-06T07:46:35Z</time>
      </trkpt>
      <trkpt lat="44.46806" lon="4.9692">
        <ele>372.17</ele>
        <time>2015-09-06T07:46:36Z</time>
      </trkpt>
      <trkpt lat="44.46796" lon="4.96919">
        <ele>371.21</ele>
        <time>2015-09-06T07:46:38Z</time>
      </trkpt>
      <trkpt lat="44.46792" lon="4.96919">
        <ele>370.73</ele>
        <time>2015-09-06T07:46:39Z</time>
      </trkpt>
      <trkpt lat="44.46788" lon="4.9692">
        <ele>370.73</ele>
        <time>2015-09-06T07:46:40Z</time>
      </trkpt>
      <trkpt lat="44.46784" lon="4.96921">
        <ele>370.73</ele>
        <time>2015-09-06T07:46:41Z</time>
      </trkpt>
      <trkpt lat="44.46782" lon="4.96923">
        <ele>370.73</ele>
        <time>2015-09-06T07:46:42Z</time>
      </trkpt>
      <trkpt lat="44.4678" lon="4.96926">
        <ele>371.21</ele>
        <time>2015-09-06T07:46:43Z</time>
      </trkpt>
      <trkpt lat="44.46779" lon="4.96932">
        <ele>371.21</ele>
        <time>2015-09-06T07:46:44Z</time>
      </trkpt>
      <trkpt lat="44.4678" lon="4.96936">
        <ele>371.69</ele>
        <time>2015-09-06T07:46:45Z</time>
      </trkpt>
      <trkpt lat="44.4678" lon="4.96941">
        <ele>372.17</ele>
        <time>2015-09-06T07:46:46Z</time>
      </trkpt>
      <trkpt lat="44.4679" lon="4.96964">
        <ele>374.09</ele>
        <time>2015-09-06T07:46:52Z</time>
      </trkpt>
      <trkpt lat="44.46806" lon="4.96989">
        <ele>376.97</ele>
        <time>2015-09-06T07:47:02Z</time>
      </trkpt>
      <trkpt lat="44.46812" lon="4.97022">
        <ele>379.38</ele>
        <time>2015-09-06T07:47:16Z</time>
      </trkpt>
      <trkpt lat="44.46817" lon="4.97042">
        <ele>380.82</ele>
        <time>2015-09-06T07:47:25Z</time>
      </trkpt>
      <trkpt lat="44.46817" lon="4.97055">
        <ele>382.74</ele>
        <time>2015-09-06T07:47:31Z</time>
      </trkpt>
      <trkpt lat="44.46817" lon="4.97058">
        <ele>382.26</ele>
        <time>2015-09-06T07:47:32Z</time>
      </trkpt>
      <trkpt lat="44.46804" lon="4.97095">
        <ele>382.74</ele>
        <time>2015-09-06T07:47:43Z</time>
      </trkpt>
      <trkpt lat="44.46806" lon="4.97153">
        <ele>385.15</ele>
        <time>2015-09-06T07:47:57Z</time>
      </trkpt>
      <trkpt lat="44.46803" lon="4.97194">
        <ele>386.59</ele>
        <time>2015-09-06T07:48:08Z</time>
      </trkpt>
      <trkpt lat="44.46784" lon="4.97242">
        <ele>386.59</ele>
        <time>2015-09-06T07:48:22Z</time>
      </trkpt>
      <trkpt lat="44.4678" lon="4.97255">
        <ele>386.59</ele>
        <time>2015-09-06T07:48:25Z</time>
      </trkpt>
      <trkpt lat="44.46781" lon="4.9726">
        <ele>386.11</ele>
        <time>2015-09-06T07:48:26Z</time>
      </trkpt>
      <trkpt lat="44.46783" lon="4.97265">
        <ele>385.63</ele>
        <time>2015-09-06T07:48:27Z</time>
      </trkpt>
      <trkpt lat="44.46785" lon="4.9727">
        <ele>385.15</ele>
        <time>2015-09-06T07:48:28Z</time>
      </trkpt>
      <trkpt lat="44.46789" lon="4.97275">
        <ele>385.15</ele>
        <time>2015-09-06T07:48:29Z</time>
      </trkpt>
      <trkpt lat="44.46793" lon="4.97279">
        <ele>384.66</ele>
        <time>2015-09-06T07:48:30Z</time>
      </trkpt>
      <trkpt lat="44.46796" lon="4.97285">
        <ele>384.18</ele>
        <time>2015-09-06T07:48:31Z</time>
      </trkpt>
      <trkpt lat="44.46796" lon="4.9729">
        <ele>383.22</ele>
        <time>2015-09-06T07:48:32Z</time>
      </trkpt>
      <trkpt lat="44.46795" lon="4.97296">
        <ele>383.22</ele>
        <time>2015-09-06T07:48:33Z</time>
      </trkpt>
      <trkpt lat="44.46792" lon="4.97299">
        <ele>383.22</ele>
        <time>2015-09-06T07:48:34Z</time>
      </trkpt>
      <trkpt lat="44.4679" lon="4.97302">
        <ele>383.7</ele>
        <time>2015-09-06T07:48:35Z</time>
      </trkpt>
      <trkpt lat="44.46787" lon="4.97304">
        <ele>383.7</ele>
        <time>2015-09-06T07:48:36Z</time>
      </trkpt>
      <trkpt lat="44.46784" lon="4.97305">
        <ele>383.7</ele>
        <time>2015-09-06T07:48:37Z</time>
      </trkpt>
      <trkpt lat="44.46753" lon="4.9733">
        <ele>385.15</ele>
        <time>2015-09-06T07:48:49Z</time>
      </trkpt>
      <trkpt lat="44.46744" lon="4.97342">
        <ele>385.15</ele>
        <time>2015-09-06T07:48:52Z</time>
      </trkpt>
      <trkpt lat="44.46742" lon="4.97347">
        <ele>385.15</ele>
        <time>2015-09-06T07:48:53Z</time>
      </trkpt>
      <trkpt lat="44.46738" lon="4.97358">
        <ele>385.15</ele>
        <time>2015-09-06T07:48:55Z</time>
      </trkpt>
      <trkpt lat="44.46737" lon="4.97364">
        <ele>385.15</ele>
        <time>2015-09-06T07:48:56Z</time>
      </trkpt>
      <trkpt lat="44.46736" lon="4.9737">
        <ele>385.63</ele>
        <time>2015-09-06T07:48:57Z</time>
      </trkpt>
      <trkpt lat="44.46729" lon="4.97439">
        <ele>386.11</ele>
        <time>2015-09-06T07:49:11Z</time>
      </trkpt>
      <trkpt lat="44.4672" lon="4.97502">
        <ele>389.47</ele>
        <time>2015-09-06T07:49:26Z</time>
      </trkpt>
      <trkpt lat="44.46714" lon="4.97567">
        <ele>390.91</ele>
        <time>2015-09-06T07:49:40Z</time>
      </trkpt>
      <trkpt lat="44.46695" lon="4.97644">
        <ele>389.95</ele>
        <time>2015-09-06T07:49:56Z</time>
      </trkpt>
      <trkpt lat="44.46687" lon="4.97663">
        <ele>389.95</ele>
        <time>2015-09-06T07:50:00Z</time>
      </trkpt>
      <trkpt lat="44.46684" lon="4.97667">
        <ele>389.47</ele>
        <time>2015-09-06T07:50:01Z</time>
      </trkpt>
      <trkpt lat="44.46681" lon="4.97672">
        <ele>389.47</ele>
        <time>2015-09-06T07:50:02Z</time>
      </trkpt>
      <trkpt lat="44.46679" lon="4.97676">
        <ele>389.47</ele>
        <time>2015-09-06T07:50:03Z</time>
      </trkpt>
      <trkpt lat="44.46677" lon="4.97681">
        <ele>388.99</ele>
        <time>2015-09-06T07:50:04Z</time>
      </trkpt>
      <trkpt lat="44.46672" lon="4.97692">
        <ele>389.47</ele>
        <time>2015-09-06T07:50:06Z</time>
      </trkpt>
      <trkpt lat="44.4667" lon="4.97697">
        <ele>389.47</ele>
        <time>2015-09-06T07:50:07Z</time>
      </trkpt>
      <trkpt lat="44.46663" lon="4.97717">
        <ele>389.47</ele>
        <time>2015-09-06T07:50:10Z</time>
      </trkpt>
      <trkpt lat="44.46648" lon="4.97777">
        <ele>388.99</ele>
        <time>2015-09-06T07:50:19Z</time>
      </trkpt>
      <trkpt lat="44.46645" lon="4.97783">
        <ele>389.47</ele>
        <time>2015-09-06T07:50:20Z</time>
      </trkpt>
      <trkpt lat="44.46599" lon="4.97846">
        <ele>388.03</ele>
        <time>2015-09-06T07:50:32Z</time>
      </trkpt>
      <trkpt lat="44.46597" lon="4.97853">
        <ele>386.59</ele>
        <time>2015-09-06T07:50:33Z</time>
      </trkpt>
      <trkpt lat="44.46598" lon="4.9786">
        <ele>385.15</ele>
        <time>2015-09-06T07:50:34Z</time>
      </trkpt>
      <trkpt lat="44.466" lon="4.97867">
        <ele>385.15</ele>
        <time>2015-09-06T07:50:35Z</time>
      </trkpt>
      <trkpt lat="44.46603" lon="4.97874">
        <ele>384.66</ele>
        <time>2015-09-06T07:50:36Z</time>
      </trkpt>
      <trkpt lat="44.46605" lon="4.9788">
        <ele>384.66</ele>
        <time>2015-09-06T07:50:37Z</time>
      </trkpt>
      <trkpt lat="44.46605" lon="4.97884">
        <ele>383.7</ele>
        <time>2015-09-06T07:50:38Z</time>
      </trkpt>
      <trkpt lat="44.46603" lon="4.97888">
        <ele>383.7</ele>
        <time>2015-09-06T07:50:39Z</time>
      </trkpt>
      <trkpt lat="44.46599" lon="4.9789">
        <ele>383.7</ele>
        <time>2015-09-06T07:50:40Z</time>
      </trkpt>
      <trkpt lat="44.46596" lon="4.97891">
        <ele>384.18</ele>
        <time>2015-09-06T07:50:41Z</time>
      </trkpt>
      <trkpt lat="44.46568" lon="4.97919">
        <ele>387.07</ele>
        <time>2015-09-06T07:50:51Z</time>
      </trkpt>
      <trkpt lat="44.46561" lon="4.97934">
        <ele>388.51</ele>
        <time>2015-09-06T07:50:55Z</time>
      </trkpt>
      <trkpt lat="44.46559" lon="4.97937">
        <ele>388.99</ele>
        <time>2015-09-06T07:50:56Z</time>
      </trkpt>
      <trkpt lat="44.46557" lon="4.9794">
        <ele>389.47</ele>
        <time>2015-09-06T07:50:57Z</time>
      </trkpt>
      <trkpt lat="44.46556" lon="4.97945">
        <ele>388.99</ele>
        <time>2015-09-06T07:50:58Z</time>
      </trkpt>
      <trkpt lat="44.46555" lon="4.9795">
        <ele>388.51</ele>
        <time>2015-09-06T07:50:59Z</time>
      </trkpt>
      <trkpt lat="44.46556" lon="4.97956">
        <ele>388.03</ele>
        <time>2015-09-06T07:51:00Z</time>
      </trkpt>
      <trkpt lat="44.46559" lon="4.97962">
        <ele>388.03</ele>
        <time>2015-09-06T07:51:01Z</time>
      </trkpt>
      <trkpt lat="44.46562" lon="4.97967">
        <ele>388.51</ele>
        <time>2015-09-06T07:51:02Z</time>
      </trkpt>
      <trkpt lat="44.46566" lon="4.97972">
        <ele>388.51</ele>
        <time>2015-09-06T07:51:03Z</time>
      </trkpt>
      <trkpt lat="44.46569" lon="4.97977">
        <ele>388.51</ele>
        <time>2015-09-06T07:51:04Z</time>
      </trkpt>
      <trkpt lat="44.46575" lon="4.9799">
        <ele>388.51</ele>
        <time>2015-09-06T07:51:06Z</time>
      </trkpt>
      <trkpt lat="44.4659" lon="4.98009">
        <ele>388.51</ele>
        <time>2015-09-06T07:51:10Z</time>
      </trkpt>
      <trkpt lat="44.46594" lon="4.98012">
        <ele>388.51</ele>
        <time>2015-09-06T07:51:11Z</time>
      </trkpt>
      <trkpt lat="44.46602" lon="4.98018">
        <ele>388.99</ele>
        <time>2015-09-06T07:51:13Z</time>
      </trkpt>
      <trkpt lat="44.46606" lon="4.98021">
        <ele>388.51</ele>
        <time>2015-09-06T07:51:14Z</time>
      </trkpt>
      <trkpt lat="44.46608" lon="4.98026">
        <ele>388.03</ele>
        <time>2015-09-06T07:51:15Z</time>
      </trkpt>
      <trkpt lat="44.46608" lon="4.9803">
        <ele>388.03</ele>
        <time>2015-09-06T07:51:16Z</time>
      </trkpt>
      <trkpt lat="44.46607" lon="4.98035">
        <ele>388.51</ele>
        <time>2015-09-06T07:51:17Z</time>
      </trkpt>
      <trkpt lat="44.46605" lon="4.98039">
        <ele>388.51</ele>
        <time>2015-09-06T07:51:18Z</time>
      </trkpt>
      <trkpt lat="44.46603" lon="4.98043">
        <ele>388.51</ele>
        <time>2015-09-06T07:51:19Z</time>
      </trkpt>
      <trkpt lat="44.46592" lon="4.98067">
        <ele>388.03</ele>
        <time>2015-09-06T07:51:25Z</time>
      </trkpt>
      <trkpt lat="44.46593" lon="4.98069">
        <ele>388.51</ele>
        <time>2015-09-06T07:51:26Z</time>
      </trkpt>
      <trkpt lat="44.46594" lon="4.98071">
        <ele>388.99</ele>
        <time>2015-09-06T07:51:27Z</time>
      </trkpt>
      <trkpt lat="44.46596" lon="4.98073">
        <ele>388.99</ele>
        <time>2015-09-06T07:51:28Z</time>
      </trkpt>
      <trkpt lat="44.46598" lon="4.98075">
        <ele>389.47</ele>
        <time>2015-09-06T07:51:29Z</time>
      </trkpt>
      <trkpt lat="44.466" lon="4.98076">
        <ele>389.47</ele>
        <time>2015-09-06T07:51:30Z</time>
      </trkpt>
      <trkpt lat="44.46603" lon="4.98078">
        <ele>389.95</ele>
        <time>2015-09-06T07:51:31Z</time>
      </trkpt>
      <trkpt lat="44.46635" lon="4.98095">
        <ele>390.91</ele>
        <time>2015-09-06T07:51:42Z</time>
      </trkpt>
      <trkpt lat="44.4667" lon="4.9812">
        <ele>392.84</ele>
        <time>2015-09-06T07:51:57Z</time>
      </trkpt>
      <trkpt lat="44.4669" lon="4.98144">
        <ele>393.32</ele>
        <time>2015-09-06T07:52:06Z</time>
      </trkpt>
      <trkpt lat="44.46692" lon="4.98146">
        <ele>393.8</ele>
        <time>2015-09-06T07:52:07Z</time>
      </trkpt>
      <trkpt lat="44.46715" lon="4.98182">
        <ele>396.68</ele>
        <time>2015-09-06T07:52:20Z</time>
      </trkpt>
      <trkpt lat="44.46731" lon="4.98221">
        <ele>399.08</ele>
        <time>2015-09-06T07:52:33Z</time>
      </trkpt>
      <trkpt lat="44.46732" lon="4.98224">
        <ele>400.05</ele>
        <time>2015-09-06T07:52:34Z</time>
      </trkpt>
      <trkpt lat="44.46732" lon="4.98228">
        <ele>401.01</ele>
        <time>2015-09-06T07:52:35Z</time>
      </trkpt>
      <trkpt lat="44.46733" lon="4.98231">
        <ele>400.53</ele>
        <time>2015-09-06T07:52:36Z</time>
      </trkpt>
      <trkpt lat="44.46734" lon="4.98235">
        <ele>400.05</ele>
        <time>2015-09-06T07:52:37Z</time>
      </trkpt>
      <trkpt lat="44.46735" lon="4.98237">
        <ele>400.53</ele>
        <time>2015-09-06T07:52:38Z</time>
      </trkpt>
      <trkpt lat="44.46737" lon="4.9824">
        <ele>401.01</ele>
        <time>2015-09-06T07:52:39Z</time>
      </trkpt>
      <trkpt lat="44.46738" lon="4.98243">
        <ele>401.01</ele>
        <time>2015-09-06T07:52:40Z</time>
      </trkpt>
      <trkpt lat="44.46758" lon="4.9827">
        <ele>402.93</ele>
        <time>2015-09-06T07:52:53Z</time>
      </trkpt>
      <trkpt lat="44.46774" lon="4.983">
        <ele>406.29</ele>
        <time>2015-09-06T07:53:06Z</time>
      </trkpt>
      <trkpt lat="44.46777" lon="4.98307">
        <ele>407.74</ele>
        <time>2015-09-06T07:53:09Z</time>
      </trkpt>
      <trkpt lat="44.46787" lon="4.98337">
        <ele>408.7</ele>
        <time>2015-09-06T07:53:22Z</time>
      </trkpt>
      <trkpt lat="44.46792" lon="4.9835">
        <ele>410.14</ele>
        <time>2015-09-06T07:53:28Z</time>
      </trkpt>
      <trkpt lat="44.46794" lon="4.9836">
        <ele>410.14</ele>
        <time>2015-09-06T07:53:32Z</time>
      </trkpt>
      <trkpt lat="44.46794" lon="4.98362">
        <ele>410.62</ele>
        <time>2015-09-06T07:53:33Z</time>
      </trkpt>
      <trkpt lat="44.46795" lon="4.98365">
        <ele>410.62</ele>
        <time>2015-09-06T07:53:34Z</time>
      </trkpt>
      <trkpt lat="44.46796" lon="4.98368">
        <ele>410.62</ele>
        <time>2015-09-06T07:53:35Z</time>
      </trkpt>
      <trkpt lat="44.46797" lon="4.9837">
        <ele>411.58</ele>
        <time>2015-09-06T07:53:36Z</time>
      </trkpt>
      <trkpt lat="44.46798" lon="4.98373">
        <ele>411.58</ele>
        <time>2015-09-06T07:53:37Z</time>
      </trkpt>
      <trkpt lat="44.46809" lon="4.98397">
        <ele>413.5</ele>
        <time>2015-09-06T07:53:49Z</time>
      </trkpt>
      <trkpt lat="44.4681" lon="4.98398">
        <ele>413.5</ele>
        <time>2015-09-06T07:53:50Z</time>
      </trkpt>
      <trkpt lat="44.46811" lon="4.984">
        <ele>413.5</ele>
        <time>2015-09-06T07:53:51Z</time>
      </trkpt>
      <trkpt lat="44.46812" lon="4.98402">
        <ele>413.5</ele>
        <time>2015-09-06T07:53:52Z</time>
      </trkpt>
      <trkpt lat="44.46813" lon="4.98404">
        <ele>413.5</ele>
        <time>2015-09-06T07:53:53Z</time>
      </trkpt>
      <trkpt lat="44.46813" lon="4.98405">
        <ele>413.5</ele>
        <time>2015-09-06T07:53:54Z</time>
      </trkpt>
      <trkpt lat="44.46814" lon="4.98407">
        <ele>413.5</ele>
        <time>2015-09-06T07:53:55Z</time>
      </trkpt>
      <trkpt lat="44.46821" lon="4.98435">
        <ele>415.43</ele>
        <time>2015-09-06T07:54:09Z</time>
      </trkpt>
      <trkpt lat="44.46827" lon="4.9847">
        <ele>418.31</ele>
        <time>2015-09-06T07:54:24Z</time>
      </trkpt>
      <trkpt lat="44.46832" lon="4.98507">
        <ele>420.71</ele>
        <time>2015-09-06T07:54:39Z</time>
      </trkpt>
      <trkpt lat="44.46833" lon="4.98547">
        <ele>423.12</ele>
        <time>2015-09-06T07:54:53Z</time>
      </trkpt>
      <trkpt lat="44.4684" lon="4.98597">
        <ele>423.6</ele>
        <time>2015-09-06T07:55:04Z</time>
      </trkpt>
      <trkpt lat="44.46859" lon="4.98645">
        <ele>424.08</ele>
        <time>2015-09-06T07:55:16Z</time>
      </trkpt>
      <trkpt lat="44.46882" lon="4.98688">
        <ele>424.08</ele>
        <time>2015-09-06T07:55:26Z</time>
      </trkpt>
      <trkpt lat="44.46911" lon="4.98717">
        <ele>425.52</ele>
        <time>2015-09-06T07:55:38Z</time>
      </trkpt>
      <trkpt lat="44.46933" lon="4.98742">
        <ele>427.92</ele>
        <time>2015-09-06T07:55:51Z</time>
      </trkpt>
      <trkpt lat="44.46947" lon="4.98765">
        <ele>429.37</ele>
        <time>2015-09-06T07:56:03Z</time>
      </trkpt>
      <trkpt lat="44.46951" lon="4.98773">
        <ele>429.85</ele>
        <time>2015-09-06T07:56:07Z</time>
      </trkpt>
      <trkpt lat="44.46952" lon="4.98775">
        <ele>430.33</ele>
        <time>2015-09-06T07:56:08Z</time>
      </trkpt>
      <trkpt lat="44.46953" lon="4.98777">
        <ele>430.33</ele>
        <time>2015-09-06T07:56:09Z</time>
      </trkpt>
      <trkpt lat="44.46961" lon="4.98789">
        <ele>431.77</ele>
        <time>2015-09-06T07:56:15Z</time>
      </trkpt>
      <trkpt lat="44.46964" lon="4.98792">
        <ele>431.77</ele>
        <time>2015-09-06T07:56:17Z</time>
      </trkpt>
      <trkpt lat="44.46967" lon="4.98793">
        <ele>432.25</ele>
        <time>2015-09-06T07:56:18Z</time>
      </trkpt>
      <trkpt lat="44.46972" lon="4.98798">
        <ele>432.25</ele>
        <time>2015-09-06T07:56:21Z</time>
      </trkpt>
      <trkpt lat="44.46973" lon="4.98801">
        <ele>432.73</ele>
        <time>2015-09-06T07:56:22Z</time>
      </trkpt>
      <trkpt lat="44.46976" lon="4.98806">
        <ele>432.73</ele>
        <time>2015-09-06T07:56:24Z</time>
      </trkpt>
      <trkpt lat="44.46978" lon="4.98807">
        <ele>432.73</ele>
        <time>2015-09-06T07:56:25Z</time>
      </trkpt>
      <trkpt lat="44.4698" lon="4.98809">
        <ele>433.21</ele>
        <time>2015-09-06T07:56:26Z</time>
      </trkpt>
      <trkpt lat="44.46981" lon="4.9881">
        <ele>433.21</ele>
        <time>2015-09-06T07:56:27Z</time>
      </trkpt>
      <trkpt lat="44.46982" lon="4.98812">
        <ele>433.69</ele>
        <time>2015-09-06T07:56:28Z</time>
      </trkpt>
      <trkpt lat="44.46983" lon="4.98814">
        <ele>433.69</ele>
        <time>2015-09-06T07:56:29Z</time>
      </trkpt>
      <trkpt lat="44.46984" lon="4.98815">
        <ele>433.69</ele>
        <time>2015-09-06T07:56:30Z</time>
      </trkpt>
      <trkpt lat="44.46986" lon="4.98817">
        <ele>433.69</ele>
        <time>2015-09-06T07:56:31Z</time>
      </trkpt>
      <trkpt lat="44.47003" lon="4.9883">
        <ele>434.65</ele>
        <time>2015-09-06T07:56:41Z</time>
      </trkpt>
      <trkpt lat="44.47012" lon="4.98835">
        <ele>434.17</ele>
        <time>2015-09-06T07:56:51Z</time>
      </trkpt>
      <trkpt lat="44.47012" lon="4.98835">
        <ele>434.17</ele>
        <time>2015-09-06T07:56:53Z</time>
      </trkpt>
      <trkpt lat="44.47016" lon="4.9884">
        <ele>434.65</ele>
        <time>2015-09-06T07:56:59Z</time>
      </trkpt>
      <trkpt lat="44.47019" lon="4.98842">
        <ele>434.65</ele>
        <time>2015-09-06T07:57:00Z</time>
      </trkpt>
      <trkpt lat="44.47025" lon="4.98845">
        <ele>435.13</ele>
        <time>2015-09-06T07:57:04Z</time>
      </trkpt>
      <trkpt lat="44.4704" lon="4.98854">
        <ele>436.1</ele>
        <time>2015-09-06T07:57:15Z</time>
      </trkpt>
      <trkpt lat="44.47041" lon="4.98856">
        <ele>436.58</ele>
        <time>2015-09-06T07:57:16Z</time>
      </trkpt>
      <trkpt lat="44.47047" lon="4.98863">
        <ele>438.02</ele>
        <time>2015-09-06T07:57:22Z</time>
      </trkpt>
      <trkpt lat="44.47049" lon="4.98864">
        <ele>438.02</ele>
        <time>2015-09-06T07:57:23Z</time>
      </trkpt>
      <trkpt lat="44.4705" lon="4.98865">
        <ele>438.5</ele>
        <time>2015-09-06T07:57:24Z</time>
      </trkpt>
      <trkpt lat="44.47051" lon="4.98866">
        <ele>438.98</ele>
        <time>2015-09-06T07:57:25Z</time>
      </trkpt>
      <trkpt lat="44.47053" lon="4.98867">
        <ele>438.98</ele>
        <time>2015-09-06T07:57:26Z</time>
      </trkpt>
      <trkpt lat="44.47054" lon="4.98868">
        <ele>438.98</ele>
        <time>2015-09-06T07:57:27Z</time>
      </trkpt>
      <trkpt lat="44.47055" lon="4.9887">
        <ele>439.46</ele>
        <time>2015-09-06T07:57:28Z</time>
      </trkpt>
      <trkpt lat="44.47065" lon="4.98885">
        <ele>441.86</ele>
        <time>2015-09-06T07:57:39Z</time>
      </trkpt>
      <trkpt lat="44.47066" lon="4.98887">
        <ele>441.86</ele>
        <time>2015-09-06T07:57:40Z</time>
      </trkpt>
      <trkpt lat="44.47068" lon="4.98889">
        <ele>442.34</ele>
        <time>2015-09-06T07:57:41Z</time>
      </trkpt>
      <trkpt lat="44.47081" lon="4.98896">
        <ele>443.31</ele>
        <time>2015-09-06T07:57:47Z</time>
      </trkpt>
      <trkpt lat="44.47082" lon="4.98898">
        <ele>443.31</ele>
        <time>2015-09-06T07:57:48Z</time>
      </trkpt>
      <trkpt lat="44.47084" lon="4.98899">
        <ele>443.31</ele>
        <time>2015-09-06T07:57:49Z</time>
      </trkpt>
      <trkpt lat="44.47101" lon="4.98914">
        <ele>446.67</ele>
        <time>2015-09-06T07:58:03Z</time>
      </trkpt>
      <trkpt lat="44.47113" lon="4.98933">
        <ele>449.55</ele>
        <time>2015-09-06T07:58:16Z</time>
      </trkpt>
      <trkpt lat="44.47115" lon="4.98934">
        <ele>449.55</ele>
        <time>2015-09-06T07:58:17Z</time>
      </trkpt>
      <trkpt lat="44.47116" lon="4.98936">
        <ele>449.55</ele>
        <time>2015-09-06T07:58:18Z</time>
      </trkpt>
      <trkpt lat="44.47117" lon="4.98938">
        <ele>450.03</ele>
        <time>2015-09-06T07:58:19Z</time>
      </trkpt>
      <trkpt lat="44.47131" lon="4.98957">
        <ele>450.03</ele>
        <time>2015-09-06T07:58:31Z</time>
      </trkpt>
      <trkpt lat="44.47149" lon="4.98976">
        <ele>453.4</ele>
        <time>2015-09-06T07:58:44Z</time>
      </trkpt>
      <trkpt lat="44.47155" lon="4.98983">
        <ele>453.88</ele>
        <time>2015-09-06T07:58:48Z</time>
      </trkpt>
      <trkpt lat="44.47165" lon="4.98993">
        <ele>455.32</ele>
        <time>2015-09-06T07:58:55Z</time>
      </trkpt>
      <trkpt lat="44.47176" lon="4.99002">
        <ele>456.76</ele>
        <time>2015-09-06T07:59:03Z</time>
      </trkpt>
      <trkpt lat="44.4719" lon="4.99018">
        <ele>459.65</ele>
        <time>2015-09-06T07:59:15Z</time>
      </trkpt>
      <trkpt lat="44.47203" lon="4.99029">
        <ele>461.57</ele>
        <time>2015-09-06T07:59:25Z</time>
      </trkpt>
      <trkpt lat="44.47216" lon="4.99038">
        <ele>463.01</ele>
        <time>2015-09-06T07:59:36Z</time>
      </trkpt>
      <trkpt lat="44.47217" lon="4.9904">
        <ele>463.49</ele>
        <time>2015-09-06T07:59:37Z</time>
      </trkpt>
      <trkpt lat="44.47218" lon="4.99041">
        <ele>463.49</ele>
        <time>2015-09-06T07:59:38Z</time>
      </trkpt>
      <trkpt lat="44.47219" lon="4.99041">
        <ele>463.97</ele>
        <time>2015-09-06T07:59:39Z</time>
      </trkpt>
      <trkpt lat="44.47228" lon="4.99046">
        <ele>465.9</ele>
        <time>2015-09-06T07:59:48Z</time>
      </trkpt>
      <trkpt lat="44.47232" lon="4.99049">
        <ele>466.86</ele>
        <time>2015-09-06T07:59:52Z</time>
      </trkpt>
      <trkpt lat="44.47234" lon="4.9905">
        <ele>466.86</ele>
        <time>2015-09-06T07:59:53Z</time>
      </trkpt>
      <trkpt lat="44.47235" lon="4.99052">
        <ele>466.86</ele>
        <time>2015-09-06T07:59:54Z</time>
      </trkpt>
      <trkpt lat="44.47249" lon="4.99065">
        <ele>468.78</ele>
        <time>2015-09-06T08:00:07Z</time>
      </trkpt>
      <trkpt lat="44.47262" lon="4.99073">
        <ele>471.66</ele>
        <time>2015-09-06T08:00:19Z</time>
      </trkpt>
      <trkpt lat="44.47266" lon="4.99079">
        <ele>472.63</ele>
        <time>2015-09-06T08:00:23Z</time>
      </trkpt>
      <trkpt lat="44.47267" lon="4.99081">
        <ele>472.63</ele>
        <time>2015-09-06T08:00:24Z</time>
      </trkpt>
      <trkpt lat="44.4727" lon="4.99083">
        <ele>473.11</ele>
        <time>2015-09-06T08:00:26Z</time>
      </trkpt>
      <trkpt lat="44.47277" lon="4.99091">
        <ele>474.55</ele>
        <time>2015-09-06T08:00:34Z</time>
      </trkpt>
      <trkpt lat="44.47288" lon="4.99103">
        <ele>476.47</ele>
        <time>2015-09-06T08:00:45Z</time>
      </trkpt>
      <trkpt lat="44.47291" lon="4.99107">
        <ele>476.95</ele>
        <time>2015-09-06T08:00:48Z</time>
      </trkpt>
      <trkpt lat="44.47292" lon="4.99108">
        <ele>476.95</ele>
        <time>2015-09-06T08:00:49Z</time>
      </trkpt>
      <trkpt lat="44.47295" lon="4.99111">
        <ele>477.43</ele>
        <time>2015-09-06T08:00:51Z</time>
      </trkpt>
      <trkpt lat="44.47298" lon="4.99114">
        <ele>477.91</ele>
        <time>2015-09-06T08:00:54Z</time>
      </trkpt>
      <trkpt lat="44.47312" lon="4.99129">
        <ele>480.8</ele>
        <time>2015-09-06T08:01:06Z</time>
      </trkpt>
      <trkpt lat="44.47313" lon="4.9913">
        <ele>481.28</ele>
        <time>2015-09-06T08:01:07Z</time>
      </trkpt>
      <trkpt lat="44.47315" lon="4.99131">
        <ele>481.28</ele>
        <time>2015-09-06T08:01:08Z</time>
      </trkpt>
      <trkpt lat="44.47322" lon="4.99142">
        <ele>482.72</ele>
        <time>2015-09-06T08:01:18Z</time>
      </trkpt>
      <trkpt lat="44.47331" lon="4.99155">
        <ele>484.64</ele>
        <time>2015-09-06T08:01:30Z</time>
      </trkpt>
      <trkpt lat="44.4734" lon="4.99166">
        <ele>486.08</ele>
        <time>2015-09-06T08:01:40Z</time>
      </trkpt>
      <trkpt lat="44.47342" lon="4.9917">
        <ele>486.56</ele>
        <time>2015-09-06T08:01:43Z</time>
      </trkpt>
      <trkpt lat="44.47345" lon="4.99176">
        <ele>486.56</ele>
        <time>2015-09-06T08:01:46Z</time>
      </trkpt>
      <trkpt lat="44.47348" lon="4.99181">
        <ele>487.53</ele>
        <time>2015-09-06T08:01:49Z</time>
      </trkpt>
      <trkpt lat="44.47361" lon="4.99202">
        <ele>488.97</ele>
        <time>2015-09-06T08:02:01Z</time>
      </trkpt>
      <trkpt lat="44.47374" lon="4.99225">
        <ele>491.37</ele>
        <time>2015-09-06T08:02:16Z</time>
      </trkpt>
      <trkpt lat="44.47376" lon="4.99229">
        <ele>491.85</ele>
        <time>2015-09-06T08:02:18Z</time>
      </trkpt>
      <trkpt lat="44.47377" lon="4.99235">
        <ele>492.33</ele>
        <time>2015-09-06T08:02:21Z</time>
      </trkpt>
      <trkpt lat="44.4738" lon="4.99245">
        <ele>492.81</ele>
        <time>2015-09-06T08:02:26Z</time>
      </trkpt>
      <trkpt lat="44.4738" lon="4.99247">
        <ele>492.81</ele>
        <time>2015-09-06T08:02:27Z</time>
      </trkpt>
      <trkpt lat="44.47381" lon="4.99249">
        <ele>492.81</ele>
        <time>2015-09-06T08:02:28Z</time>
      </trkpt>
      <trkpt lat="44.47381" lon="4.99252">
        <ele>493.29</ele>
        <time>2015-09-06T08:02:29Z</time>
      </trkpt>
      <trkpt lat="44.47382" lon="4.99254">
        <ele>493.29</ele>
        <time>2015-09-06T08:02:30Z</time>
      </trkpt>
      <trkpt lat="44.47383" lon="4.99256">
        <ele>493.29</ele>
        <time>2015-09-06T08:02:31Z</time>
      </trkpt>
      <trkpt lat="44.47384" lon="4.99259">
        <ele>493.77</ele>
        <time>2015-09-06T08:02:32Z</time>
      </trkpt>
      <trkpt lat="44.47387" lon="4.99271">
        <ele>495.22</ele>
        <time>2015-09-06T08:02:40Z</time>
      </trkpt>
      <trkpt lat="44.47386" lon="4.99287">
        <ele>496.66</ele>
        <time>2015-09-06T08:02:52Z</time>
      </trkpt>
      <trkpt lat="44.47387" lon="4.99292">
        <ele>497.14</ele>
        <time>2015-09-06T08:02:55Z</time>
      </trkpt>
      <trkpt lat="44.47387" lon="4.99307">
        <ele>498.58</ele>
        <time>2015-09-06T08:03:04Z</time>
      </trkpt>
      <trkpt lat="44.47387" lon="4.99309">
        <ele>499.06</ele>
        <time>2015-09-06T08:03:05Z</time>
      </trkpt>
      <trkpt lat="44.47387" lon="4.99312">
        <ele>499.06</ele>
        <time>2015-09-06T08:03:06Z</time>
      </trkpt>
      <trkpt lat="44.47387" lon="4.99315">
        <ele>499.54</ele>
        <time>2015-09-06T08:03:07Z</time>
      </trkpt>
      <trkpt lat="44.47387" lon="4.99317">
        <ele>499.54</ele>
        <time>2015-09-06T08:03:08Z</time>
      </trkpt>
      <trkpt lat="44.47387" lon="4.99319">
        <ele>499.54</ele>
        <time>2015-09-06T08:03:09Z</time>
      </trkpt>
      <trkpt lat="44.47387" lon="4.99323">
        <ele>500.02</ele>
        <time>2015-09-06T08:03:11Z</time>
      </trkpt>
      <trkpt lat="44.47386" lon="4.99352">
        <ele>501.95</ele>
        <time>2015-09-06T08:03:25Z</time>
      </trkpt>
      <trkpt lat="44.47385" lon="4.99362">
        <ele>502.43</ele>
        <time>2015-09-06T08:03:31Z</time>
      </trkpt>
      <trkpt lat="44.47385" lon="4.99364">
        <ele>502.43</ele>
        <time>2015-09-06T08:03:32Z</time>
      </trkpt>
      <trkpt lat="44.47385" lon="4.99367">
        <ele>502.91</ele>
        <time>2015-09-06T08:03:33Z</time>
      </trkpt>
      <trkpt lat="44.47385" lon="4.99395">
        <ele>504.83</ele>
        <time>2015-09-06T08:03:46Z</time>
      </trkpt>
      <trkpt lat="44.47387" lon="4.99409">
        <ele>505.31</ele>
        <time>2015-09-06T08:03:51Z</time>
      </trkpt>
      <trkpt lat="44.47388" lon="4.99412">
        <ele>505.31</ele>
        <time>2015-09-06T08:03:52Z</time>
      </trkpt>
      <trkpt lat="44.47389" lon="4.99414">
        <ele>505.31</ele>
        <time>2015-09-06T08:03:53Z</time>
      </trkpt>
      <trkpt lat="44.47394" lon="4.99446">
        <ele>507.23</ele>
        <time>2015-09-06T08:04:08Z</time>
      </trkpt>
      <trkpt lat="44.474" lon="4.99474">
        <ele>509.16</ele>
        <time>2015-09-06T08:04:20Z</time>
      </trkpt>
      <trkpt lat="44.47409" lon="4.99508">
        <ele>510.6</ele>
        <time>2015-09-06T08:04:33Z</time>
      </trkpt>
      <trkpt lat="44.47423" lon="4.99532">
        <ele>513</ele>
        <time>2015-09-06T08:04:46Z</time>
      </trkpt>
      <trkpt lat="44.4744" lon="4.99549">
        <ele>513.48</ele>
        <time>2015-09-06T08:04:54Z</time>
      </trkpt>
      <trkpt lat="44.47441" lon="4.99551">
        <ele>513.48</ele>
        <time>2015-09-06T08:04:55Z</time>
      </trkpt>
      <trkpt lat="44.47443" lon="4.99552">
        <ele>513.96</ele>
        <time>2015-09-06T08:04:56Z</time>
      </trkpt>
      <trkpt lat="44.47444" lon="4.99553">
        <ele>513.96</ele>
        <time>2015-09-06T08:04:57Z</time>
      </trkpt>
      <trkpt lat="44.47445" lon="4.99554">
        <ele>513.96</ele>
        <time>2015-09-06T08:04:58Z</time>
      </trkpt>
      <trkpt lat="44.47447" lon="4.99555">
        <ele>514.44</ele>
        <time>2015-09-06T08:04:59Z</time>
      </trkpt>
      <trkpt lat="44.47459" lon="4.99564">
        <ele>515.4</ele>
        <time>2015-09-06T08:05:09Z</time>
      </trkpt>
      <trkpt lat="44.4746" lon="4.99566">
        <ele>515.4</ele>
        <time>2015-09-06T08:05:10Z</time>
      </trkpt>
      <trkpt lat="44.47462" lon="4.99567">
        <ele>515.88</ele>
        <time>2015-09-06T08:05:11Z</time>
      </trkpt>
      <trkpt lat="44.47466" lon="4.9957">
        <ele>516.37</ele>
        <time>2015-09-06T08:05:14Z</time>
      </trkpt>
      <trkpt lat="44.47474" lon="4.99573">
        <ele>517.33</ele>
        <time>2015-09-06T08:05:20Z</time>
      </trkpt>
      <trkpt lat="44.47484" lon="4.99581">
        <ele>518.77</ele>
        <time>2015-09-06T08:05:28Z</time>
      </trkpt>
      <trkpt lat="44.47485" lon="4.99581">
        <ele>518.77</ele>
        <time>2015-09-06T08:05:29Z</time>
      </trkpt>
      <trkpt lat="44.47487" lon="4.99581">
        <ele>519.25</ele>
        <time>2015-09-06T08:05:30Z</time>
      </trkpt>
      <trkpt lat="44.47488" lon="4.99581">
        <ele>519.25</ele>
        <time>2015-09-06T08:05:31Z</time>
      </trkpt>
      <trkpt lat="44.47502" lon="4.99587">
        <ele>520.69</ele>
        <time>2015-09-06T08:05:41Z</time>
      </trkpt>
      <trkpt lat="44.47504" lon="4.99588">
        <ele>521.17</ele>
        <time>2015-09-06T08:05:42Z</time>
      </trkpt>
      <trkpt lat="44.47519" lon="4.99592">
        <ele>523.09</ele>
        <time>2015-09-06T08:05:52Z</time>
      </trkpt>
      <trkpt lat="44.4753" lon="4.99595">
        <ele>524.54</ele>
        <time>2015-09-06T08:06:00Z</time>
      </trkpt>
      <trkpt lat="44.47536" lon="4.99597">
        <ele>525.5</ele>
        <time>2015-09-06T08:06:04Z</time>
      </trkpt>
      <trkpt lat="44.47537" lon="4.99597">
        <ele>525.5</ele>
        <time>2015-09-06T08:06:05Z</time>
      </trkpt>
      <trkpt lat="44.47551" lon="4.99598">
        <ele>528.38</ele>
        <time>2015-09-06T08:06:14Z</time>
      </trkpt>
      <trkpt lat="44.47553" lon="4.99598">
        <ele>528.38</ele>
        <time>2015-09-06T08:06:15Z</time>
      </trkpt>
      <trkpt lat="44.4757" lon="4.99602">
        <ele>530.79</ele>
        <time>2015-09-06T08:06:27Z</time>
      </trkpt>
      <trkpt lat="44.47574" lon="4.99603">
        <ele>531.27</ele>
        <time>2015-09-06T08:06:31Z</time>
      </trkpt>
      <trkpt lat="44.47584" lon="4.99612">
        <ele>533.19</ele>
        <time>2015-09-06T08:06:41Z</time>
      </trkpt>
      <trkpt lat="44.47592" lon="4.99615">
        <ele>534.15</ele>
        <time>2015-09-06T08:06:47Z</time>
      </trkpt>
      <trkpt lat="44.47593" lon="4.99616">
        <ele>534.15</ele>
        <time>2015-09-06T08:06:48Z</time>
      </trkpt>
      <trkpt lat="44.47598" lon="4.99616">
        <ele>535.11</ele>
        <time>2015-09-06T08:06:51Z</time>
      </trkpt>
      <trkpt lat="44.47599" lon="4.99615">
        <ele>535.11</ele>
        <time>2015-09-06T08:06:52Z</time>
      </trkpt>
      <trkpt lat="44.47601" lon="4.99616">
        <ele>535.11</ele>
        <time>2015-09-06T08:06:53Z</time>
      </trkpt>
      <trkpt lat="44.47602" lon="4.99617">
        <ele>535.11</ele>
        <time>2015-09-06T08:06:54Z</time>
      </trkpt>
      <trkpt lat="44.47604" lon="4.99617">
        <ele>535.11</ele>
        <time>2015-09-06T08:06:55Z</time>
      </trkpt>
      <trkpt lat="44.47609" lon="4.99617">
        <ele>536.07</ele>
        <time>2015-09-06T08:06:58Z</time>
      </trkpt>
      <trkpt lat="44.4761" lon="4.99617">
        <ele>536.07</ele>
        <time>2015-09-06T08:06:59Z</time>
      </trkpt>
      <trkpt lat="44.47614" lon="4.99617">
        <ele>537.03</ele>
        <time>2015-09-06T08:07:02Z</time>
      </trkpt>
      <trkpt lat="44.47615" lon="4.99617">
        <ele>537.03</ele>
        <time>2015-09-06T08:07:03Z</time>
      </trkpt>
      <trkpt lat="44.47617" lon="4.99617">
        <ele>537.03</ele>
        <time>2015-09-06T08:07:04Z</time>
      </trkpt>
      <trkpt lat="44.47618" lon="4.99618">
        <ele>537.51</ele>
        <time>2015-09-06T08:07:05Z</time>
      </trkpt>
      <trkpt lat="44.47631" lon="4.99622">
        <ele>539.92</ele>
        <time>2015-09-06T08:07:17Z</time>
      </trkpt>
      <trkpt lat="44.47632" lon="4.99623">
        <ele>539.92</ele>
        <time>2015-09-06T08:07:18Z</time>
      </trkpt>
      <trkpt lat="44.47642" lon="4.99626">
        <ele>541.84</ele>
        <time>2015-09-06T08:07:29Z</time>
      </trkpt>
      <trkpt lat="44.47653" lon="4.99627">
        <ele>545.2</ele>
        <time>2015-09-06T08:07:41Z</time>
      </trkpt>
      <trkpt lat="44.47655" lon="4.99628">
        <ele>545.69</ele>
        <time>2015-09-06T08:07:43Z</time>
      </trkpt>
      <trkpt lat="44.47656" lon="4.99629">
        <ele>545.69</ele>
        <time>2015-09-06T08:07:44Z</time>
      </trkpt>
      <trkpt lat="44.47656" lon="4.9963">
        <ele>545.69</ele>
        <time>2015-09-06T08:07:45Z</time>
      </trkpt>
      <trkpt lat="44.47657" lon="4.99632">
        <ele>545.69</ele>
        <time>2015-09-06T08:07:46Z</time>
      </trkpt>
      <trkpt lat="44.47668" lon="4.99635">
        <ele>548.57</ele>
        <time>2015-09-06T08:07:58Z</time>
      </trkpt>
      <trkpt lat="44.4767" lon="4.99636">
        <ele>549.53</ele>
        <time>2015-09-06T08:08:00Z</time>
      </trkpt>
      <trkpt lat="44.47674" lon="4.99636">
        <ele>550.01</ele>
        <time>2015-09-06T08:08:14Z</time>
      </trkpt>
      <trkpt lat="44.47674" lon="4.99636">
        <ele>550.01</ele>
        <time>2015-09-06T08:08:39Z</time>
      </trkpt>
      <trkpt lat="44.47674" lon="4.99636">
        <ele>549.53</ele>
        <time>2015-09-06T08:08:55Z</time>
      </trkpt>
      <trkpt lat="44.47674" lon="4.99636">
        <ele>550.01</ele>
        <time>2015-09-06T08:09:23Z</time>
      </trkpt>
      <trkpt lat="44.47679" lon="4.99633">
        <ele>550.97</ele>
        <time>2015-09-06T08:09:40Z</time>
      </trkpt>
      <trkpt lat="44.47681" lon="4.99633">
        <ele>550.49</ele>
        <time>2015-09-06T08:09:46Z</time>
      </trkpt>
      <trkpt lat="44.47688" lon="4.9963">
        <ele>552.41</ele>
        <time>2015-09-06T08:09:52Z</time>
      </trkpt>
      <trkpt lat="44.47695" lon="4.99631">
        <ele>553.38</ele>
        <time>2015-09-06T08:09:57Z</time>
      </trkpt>
      <trkpt lat="44.47713" lon="4.9964">
        <ele>556.26</ele>
        <time>2015-09-06T08:10:10Z</time>
      </trkpt>
      <trkpt lat="44.47719" lon="4.99641">
        <ele>556.74</ele>
        <time>2015-09-06T08:10:14Z</time>
      </trkpt>
      <trkpt lat="44.4772" lon="4.99643">
        <ele>557.22</ele>
        <time>2015-09-06T08:10:15Z</time>
      </trkpt>
      <trkpt lat="44.47721" lon="4.99644">
        <ele>557.22</ele>
        <time>2015-09-06T08:10:16Z</time>
      </trkpt>
      <trkpt lat="44.47722" lon="4.99645">
        <ele>557.7</ele>
        <time>2015-09-06T08:10:17Z</time>
      </trkpt>
      <trkpt lat="44.47724" lon="4.99646">
        <ele>558.18</ele>
        <time>2015-09-06T08:10:18Z</time>
      </trkpt>
      <trkpt lat="44.47726" lon="4.99646">
        <ele>558.66</ele>
        <time>2015-09-06T08:10:19Z</time>
      </trkpt>
      <trkpt lat="44.47728" lon="4.99648">
        <ele>559.14</ele>
        <time>2015-09-06T08:10:21Z</time>
      </trkpt>
      <trkpt lat="44.47731" lon="4.9965">
        <ele>559.62</ele>
        <time>2015-09-06T08:10:24Z</time>
      </trkpt>
      <trkpt lat="44.47734" lon="4.9965">
        <ele>560.11</ele>
        <time>2015-09-06T08:10:26Z</time>
      </trkpt>
      <trkpt lat="44.47735" lon="4.9965">
        <ele>560.11</ele>
        <time>2015-09-06T08:10:27Z</time>
      </trkpt>
      <trkpt lat="44.47736" lon="4.9965">
        <ele>560.11</ele>
        <time>2015-09-06T08:10:28Z</time>
      </trkpt>
      <trkpt lat="44.47738" lon="4.9965">
        <ele>560.59</ele>
        <time>2015-09-06T08:10:29Z</time>
      </trkpt>
      <trkpt lat="44.47752" lon="4.99651">
        <ele>563.47</ele>
        <time>2015-09-06T08:10:40Z</time>
      </trkpt>
      <trkpt lat="44.47753" lon="4.99653">
        <ele>563.47</ele>
        <time>2015-09-06T08:10:41Z</time>
      </trkpt>
      <trkpt lat="44.47755" lon="4.99655">
        <ele>563.95</ele>
        <time>2015-09-06T08:10:43Z</time>
      </trkpt>
      <trkpt lat="44.47763" lon="4.99661">
        <ele>565.87</ele>
        <time>2015-09-06T08:10:52Z</time>
      </trkpt>
      <trkpt lat="44.47781" lon="4.99661">
        <ele>569.24</ele>
        <time>2015-09-06T08:11:05Z</time>
      </trkpt>
      <trkpt lat="44.47798" lon="4.99663">
        <ele>572.12</ele>
        <time>2015-09-06T08:11:17Z</time>
      </trkpt>
      <trkpt lat="44.47799" lon="4.99663">
        <ele>572.6</ele>
        <time>2015-09-06T08:11:18Z</time>
      </trkpt>
      <trkpt lat="44.47814" lon="4.99669">
        <ele>574.04</ele>
        <time>2015-09-06T08:11:31Z</time>
      </trkpt>
      <trkpt lat="44.47829" lon="4.99675">
        <ele>575.97</ele>
        <time>2015-09-06T08:11:45Z</time>
      </trkpt>
      <trkpt lat="44.4784" lon="4.99674">
        <ele>578.85</ele>
        <time>2015-09-06T08:11:57Z</time>
      </trkpt>
      <trkpt lat="44.47851" lon="4.9968">
        <ele>580.77</ele>
        <time>2015-09-06T08:12:10Z</time>
      </trkpt>
      <trkpt lat="44.47855" lon="4.99682">
        <ele>581.73</ele>
        <time>2015-09-06T08:12:14Z</time>
      </trkpt>
      <trkpt lat="44.47862" lon="4.99683">
        <ele>582.7</ele>
        <time>2015-09-06T08:12:20Z</time>
      </trkpt>
      <trkpt lat="44.47884" lon="4.99679">
        <ele>585.58</ele>
        <time>2015-09-06T08:12:33Z</time>
      </trkpt>
      <trkpt lat="44.47905" lon="4.99683">
        <ele>588.46</ele>
        <time>2015-09-06T08:12:48Z</time>
      </trkpt>
      <trkpt lat="44.47923" lon="4.99689">
        <ele>589.91</ele>
        <time>2015-09-06T08:13:01Z</time>
      </trkpt>
      <trkpt lat="44.47925" lon="4.99689">
        <ele>590.39</ele>
        <time>2015-09-06T08:13:02Z</time>
      </trkpt>
      <trkpt lat="44.47927" lon="4.99689">
        <ele>590.87</ele>
        <time>2015-09-06T08:13:07Z</time>
      </trkpt>
      <trkpt lat="44.47931" lon="4.99689">
        <ele>592.31</ele>
        <time>2015-09-06T08:13:10Z</time>
      </trkpt>
      <trkpt lat="44.47945" lon="4.99692">
        <ele>594.23</ele>
        <time>2015-09-06T08:13:22Z</time>
      </trkpt>
      <trkpt lat="44.47946" lon="4.99693">
        <ele>594.23</ele>
        <time>2015-09-06T08:13:23Z</time>
      </trkpt>
      <trkpt lat="44.47955" lon="4.99696">
        <ele>596.15</ele>
        <time>2015-09-06T08:13:35Z</time>
      </trkpt>
      <trkpt lat="44.47956" lon="4.99697">
        <ele>596.15</ele>
        <time>2015-09-06T08:13:36Z</time>
      </trkpt>
      <trkpt lat="44.47958" lon="4.99698">
        <ele>596.15</ele>
        <time>2015-09-06T08:13:37Z</time>
      </trkpt>
      <trkpt lat="44.47972" lon="4.99709">
        <ele>596.64</ele>
        <time>2015-09-06T08:13:48Z</time>
      </trkpt>
      <trkpt lat="44.47984" lon="4.99726">
        <ele>598.56</ele>
        <time>2015-09-06T08:14:01Z</time>
      </trkpt>
      <trkpt lat="44.47999" lon="4.99742">
        <ele>600.48</ele>
        <time>2015-09-06T08:14:15Z</time>
      </trkpt>
      <trkpt lat="44.4801" lon="4.99757">
        <ele>601.44</ele>
        <time>2015-09-06T08:14:26Z</time>
      </trkpt>
      <trkpt lat="44.48013" lon="4.99762">
        <ele>600.96</ele>
        <time>2015-09-06T08:14:29Z</time>
      </trkpt>
      <trkpt lat="44.48015" lon="4.99764">
        <ele>600.96</ele>
        <time>2015-09-06T08:14:30Z</time>
      </trkpt>
      <trkpt lat="44.48016" lon="4.99765">
        <ele>601.44</ele>
        <time>2015-09-06T08:14:31Z</time>
      </trkpt>
      <trkpt lat="44.48028" lon="4.9978">
        <ele>603.36</ele>
        <time>2015-09-06T08:14:43Z</time>
      </trkpt>
      <trkpt lat="44.48029" lon="4.99781">
        <ele>603.36</ele>
        <time>2015-09-06T08:14:44Z</time>
      </trkpt>
      <trkpt lat="44.48031" lon="4.99782">
        <ele>603.36</ele>
        <time>2015-09-06T08:14:45Z</time>
      </trkpt>
      <trkpt lat="44.48032" lon="4.99783">
        <ele>603.36</ele>
        <time>2015-09-06T08:14:46Z</time>
      </trkpt>
      <trkpt lat="44.48034" lon="4.99785">
        <ele>603.36</ele>
        <time>2015-09-06T08:14:48Z</time>
      </trkpt>
      <trkpt lat="44.48044" lon="4.99793">
        <ele>604.81</ele>
        <time>2015-09-06T08:14:57Z</time>
      </trkpt>
      <trkpt lat="44.4806" lon="4.99809">
        <ele>606.25</ele>
        <time>2015-09-06T08:15:12Z</time>
      </trkpt>
      <trkpt lat="44.48075" lon="4.99824">
        <ele>609.13</ele>
        <time>2015-09-06T08:15:26Z</time>
      </trkpt>
      <trkpt lat="44.48087" lon="4.99839">
        <ele>611.54</ele>
        <time>2015-09-06T08:15:38Z</time>
      </trkpt>
      <trkpt lat="44.48103" lon="4.99847">
        <ele>612.5</ele>
        <time>2015-09-06T08:15:50Z</time>
      </trkpt>
      <trkpt lat="44.48104" lon="4.99848">
        <ele>612.98</ele>
        <time>2015-09-06T08:15:51Z</time>
      </trkpt>
      <trkpt lat="44.48123" lon="4.99855">
        <ele>614.42</ele>
        <time>2015-09-06T08:16:02Z</time>
      </trkpt>
      <trkpt lat="44.48129" lon="4.9986">
        <ele>614.42</ele>
        <time>2015-09-06T08:16:06Z</time>
      </trkpt>
      <trkpt lat="44.48141" lon="4.99867">
        <ele>617.3</ele>
        <time>2015-09-06T08:16:18Z</time>
      </trkpt>
      <trkpt lat="44.48143" lon="4.99869">
        <ele>617.3</ele>
        <time>2015-09-06T08:16:20Z</time>
      </trkpt>
      <trkpt lat="44.4815" lon="4.99872">
        <ele>620.19</ele>
        <time>2015-09-06T08:16:33Z</time>
      </trkpt>
      <trkpt lat="44.48161" lon="4.99879">
        <ele>622.59</ele>
        <time>2015-09-06T08:16:46Z</time>
      </trkpt>
      <trkpt lat="44.48174" lon="4.99892">
        <ele>625.47</ele>
        <time>2015-09-06T08:16:59Z</time>
      </trkpt>
      <trkpt lat="44.48185" lon="4.99898">
        <ele>627.88</ele>
        <time>2015-09-06T08:17:11Z</time>
      </trkpt>
      <trkpt lat="44.48194" lon="4.99897">
        <ele>629.32</ele>
        <time>2015-09-06T08:17:22Z</time>
      </trkpt>
      <trkpt lat="44.48197" lon="4.99895">
        <ele>629.32</ele>
        <time>2015-09-06T08:17:39Z</time>
      </trkpt>
      <trkpt lat="44.482" lon="4.99896">
        <ele>629.8</ele>
        <time>2015-09-06T08:17:45Z</time>
      </trkpt>
      <trkpt lat="44.48203" lon="4.99894">
        <ele>630.76</ele>
        <time>2015-09-06T08:17:55Z</time>
      </trkpt>
      <trkpt lat="44.48211" lon="4.99896">
        <ele>631.72</ele>
        <time>2015-09-06T08:18:07Z</time>
      </trkpt>
      <trkpt lat="44.48222" lon="4.999">
        <ele>633.65</ele>
        <time>2015-09-06T08:18:20Z</time>
      </trkpt>
      <trkpt lat="44.4823" lon="4.99901">
        <ele>634.61</ele>
        <time>2015-09-06T08:18:26Z</time>
      </trkpt>
      <trkpt lat="44.4824" lon="4.99905">
        <ele>637.49</ele>
        <time>2015-09-06T08:18:35Z</time>
      </trkpt>
      <trkpt lat="44.48252" lon="4.99907">
        <ele>639.41</ele>
        <time>2015-09-06T08:18:46Z</time>
      </trkpt>
      <trkpt lat="44.48256" lon="4.99906">
        <ele>639.41</ele>
        <time>2015-09-06T08:18:49Z</time>
      </trkpt>
      <trkpt lat="44.48262" lon="4.99909">
        <ele>640.38</ele>
        <time>2015-09-06T08:18:55Z</time>
      </trkpt>
      <trkpt lat="44.48269" lon="4.9991">
        <ele>641.82</ele>
        <time>2015-09-06T08:19:02Z</time>
      </trkpt>
      <trkpt lat="44.48283" lon="4.99915">
        <ele>644.7</ele>
        <time>2015-09-06T08:19:16Z</time>
      </trkpt>
      <trkpt lat="44.4829" lon="4.99923">
        <ele>645.66</ele>
        <time>2015-09-06T08:19:27Z</time>
      </trkpt>
      <trkpt lat="44.48291" lon="4.99927">
        <ele>646.14</ele>
        <time>2015-09-06T08:19:33Z</time>
      </trkpt>
      <trkpt lat="44.48294" lon="4.99928">
        <ele>647.1</ele>
        <time>2015-09-06T08:19:45Z</time>
      </trkpt>
      <trkpt lat="44.48301" lon="4.99926">
        <ele>649.03</ele>
        <time>2015-09-06T08:19:58Z</time>
      </trkpt>
      <trkpt lat="44.48315" lon="4.99921">
        <ele>650.95</ele>
        <time>2015-09-06T08:20:11Z</time>
      </trkpt>
      <trkpt lat="44.48336" lon="4.99924">
        <ele>653.83</ele>
        <time>2015-09-06T08:20:23Z</time>
      </trkpt>
      <trkpt lat="44.48348" lon="4.99927">
        <ele>656.24</ele>
        <time>2015-09-06T08:20:36Z</time>
      </trkpt>
      <trkpt lat="44.48357" lon="4.99933">
        <ele>658.64</ele>
        <time>2015-09-06T08:20:48Z</time>
      </trkpt>
      <trkpt lat="44.48362" lon="4.99936">
        <ele>660.08</ele>
        <time>2015-09-06T08:20:58Z</time>
      </trkpt>
      <trkpt lat="44.4837" lon="4.99937">
        <ele>662.97</ele>
        <time>2015-09-06T08:21:11Z</time>
      </trkpt>
      <trkpt lat="44.48373" lon="4.9994">
        <ele>663.93</ele>
        <time>2015-09-06T08:21:20Z</time>
      </trkpt>
      <trkpt lat="44.48378" lon="4.99945">
        <ele>665.37</ele>
        <time>2015-09-06T08:21:24Z</time>
      </trkpt>
      <trkpt lat="44.48398" lon="4.99948">
        <ele>667.77</ele>
        <time>2015-09-06T08:21:38Z</time>
      </trkpt>
      <trkpt lat="44.48408" lon="4.99947">
        <ele>668.73</ele>
        <time>2015-09-06T08:21:48Z</time>
      </trkpt>
      <trkpt lat="44.48419" lon="4.99946">
        <ele>670.66</ele>
        <time>2015-09-06T08:22:00Z</time>
      </trkpt>
      <trkpt lat="44.48437" lon="4.99939">
        <ele>672.58</ele>
        <time>2015-09-06T08:22:11Z</time>
      </trkpt>
      <trkpt lat="44.48447" lon="4.99945">
        <ele>674.5</ele>
        <time>2015-09-06T08:22:22Z</time>
      </trkpt>
      <trkpt lat="44.48456" lon="4.99949">
        <ele>675.94</ele>
        <time>2015-09-06T08:22:35Z</time>
      </trkpt>
      <trkpt lat="44.48467" lon="4.99957">
        <ele>677.87</ele>
        <time>2015-09-06T08:22:48Z</time>
      </trkpt>
      <trkpt lat="44.48476" lon="4.99966">
        <ele>678.83</ele>
        <time>2015-09-06T08:23:00Z</time>
      </trkpt>
      <trkpt lat="44.48482" lon="4.99977">
        <ele>680.75</ele>
        <time>2015-09-06T08:23:12Z</time>
      </trkpt>
      <trkpt lat="44.48487" lon="4.9998">
        <ele>682.67</ele>
        <time>2015-09-06T08:23:24Z</time>
      </trkpt>
      <trkpt lat="44.48497" lon="4.99998">
        <ele>685.08</ele>
        <time>2015-09-06T08:23:36Z</time>
      </trkpt>
      <trkpt lat="44.48506" lon="5.00014">
        <ele>687</ele>
        <time>2015-09-06T08:23:47Z</time>
      </trkpt>
      <trkpt lat="44.48517" lon="5.00039">
        <ele>688.44</ele>
        <time>2015-09-06T08:24:01Z</time>
      </trkpt>
      <trkpt lat="44.48526" lon="5.00059">
        <ele>688.92</ele>
        <time>2015-09-06T08:24:07Z</time>
      </trkpt>
      <trkpt lat="44.48547" lon="5.0009">
        <ele>692.29</ele>
        <time>2015-09-06T08:24:21Z</time>
      </trkpt>
      <trkpt lat="44.48548" lon="5.0009">
        <ele>692.29</ele>
        <time>2015-09-06T08:24:22Z</time>
      </trkpt>
      <trkpt lat="44.48562" lon="5.00093">
        <ele>691.81</ele>
        <time>2015-09-06T08:24:29Z</time>
      </trkpt>
      <trkpt lat="44.48568" lon="5.00077">
        <ele>693.25</ele>
        <time>2015-09-06T08:24:38Z</time>
      </trkpt>
      <trkpt lat="44.4857" lon="5.00072">
        <ele>693.25</ele>
        <time>2015-09-06T08:24:41Z</time>
      </trkpt>
      <trkpt lat="44.48566" lon="5.00028">
        <ele>694.21</ele>
        <time>2015-09-06T08:24:54Z</time>
      </trkpt>
      <trkpt lat="44.48557" lon="4.99976">
        <ele>693.73</ele>
        <time>2015-09-06T08:25:06Z</time>
      </trkpt>
      <trkpt lat="44.4855" lon="4.9994">
        <ele>693.73</ele>
        <time>2015-09-06T08:25:13Z</time>
      </trkpt>
      <trkpt lat="44.48526" lon="4.99891">
        <ele>694.21</ele>
        <time>2015-09-06T08:25:23Z</time>
      </trkpt>
      <trkpt lat="44.48492" lon="4.99853">
        <ele>696.61</ele>
        <time>2015-09-06T08:25:35Z</time>
      </trkpt>
      <trkpt lat="44.48486" lon="4.99832">
        <ele>696.61</ele>
        <time>2015-09-06T08:25:45Z</time>
      </trkpt>
      <trkpt lat="44.48486" lon="4.99831">
        <ele>696.61</ele>
        <time>2015-09-06T08:25:46Z</time>
      </trkpt>
      <trkpt lat="44.48487" lon="4.99832">
        <ele>696.61</ele>
        <time>2015-09-06T08:25:47Z</time>
      </trkpt>
      <trkpt lat="44.48488" lon="4.99832">
        <ele>696.61</ele>
        <time>2015-09-06T08:25:48Z</time>
      </trkpt>
      <trkpt lat="44.48488" lon="4.99834">
        <ele>696.61</ele>
        <time>2015-09-06T08:25:49Z</time>
      </trkpt>
      <trkpt lat="44.48489" lon="4.99835">
        <ele>697.09</ele>
        <time>2015-09-06T08:25:50Z</time>
      </trkpt>
      <trkpt lat="44.4849" lon="4.99837">
        <ele>697.09</ele>
        <time>2015-09-06T08:25:51Z</time>
      </trkpt>
      <trkpt lat="44.48491" lon="4.99838">
        <ele>697.57</ele>
        <time>2015-09-06T08:25:52Z</time>
      </trkpt>
      <trkpt lat="44.48492" lon="4.99838">
        <ele>698.05</ele>
        <time>2015-09-06T08:25:53Z</time>
      </trkpt>
      <trkpt lat="44.48493" lon="4.99839">
        <ele>698.05</ele>
        <time>2015-09-06T08:25:54Z</time>
      </trkpt>
      <trkpt lat="44.48494" lon="4.9984">
        <ele>698.53</ele>
        <time>2015-09-06T08:25:55Z</time>
      </trkpt>
      <trkpt lat="44.48495" lon="4.99841">
        <ele>698.05</ele>
        <time>2015-09-06T08:25:56Z</time>
      </trkpt>
      <trkpt lat="44.48508" lon="4.99847">
        <ele>700.46</ele>
        <time>2015-09-06T08:26:08Z</time>
      </trkpt>
      <trkpt lat="44.48512" lon="4.99848">
        <ele>699.98</ele>
        <time>2015-09-06T08:26:12Z</time>
      </trkpt>
      <trkpt lat="44.48514" lon="4.99848">
        <ele>700.46</ele>
        <time>2015-09-06T08:26:13Z</time>
      </trkpt>
      <trkpt lat="44.48515" lon="4.99848">
        <ele>700.46</ele>
        <time>2015-09-06T08:26:14Z</time>
      </trkpt>
      <trkpt lat="44.48518" lon="4.99849">
        <ele>701.9</ele>
        <time>2015-09-06T08:26:16Z</time>
      </trkpt>
      <trkpt lat="44.48519" lon="4.99851">
        <ele>701.9</ele>
        <time>2015-09-06T08:26:18Z</time>
      </trkpt>
      <trkpt lat="44.4853" lon="4.99855">
        <ele>703.34</ele>
        <time>2015-09-06T08:26:29Z</time>
      </trkpt>
      <trkpt lat="44.48534" lon="4.99858">
        <ele>704.3</ele>
        <time>2015-09-06T08:26:33Z</time>
      </trkpt>
      <trkpt lat="44.48535" lon="4.99858">
        <ele>704.3</ele>
        <time>2015-09-06T08:26:34Z</time>
      </trkpt>
      <trkpt lat="44.48538" lon="4.99859">
        <ele>704.78</ele>
        <time>2015-09-06T08:26:37Z</time>
      </trkpt>
      <trkpt lat="44.48542" lon="4.99862">
        <ele>705.26</ele>
        <time>2015-09-06T08:26:42Z</time>
      </trkpt>
      <trkpt lat="44.48543" lon="4.99863">
        <ele>705.75</ele>
        <time>2015-09-06T08:26:43Z</time>
      </trkpt>
      <trkpt lat="44.48546" lon="4.99864">
        <ele>705.75</ele>
        <time>2015-09-06T08:26:45Z</time>
      </trkpt>
      <trkpt lat="44.48556" lon="4.99871">
        <ele>706.71</ele>
        <time>2015-09-06T08:26:54Z</time>
      </trkpt>
      <trkpt lat="44.48557" lon="4.99872">
        <ele>706.71</ele>
        <time>2015-09-06T08:26:55Z</time>
      </trkpt>
      <trkpt lat="44.48558" lon="4.99873">
        <ele>707.19</ele>
        <time>2015-09-06T08:26:56Z</time>
      </trkpt>
      <trkpt lat="44.4856" lon="4.99877">
        <ele>708.63</ele>
        <time>2015-09-06T08:26:59Z</time>
      </trkpt>
      <trkpt lat="44.48571" lon="4.99886">
        <ele>709.59</ele>
        <time>2015-09-06T08:27:10Z</time>
      </trkpt>
      <trkpt lat="44.48579" lon="4.9989">
        <ele>711.03</ele>
        <time>2015-09-06T08:27:15Z</time>
      </trkpt>
      <trkpt lat="44.48588" lon="4.99892">
        <ele>711.03</ele>
        <time>2015-09-06T08:27:21Z</time>
      </trkpt>
      <trkpt lat="44.4859" lon="4.99892">
        <ele>711.51</ele>
        <time>2015-09-06T08:27:22Z</time>
      </trkpt>
      <trkpt lat="44.48591" lon="4.99892">
        <ele>712.47</ele>
        <time>2015-09-06T08:27:23Z</time>
      </trkpt>
      <trkpt lat="44.48592" lon="4.99893">
        <ele>712.95</ele>
        <time>2015-09-06T08:27:24Z</time>
      </trkpt>
      <trkpt lat="44.48594" lon="4.99894">
        <ele>712.95</ele>
        <time>2015-09-06T08:27:25Z</time>
      </trkpt>
      <trkpt lat="44.4861" lon="4.99893">
        <ele>713.92</ele>
        <time>2015-09-06T08:27:34Z</time>
      </trkpt>
      <trkpt lat="44.48619" lon="4.99894">
        <ele>715.84</ele>
        <time>2015-09-06T08:27:40Z</time>
      </trkpt>
      <trkpt lat="44.4862" lon="4.99894">
        <ele>715.84</ele>
        <time>2015-09-06T08:27:41Z</time>
      </trkpt>
      <trkpt lat="44.48644" lon="4.99895">
        <ele>717.28</ele>
        <time>2015-09-06T08:27:57Z</time>
      </trkpt>
      <trkpt lat="44.48653" lon="4.99898">
        <ele>720.65</ele>
        <time>2015-09-06T08:28:04Z</time>
      </trkpt>
      <trkpt lat="44.48668" lon="4.99909">
        <ele>720.16</ele>
        <time>2015-09-06T08:28:18Z</time>
      </trkpt>
      <trkpt lat="44.48689" lon="4.99916">
        <ele>722.09</ele>
        <time>2015-09-06T08:28:31Z</time>
      </trkpt>
      <trkpt lat="44.48722" lon="4.99934">
        <ele>724.49</ele>
        <time>2015-09-06T08:28:48Z</time>
      </trkpt>
      <trkpt lat="44.48746" lon="4.99962">
        <ele>723.53</ele>
        <time>2015-09-06T08:29:01Z</time>
      </trkpt>
      <trkpt lat="44.48758" lon="4.99978">
        <ele>722.57</ele>
        <time>2015-09-06T08:29:06Z</time>
      </trkpt>
      <trkpt lat="44.48763" lon="4.99981">
        <ele>722.57</ele>
        <time>2015-09-06T08:29:07Z</time>
      </trkpt>
      <trkpt lat="44.48781" lon="4.99996">
        <ele>719.2</ele>
        <time>2015-09-06T08:29:11Z</time>
      </trkpt>
      <trkpt lat="44.48786" lon="5.00001">
        <ele>717.76</ele>
        <time>2015-09-06T08:29:12Z</time>
      </trkpt>
      <trkpt lat="44.48799" lon="5.00018">
        <ele>713.92</ele>
        <time>2015-09-06T08:29:15Z</time>
      </trkpt>
      <trkpt lat="44.48817" lon="5.00039">
        <ele>711.03</ele>
        <time>2015-09-06T08:29:19Z</time>
      </trkpt>
      <trkpt lat="44.48853" lon="5.0007">
        <ele>707.67</ele>
        <time>2015-09-06T08:29:27Z</time>
      </trkpt>
      <trkpt lat="44.48858" lon="5.00068">
        <ele>707.19</ele>
        <time>2015-09-06T08:29:35Z</time>
      </trkpt>
      <trkpt lat="44.48859" lon="5.00065">
        <ele>707.19</ele>
        <time>2015-09-06T08:29:36Z</time>
      </trkpt>
      <trkpt lat="44.48859" lon="5.00062">
        <ele>707.19</ele>
        <time>2015-09-06T08:29:37Z</time>
      </trkpt>
      <trkpt lat="44.4886" lon="5.00059">
        <ele>707.19</ele>
        <time>2015-09-06T08:29:38Z</time>
      </trkpt>
      <trkpt lat="44.4886" lon="5.00056">
        <ele>706.23</ele>
        <time>2015-09-06T08:29:39Z</time>
      </trkpt>
      <trkpt lat="44.4886" lon="5.00053">
        <ele>704.78</ele>
        <time>2015-09-06T08:29:40Z</time>
      </trkpt>
      <trkpt lat="44.4886" lon="5.00049">
        <ele>703.82</ele>
        <time>2015-09-06T08:29:41Z</time>
      </trkpt>
      <trkpt lat="44.48862" lon="5.00024">
        <ele>699.98</ele>
        <time>2015-09-06T08:29:46Z</time>
      </trkpt>
      <trkpt lat="44.48862" lon="5.00019">
        <ele>696.13</ele>
        <time>2015-09-06T08:29:51Z</time>
      </trkpt>
      <trkpt lat="44.48863" lon="5.00018">
        <ele>696.13</ele>
        <time>2015-09-06T08:29:52Z</time>
      </trkpt>
      <trkpt lat="44.48861" lon="5.00008">
        <ele>695.17</ele>
        <time>2015-09-06T08:29:58Z</time>
      </trkpt>
      <trkpt lat="44.48861" lon="5.00005">
        <ele>694.21</ele>
        <time>2015-09-06T08:29:59Z</time>
      </trkpt>
      <trkpt lat="44.48861" lon="5.00001">
        <ele>693.25</ele>
        <time>2015-09-06T08:30:00Z</time>
      </trkpt>
      <trkpt lat="44.48861" lon="4.99996">
        <ele>693.25</ele>
        <time>2015-09-06T08:30:01Z</time>
      </trkpt>
      <trkpt lat="44.48864" lon="4.9998">
        <ele>689.4</ele>
        <time>2015-09-06T08:30:07Z</time>
      </trkpt>
      <trkpt lat="44.48868" lon="4.99959">
        <ele>686.52</ele>
        <time>2015-09-06T08:30:13Z</time>
      </trkpt>
      <trkpt lat="44.4887" lon="4.99953">
        <ele>683.15</ele>
        <time>2015-09-06T08:30:17Z</time>
      </trkpt>
      <trkpt lat="44.4887" lon="4.99948">
        <ele>683.15</ele>
        <time>2015-09-06T08:30:20Z</time>
      </trkpt>
      <trkpt lat="44.48871" lon="4.99925">
        <ele>678.83</ele>
        <time>2015-09-06T08:30:25Z</time>
      </trkpt>
      <trkpt lat="44.48871" lon="4.99921">
        <ele>678.83</ele>
        <time>2015-09-06T08:30:26Z</time>
      </trkpt>
      <trkpt lat="44.48869" lon="4.99909">
        <ele>677.87</ele>
        <time>2015-09-06T08:30:29Z</time>
      </trkpt>
      <trkpt lat="44.48866" lon="4.9989">
        <ele>674.98</ele>
        <time>2015-09-06T08:30:36Z</time>
      </trkpt>
      <trkpt lat="44.48863" lon="4.99883">
        <ele>671.62</ele>
        <time>2015-09-06T08:30:39Z</time>
      </trkpt>
      <trkpt lat="44.4886" lon="4.9988">
        <ele>671.62</ele>
        <time>2015-09-06T08:30:42Z</time>
      </trkpt>
      <trkpt lat="44.48863" lon="4.99852">
        <ele>667.29</ele>
        <time>2015-09-06T08:30:49Z</time>
      </trkpt>
      <trkpt lat="44.48866" lon="4.99817">
        <ele>663.93</ele>
        <time>2015-09-06T08:31:01Z</time>
      </trkpt>
      <trkpt lat="44.48867" lon="4.99799">
        <ele>661.04</ele>
        <time>2015-09-06T08:31:05Z</time>
      </trkpt>
      <trkpt lat="44.48868" lon="4.9977">
        <ele>657.2</ele>
        <time>2015-09-06T08:31:10Z</time>
      </trkpt>
      <trkpt lat="44.4887" lon="4.99737">
        <ele>653.83</ele>
        <time>2015-09-06T08:31:18Z</time>
      </trkpt>
      <trkpt lat="44.48871" lon="4.99733">
        <ele>652.87</ele>
        <time>2015-09-06T08:31:20Z</time>
      </trkpt>
      <trkpt lat="44.48871" lon="4.99733">
        <ele>653.35</ele>
        <time>2015-09-06T08:31:21Z</time>
      </trkpt>
      <trkpt lat="44.48872" lon="4.99729">
        <ele>653.35</ele>
        <time>2015-09-06T08:31:23Z</time>
      </trkpt>
      <trkpt lat="44.48869" lon="4.99706">
        <ele>650.95</ele>
        <time>2015-09-06T08:31:28Z</time>
      </trkpt>
      <trkpt lat="44.48869" lon="4.99689">
        <ele>647.1</ele>
        <time>2015-09-06T08:31:32Z</time>
      </trkpt>
      <trkpt lat="44.48874" lon="4.99656">
        <ele>643.26</ele>
        <time>2015-09-06T08:31:40Z</time>
      </trkpt>
      <trkpt lat="44.48877" lon="4.99647">
        <ele>638.45</ele>
        <time>2015-09-06T08:31:45Z</time>
      </trkpt>
      <trkpt lat="44.48878" lon="4.99646">
        <ele>637.49</ele>
        <time>2015-09-06T08:31:46Z</time>
      </trkpt>
      <trkpt lat="44.48879" lon="4.99631">
        <ele>633.65</ele>
        <time>2015-09-06T08:31:50Z</time>
      </trkpt>
      <trkpt lat="44.48878" lon="4.99619">
        <ele>630.28</ele>
        <time>2015-09-06T08:31:53Z</time>
      </trkpt>
      <trkpt lat="44.48879" lon="4.99611">
        <ele>629.32</ele>
        <time>2015-09-06T08:31:55Z</time>
      </trkpt>
      <trkpt lat="44.4888" lon="4.99605">
        <ele>628.84</ele>
        <time>2015-09-06T08:31:56Z</time>
      </trkpt>
      <trkpt lat="44.48881" lon="4.99567">
        <ele>624.03</ele>
        <time>2015-09-06T08:32:00Z</time>
      </trkpt>
      <trkpt lat="44.48886" lon="4.9956">
        <ele>624.03</ele>
        <time>2015-09-06T08:32:01Z</time>
      </trkpt>
      <trkpt lat="44.48883" lon="4.99531">
        <ele>621.15</ele>
        <time>2015-09-06T08:32:05Z</time>
      </trkpt>
      <trkpt lat="44.48885" lon="4.99526">
        <ele>620.19</ele>
        <time>2015-09-06T08:32:06Z</time>
      </trkpt>
      <trkpt lat="44.48888" lon="4.99518">
        <ele>617.78</ele>
        <time>2015-09-06T08:32:08Z</time>
      </trkpt>
      <trkpt lat="44.48888" lon="4.99513">
        <ele>614.9</ele>
        <time>2015-09-06T08:32:10Z</time>
      </trkpt>
      <trkpt lat="44.48896" lon="4.99505">
        <ele>612.02</ele>
        <time>2015-09-06T08:32:13Z</time>
      </trkpt>
      <trkpt lat="44.48907" lon="4.99482">
        <ele>612.98</ele>
        <time>2015-09-06T08:32:20Z</time>
      </trkpt>
      <trkpt lat="44.48934" lon="4.99472">
        <ele>615.38</ele>
        <time>2015-09-06T08:32:29Z</time>
      </trkpt>
      <trkpt lat="44.48946" lon="4.99467">
        <ele>616.82</ele>
        <time>2015-09-06T08:32:34Z</time>
      </trkpt>
      <trkpt lat="44.48953" lon="4.99465">
        <ele>617.78</ele>
        <time>2015-09-06T08:32:38Z</time>
      </trkpt>
      <trkpt lat="44.48957" lon="4.99466">
        <ele>618.26</ele>
        <time>2015-09-06T08:32:41Z</time>
      </trkpt>
      <trkpt lat="44.48962" lon="4.99467">
        <ele>618.75</ele>
        <time>2015-09-06T08:32:44Z</time>
      </trkpt>
      <trkpt lat="44.4897" lon="4.99467">
        <ele>620.19</ele>
        <time>2015-09-06T08:32:49Z</time>
      </trkpt>
      <trkpt lat="44.48978" lon="4.99468">
        <ele>621.15</ele>
        <time>2015-09-06T08:32:54Z</time>
      </trkpt>
      <trkpt lat="44.48986" lon="4.9947">
        <ele>623.55</ele>
        <time>2015-09-06T08:32:59Z</time>
      </trkpt>
      <trkpt lat="44.48989" lon="4.99472">
        <ele>624.03</ele>
        <time>2015-09-06T08:33:02Z</time>
      </trkpt>
      <trkpt lat="44.48994" lon="4.99472">
        <ele>625.47</ele>
        <time>2015-09-06T08:33:05Z</time>
      </trkpt>
      <trkpt lat="44.49008" lon="4.99483">
        <ele>628.36</ele>
        <time>2015-09-06T08:33:18Z</time>
      </trkpt>
      <trkpt lat="44.49013" lon="4.99503">
        <ele>630.76</ele>
        <time>2015-09-06T08:33:30Z</time>
      </trkpt>
      <trkpt lat="44.49018" lon="4.99524">
        <ele>632.2</ele>
        <time>2015-09-06T08:33:41Z</time>
      </trkpt>
      <trkpt lat="44.49024" lon="4.99543">
        <ele>634.13</ele>
        <time>2015-09-06T08:33:52Z</time>
      </trkpt>
      <trkpt lat="44.49029" lon="4.99551">
        <ele>635.09</ele>
        <time>2015-09-06T08:33:59Z</time>
      </trkpt>
      <trkpt lat="44.49033" lon="4.99569">
        <ele>637.97</ele>
        <time>2015-09-06T08:34:11Z</time>
      </trkpt>
      <trkpt lat="44.49031" lon="4.99576">
        <ele>638.93</ele>
        <time>2015-09-06T08:34:14Z</time>
      </trkpt>
      <trkpt lat="44.49036" lon="4.99592">
        <ele>641.34</ele>
        <time>2015-09-06T08:34:29Z</time>
      </trkpt>
      <trkpt lat="44.49033" lon="4.99605">
        <ele>642.78</ele>
        <time>2015-09-06T08:34:45Z</time>
      </trkpt>
      <trkpt lat="44.4904" lon="4.99614">
        <ele>643.26</ele>
        <time>2015-09-06T08:34:56Z</time>
      </trkpt>
      <trkpt lat="44.49042" lon="4.99615">
        <ele>643.74</ele>
        <time>2015-09-06T08:35:08Z</time>
      </trkpt>
      <trkpt lat="44.49043" lon="4.99618">
        <ele>644.22</ele>
        <time>2015-09-06T08:35:15Z</time>
      </trkpt>
      <trkpt lat="44.4905" lon="4.9963">
        <ele>646.62</ele>
        <time>2015-09-06T08:35:23Z</time>
      </trkpt>
      <trkpt lat="44.49074" lon="4.99648">
        <ele>649.03</ele>
        <time>2015-09-06T08:35:37Z</time>
      </trkpt>
      <trkpt lat="44.4908" lon="4.99655">
        <ele>649.51</ele>
        <time>2015-09-06T08:35:42Z</time>
      </trkpt>
      <trkpt lat="44.49083" lon="4.99659">
        <ele>649.99</ele>
        <time>2015-09-06T08:35:44Z</time>
      </trkpt>
      <trkpt lat="44.49089" lon="4.99668">
        <ele>651.91</ele>
        <time>2015-09-06T08:35:51Z</time>
      </trkpt>
      <trkpt lat="44.49108" lon="4.99692">
        <ele>653.83</ele>
        <time>2015-09-06T08:36:07Z</time>
      </trkpt>
      <trkpt lat="44.49117" lon="4.99703">
        <ele>654.8</ele>
        <time>2015-09-06T08:36:14Z</time>
      </trkpt>
      <trkpt lat="44.49119" lon="4.99706">
        <ele>655.28</ele>
        <time>2015-09-06T08:36:16Z</time>
      </trkpt>
      <trkpt lat="44.49132" lon="4.99718">
        <ele>657.68</ele>
        <time>2015-09-06T08:36:29Z</time>
      </trkpt>
      <trkpt lat="44.4915" lon="4.99733">
        <ele>660.56</ele>
        <time>2015-09-06T08:36:43Z</time>
      </trkpt>
      <trkpt lat="44.4917" lon="4.99748">
        <ele>662.49</ele>
        <time>2015-09-06T08:36:58Z</time>
      </trkpt>
      <trkpt lat="44.49177" lon="4.99754">
        <ele>663.45</ele>
        <time>2015-09-06T08:37:04Z</time>
      </trkpt>
      <trkpt lat="44.49194" lon="4.99772">
        <ele>666.33</ele>
        <time>2015-09-06T08:37:19Z</time>
      </trkpt>
      <trkpt lat="44.49209" lon="4.9979">
        <ele>668.25</ele>
        <time>2015-09-06T08:37:33Z</time>
      </trkpt>
      <trkpt lat="44.49224" lon="4.99805">
        <ele>671.14</ele>
        <time>2015-09-06T08:37:47Z</time>
      </trkpt>
      <trkpt lat="44.49229" lon="4.99814">
        <ele>672.58</ele>
        <time>2015-09-06T08:37:58Z</time>
      </trkpt>
      <trkpt lat="44.49241" lon="4.99828">
        <ele>674.98</ele>
        <time>2015-09-06T08:38:12Z</time>
      </trkpt>
      <trkpt lat="44.49246" lon="4.99834">
        <ele>675.46</ele>
        <time>2015-09-06T08:38:17Z</time>
      </trkpt>
      <trkpt lat="44.49255" lon="4.99842">
        <ele>676.42</ele>
        <time>2015-09-06T08:38:32Z</time>
      </trkpt>
      <trkpt lat="44.49256" lon="4.99842">
        <ele>676.42</ele>
        <time>2015-09-06T08:38:37Z</time>
      </trkpt>
      <trkpt lat="44.49258" lon="4.99845">
        <ele>676.42</ele>
        <time>2015-09-06T08:38:39Z</time>
      </trkpt>
      <trkpt lat="44.49263" lon="4.99851">
        <ele>676.91</ele>
        <time>2015-09-06T08:38:43Z</time>
      </trkpt>
      <trkpt lat="44.49268" lon="4.99857">
        <ele>677.87</ele>
        <time>2015-09-06T08:38:47Z</time>
      </trkpt>
      <trkpt lat="44.49282" lon="4.99874">
        <ele>680.27</ele>
        <time>2015-09-06T08:39:01Z</time>
      </trkpt>
      <trkpt lat="44.49287" lon="4.99876">
        <ele>681.71</ele>
        <time>2015-09-06T08:39:07Z</time>
      </trkpt>
      <trkpt lat="44.49305" lon="4.99903">
        <ele>684.6</ele>
        <time>2015-09-06T08:39:22Z</time>
      </trkpt>
      <trkpt lat="44.49323" lon="4.99928">
        <ele>686.52</ele>
        <time>2015-09-06T08:39:34Z</time>
      </trkpt>
      <trkpt lat="44.49332" lon="4.99936">
        <ele>685.56</ele>
        <time>2015-09-06T08:39:48Z</time>
      </trkpt>
      <trkpt lat="44.49334" lon="4.9994">
        <ele>684.6</ele>
        <time>2015-09-06T08:40:03Z</time>
      </trkpt>
      <trkpt lat="44.49334" lon="4.99939">
        <ele>684.6</ele>
        <time>2015-09-06T08:40:20Z</time>
      </trkpt>
      <trkpt lat="44.49333" lon="4.99939">
        <ele>684.12</ele>
        <time>2015-09-06T08:40:36Z</time>
      </trkpt>
      <trkpt lat="44.49333" lon="4.99939">
        <ele>684.12</ele>
        <time>2015-09-06T08:40:47Z</time>
      </trkpt>
      <trkpt lat="44.49362" lon="4.9994">
        <ele>686.04</ele>
        <time>2015-09-06T08:47:29Z</time>
      </trkpt>
      <trkpt lat="44.49361" lon="4.9994">
        <ele>686.04</ele>
        <time>2015-09-06T08:47:30Z</time>
      </trkpt>
      <trkpt lat="44.49345" lon="4.99938">
        <ele>682.67</ele>
        <time>2015-09-06T08:47:48Z</time>
      </trkpt>
      <trkpt lat="44.49346" lon="4.99938">
        <ele>682.19</ele>
        <time>2015-09-06T08:47:49Z</time>
      </trkpt>
      <trkpt lat="44.49345" lon="4.99938">
        <ele>678.83</ele>
        <time>2015-09-06T08:47:56Z</time>
      </trkpt>
      <trkpt lat="44.49346" lon="4.99943">
        <ele>678.83</ele>
        <time>2015-09-06T08:48:09Z</time>
      </trkpt>
      <trkpt lat="44.49347" lon="4.99948">
        <ele>678.83</ele>
        <time>2015-09-06T08:48:11Z</time>
      </trkpt>
      <trkpt lat="44.49349" lon="4.99952">
        <ele>679.31</ele>
        <time>2015-09-06T08:48:13Z</time>
      </trkpt>
      <trkpt lat="44.49348" lon="4.99964">
        <ele>681.71</ele>
        <time>2015-09-06T08:48:21Z</time>
      </trkpt>
      <trkpt lat="44.49352" lon="4.99973">
        <ele>684.12</ele>
        <time>2015-09-06T08:48:32Z</time>
      </trkpt>
      <trkpt lat="44.49352" lon="4.99975">
        <ele>684.12</ele>
        <time>2015-09-06T08:48:35Z</time>
      </trkpt>
      <trkpt lat="44.49371" lon="5.00003">
        <ele>683.63</ele>
        <time>2015-09-06T08:48:47Z</time>
      </trkpt>
      <trkpt lat="44.49377" lon="5.00007">
        <ele>683.15</ele>
        <time>2015-09-06T08:48:49Z</time>
      </trkpt>
      <trkpt lat="44.49379" lon="5.00029">
        <ele>679.31</ele>
        <time>2015-09-06T08:48:57Z</time>
      </trkpt>
      <trkpt lat="44.4938" lon="5.00037">
        <ele>676.42</ele>
        <time>2015-09-06T08:49:00Z</time>
      </trkpt>
      <trkpt lat="44.49381" lon="5.00045">
        <ele>673.06</ele>
        <time>2015-09-06T08:49:08Z</time>
      </trkpt>
      <trkpt lat="44.49379" lon="5.00052">
        <ele>669.7</ele>
        <time>2015-09-06T08:49:22Z</time>
      </trkpt>
      <trkpt lat="44.49376" lon="5.00058">
        <ele>669.22</ele>
        <time>2015-09-06T08:49:29Z</time>
      </trkpt>
      <trkpt lat="44.4937" lon="5.00069">
        <ele>665.85</ele>
        <time>2015-09-06T08:49:35Z</time>
      </trkpt>
      <trkpt lat="44.4936" lon="5.00084">
        <ele>662.01</ele>
        <time>2015-09-06T08:49:40Z</time>
      </trkpt>
      <trkpt lat="44.49334" lon="5.00112">
        <ele>657.68</ele>
        <time>2015-09-06T08:49:47Z</time>
      </trkpt>
      <trkpt lat="44.49302" lon="5.00135">
        <ele>657.68</ele>
        <time>2015-09-06T08:49:56Z</time>
      </trkpt>
      <trkpt lat="44.49257" lon="5.0017">
        <ele>656.24</ele>
        <time>2015-09-06T08:50:07Z</time>
      </trkpt>
      <trkpt lat="44.49241" lon="5.00183">
        <ele>655.76</ele>
        <time>2015-09-06T08:50:12Z</time>
      </trkpt>
      <trkpt lat="44.49221" lon="5.002">
        <ele>654.8</ele>
        <time>2015-09-06T08:50:17Z</time>
      </trkpt>
      <trkpt lat="44.49178" lon="5.00214">
        <ele>654.8</ele>
        <time>2015-09-06T08:50:29Z</time>
      </trkpt>
      <trkpt lat="44.49168" lon="5.00221">
        <ele>653.35</ele>
        <time>2015-09-06T08:50:33Z</time>
      </trkpt>
      <trkpt lat="44.49158" lon="5.00228">
        <ele>651.91</ele>
        <time>2015-09-06T08:50:36Z</time>
      </trkpt>
      <trkpt lat="44.49151" lon="5.00231">
        <ele>651.43</ele>
        <time>2015-09-06T08:50:38Z</time>
      </trkpt>
      <trkpt lat="44.49114" lon="5.00253">
        <ele>650.47</ele>
        <time>2015-09-06T08:50:49Z</time>
      </trkpt>
      <trkpt lat="44.49114" lon="5.00253">
        <ele>649.03</ele>
        <time>2015-09-06T08:50:53Z</time>
      </trkpt>
      <trkpt lat="44.49112" lon="5.00256">
        <ele>651.91</ele>
        <time>2015-09-06T08:51:10Z</time>
      </trkpt>
      <trkpt lat="44.49112" lon="5.00256">
        <ele>652.87</ele>
        <time>2015-09-06T08:51:12Z</time>
      </trkpt>
      <trkpt lat="44.4911" lon="5.00258">
        <ele>650.95</ele>
        <time>2015-09-06T08:51:27Z</time>
      </trkpt>
      <trkpt lat="44.49105" lon="5.00264">
        <ele>653.83</ele>
        <time>2015-09-06T08:51:41Z</time>
      </trkpt>
      <trkpt lat="44.49105" lon="5.00264">
        <ele>656.24</ele>
        <time>2015-09-06T08:51:46Z</time>
      </trkpt>
      <trkpt lat="44.49103" lon="5.00265">
        <ele>656.72</ele>
        <time>2015-09-06T08:51:52Z</time>
      </trkpt>
      <trkpt lat="44.49096" lon="5.00276">
        <ele>655.28</ele>
        <time>2015-09-06T08:51:56Z</time>
      </trkpt>
      <trkpt lat="44.49074" lon="5.00289">
        <ele>654.8</ele>
        <time>2015-09-06T08:52:04Z</time>
      </trkpt>
      <trkpt lat="44.49065" lon="5.00297">
        <ele>652.87</ele>
        <time>2015-09-06T08:52:11Z</time>
      </trkpt>
      <trkpt lat="44.49064" lon="5.00298">
        <ele>654.31</ele>
        <time>2015-09-06T08:52:15Z</time>
      </trkpt>
      <trkpt lat="44.49052" lon="5.00302">
        <ele>657.68</ele>
        <time>2015-09-06T08:52:26Z</time>
      </trkpt>
      <trkpt lat="44.49043" lon="5.00308">
        <ele>656.24</ele>
        <time>2015-09-06T08:52:39Z</time>
      </trkpt>
      <trkpt lat="44.4904" lon="5.00311">
        <ele>656.72</ele>
        <time>2015-09-06T08:52:42Z</time>
      </trkpt>
      <trkpt lat="44.49035" lon="5.00314">
        <ele>657.2</ele>
        <time>2015-09-06T08:52:44Z</time>
      </trkpt>
      <trkpt lat="44.49016" lon="5.00322">
        <ele>659.12</ele>
        <time>2015-09-06T08:52:52Z</time>
      </trkpt>
      <trkpt lat="44.48991" lon="5.00336">
        <ele>661.52</ele>
        <time>2015-09-06T08:53:01Z</time>
      </trkpt>
      <trkpt lat="44.48988" lon="5.00337">
        <ele>662.01</ele>
        <time>2015-09-06T08:53:03Z</time>
      </trkpt>
      <trkpt lat="44.4898" lon="5.00339">
        <ele>662.49</ele>
        <time>2015-09-06T08:53:06Z</time>
      </trkpt>
      <trkpt lat="44.48963" lon="5.00341">
        <ele>660.56</ele>
        <time>2015-09-06T08:53:13Z</time>
      </trkpt>
      <trkpt lat="44.48954" lon="5.00348">
        <ele>660.08</ele>
        <time>2015-09-06T08:53:19Z</time>
      </trkpt>
      <trkpt lat="44.48926" lon="5.00364">
        <ele>662.97</ele>
        <time>2015-09-06T08:53:32Z</time>
      </trkpt>
      <trkpt lat="44.48919" lon="5.00369">
        <ele>662.01</ele>
        <time>2015-09-06T08:53:35Z</time>
      </trkpt>
      <trkpt lat="44.48887" lon="5.00392">
        <ele>661.04</ele>
        <time>2015-09-06T08:53:48Z</time>
      </trkpt>
      <trkpt lat="44.48847" lon="5.0042">
        <ele>662.49</ele>
        <time>2015-09-06T08:54:02Z</time>
      </trkpt>
      <trkpt lat="44.48809" lon="5.00456">
        <ele>665.37</ele>
        <time>2015-09-06T08:54:16Z</time>
      </trkpt>
      <trkpt lat="44.48773" lon="5.00484">
        <ele>667.29</ele>
        <time>2015-09-06T08:54:30Z</time>
      </trkpt>
      <trkpt lat="44.48749" lon="5.00504">
        <ele>670.18</ele>
        <time>2015-09-06T08:54:40Z</time>
      </trkpt>
      <trkpt lat="44.48747" lon="5.00505">
        <ele>670.18</ele>
        <time>2015-09-06T08:54:41Z</time>
      </trkpt>
      <trkpt lat="44.48719" lon="5.00523">
        <ele>670.66</ele>
        <time>2015-09-06T08:54:52Z</time>
      </trkpt>
      <trkpt lat="44.48713" lon="5.00527">
        <ele>673.54</ele>
        <time>2015-09-06T08:54:54Z</time>
      </trkpt>
      <trkpt lat="44.48709" lon="5.00528">
        <ele>672.58</ele>
        <time>2015-09-06T08:54:55Z</time>
      </trkpt>
      <trkpt lat="44.48698" lon="5.00532">
        <ele>670.18</ele>
        <time>2015-09-06T08:54:59Z</time>
      </trkpt>
      <trkpt lat="44.48682" lon="5.00534">
        <ele>671.62</ele>
        <time>2015-09-06T08:55:06Z</time>
      </trkpt>
      <trkpt lat="44.48667" lon="5.00536">
        <ele>670.66</ele>
        <time>2015-09-06T08:55:12Z</time>
      </trkpt>
      <trkpt lat="44.48654" lon="5.00541">
        <ele>670.66</ele>
        <time>2015-09-06T08:55:17Z</time>
      </trkpt>
      <trkpt lat="44.48649" lon="5.00542">
        <ele>670.66</ele>
        <time>2015-09-06T08:55:19Z</time>
      </trkpt>
      <trkpt lat="44.4864" lon="5.00543">
        <ele>671.14</ele>
        <time>2015-09-06T08:55:22Z</time>
      </trkpt>
      <trkpt lat="44.48621" lon="5.00547">
        <ele>670.66</ele>
        <time>2015-09-06T08:55:28Z</time>
      </trkpt>
      <trkpt lat="44.48618" lon="5.00546">
        <ele>670.66</ele>
        <time>2015-09-06T08:55:30Z</time>
      </trkpt>
      <trkpt lat="44.48607" lon="5.00556">
        <ele>669.22</ele>
        <time>2015-09-06T08:55:33Z</time>
      </trkpt>
      <trkpt lat="44.48595" lon="5.00562">
        <ele>669.22</ele>
        <time>2015-09-06T08:55:37Z</time>
      </trkpt>
      <trkpt lat="44.48579" lon="5.00569">
        <ele>669.7</ele>
        <time>2015-09-06T08:55:41Z</time>
      </trkpt>
      <trkpt lat="44.4855" lon="5.0058">
        <ele>671.14</ele>
        <time>2015-09-06T08:55:49Z</time>
      </trkpt>
      <trkpt lat="44.48515" lon="5.00591">
        <ele>672.1</ele>
        <time>2015-09-06T08:56:00Z</time>
      </trkpt>
      <trkpt lat="44.48497" lon="5.00605">
        <ele>671.14</ele>
        <time>2015-09-06T08:56:10Z</time>
      </trkpt>
      <trkpt lat="44.48478" lon="5.00611">
        <ele>673.06</ele>
        <time>2015-09-06T08:56:15Z</time>
      </trkpt>
      <trkpt lat="44.48465" lon="5.00619">
        <ele>674.02</ele>
        <time>2015-09-06T08:56:19Z</time>
      </trkpt>
      <trkpt lat="44.48457" lon="5.00624">
        <ele>674.02</ele>
        <time>2015-09-06T08:56:21Z</time>
      </trkpt>
      <trkpt lat="44.48446" lon="5.00629">
        <ele>675.46</ele>
        <time>2015-09-06T08:56:24Z</time>
      </trkpt>
      <trkpt lat="44.48439" lon="5.00634">
        <ele>676.42</ele>
        <time>2015-09-06T08:56:26Z</time>
      </trkpt>
      <trkpt lat="44.48415" lon="5.00647">
        <ele>674.98</ele>
        <time>2015-09-06T08:56:33Z</time>
      </trkpt>
      <trkpt lat="44.48405" lon="5.00651">
        <ele>675.94</ele>
        <time>2015-09-06T08:56:36Z</time>
      </trkpt>
      <trkpt lat="44.4839" lon="5.00666">
        <ele>675.46</ele>
        <time>2015-09-06T08:56:41Z</time>
      </trkpt>
      <trkpt lat="44.48381" lon="5.00672">
        <ele>675.94</ele>
        <time>2015-09-06T08:56:43Z</time>
      </trkpt>
      <trkpt lat="44.48378" lon="5.00675">
        <ele>675.46</ele>
        <time>2015-09-06T08:56:44Z</time>
      </trkpt>
      <trkpt lat="44.48375" lon="5.00678">
        <ele>674.98</ele>
        <time>2015-09-06T08:56:45Z</time>
      </trkpt>
      <trkpt lat="44.48373" lon="5.0068">
        <ele>674.98</ele>
        <time>2015-09-06T08:56:46Z</time>
      </trkpt>
      <trkpt lat="44.4837" lon="5.00684">
        <ele>674.5</ele>
        <time>2015-09-06T08:56:47Z</time>
      </trkpt>
      <trkpt lat="44.48368" lon="5.00687">
        <ele>673.54</ele>
        <time>2015-09-06T08:56:48Z</time>
      </trkpt>
      <trkpt lat="44.48354" lon="5.007">
        <ele>671.14</ele>
        <time>2015-09-06T08:56:52Z</time>
      </trkpt>
      <trkpt lat="44.48339" lon="5.00708">
        <ele>670.66</ele>
        <time>2015-09-06T08:56:55Z</time>
      </trkpt>
      <trkpt lat="44.48336" lon="5.00708">
        <ele>671.14</ele>
        <time>2015-09-06T08:56:56Z</time>
      </trkpt>
      <trkpt lat="44.48332" lon="5.00708">
        <ele>670.66</ele>
        <time>2015-09-06T08:56:57Z</time>
      </trkpt>
      <trkpt lat="44.48328" lon="5.00707">
        <ele>670.66</ele>
        <time>2015-09-06T08:56:58Z</time>
      </trkpt>
      <trkpt lat="44.48324" lon="5.00706">
        <ele>670.18</ele>
        <time>2015-09-06T08:56:59Z</time>
      </trkpt>
      <trkpt lat="44.4832" lon="5.00707">
        <ele>669.7</ele>
        <time>2015-09-06T08:57:00Z</time>
      </trkpt>
      <trkpt lat="44.48316" lon="5.00707">
        <ele>669.22</ele>
        <time>2015-09-06T08:57:01Z</time>
      </trkpt>
      <trkpt lat="44.48291" lon="5.00715">
        <ele>668.73</ele>
        <time>2015-09-06T08:57:08Z</time>
      </trkpt>
      <trkpt lat="44.48289" lon="5.0072">
        <ele>669.22</ele>
        <time>2015-09-06T08:57:09Z</time>
      </trkpt>
      <trkpt lat="44.48272" lon="5.00754">
        <ele>670.18</ele>
        <time>2015-09-06T08:57:19Z</time>
      </trkpt>
      <trkpt lat="44.4827" lon="5.00756">
        <ele>670.18</ele>
        <time>2015-09-06T08:57:20Z</time>
      </trkpt>
      <trkpt lat="44.48246" lon="5.00792">
        <ele>673.06</ele>
        <time>2015-09-06T08:57:33Z</time>
      </trkpt>
      <trkpt lat="44.48244" lon="5.00795">
        <ele>673.06</ele>
        <time>2015-09-06T08:57:34Z</time>
      </trkpt>
      <trkpt lat="44.48221" lon="5.0082">
        <ele>674.5</ele>
        <time>2015-09-06T08:57:46Z</time>
      </trkpt>
      <trkpt lat="44.48194" lon="5.00838">
        <ele>677.87</ele>
        <time>2015-09-06T08:57:55Z</time>
      </trkpt>
      <trkpt lat="44.48183" lon="5.00843">
        <ele>681.23</ele>
        <time>2015-09-06T08:57:59Z</time>
      </trkpt>
      <trkpt lat="44.48177" lon="5.00845">
        <ele>682.19</ele>
        <time>2015-09-06T08:58:01Z</time>
      </trkpt>
      <trkpt lat="44.48142" lon="5.00852">
        <ele>678.83</ele>
        <time>2015-09-06T08:58:12Z</time>
      </trkpt>
      <trkpt lat="44.48115" lon="5.00855">
        <ele>675.94</ele>
        <time>2015-09-06T08:58:19Z</time>
      </trkpt>
      <trkpt lat="44.48088" lon="5.00864">
        <ele>673.06</ele>
        <time>2015-09-06T08:58:25Z</time>
      </trkpt>
      <trkpt lat="44.48082" lon="5.00865">
        <ele>672.58</ele>
        <time>2015-09-06T08:58:26Z</time>
      </trkpt>
      <trkpt lat="44.48075" lon="5.00867">
        <ele>672.1</ele>
        <time>2015-09-06T08:58:27Z</time>
      </trkpt>
      <trkpt lat="44.48069" lon="5.00869">
        <ele>671.62</ele>
        <time>2015-09-06T08:58:28Z</time>
      </trkpt>
      <trkpt lat="44.48063" lon="5.00872">
        <ele>670.66</ele>
        <time>2015-09-06T08:58:29Z</time>
      </trkpt>
      <trkpt lat="44.48059" lon="5.00874">
        <ele>670.18</ele>
        <time>2015-09-06T08:58:30Z</time>
      </trkpt>
      <trkpt lat="44.48055" lon="5.00877">
        <ele>670.18</ele>
        <time>2015-09-06T08:58:31Z</time>
      </trkpt>
      <trkpt lat="44.48023" lon="5.00899">
        <ele>669.22</ele>
        <time>2015-09-06T08:58:40Z</time>
      </trkpt>
      <trkpt lat="44.47987" lon="5.00898">
        <ele>671.14</ele>
        <time>2015-09-06T08:58:50Z</time>
      </trkpt>
      <trkpt lat="44.47975" lon="5.00894">
        <ele>672.1</ele>
        <time>2015-09-06T08:58:56Z</time>
      </trkpt>
      <trkpt lat="44.47973" lon="5.00895">
        <ele>672.1</ele>
        <time>2015-09-06T08:58:57Z</time>
      </trkpt>
      <trkpt lat="44.47971" lon="5.00896">
        <ele>672.58</ele>
        <time>2015-09-06T08:58:58Z</time>
      </trkpt>
      <trkpt lat="44.47969" lon="5.00896">
        <ele>672.58</ele>
        <time>2015-09-06T08:58:59Z</time>
      </trkpt>
      <trkpt lat="44.47967" lon="5.00896">
        <ele>672.58</ele>
        <time>2015-09-06T08:59:00Z</time>
      </trkpt>
      <trkpt lat="44.47964" lon="5.00896">
        <ele>672.1</ele>
        <time>2015-09-06T08:59:01Z</time>
      </trkpt>
      <trkpt lat="44.47962" lon="5.00896">
        <ele>672.58</ele>
        <time>2015-09-06T08:59:02Z</time>
      </trkpt>
      <trkpt lat="44.47954" lon="5.00894">
        <ele>672.58</ele>
        <time>2015-09-06T08:59:11Z</time>
      </trkpt>
      <trkpt lat="44.47949" lon="5.00892">
        <ele>673.06</ele>
        <time>2015-09-06T08:59:15Z</time>
      </trkpt>
      <trkpt lat="44.47948" lon="5.00891">
        <ele>673.06</ele>
        <time>2015-09-06T08:59:16Z</time>
      </trkpt>
      <trkpt lat="44.47939" lon="5.00886">
        <ele>675.46</ele>
        <time>2015-09-06T08:59:28Z</time>
      </trkpt>
      <trkpt lat="44.47924" lon="5.00881">
        <ele>677.39</ele>
        <time>2015-09-06T08:59:39Z</time>
      </trkpt>
      <trkpt lat="44.47915" lon="5.00877">
        <ele>678.83</ele>
        <time>2015-09-06T08:59:50Z</time>
      </trkpt>
      <trkpt lat="44.47914" lon="5.00877">
        <ele>679.31</ele>
        <time>2015-09-06T08:59:51Z</time>
      </trkpt>
      <trkpt lat="44.4791" lon="5.00875">
        <ele>680.27</ele>
        <time>2015-09-06T08:59:59Z</time>
      </trkpt>
      <trkpt lat="44.47909" lon="5.00875">
        <ele>679.79</ele>
        <time>2015-09-06T09:00:00Z</time>
      </trkpt>
      <trkpt lat="44.47905" lon="5.00875">
        <ele>682.19</ele>
        <time>2015-09-06T09:00:04Z</time>
      </trkpt>
      <trkpt lat="44.47896" lon="5.00874">
        <ele>683.63</ele>
        <time>2015-09-06T09:00:11Z</time>
      </trkpt>
      <trkpt lat="44.47893" lon="5.00873">
        <ele>683.63</ele>
        <time>2015-09-06T09:00:14Z</time>
      </trkpt>
      <trkpt lat="44.47891" lon="5.00873">
        <ele>684.12</ele>
        <time>2015-09-06T09:00:15Z</time>
      </trkpt>
      <trkpt lat="44.47882" lon="5.00872">
        <ele>686.52</ele>
        <time>2015-09-06T09:00:23Z</time>
      </trkpt>
      <trkpt lat="44.47879" lon="5.00871">
        <ele>688.92</ele>
        <time>2015-09-06T09:00:27Z</time>
      </trkpt>
      <trkpt lat="44.47869" lon="5.00871">
        <ele>690.36</ele>
        <time>2015-09-06T09:00:39Z</time>
      </trkpt>
      <trkpt lat="44.47864" lon="5.0087">
        <ele>691.33</ele>
        <time>2015-09-06T09:00:44Z</time>
      </trkpt>
      <trkpt lat="44.47855" lon="5.00869">
        <ele>693.25</ele>
        <time>2015-09-06T09:00:55Z</time>
      </trkpt>
      <trkpt lat="44.4785" lon="5.00868">
        <ele>695.17</ele>
        <time>2015-09-06T09:01:01Z</time>
      </trkpt>
      <trkpt lat="44.47849" lon="5.00868">
        <ele>695.17</ele>
        <time>2015-09-06T09:01:02Z</time>
      </trkpt>
      <trkpt lat="44.47836" lon="5.0087">
        <ele>696.13</ele>
        <time>2015-09-06T09:01:12Z</time>
      </trkpt>
      <trkpt lat="44.47835" lon="5.00869">
        <ele>697.09</ele>
        <time>2015-09-06T09:01:13Z</time>
      </trkpt>
      <trkpt lat="44.4783" lon="5.00869">
        <ele>697.57</ele>
        <time>2015-09-06T09:01:17Z</time>
      </trkpt>
      <trkpt lat="44.47827" lon="5.0087">
        <ele>698.05</ele>
        <time>2015-09-06T09:01:19Z</time>
      </trkpt>
      <trkpt lat="44.47815" lon="5.00872">
        <ele>699.98</ele>
        <time>2015-09-06T09:01:30Z</time>
      </trkpt>
      <trkpt lat="44.478" lon="5.00877">
        <ele>702.38</ele>
        <time>2015-09-06T09:01:42Z</time>
      </trkpt>
      <trkpt lat="44.47799" lon="5.00878">
        <ele>702.38</ele>
        <time>2015-09-06T09:01:43Z</time>
      </trkpt>
      <trkpt lat="44.47796" lon="5.00879">
        <ele>702.86</ele>
        <time>2015-09-06T09:01:46Z</time>
      </trkpt>
      <trkpt lat="44.47794" lon="5.00881">
        <ele>703.82</ele>
        <time>2015-09-06T09:01:49Z</time>
      </trkpt>
      <trkpt lat="44.4779" lon="5.00884">
        <ele>704.3</ele>
        <time>2015-09-06T09:01:56Z</time>
      </trkpt>
      <trkpt lat="44.47781" lon="5.00885">
        <ele>705.75</ele>
        <time>2015-09-06T09:02:01Z</time>
      </trkpt>
      <trkpt lat="44.47778" lon="5.00885">
        <ele>705.75</ele>
        <time>2015-09-06T09:02:03Z</time>
      </trkpt>
      <trkpt lat="44.47774" lon="5.00885">
        <ele>706.23</ele>
        <time>2015-09-06T09:02:08Z</time>
      </trkpt>
      <trkpt lat="44.47772" lon="5.00884">
        <ele>706.23</ele>
        <time>2015-09-06T09:02:10Z</time>
      </trkpt>
      <trkpt lat="44.47768" lon="5.00882">
        <ele>707.67</ele>
        <time>2015-09-06T09:02:14Z</time>
      </trkpt>
      <trkpt lat="44.47768" lon="5.00882">
        <ele>707.67</ele>
        <time>2015-09-06T09:02:15Z</time>
      </trkpt>
      <trkpt lat="44.47765" lon="5.00879">
        <ele>708.63</ele>
        <time>2015-09-06T09:02:18Z</time>
      </trkpt>
      <trkpt lat="44.47748" lon="5.00879">
        <ele>709.11</ele>
        <time>2015-09-06T09:02:32Z</time>
      </trkpt>
      <trkpt lat="44.47748" lon="5.00879">
        <ele>708.63</ele>
        <time>2015-09-06T09:02:35Z</time>
      </trkpt>
      <trkpt lat="44.47745" lon="5.00877">
        <ele>709.11</ele>
        <time>2015-09-06T09:02:37Z</time>
      </trkpt>
      <trkpt lat="44.4772" lon="5.00874">
        <ele>712.47</ele>
        <time>2015-09-06T09:02:49Z</time>
      </trkpt>
      <trkpt lat="44.4771" lon="5.00874">
        <ele>713.92</ele>
        <time>2015-09-06T09:02:54Z</time>
      </trkpt>
      <trkpt lat="44.47697" lon="5.00869">
        <ele>712.47</ele>
        <time>2015-09-06T09:03:01Z</time>
      </trkpt>
      <trkpt lat="44.47672" lon="5.00861">
        <ele>713.44</ele>
        <time>2015-09-06T09:03:09Z</time>
      </trkpt>
      <trkpt lat="44.4764" lon="5.00856">
        <ele>713.92</ele>
        <time>2015-09-06T09:03:20Z</time>
      </trkpt>
      <trkpt lat="44.4761" lon="5.0086">
        <ele>713.92</ele>
        <time>2015-09-06T09:03:30Z</time>
      </trkpt>
      <trkpt lat="44.47606" lon="5.00861">
        <ele>713.92</ele>
        <time>2015-09-06T09:03:31Z</time>
      </trkpt>
      <trkpt lat="44.47572" lon="5.00861">
        <ele>710.55</ele>
        <time>2015-09-06T09:03:40Z</time>
      </trkpt>
      <trkpt lat="44.47565" lon="5.00862">
        <ele>708.63</ele>
        <time>2015-09-06T09:03:43Z</time>
      </trkpt>
      <trkpt lat="44.47543" lon="5.00865">
        <ele>705.26</ele>
        <time>2015-09-06T09:03:49Z</time>
      </trkpt>
      <trkpt lat="44.47529" lon="5.0087">
        <ele>701.9</ele>
        <time>2015-09-06T09:03:53Z</time>
      </trkpt>
      <trkpt lat="44.47523" lon="5.0087">
        <ele>700.46</ele>
        <time>2015-09-06T09:03:55Z</time>
      </trkpt>
      <trkpt lat="44.47509" lon="5.00885">
        <ele>696.61</ele>
        <time>2015-09-06T09:04:00Z</time>
      </trkpt>
      <trkpt lat="44.47506" lon="5.00888">
        <ele>694.69</ele>
        <time>2015-09-06T09:04:01Z</time>
      </trkpt>
      <trkpt lat="44.47496" lon="5.00888">
        <ele>692.77</ele>
        <time>2015-09-06T09:04:04Z</time>
      </trkpt>
      <trkpt lat="44.47487" lon="5.0089">
        <ele>690.36</ele>
        <time>2015-09-06T09:04:08Z</time>
      </trkpt>
      <trkpt lat="44.47462" lon="5.00897">
        <ele>686.52</ele>
        <time>2015-09-06T09:04:15Z</time>
      </trkpt>
      <trkpt lat="44.47447" lon="5.00907">
        <ele>683.63</ele>
        <time>2015-09-06T09:04:20Z</time>
      </trkpt>
      <trkpt lat="44.47436" lon="5.00912">
        <ele>680.75</ele>
        <time>2015-09-06T09:04:24Z</time>
      </trkpt>
      <trkpt lat="44.47425" lon="5.00919">
        <ele>676.42</ele>
        <time>2015-09-06T09:04:28Z</time>
      </trkpt>
      <trkpt lat="44.47421" lon="5.00923">
        <ele>674.5</ele>
        <time>2015-09-06T09:04:30Z</time>
      </trkpt>
      <trkpt lat="44.47404" lon="5.00929">
        <ele>670.66</ele>
        <time>2015-09-06T09:04:37Z</time>
      </trkpt>
      <trkpt lat="44.47397" lon="5.00932">
        <ele>669.7</ele>
        <time>2015-09-06T09:04:40Z</time>
      </trkpt>
      <trkpt lat="44.47387" lon="5.00936">
        <ele>666.33</ele>
        <time>2015-09-06T09:04:44Z</time>
      </trkpt>
      <trkpt lat="44.47369" lon="5.00947">
        <ele>662.49</ele>
        <time>2015-09-06T09:04:51Z</time>
      </trkpt>
      <trkpt lat="44.47361" lon="5.00952">
        <ele>660.56</ele>
        <time>2015-09-06T09:04:54Z</time>
      </trkpt>
      <trkpt lat="44.47346" lon="5.00961">
        <ele>658.16</ele>
        <time>2015-09-06T09:04:59Z</time>
      </trkpt>
      <trkpt lat="44.47339" lon="5.00964">
        <ele>656.24</ele>
        <time>2015-09-06T09:05:01Z</time>
      </trkpt>
      <trkpt lat="44.47326" lon="5.00969">
        <ele>654.8</ele>
        <time>2015-09-06T09:05:04Z</time>
      </trkpt>
      <trkpt lat="44.47317" lon="5.00976">
        <ele>655.76</ele>
        <time>2015-09-06T09:05:10Z</time>
      </trkpt>
      <trkpt lat="44.47308" lon="5.00981">
        <ele>655.28</ele>
        <time>2015-09-06T09:05:16Z</time>
      </trkpt>
      <trkpt lat="44.47307" lon="5.00982">
        <ele>655.28</ele>
        <time>2015-09-06T09:05:17Z</time>
      </trkpt>
      <trkpt lat="44.47298" lon="5.00988">
        <ele>657.2</ele>
        <time>2015-09-06T09:05:22Z</time>
      </trkpt>
      <trkpt lat="44.47287" lon="5.00993">
        <ele>658.16</ele>
        <time>2015-09-06T09:05:33Z</time>
      </trkpt>
      <trkpt lat="44.47258" lon="5.00982">
        <ele>659.6</ele>
        <time>2015-09-06T09:05:45Z</time>
      </trkpt>
      <trkpt lat="44.47228" lon="5.00968">
        <ele>660.56</ele>
        <time>2015-09-06T09:05:58Z</time>
      </trkpt>
      <trkpt lat="44.47225" lon="5.00966">
        <ele>659.6</ele>
        <time>2015-09-06T09:05:59Z</time>
      </trkpt>
      <trkpt lat="44.47207" lon="5.00955">
        <ele>654.8</ele>
        <time>2015-09-06T09:06:04Z</time>
      </trkpt>
      <trkpt lat="44.47203" lon="5.00954">
        <ele>654.8</ele>
        <time>2015-09-06T09:06:05Z</time>
      </trkpt>
      <trkpt lat="44.47192" lon="5.00948">
        <ele>657.2</ele>
        <time>2015-09-06T09:06:12Z</time>
      </trkpt>
      <trkpt lat="44.47181" lon="5.00939">
        <ele>659.12</ele>
        <time>2015-09-06T09:06:21Z</time>
      </trkpt>
      <trkpt lat="44.47166" lon="5.00936">
        <ele>660.08</ele>
        <time>2015-09-06T09:06:27Z</time>
      </trkpt>
      <trkpt lat="44.47164" lon="5.00934">
        <ele>659.12</ele>
        <time>2015-09-06T09:06:28Z</time>
      </trkpt>
      <trkpt lat="44.47158" lon="5.00931">
        <ele>658.64</ele>
        <time>2015-09-06T09:06:30Z</time>
      </trkpt>
      <trkpt lat="44.47146" lon="5.00925">
        <ele>657.68</ele>
        <time>2015-09-06T09:06:34Z</time>
      </trkpt>
      <trkpt lat="44.47114" lon="5.00921">
        <ele>658.64</ele>
        <time>2015-09-06T09:06:44Z</time>
      </trkpt>
      <trkpt lat="44.47093" lon="5.0092">
        <ele>658.64</ele>
        <time>2015-09-06T09:06:53Z</time>
      </trkpt>
      <trkpt lat="44.4708" lon="5.00918">
        <ele>660.08</ele>
        <time>2015-09-06T09:06:58Z</time>
      </trkpt>
      <trkpt lat="44.4707" lon="5.00919">
        <ele>661.04</ele>
        <time>2015-09-06T09:07:06Z</time>
      </trkpt>
      <trkpt lat="44.47067" lon="5.00921">
        <ele>662.49</ele>
        <time>2015-09-06T09:07:10Z</time>
      </trkpt>
      <trkpt lat="44.47063" lon="5.00925">
        <ele>666.33</ele>
        <time>2015-09-06T09:07:19Z</time>
      </trkpt>
      <trkpt lat="44.47062" lon="5.00925">
        <ele>666.33</ele>
        <time>2015-09-06T09:07:20Z</time>
      </trkpt>
      <trkpt lat="44.47058" lon="5.00924">
        <ele>668.73</ele>
        <time>2015-09-06T09:07:31Z</time>
      </trkpt>
      <trkpt lat="44.47055" lon="5.00924">
        <ele>669.22</ele>
        <time>2015-09-06T09:07:33Z</time>
      </trkpt>
      <trkpt lat="44.47046" lon="5.00924">
        <ele>669.7</ele>
        <time>2015-09-06T09:07:44Z</time>
      </trkpt>
      <trkpt lat="44.47041" lon="5.00922">
        <ele>672.1</ele>
        <time>2015-09-06T09:07:56Z</time>
      </trkpt>
      <trkpt lat="44.47038" lon="5.00921">
        <ele>674.5</ele>
        <time>2015-09-06T09:08:03Z</time>
      </trkpt>
      <trkpt lat="44.47036" lon="5.00921">
        <ele>670.18</ele>
        <time>2015-09-06T09:08:06Z</time>
      </trkpt>
      <trkpt lat="44.47036" lon="5.00921">
        <ele>670.18</ele>
        <time>2015-09-06T09:08:07Z</time>
      </trkpt>
      <trkpt lat="44.47035" lon="5.0092">
        <ele>674.98</ele>
        <time>2015-09-06T09:08:09Z</time>
      </trkpt>
      <trkpt lat="44.47028" lon="5.0092">
        <ele>675.94</ele>
        <time>2015-09-06T09:08:17Z</time>
      </trkpt>
      <trkpt lat="44.47023" lon="5.0092">
        <ele>679.31</ele>
        <time>2015-09-06T09:08:22Z</time>
      </trkpt>
      <trkpt lat="44.47021" lon="5.00919">
        <ele>680.27</ele>
        <time>2015-09-06T09:08:25Z</time>
      </trkpt>
      <trkpt lat="44.47015" lon="5.0092">
        <ele>682.19</ele>
        <time>2015-09-06T09:08:31Z</time>
      </trkpt>
      <trkpt lat="44.47012" lon="5.00924">
        <ele>682.67</ele>
        <time>2015-09-06T09:08:40Z</time>
      </trkpt>
      <trkpt lat="44.47011" lon="5.00927">
        <ele>683.63</ele>
        <time>2015-09-06T09:08:53Z</time>
      </trkpt>
      <trkpt lat="44.47011" lon="5.00927">
        <ele>683.63</ele>
        <time>2015-09-06T09:08:54Z</time>
      </trkpt>
      <trkpt lat="44.47011" lon="5.00931">
        <ele>682.19</ele>
        <time>2015-09-06T09:09:08Z</time>
      </trkpt>
      <trkpt lat="44.47007" lon="5.00936">
        <ele>682.67</ele>
        <time>2015-09-06T09:09:29Z</time>
      </trkpt>
      <trkpt lat="44.47006" lon="5.00938">
        <ele>685.08</ele>
        <time>2015-09-06T09:09:31Z</time>
      </trkpt>
      <trkpt lat="44.47" lon="5.00941">
        <ele>688.92</ele>
        <time>2015-09-06T09:09:45Z</time>
      </trkpt>
      <trkpt lat="44.46999" lon="5.00941">
        <ele>688.92</ele>
        <time>2015-09-06T09:09:46Z</time>
      </trkpt>
      <trkpt lat="44.46995" lon="5.00945">
        <ele>690.36</ele>
        <time>2015-09-06T09:09:58Z</time>
      </trkpt>
      <trkpt lat="44.46993" lon="5.00947">
        <ele>690.84</ele>
        <time>2015-09-06T09:10:14Z</time>
      </trkpt>
      <trkpt lat="44.46989" lon="5.0095">
        <ele>692.29</ele>
        <time>2015-09-06T09:10:20Z</time>
      </trkpt>
      <trkpt lat="44.46983" lon="5.00954">
        <ele>694.21</ele>
        <time>2015-09-06T09:10:32Z</time>
      </trkpt>
      <trkpt lat="44.46981" lon="5.00955">
        <ele>694.69</ele>
        <time>2015-09-06T09:10:37Z</time>
      </trkpt>
      <trkpt lat="44.46978" lon="5.00957">
        <ele>696.13</ele>
        <time>2015-09-06T09:10:43Z</time>
      </trkpt>
      <trkpt lat="44.46975" lon="5.00959">
        <ele>698.05</ele>
        <time>2015-09-06T09:10:48Z</time>
      </trkpt>
      <trkpt lat="44.4697" lon="5.00966">
        <ele>700.46</ele>
        <time>2015-09-06T09:10:58Z</time>
      </trkpt>
      <trkpt lat="44.46964" lon="5.00971">
        <ele>703.82</ele>
        <time>2015-09-06T09:11:14Z</time>
      </trkpt>
      <trkpt lat="44.46962" lon="5.00973">
        <ele>704.3</ele>
        <time>2015-09-06T09:11:17Z</time>
      </trkpt>
      <trkpt lat="44.46959" lon="5.00974">
        <ele>705.75</ele>
        <time>2015-09-06T09:11:21Z</time>
      </trkpt>
      <trkpt lat="44.46951" lon="5.00982">
        <ele>708.15</ele>
        <time>2015-09-06T09:11:35Z</time>
      </trkpt>
      <trkpt lat="44.46948" lon="5.00983">
        <ele>707.67</ele>
        <time>2015-09-06T09:11:41Z</time>
      </trkpt>
      <trkpt lat="44.4694" lon="5.00988">
        <ele>709.11</ele>
        <time>2015-09-06T09:11:54Z</time>
      </trkpt>
      <trkpt lat="44.4694" lon="5.00988">
        <ele>709.11</ele>
        <time>2015-09-06T09:12:03Z</time>
      </trkpt>
      <trkpt lat="44.46939" lon="5.00989">
        <ele>708.63</ele>
        <time>2015-09-06T09:12:22Z</time>
      </trkpt>
      <trkpt lat="44.46938" lon="5.00989">
        <ele>710.07</ele>
        <time>2015-09-06T09:12:28Z</time>
      </trkpt>
      <trkpt lat="44.46937" lon="5.0099">
        <ele>708.63</ele>
        <time>2015-09-06T09:12:36Z</time>
      </trkpt>
      <trkpt lat="44.46937" lon="5.00991">
        <ele>709.59</ele>
        <time>2015-09-06T09:12:46Z</time>
      </trkpt>
      <trkpt lat="44.46937" lon="5.00991">
        <ele>706.71</ele>
        <time>2015-09-06T09:13:06Z</time>
      </trkpt>
      <trkpt lat="44.46937" lon="5.00991">
        <ele>708.63</ele>
        <time>2015-09-06T09:13:36Z</time>
      </trkpt>
      <trkpt lat="44.46938" lon="5.00993">
        <ele>708.63</ele>
        <time>2015-09-06T09:13:52Z</time>
      </trkpt>
      <trkpt lat="44.46936" lon="5.00993">
        <ele>709.59</ele>
        <time>2015-09-06T09:14:04Z</time>
      </trkpt>
      <trkpt lat="44.46936" lon="5.00994">
        <ele>709.59</ele>
        <time>2015-09-06T09:14:13Z</time>
      </trkpt>
      <trkpt lat="44.46925" lon="5.00986">
        <ele>705.75</ele>
        <time>2015-09-06T09:14:19Z</time>
      </trkpt>
      <trkpt lat="44.46923" lon="5.00986">
        <ele>705.26</ele>
        <time>2015-09-06T09:14:20Z</time>
      </trkpt>
      <trkpt lat="44.46915" lon="5.00987">
        <ele>708.63</ele>
        <time>2015-09-06T09:14:24Z</time>
      </trkpt>
      <trkpt lat="44.46883" lon="5.00984">
        <ele>706.23</ele>
        <time>2015-09-06T09:14:34Z</time>
      </trkpt>
      <trkpt lat="44.46878" lon="5.00981">
        <ele>703.34</ele>
        <time>2015-09-06T09:14:36Z</time>
      </trkpt>
      <trkpt lat="44.46862" lon="5.00979">
        <ele>699.98</ele>
        <time>2015-09-06T09:14:42Z</time>
      </trkpt>
      <trkpt lat="44.46834" lon="5.00982">
        <ele>696.13</ele>
        <time>2015-09-06T09:14:54Z</time>
      </trkpt>
      <trkpt lat="44.46815" lon="5.0098">
        <ele>693.25</ele>
        <time>2015-09-06T09:15:00Z</time>
      </trkpt>
      <trkpt lat="44.46811" lon="5.00982">
        <ele>693.25</ele>
        <time>2015-09-06T09:15:01Z</time>
      </trkpt>
      <trkpt lat="44.46789" lon="5.00995">
        <ele>692.29</ele>
        <time>2015-09-06T09:15:10Z</time>
      </trkpt>
      <trkpt lat="44.46787" lon="5.00998">
        <ele>693.73</ele>
        <time>2015-09-06T09:15:11Z</time>
      </trkpt>
      <trkpt lat="44.46757" lon="5.01021">
        <ele>693.73</ele>
        <time>2015-09-06T09:15:20Z</time>
      </trkpt>
      <trkpt lat="44.46754" lon="5.01024">
        <ele>693.25</ele>
        <time>2015-09-06T09:15:21Z</time>
      </trkpt>
      <trkpt lat="44.46736" lon="5.01028">
        <ele>691.81</ele>
        <time>2015-09-06T09:15:25Z</time>
      </trkpt>
      <trkpt lat="44.46722" lon="5.01035">
        <ele>689.4</ele>
        <time>2015-09-06T09:15:28Z</time>
      </trkpt>
      <trkpt lat="44.46718" lon="5.01036">
        <ele>689.4</ele>
        <time>2015-09-06T09:15:29Z</time>
      </trkpt>
      <trkpt lat="44.46714" lon="5.01037">
        <ele>688.92</ele>
        <time>2015-09-06T09:15:30Z</time>
      </trkpt>
      <trkpt lat="44.46711" lon="5.0104">
        <ele>689.4</ele>
        <time>2015-09-06T09:15:31Z</time>
      </trkpt>
      <trkpt lat="44.46708" lon="5.01043">
        <ele>689.4</ele>
        <time>2015-09-06T09:15:32Z</time>
      </trkpt>
      <trkpt lat="44.46705" lon="5.01045">
        <ele>689.88</ele>
        <time>2015-09-06T09:15:33Z</time>
      </trkpt>
      <trkpt lat="44.46702" lon="5.01047">
        <ele>689.88</ele>
        <time>2015-09-06T09:15:34Z</time>
      </trkpt>
      <trkpt lat="44.46699" lon="5.0105">
        <ele>690.36</ele>
        <time>2015-09-06T09:15:35Z</time>
      </trkpt>
      <trkpt lat="44.46696" lon="5.01053">
        <ele>690.36</ele>
        <time>2015-09-06T09:15:36Z</time>
      </trkpt>
      <trkpt lat="44.46693" lon="5.01056">
        <ele>689.88</ele>
        <time>2015-09-06T09:15:37Z</time>
      </trkpt>
      <trkpt lat="44.4669" lon="5.01059">
        <ele>689.88</ele>
        <time>2015-09-06T09:15:38Z</time>
      </trkpt>
      <trkpt lat="44.46687" lon="5.0106">
        <ele>687.96</ele>
        <time>2015-09-06T09:15:39Z</time>
      </trkpt>
      <trkpt lat="44.46683" lon="5.01063">
        <ele>687.96</ele>
        <time>2015-09-06T09:15:40Z</time>
      </trkpt>
      <trkpt lat="44.46679" lon="5.01067">
        <ele>687.96</ele>
        <time>2015-09-06T09:15:41Z</time>
      </trkpt>
      <trkpt lat="44.46676" lon="5.01071">
        <ele>687</ele>
        <time>2015-09-06T09:15:42Z</time>
      </trkpt>
      <trkpt lat="44.46676" lon="5.01075">
        <ele>687</ele>
        <time>2015-09-06T09:15:43Z</time>
      </trkpt>
      <trkpt lat="44.46675" lon="5.01078">
        <ele>687.96</ele>
        <time>2015-09-06T09:15:44Z</time>
      </trkpt>
      <trkpt lat="44.46673" lon="5.0108">
        <ele>687.96</ele>
        <time>2015-09-06T09:15:45Z</time>
      </trkpt>
      <trkpt lat="44.46671" lon="5.0108">
        <ele>687</ele>
        <time>2015-09-06T09:15:46Z</time>
      </trkpt>
      <trkpt lat="44.46667" lon="5.0108">
        <ele>686.04</ele>
        <time>2015-09-06T09:15:47Z</time>
      </trkpt>
      <trkpt lat="44.46664" lon="5.0108">
        <ele>685.56</ele>
        <time>2015-09-06T09:15:48Z</time>
      </trkpt>
      <trkpt lat="44.46659" lon="5.0108">
        <ele>685.08</ele>
        <time>2015-09-06T09:15:49Z</time>
      </trkpt>
      <trkpt lat="44.46656" lon="5.01081">
        <ele>685.08</ele>
        <time>2015-09-06T09:15:50Z</time>
      </trkpt>
      <trkpt lat="44.46652" lon="5.01082">
        <ele>684.6</ele>
        <time>2015-09-06T09:15:51Z</time>
      </trkpt>
      <trkpt lat="44.46648" lon="5.01082">
        <ele>683.15</ele>
        <time>2015-09-06T09:15:52Z</time>
      </trkpt>
      <trkpt lat="44.46645" lon="5.01083">
        <ele>682.19</ele>
        <time>2015-09-06T09:15:53Z</time>
      </trkpt>
      <trkpt lat="44.46641" lon="5.01085">
        <ele>681.71</ele>
        <time>2015-09-06T09:15:54Z</time>
      </trkpt>
      <trkpt lat="44.46638" lon="5.01086">
        <ele>681.71</ele>
        <time>2015-09-06T09:15:55Z</time>
      </trkpt>
      <trkpt lat="44.46634" lon="5.01087">
        <ele>682.19</ele>
        <time>2015-09-06T09:15:56Z</time>
      </trkpt>
      <trkpt lat="44.46631" lon="5.01087">
        <ele>681.23</ele>
        <time>2015-09-06T09:15:57Z</time>
      </trkpt>
      <trkpt lat="44.46627" lon="5.01088">
        <ele>679.79</ele>
        <time>2015-09-06T09:15:58Z</time>
      </trkpt>
      <trkpt lat="44.46624" lon="5.01087">
        <ele>678.83</ele>
        <time>2015-09-06T09:15:59Z</time>
      </trkpt>
      <trkpt lat="44.46622" lon="5.01086">
        <ele>678.35</ele>
        <time>2015-09-06T09:16:00Z</time>
      </trkpt>
      <trkpt lat="44.46614" lon="5.01085">
        <ele>676.42</ele>
        <time>2015-09-06T09:16:02Z</time>
      </trkpt>
      <trkpt lat="44.4661" lon="5.01087">
        <ele>674.98</ele>
        <time>2015-09-06T09:16:03Z</time>
      </trkpt>
      <trkpt lat="44.46596" lon="5.01093">
        <ele>672.1</ele>
        <time>2015-09-06T09:16:06Z</time>
      </trkpt>
      <trkpt lat="44.46587" lon="5.01087">
        <ele>669.22</ele>
        <time>2015-09-06T09:16:09Z</time>
      </trkpt>
      <trkpt lat="44.46574" lon="5.01088">
        <ele>666.33</ele>
        <time>2015-09-06T09:16:12Z</time>
      </trkpt>
      <trkpt lat="44.46571" lon="5.0109">
        <ele>666.33</ele>
        <time>2015-09-06T09:16:13Z</time>
      </trkpt>
      <trkpt lat="44.46556" lon="5.01093">
        <ele>664.89</ele>
        <time>2015-09-06T09:16:17Z</time>
      </trkpt>
      <trkpt lat="44.46551" lon="5.01095">
        <ele>664.41</ele>
        <time>2015-09-06T09:16:18Z</time>
      </trkpt>
      <trkpt lat="44.46547" lon="5.01098">
        <ele>663.93</ele>
        <time>2015-09-06T09:16:19Z</time>
      </trkpt>
      <trkpt lat="44.46543" lon="5.01101">
        <ele>663.93</ele>
        <time>2015-09-06T09:16:20Z</time>
      </trkpt>
      <trkpt lat="44.46541" lon="5.01105">
        <ele>662.49</ele>
        <time>2015-09-06T09:16:21Z</time>
      </trkpt>
      <trkpt lat="44.46539" lon="5.01109">
        <ele>662.49</ele>
        <time>2015-09-06T09:16:22Z</time>
      </trkpt>
      <trkpt lat="44.46537" lon="5.01112">
        <ele>662.49</ele>
        <time>2015-09-06T09:16:23Z</time>
      </trkpt>
      <trkpt lat="44.46528" lon="5.01127">
        <ele>662.49</ele>
        <time>2015-09-06T09:16:27Z</time>
      </trkpt>
      <trkpt lat="44.46524" lon="5.01127">
        <ele>661.52</ele>
        <time>2015-09-06T09:16:28Z</time>
      </trkpt>
      <trkpt lat="44.46521" lon="5.01126">
        <ele>660.08</ele>
        <time>2015-09-06T09:16:29Z</time>
      </trkpt>
      <trkpt lat="44.46517" lon="5.01126">
        <ele>658.64</ele>
        <time>2015-09-06T09:16:30Z</time>
      </trkpt>
      <trkpt lat="44.46514" lon="5.01125">
        <ele>657.68</ele>
        <time>2015-09-06T09:16:31Z</time>
      </trkpt>
      <trkpt lat="44.4651" lon="5.01124">
        <ele>656.72</ele>
        <time>2015-09-06T09:16:32Z</time>
      </trkpt>
      <trkpt lat="44.46506" lon="5.01122">
        <ele>655.76</ele>
        <time>2015-09-06T09:16:33Z</time>
      </trkpt>
      <trkpt lat="44.46502" lon="5.0112">
        <ele>654.31</ele>
        <time>2015-09-06T09:16:34Z</time>
      </trkpt>
      <trkpt lat="44.46499" lon="5.01119">
        <ele>652.87</ele>
        <time>2015-09-06T09:16:35Z</time>
      </trkpt>
      <trkpt lat="44.46496" lon="5.01118">
        <ele>652.39</ele>
        <time>2015-09-06T09:16:36Z</time>
      </trkpt>
      <trkpt lat="44.46493" lon="5.01117">
        <ele>651.91</ele>
        <time>2015-09-06T09:16:37Z</time>
      </trkpt>
      <trkpt lat="44.46486" lon="5.01115">
        <ele>650.47</ele>
        <time>2015-09-06T09:16:39Z</time>
      </trkpt>
      <trkpt lat="44.46484" lon="5.01117">
        <ele>649.51</ele>
        <time>2015-09-06T09:16:40Z</time>
      </trkpt>
      <trkpt lat="44.46481" lon="5.01121">
        <ele>649.03</ele>
        <time>2015-09-06T09:16:41Z</time>
      </trkpt>
      <trkpt lat="44.46476" lon="5.01129">
        <ele>647.1</ele>
        <time>2015-09-06T09:16:43Z</time>
      </trkpt>
      <trkpt lat="44.46473" lon="5.01128">
        <ele>646.14</ele>
        <time>2015-09-06T09:16:44Z</time>
      </trkpt>
      <trkpt lat="44.46464" lon="5.01125">
        <ele>643.74</ele>
        <time>2015-09-06T09:16:47Z</time>
      </trkpt>
      <trkpt lat="44.46462" lon="5.01123">
        <ele>642.78</ele>
        <time>2015-09-06T09:16:48Z</time>
      </trkpt>
      <trkpt lat="44.46459" lon="5.0112">
        <ele>642.3</ele>
        <time>2015-09-06T09:16:49Z</time>
      </trkpt>
      <trkpt lat="44.46456" lon="5.01118">
        <ele>641.34</ele>
        <time>2015-09-06T09:16:50Z</time>
      </trkpt>
      <trkpt lat="44.46452" lon="5.01116">
        <ele>640.86</ele>
        <time>2015-09-06T09:16:51Z</time>
      </trkpt>
      <trkpt lat="44.46449" lon="5.01117">
        <ele>639.41</ele>
        <time>2015-09-06T09:16:52Z</time>
      </trkpt>
      <trkpt lat="44.46446" lon="5.01118">
        <ele>638.93</ele>
        <time>2015-09-06T09:16:53Z</time>
      </trkpt>
      <trkpt lat="44.46442" lon="5.01121">
        <ele>638.45</ele>
        <time>2015-09-06T09:16:54Z</time>
      </trkpt>
      <trkpt lat="44.46438" lon="5.01124">
        <ele>638.45</ele>
        <time>2015-09-06T09:16:55Z</time>
      </trkpt>
      <trkpt lat="44.46434" lon="5.01127">
        <ele>637.49</ele>
        <time>2015-09-06T09:16:56Z</time>
      </trkpt>
      <trkpt lat="44.46426" lon="5.01133">
        <ele>636.53</ele>
        <time>2015-09-06T09:16:58Z</time>
      </trkpt>
      <trkpt lat="44.46422" lon="5.01137">
        <ele>636.53</ele>
        <time>2015-09-06T09:16:59Z</time>
      </trkpt>
      <trkpt lat="44.46418" lon="5.0114">
        <ele>636.05</ele>
        <time>2015-09-06T09:17:00Z</time>
      </trkpt>
      <trkpt lat="44.46415" lon="5.01142">
        <ele>634.61</ele>
        <time>2015-09-06T09:17:01Z</time>
      </trkpt>
      <trkpt lat="44.46412" lon="5.01142">
        <ele>633.65</ele>
        <time>2015-09-06T09:17:02Z</time>
      </trkpt>
      <trkpt lat="44.46408" lon="5.01143">
        <ele>633.17</ele>
        <time>2015-09-06T09:17:03Z</time>
      </trkpt>
      <trkpt lat="44.46403" lon="5.01145">
        <ele>632.68</ele>
        <time>2015-09-06T09:17:04Z</time>
      </trkpt>
      <trkpt lat="44.46385" lon="5.01149">
        <ele>629.8</ele>
        <time>2015-09-06T09:17:08Z</time>
      </trkpt>
      <trkpt lat="44.46381" lon="5.01151">
        <ele>628.36</ele>
        <time>2015-09-06T09:17:09Z</time>
      </trkpt>
      <trkpt lat="44.46377" lon="5.01153">
        <ele>627.4</ele>
        <time>2015-09-06T09:17:10Z</time>
      </trkpt>
      <trkpt lat="44.46374" lon="5.01157">
        <ele>626.92</ele>
        <time>2015-09-06T09:17:11Z</time>
      </trkpt>
      <trkpt lat="44.4637" lon="5.01163">
        <ele>625.96</ele>
        <time>2015-09-06T09:17:12Z</time>
      </trkpt>
      <trkpt lat="44.46367" lon="5.01168">
        <ele>625.47</ele>
        <time>2015-09-06T09:17:13Z</time>
      </trkpt>
      <trkpt lat="44.46365" lon="5.01172">
        <ele>624.51</ele>
        <time>2015-09-06T09:17:14Z</time>
      </trkpt>
      <trkpt lat="44.46362" lon="5.01175">
        <ele>624.51</ele>
        <time>2015-09-06T09:17:15Z</time>
      </trkpt>
      <trkpt lat="44.46358" lon="5.01177">
        <ele>624.51</ele>
        <time>2015-09-06T09:17:16Z</time>
      </trkpt>
      <trkpt lat="44.46354" lon="5.01179">
        <ele>623.07</ele>
        <time>2015-09-06T09:17:17Z</time>
      </trkpt>
      <trkpt lat="44.4635" lon="5.0118">
        <ele>621.15</ele>
        <time>2015-09-06T09:17:18Z</time>
      </trkpt>
      <trkpt lat="44.46337" lon="5.0118">
        <ele>618.26</ele>
        <time>2015-09-06T09:17:22Z</time>
      </trkpt>
      <trkpt lat="44.46325" lon="5.01178">
        <ele>614.9</ele>
        <time>2015-09-06T09:17:26Z</time>
      </trkpt>
      <trkpt lat="44.4631" lon="5.01179">
        <ele>611.54</ele>
        <time>2015-09-06T09:17:30Z</time>
      </trkpt>
      <trkpt lat="44.46295" lon="5.01188">
        <ele>608.17</ele>
        <time>2015-09-06T09:17:35Z</time>
      </trkpt>
      <trkpt lat="44.46284" lon="5.01196">
        <ele>604.81</ele>
        <time>2015-09-06T09:17:39Z</time>
      </trkpt>
      <trkpt lat="44.46273" lon="5.01198">
        <ele>600.96</ele>
        <time>2015-09-06T09:17:42Z</time>
      </trkpt>
      <trkpt lat="44.4626" lon="5.01203">
        <ele>597.6</ele>
        <time>2015-09-06T09:17:46Z</time>
      </trkpt>
      <trkpt lat="44.46248" lon="5.01205">
        <ele>594.71</ele>
        <time>2015-09-06T09:17:50Z</time>
      </trkpt>
      <trkpt lat="44.46248" lon="5.01205">
        <ele>593.75</ele>
        <time>2015-09-06T09:17:52Z</time>
      </trkpt>
      <trkpt lat="44.46248" lon="5.01205">
        <ele>594.23</ele>
        <time>2015-09-06T09:18:09Z</time>
      </trkpt>
      <trkpt lat="44.46234" lon="5.01212">
        <ele>591.83</ele>
        <time>2015-09-06T09:18:14Z</time>
      </trkpt>
      <trkpt lat="44.46222" lon="5.01215">
        <ele>590.39</ele>
        <time>2015-09-06T09:18:17Z</time>
      </trkpt>
      <trkpt lat="44.46195" lon="5.01231">
        <ele>587.98</ele>
        <time>2015-09-06T09:18:25Z</time>
      </trkpt>
      <trkpt lat="44.46187" lon="5.01233">
        <ele>586.06</ele>
        <time>2015-09-06T09:18:28Z</time>
      </trkpt>
      <trkpt lat="44.46175" lon="5.01234">
        <ele>581.73</ele>
        <time>2015-09-06T09:18:31Z</time>
      </trkpt>
      <trkpt lat="44.46171" lon="5.01236">
        <ele>581.25</ele>
        <time>2015-09-06T09:18:32Z</time>
      </trkpt>
      <trkpt lat="44.46168" lon="5.01236">
        <ele>580.77</ele>
        <time>2015-09-06T09:18:33Z</time>
      </trkpt>
      <trkpt lat="44.46165" lon="5.01237">
        <ele>580.29</ele>
        <time>2015-09-06T09:18:34Z</time>
      </trkpt>
      <trkpt lat="44.46162" lon="5.01237">
        <ele>579.81</ele>
        <time>2015-09-06T09:18:35Z</time>
      </trkpt>
      <trkpt lat="44.46159" lon="5.01236">
        <ele>579.33</ele>
        <time>2015-09-06T09:18:36Z</time>
      </trkpt>
      <trkpt lat="44.46119" lon="5.01248">
        <ele>575.97</ele>
        <time>2015-09-06T09:18:46Z</time>
      </trkpt>
      <trkpt lat="44.46105" lon="5.01249">
        <ele>572.6</ele>
        <time>2015-09-06T09:18:50Z</time>
      </trkpt>
      <trkpt lat="44.46083" lon="5.01253">
        <ele>570.2</ele>
        <time>2015-09-06T09:18:56Z</time>
      </trkpt>
      <trkpt lat="44.46079" lon="5.01252">
        <ele>569.72</ele>
        <time>2015-09-06T09:18:57Z</time>
      </trkpt>
      <trkpt lat="44.46075" lon="5.01252">
        <ele>569.72</ele>
        <time>2015-09-06T09:18:58Z</time>
      </trkpt>
      <trkpt lat="44.46071" lon="5.01252">
        <ele>569.72</ele>
        <time>2015-09-06T09:18:59Z</time>
      </trkpt>
      <trkpt lat="44.46067" lon="5.01253">
        <ele>569.24</ele>
        <time>2015-09-06T09:19:00Z</time>
      </trkpt>
      <trkpt lat="44.46063" lon="5.01255">
        <ele>569.24</ele>
        <time>2015-09-06T09:19:01Z</time>
      </trkpt>
      <trkpt lat="44.46059" lon="5.01256">
        <ele>569.24</ele>
        <time>2015-09-06T09:19:02Z</time>
      </trkpt>
      <trkpt lat="44.46055" lon="5.01257">
        <ele>569.24</ele>
        <time>2015-09-06T09:19:03Z</time>
      </trkpt>
      <trkpt lat="44.4605" lon="5.0126">
        <ele>568.76</ele>
        <time>2015-09-06T09:19:04Z</time>
      </trkpt>
      <trkpt lat="44.46046" lon="5.01262">
        <ele>568.76</ele>
        <time>2015-09-06T09:19:05Z</time>
      </trkpt>
      <trkpt lat="44.46041" lon="5.01264">
        <ele>568.28</ele>
        <time>2015-09-06T09:19:06Z</time>
      </trkpt>
      <trkpt lat="44.46019" lon="5.01273">
        <ele>564.91</ele>
        <time>2015-09-06T09:19:12Z</time>
      </trkpt>
      <trkpt lat="44.46013" lon="5.01276">
        <ele>563.47</ele>
        <time>2015-09-06T09:19:14Z</time>
      </trkpt>
      <trkpt lat="44.46009" lon="5.01277">
        <ele>563.47</ele>
        <time>2015-09-06T09:19:15Z</time>
      </trkpt>
      <trkpt lat="44.45992" lon="5.0128">
        <ele>560.11</ele>
        <time>2015-09-06T09:19:20Z</time>
      </trkpt>
      <trkpt lat="44.4598" lon="5.01279">
        <ele>556.74</ele>
        <time>2015-09-06T09:19:24Z</time>
      </trkpt>
      <trkpt lat="44.45978" lon="5.01277">
        <ele>555.78</ele>
        <time>2015-09-06T09:19:26Z</time>
      </trkpt>
      <trkpt lat="44.45977" lon="5.01276">
        <ele>555.3</ele>
        <time>2015-09-06T09:19:27Z</time>
      </trkpt>
      <trkpt lat="44.45978" lon="5.01273">
        <ele>554.82</ele>
        <time>2015-09-06T09:19:28Z</time>
      </trkpt>
      <trkpt lat="44.45978" lon="5.01272">
        <ele>554.34</ele>
        <time>2015-09-06T09:19:29Z</time>
      </trkpt>
      <trkpt lat="44.45979" lon="5.01269">
        <ele>553.86</ele>
        <time>2015-09-06T09:19:30Z</time>
      </trkpt>
      <trkpt lat="44.4598" lon="5.01267">
        <ele>553.38</ele>
        <time>2015-09-06T09:19:31Z</time>
      </trkpt>
      <trkpt lat="44.45982" lon="5.01265">
        <ele>552.9</ele>
        <time>2015-09-06T09:19:32Z</time>
      </trkpt>
      <trkpt lat="44.45983" lon="5.01262">
        <ele>552.41</ele>
        <time>2015-09-06T09:19:33Z</time>
      </trkpt>
      <trkpt lat="44.45985" lon="5.01259">
        <ele>552.41</ele>
        <time>2015-09-06T09:19:34Z</time>
      </trkpt>
      <trkpt lat="44.45986" lon="5.01255">
        <ele>551.93</ele>
        <time>2015-09-06T09:19:35Z</time>
      </trkpt>
      <trkpt lat="44.45993" lon="5.01241">
        <ele>550.97</ele>
        <time>2015-09-06T09:19:38Z</time>
      </trkpt>
      <trkpt lat="44.45995" lon="5.01237">
        <ele>550.49</ele>
        <time>2015-09-06T09:19:39Z</time>
      </trkpt>
      <trkpt lat="44.45998" lon="5.01233">
        <ele>550.01</ele>
        <time>2015-09-06T09:19:40Z</time>
      </trkpt>
      <trkpt lat="44.46" lon="5.01229">
        <ele>549.53</ele>
        <time>2015-09-06T09:19:41Z</time>
      </trkpt>
      <trkpt lat="44.46003" lon="5.01226">
        <ele>549.05</ele>
        <time>2015-09-06T09:19:42Z</time>
      </trkpt>
      <trkpt lat="44.46005" lon="5.01222">
        <ele>548.57</ele>
        <time>2015-09-06T09:19:43Z</time>
      </trkpt>
      <trkpt lat="44.46007" lon="5.01219">
        <ele>548.09</ele>
        <time>2015-09-06T09:19:44Z</time>
      </trkpt>
      <trkpt lat="44.4601" lon="5.01215">
        <ele>547.61</ele>
        <time>2015-09-06T09:19:45Z</time>
      </trkpt>
      <trkpt lat="44.46013" lon="5.01211">
        <ele>547.13</ele>
        <time>2015-09-06T09:19:46Z</time>
      </trkpt>
      <trkpt lat="44.46025" lon="5.01198">
        <ele>545.2</ele>
        <time>2015-09-06T09:19:50Z</time>
      </trkpt>
      <trkpt lat="44.46028" lon="5.01193">
        <ele>544.72</ele>
        <time>2015-09-06T09:19:51Z</time>
      </trkpt>
      <trkpt lat="44.46032" lon="5.01189">
        <ele>544.24</ele>
        <time>2015-09-06T09:19:52Z</time>
      </trkpt>
      <trkpt lat="44.46039" lon="5.01181">
        <ele>543.28</ele>
        <time>2015-09-06T09:19:54Z</time>
      </trkpt>
      <trkpt lat="44.46057" lon="5.01162">
        <ele>539.92</ele>
        <time>2015-09-06T09:19:59Z</time>
      </trkpt>
      <trkpt lat="44.46077" lon="5.01138">
        <ele>538.48</ele>
        <time>2015-09-06T09:20:08Z</time>
      </trkpt>
      <trkpt lat="44.46085" lon="5.01119">
        <ele>539.44</ele>
        <time>2015-09-06T09:20:13Z</time>
      </trkpt>
      <trkpt lat="44.46084" lon="5.01113">
        <ele>538.96</ele>
        <time>2015-09-06T09:20:14Z</time>
      </trkpt>
      <trkpt lat="44.46078" lon="5.01093">
        <ele>536.55</ele>
        <time>2015-09-06T09:20:19Z</time>
      </trkpt>
      <trkpt lat="44.46081" lon="5.01093">
        <ele>537.51</ele>
        <time>2015-09-06T09:20:31Z</time>
      </trkpt>
      <trkpt lat="44.46086" lon="5.01084">
        <ele>540.4</ele>
        <time>2015-09-06T09:20:40Z</time>
      </trkpt>
      <trkpt lat="44.46089" lon="5.01072">
        <ele>542.32</ele>
        <time>2015-09-06T09:20:50Z</time>
      </trkpt>
      <trkpt lat="44.46093" lon="5.01055">
        <ele>544.24</ele>
        <time>2015-09-06T09:21:02Z</time>
      </trkpt>
      <trkpt lat="44.46097" lon="5.01046">
        <ele>544.72</ele>
        <time>2015-09-06T09:21:11Z</time>
      </trkpt>
      <trkpt lat="44.46098" lon="5.01044">
        <ele>544.24</ele>
        <time>2015-09-06T09:21:12Z</time>
      </trkpt>
      <trkpt lat="44.46099" lon="5.01041">
        <ele>544.24</ele>
        <time>2015-09-06T09:21:13Z</time>
      </trkpt>
      <trkpt lat="44.4611" lon="5.01001">
        <ele>542.32</ele>
        <time>2015-09-06T09:21:21Z</time>
      </trkpt>
      <trkpt lat="44.46111" lon="5.00996">
        <ele>541.84</ele>
        <time>2015-09-06T09:21:22Z</time>
      </trkpt>
      <trkpt lat="44.46113" lon="5.00991">
        <ele>540.4</ele>
        <time>2015-09-06T09:21:23Z</time>
      </trkpt>
      <trkpt lat="44.46114" lon="5.00986">
        <ele>539.44</ele>
        <time>2015-09-06T09:21:24Z</time>
      </trkpt>
      <trkpt lat="44.46116" lon="5.00978">
        <ele>537.03</ele>
        <time>2015-09-06T09:21:26Z</time>
      </trkpt>
      <trkpt lat="44.46119" lon="5.00966">
        <ele>535.59</ele>
        <time>2015-09-06T09:21:29Z</time>
      </trkpt>
      <trkpt lat="44.46121" lon="5.00961">
        <ele>535.11</ele>
        <time>2015-09-06T09:21:30Z</time>
      </trkpt>
      <trkpt lat="44.46122" lon="5.00957">
        <ele>534.15</ele>
        <time>2015-09-06T09:21:31Z</time>
      </trkpt>
      <trkpt lat="44.46123" lon="5.00954">
        <ele>533.19</ele>
        <time>2015-09-06T09:21:32Z</time>
      </trkpt>
      <trkpt lat="44.46124" lon="5.00952">
        <ele>532.71</ele>
        <time>2015-09-06T09:21:33Z</time>
      </trkpt>
      <trkpt lat="44.46124" lon="5.00949">
        <ele>532.71</ele>
        <time>2015-09-06T09:21:34Z</time>
      </trkpt>
      <trkpt lat="44.46126" lon="5.00946">
        <ele>532.23</ele>
        <time>2015-09-06T09:21:35Z</time>
      </trkpt>
      <trkpt lat="44.46127" lon="5.00942">
        <ele>531.75</ele>
        <time>2015-09-06T09:21:36Z</time>
      </trkpt>
      <trkpt lat="44.4614" lon="5.00909">
        <ele>528.38</ele>
        <time>2015-09-06T09:21:43Z</time>
      </trkpt>
      <trkpt lat="44.46142" lon="5.00904">
        <ele>528.38</ele>
        <time>2015-09-06T09:21:44Z</time>
      </trkpt>
      <trkpt lat="44.46152" lon="5.00872">
        <ele>524.54</ele>
        <time>2015-09-06T09:21:51Z</time>
      </trkpt>
      <trkpt lat="44.46156" lon="5.00864">
        <ele>522.61</ele>
        <time>2015-09-06T09:21:53Z</time>
      </trkpt>
      <trkpt lat="44.46163" lon="5.00838">
        <ele>518.77</ele>
        <time>2015-09-06T09:21:59Z</time>
      </trkpt>
      <trkpt lat="44.46164" lon="5.00828">
        <ele>516.37</ele>
        <time>2015-09-06T09:22:01Z</time>
      </trkpt>
      <trkpt lat="44.46165" lon="5.00824">
        <ele>515.88</ele>
        <time>2015-09-06T09:22:09Z</time>
      </trkpt>
      <trkpt lat="44.46169" lon="5.00818">
        <ele>519.25</ele>
        <time>2015-09-06T09:22:22Z</time>
      </trkpt>
      <trkpt lat="44.46176" lon="5.00799">
        <ele>522.61</ele>
        <time>2015-09-06T09:22:36Z</time>
      </trkpt>
      <trkpt lat="44.46182" lon="5.00781">
        <ele>524.06</ele>
        <time>2015-09-06T09:22:46Z</time>
      </trkpt>
      <trkpt lat="44.46184" lon="5.00777">
        <ele>525.02</ele>
        <time>2015-09-06T09:22:49Z</time>
      </trkpt>
      <trkpt lat="44.46186" lon="5.00769">
        <ele>526.46</ele>
        <time>2015-09-06T09:22:53Z</time>
      </trkpt>
      <trkpt lat="44.46196" lon="5.00745">
        <ele>528.38</ele>
        <time>2015-09-06T09:23:06Z</time>
      </trkpt>
      <trkpt lat="44.462" lon="5.0073">
        <ele>528.38</ele>
        <time>2015-09-06T09:23:14Z</time>
      </trkpt>
      <trkpt lat="44.46205" lon="5.00716">
        <ele>529.34</ele>
        <time>2015-09-06T09:23:19Z</time>
      </trkpt>
      <trkpt lat="44.46217" lon="5.00681">
        <ele>528.86</ele>
        <time>2015-09-06T09:23:31Z</time>
      </trkpt>
      <trkpt lat="44.46227" lon="5.00652">
        <ele>526.94</ele>
        <time>2015-09-06T09:23:41Z</time>
      </trkpt>
      <trkpt lat="44.46234" lon="5.00637">
        <ele>525.98</ele>
        <time>2015-09-06T09:23:46Z</time>
      </trkpt>
      <trkpt lat="44.46237" lon="5.00626">
        <ele>525.5</ele>
        <time>2015-09-06T09:23:49Z</time>
      </trkpt>
      <trkpt lat="44.46239" lon="5.0062">
        <ele>524.06</ele>
        <time>2015-09-06T09:23:52Z</time>
      </trkpt>
      <trkpt lat="44.46241" lon="5.00614">
        <ele>523.58</ele>
        <time>2015-09-06T09:23:55Z</time>
      </trkpt>
      <trkpt lat="44.46249" lon="5.00586">
        <ele>522.13</ele>
        <time>2015-09-06T09:24:01Z</time>
      </trkpt>
      <trkpt lat="44.46254" lon="5.00568">
        <ele>517.81</ele>
        <time>2015-09-06T09:24:05Z</time>
      </trkpt>
      <trkpt lat="44.46255" lon="5.00563">
        <ele>516.85</ele>
        <time>2015-09-06T09:24:06Z</time>
      </trkpt>
      <trkpt lat="44.46256" lon="5.00554">
        <ele>514.44</ele>
        <time>2015-09-06T09:24:08Z</time>
      </trkpt>
      <trkpt lat="44.4626" lon="5.00542">
        <ele>511.56</ele>
        <time>2015-09-06T09:24:11Z</time>
      </trkpt>
      <trkpt lat="44.46261" lon="5.00538">
        <ele>510.12</ele>
        <time>2015-09-06T09:24:12Z</time>
      </trkpt>
      <trkpt lat="44.46267" lon="5.00527">
        <ele>506.75</ele>
        <time>2015-09-06T09:24:15Z</time>
      </trkpt>
      <trkpt lat="44.46268" lon="5.00522">
        <ele>505.79</ele>
        <time>2015-09-06T09:24:16Z</time>
      </trkpt>
      <trkpt lat="44.46271" lon="5.00513">
        <ele>503.87</ele>
        <time>2015-09-06T09:24:19Z</time>
      </trkpt>
      <trkpt lat="44.46273" lon="5.00504">
        <ele>501.46</ele>
        <time>2015-09-06T09:24:22Z</time>
      </trkpt>
      <trkpt lat="44.46278" lon="5.0049">
        <ele>497.62</ele>
        <time>2015-09-06T09:24:26Z</time>
      </trkpt>
      <trkpt lat="44.46281" lon="5.00484">
        <ele>495.22</ele>
        <time>2015-09-06T09:24:29Z</time>
      </trkpt>
      <trkpt lat="44.46281" lon="5.00479">
        <ele>493.77</ele>
        <time>2015-09-06T09:24:32Z</time>
      </trkpt>
      <trkpt lat="44.46277" lon="5.00474">
        <ele>492.81</ele>
        <time>2015-09-06T09:24:36Z</time>
      </trkpt>
      <trkpt lat="44.4627" lon="5.00465">
        <ele>491.37</ele>
        <time>2015-09-06T09:24:40Z</time>
      </trkpt>
      <trkpt lat="44.46265" lon="5.00451">
        <ele>488.01</ele>
        <time>2015-09-06T09:24:44Z</time>
      </trkpt>
      <trkpt lat="44.46262" lon="5.00448">
        <ele>487.05</ele>
        <time>2015-09-06T09:24:45Z</time>
      </trkpt>
      <trkpt lat="44.46259" lon="5.00444">
        <ele>486.08</ele>
        <time>2015-09-06T09:24:46Z</time>
      </trkpt>
      <trkpt lat="44.46252" lon="5.00432">
        <ele>483.2</ele>
        <time>2015-09-06T09:24:49Z</time>
      </trkpt>
      <trkpt lat="44.46242" lon="5.00414">
        <ele>479.84</ele>
        <time>2015-09-06T09:24:55Z</time>
      </trkpt>
      <trkpt lat="44.46238" lon="5.00399">
        <ele>476.47</ele>
        <time>2015-09-06T09:24:59Z</time>
      </trkpt>
      <trkpt lat="44.46225" lon="5.00389">
        <ele>475.51</ele>
        <time>2015-09-06T09:25:03Z</time>
      </trkpt>
      <trkpt lat="44.46218" lon="5.00383">
        <ele>475.03</ele>
        <time>2015-09-06T09:25:05Z</time>
      </trkpt>
      <trkpt lat="44.4621" lon="5.00378">
        <ele>474.07</ele>
        <time>2015-09-06T09:25:07Z</time>
      </trkpt>
      <trkpt lat="44.46197" lon="5.0037">
        <ele>473.59</ele>
        <time>2015-09-06T09:25:10Z</time>
      </trkpt>
      <trkpt lat="44.46189" lon="5.00363">
        <ele>472.14</ele>
        <time>2015-09-06T09:25:12Z</time>
      </trkpt>
      <trkpt lat="44.46185" lon="5.00363">
        <ele>471.66</ele>
        <time>2015-09-06T09:25:13Z</time>
      </trkpt>
      <trkpt lat="44.46179" lon="5.00352">
        <ele>470.22</ele>
        <time>2015-09-06T09:25:15Z</time>
      </trkpt>
      <trkpt lat="44.46173" lon="5.00344">
        <ele>467.82</ele>
        <time>2015-09-06T09:25:17Z</time>
      </trkpt>
      <trkpt lat="44.46162" lon="5.00326">
        <ele>463.97</ele>
        <time>2015-09-06T09:25:21Z</time>
      </trkpt>
      <trkpt lat="44.46158" lon="5.00316">
        <ele>462.53</ele>
        <time>2015-09-06T09:25:23Z</time>
      </trkpt>
      <trkpt lat="44.46146" lon="5.00291">
        <ele>459.65</ele>
        <time>2015-09-06T09:25:29Z</time>
      </trkpt>
      <trkpt lat="44.46139" lon="5.00282">
        <ele>458.21</ele>
        <time>2015-09-06T09:25:31Z</time>
      </trkpt>
      <trkpt lat="44.46134" lon="5.00273">
        <ele>457.24</ele>
        <time>2015-09-06T09:25:33Z</time>
      </trkpt>
      <trkpt lat="44.46126" lon="5.00261">
        <ele>455.32</ele>
        <time>2015-09-06T09:25:36Z</time>
      </trkpt>
      <trkpt lat="44.46123" lon="5.00256">
        <ele>453.88</ele>
        <time>2015-09-06T09:25:37Z</time>
      </trkpt>
      <trkpt lat="44.46117" lon="5.00248">
        <ele>452.44</ele>
        <time>2015-09-06T09:25:39Z</time>
      </trkpt>
      <trkpt lat="44.46103" lon="5.00227">
        <ele>449.07</ele>
        <time>2015-09-06T09:25:45Z</time>
      </trkpt>
      <trkpt lat="44.46097" lon="5.00215">
        <ele>446.19</ele>
        <time>2015-09-06T09:25:49Z</time>
      </trkpt>
      <trkpt lat="44.46096" lon="5.00212">
        <ele>445.23</ele>
        <time>2015-09-06T09:25:50Z</time>
      </trkpt>
      <trkpt lat="44.46096" lon="5.00206">
        <ele>442.34</ele>
        <time>2015-09-06T09:25:53Z</time>
      </trkpt>
      <trkpt lat="44.46091" lon="5.00209">
        <ele>442.82</ele>
        <time>2015-09-06T09:26:04Z</time>
      </trkpt>
      <trkpt lat="44.46091" lon="5.00211">
        <ele>442.82</ele>
        <time>2015-09-06T09:26:05Z</time>
      </trkpt>
      <trkpt lat="44.46091" lon="5.00213">
        <ele>442.82</ele>
        <time>2015-09-06T09:26:06Z</time>
      </trkpt>
      <trkpt lat="44.46092" lon="5.00215">
        <ele>442.82</ele>
        <time>2015-09-06T09:26:07Z</time>
      </trkpt>
      <trkpt lat="44.46094" lon="5.00217">
        <ele>442.82</ele>
        <time>2015-09-06T09:26:08Z</time>
      </trkpt>
      <trkpt lat="44.46095" lon="5.0022">
        <ele>442.82</ele>
        <time>2015-09-06T09:26:09Z</time>
      </trkpt>
      <trkpt lat="44.46097" lon="5.00219">
        <ele>442.82</ele>
        <time>2015-09-06T09:26:11Z</time>
      </trkpt>
      <trkpt lat="44.46093" lon="5.00171">
        <ele>442.82</ele>
        <time>2015-09-06T09:26:23Z</time>
      </trkpt>
      <trkpt lat="44.46091" lon="5.00165">
        <ele>442.82</ele>
        <time>2015-09-06T09:26:24Z</time>
      </trkpt>
      <trkpt lat="44.46086" lon="5.00154">
        <ele>441.86</ele>
        <time>2015-09-06T09:26:26Z</time>
      </trkpt>
      <trkpt lat="44.46084" lon="5.00147">
        <ele>441.86</ele>
        <time>2015-09-06T09:26:27Z</time>
      </trkpt>
      <trkpt lat="44.46082" lon="5.00134">
        <ele>441.38</ele>
        <time>2015-09-06T09:26:29Z</time>
      </trkpt>
      <trkpt lat="44.46082" lon="5.00127">
        <ele>441.38</ele>
        <time>2015-09-06T09:26:30Z</time>
      </trkpt>
      <trkpt lat="44.46077" lon="5.00118">
        <ele>439.94</ele>
        <time>2015-09-06T09:26:32Z</time>
      </trkpt>
      <trkpt lat="44.46077" lon="5.00114">
        <ele>439.46</ele>
        <time>2015-09-06T09:26:33Z</time>
      </trkpt>
      <trkpt lat="44.46076" lon="5.00111">
        <ele>438.5</ele>
        <time>2015-09-06T09:26:34Z</time>
      </trkpt>
      <trkpt lat="44.46076" lon="5.00107">
        <ele>438.02</ele>
        <time>2015-09-06T09:26:35Z</time>
      </trkpt>
      <trkpt lat="44.46074" lon="5.00104">
        <ele>437.54</ele>
        <time>2015-09-06T09:26:36Z</time>
      </trkpt>
      <trkpt lat="44.46072" lon="5.00102">
        <ele>437.54</ele>
        <time>2015-09-06T09:26:37Z</time>
      </trkpt>
      <trkpt lat="44.4607" lon="5.001">
        <ele>436.58</ele>
        <time>2015-09-06T09:26:38Z</time>
      </trkpt>
      <trkpt lat="44.46067" lon="5.00098">
        <ele>435.61</ele>
        <time>2015-09-06T09:26:39Z</time>
      </trkpt>
      <trkpt lat="44.46053" lon="5.00092">
        <ele>432.25</ele>
        <time>2015-09-06T09:26:43Z</time>
      </trkpt>
      <trkpt lat="44.4605" lon="5.0009">
        <ele>432.25</ele>
        <time>2015-09-06T09:26:44Z</time>
      </trkpt>
      <trkpt lat="44.46038" lon="5.00082">
        <ele>430.33</ele>
        <time>2015-09-06T09:26:47Z</time>
      </trkpt>
      <trkpt lat="44.46034" lon="5.00076">
        <ele>429.85</ele>
        <time>2015-09-06T09:26:48Z</time>
      </trkpt>
      <trkpt lat="44.45998" lon="5.00045">
        <ele>430.81</ele>
        <time>2015-09-06T09:26:58Z</time>
      </trkpt>
      <trkpt lat="44.45994" lon="5.00044">
        <ele>430.81</ele>
        <time>2015-09-06T09:26:59Z</time>
      </trkpt>
      <trkpt lat="44.45978" lon="5.00036">
        <ele>431.29</ele>
        <time>2015-09-06T09:27:03Z</time>
      </trkpt>
      <trkpt lat="44.45931" lon="5.00019">
        <ele>431.29</ele>
        <time>2015-09-06T09:27:15Z</time>
      </trkpt>
      <trkpt lat="44.45898" lon="5.0001">
        <ele>431.29</ele>
        <time>2015-09-06T09:27:22Z</time>
      </trkpt>
      <trkpt lat="44.45894" lon="5.00009">
        <ele>431.77</ele>
        <time>2015-09-06T09:27:23Z</time>
      </trkpt>
      <trkpt lat="44.45859" lon="4.99993">
        <ele>434.17</ele>
        <time>2015-09-06T09:27:34Z</time>
      </trkpt>
      <trkpt lat="44.45844" lon="4.99963">
        <ele>435.13</ele>
        <time>2015-09-06T09:27:45Z</time>
      </trkpt>
      <trkpt lat="44.45811" lon="4.99916">
        <ele>433.21</ele>
        <time>2015-09-06T09:27:57Z</time>
      </trkpt>
      <trkpt lat="44.45782" lon="4.99895">
        <ele>432.25</ele>
        <time>2015-09-06T09:28:04Z</time>
      </trkpt>
      <trkpt lat="44.45748" lon="4.99855">
        <ele>431.29</ele>
        <time>2015-09-06T09:28:14Z</time>
      </trkpt>
      <trkpt lat="44.45732" lon="4.99824">
        <ele>431.77</ele>
        <time>2015-09-06T09:28:20Z</time>
      </trkpt>
      <trkpt lat="44.45688" lon="4.99737">
        <ele>430.33</ele>
        <time>2015-09-06T09:28:34Z</time>
      </trkpt>
      <trkpt lat="44.45679" lon="4.9971">
        <ele>428.89</ele>
        <time>2015-09-06T09:28:37Z</time>
      </trkpt>
      <trkpt lat="44.45667" lon="4.9967">
        <ele>425.04</ele>
        <time>2015-09-06T09:28:42Z</time>
      </trkpt>
      <trkpt lat="44.45665" lon="4.99657">
        <ele>423.12</ele>
        <time>2015-09-06T09:28:44Z</time>
      </trkpt>
      <trkpt lat="44.45659" lon="4.99629">
        <ele>420.71</ele>
        <time>2015-09-06T09:28:49Z</time>
      </trkpt>
      <trkpt lat="44.4565" lon="4.99571">
        <ele>416.87</ele>
        <time>2015-09-06T09:28:56Z</time>
      </trkpt>
      <trkpt lat="44.45649" lon="4.99561">
        <ele>416.39</ele>
        <time>2015-09-06T09:28:57Z</time>
      </trkpt>
      <trkpt lat="44.45647" lon="4.99551">
        <ele>415.91</ele>
        <time>2015-09-06T09:28:58Z</time>
      </trkpt>
      <trkpt lat="44.45643" lon="4.99511">
        <ele>413.02</ele>
        <time>2015-09-06T09:29:02Z</time>
      </trkpt>
      <trkpt lat="44.45641" lon="4.99503">
        <ele>412.06</ele>
        <time>2015-09-06T09:29:03Z</time>
      </trkpt>
      <trkpt lat="44.45639" lon="4.99495">
        <ele>412.06</ele>
        <time>2015-09-06T09:29:04Z</time>
      </trkpt>
      <trkpt lat="44.45635" lon="4.99487">
        <ele>412.06</ele>
        <time>2015-09-06T09:29:05Z</time>
      </trkpt>
      <trkpt lat="44.45631" lon="4.99479">
        <ele>413.02</ele>
        <time>2015-09-06T09:29:06Z</time>
      </trkpt>
      <trkpt lat="44.45626" lon="4.99472">
        <ele>413.02</ele>
        <time>2015-09-06T09:29:07Z</time>
      </trkpt>
      <trkpt lat="44.45619" lon="4.99467">
        <ele>411.1</ele>
        <time>2015-09-06T09:29:08Z</time>
      </trkpt>
      <trkpt lat="44.45611" lon="4.99464">
        <ele>409.18</ele>
        <time>2015-09-06T09:29:09Z</time>
      </trkpt>
      <trkpt lat="44.45603" lon="4.99465">
        <ele>408.22</ele>
        <time>2015-09-06T09:29:10Z</time>
      </trkpt>
      <trkpt lat="44.45595" lon="4.99467">
        <ele>406.77</ele>
        <time>2015-09-06T09:29:11Z</time>
      </trkpt>
      <trkpt lat="44.45588" lon="4.99471">
        <ele>406.77</ele>
        <time>2015-09-06T09:29:12Z</time>
      </trkpt>
      <trkpt lat="44.4558" lon="4.99476">
        <ele>408.22</ele>
        <time>2015-09-06T09:29:13Z</time>
      </trkpt>
      <trkpt lat="44.4556" lon="4.99493">
        <ele>404.85</ele>
        <time>2015-09-06T09:29:16Z</time>
      </trkpt>
      <trkpt lat="44.45548" lon="4.99506">
        <ele>403.89</ele>
        <time>2015-09-06T09:29:18Z</time>
      </trkpt>
      <trkpt lat="44.45523" lon="4.99529">
        <ele>402.45</ele>
        <time>2015-09-06T09:29:22Z</time>
      </trkpt>
      <trkpt lat="44.45517" lon="4.99532">
        <ele>401.49</ele>
        <time>2015-09-06T09:29:23Z</time>
      </trkpt>
      <trkpt lat="44.45511" lon="4.99534">
        <ele>400.53</ele>
        <time>2015-09-06T09:29:24Z</time>
      </trkpt>
      <trkpt lat="44.45504" lon="4.99533">
        <ele>400.05</ele>
        <time>2015-09-06T09:29:25Z</time>
      </trkpt>
      <trkpt lat="44.45498" lon="4.99531">
        <ele>399.57</ele>
        <time>2015-09-06T09:29:26Z</time>
      </trkpt>
      <trkpt lat="44.45491" lon="4.99528">
        <ele>399.08</ele>
        <time>2015-09-06T09:29:27Z</time>
      </trkpt>
      <trkpt lat="44.45484" lon="4.99523">
        <ele>398.6</ele>
        <time>2015-09-06T09:29:28Z</time>
      </trkpt>
      <trkpt lat="44.45478" lon="4.99517">
        <ele>398.12</ele>
        <time>2015-09-06T09:29:29Z</time>
      </trkpt>
      <trkpt lat="44.45472" lon="4.99509">
        <ele>397.16</ele>
        <time>2015-09-06T09:29:30Z</time>
      </trkpt>
      <trkpt lat="44.45467" lon="4.995">
        <ele>396.68</ele>
        <time>2015-09-06T09:29:31Z</time>
      </trkpt>
      <trkpt lat="44.45462" lon="4.99491">
        <ele>395.72</ele>
        <time>2015-09-06T09:29:32Z</time>
      </trkpt>
      <trkpt lat="44.45448" lon="4.99452">
        <ele>392.36</ele>
        <time>2015-09-06T09:29:36Z</time>
      </trkpt>
      <trkpt lat="44.45438" lon="4.99422">
        <ele>388.99</ele>
        <time>2015-09-06T09:29:39Z</time>
      </trkpt>
      <trkpt lat="44.45431" lon="4.99404">
        <ele>389.47</ele>
        <time>2015-09-06T09:29:41Z</time>
      </trkpt>
      <trkpt lat="44.45427" lon="4.99398">
        <ele>388.03</ele>
        <time>2015-09-06T09:29:42Z</time>
      </trkpt>
      <trkpt lat="44.45422" lon="4.99396">
        <ele>387.07</ele>
        <time>2015-09-06T09:29:43Z</time>
      </trkpt>
      <trkpt lat="44.45416" lon="4.99396">
        <ele>388.03</ele>
        <time>2015-09-06T09:29:44Z</time>
      </trkpt>
      <trkpt lat="44.45411" lon="4.99398">
        <ele>388.51</ele>
        <time>2015-09-06T09:29:45Z</time>
      </trkpt>
      <trkpt lat="44.45405" lon="4.99399">
        <ele>388.51</ele>
        <time>2015-09-06T09:29:46Z</time>
      </trkpt>
      <trkpt lat="44.45399" lon="4.99401">
        <ele>388.03</ele>
        <time>2015-09-06T09:29:47Z</time>
      </trkpt>
      <trkpt lat="44.45387" lon="4.99406">
        <ele>388.99</ele>
        <time>2015-09-06T09:29:49Z</time>
      </trkpt>
      <trkpt lat="44.45381" lon="4.9941">
        <ele>388.99</ele>
        <time>2015-09-06T09:29:50Z</time>
      </trkpt>
      <trkpt lat="44.45377" lon="4.99416">
        <ele>388.51</ele>
        <time>2015-09-06T09:29:51Z</time>
      </trkpt>
      <trkpt lat="44.45374" lon="4.99422">
        <ele>388.03</ele>
        <time>2015-09-06T09:29:52Z</time>
      </trkpt>
      <trkpt lat="44.45372" lon="4.99429">
        <ele>387.55</ele>
        <time>2015-09-06T09:29:53Z</time>
      </trkpt>
      <trkpt lat="44.4537" lon="4.99436">
        <ele>387.55</ele>
        <time>2015-09-06T09:29:54Z</time>
      </trkpt>
      <trkpt lat="44.45369" lon="4.99441">
        <ele>387.07</ele>
        <time>2015-09-06T09:29:55Z</time>
      </trkpt>
      <trkpt lat="44.45366" lon="4.99447">
        <ele>387.07</ele>
        <time>2015-09-06T09:29:56Z</time>
      </trkpt>
      <trkpt lat="44.45357" lon="4.99465">
        <ele>386.59</ele>
        <time>2015-09-06T09:29:59Z</time>
      </trkpt>
      <trkpt lat="44.45353" lon="4.9947">
        <ele>386.11</ele>
        <time>2015-09-06T09:30:00Z</time>
      </trkpt>
      <trkpt lat="44.45347" lon="4.99474">
        <ele>385.63</ele>
        <time>2015-09-06T09:30:01Z</time>
      </trkpt>
      <trkpt lat="44.45341" lon="4.99476">
        <ele>384.66</ele>
        <time>2015-09-06T09:30:02Z</time>
      </trkpt>
      <trkpt lat="44.45335" lon="4.99476">
        <ele>383.7</ele>
        <time>2015-09-06T09:30:03Z</time>
      </trkpt>
      <trkpt lat="44.45328" lon="4.99475">
        <ele>382.74</ele>
        <time>2015-09-06T09:30:04Z</time>
      </trkpt>
      <trkpt lat="44.45322" lon="4.9947">
        <ele>382.74</ele>
        <time>2015-09-06T09:30:05Z</time>
      </trkpt>
      <trkpt lat="44.45316" lon="4.99464">
        <ele>382.26</ele>
        <time>2015-09-06T09:30:06Z</time>
      </trkpt>
      <trkpt lat="44.45311" lon="4.99456">
        <ele>381.3</ele>
        <time>2015-09-06T09:30:07Z</time>
      </trkpt>
      <trkpt lat="44.45306" lon="4.99447">
        <ele>380.82</ele>
        <time>2015-09-06T09:30:08Z</time>
      </trkpt>
      <trkpt lat="44.45302" lon="4.99436">
        <ele>380.34</ele>
        <time>2015-09-06T09:30:09Z</time>
      </trkpt>
      <trkpt lat="44.45298" lon="4.99425">
        <ele>380.82</ele>
        <time>2015-09-06T09:30:10Z</time>
      </trkpt>
      <trkpt lat="44.45296" lon="4.99413">
        <ele>381.3</ele>
        <time>2015-09-06T09:30:11Z</time>
      </trkpt>
      <trkpt lat="44.45294" lon="4.994">
        <ele>379.86</ele>
        <time>2015-09-06T09:30:12Z</time>
      </trkpt>
      <trkpt lat="44.45292" lon="4.99388">
        <ele>379.38</ele>
        <time>2015-09-06T09:30:13Z</time>
      </trkpt>
      <trkpt lat="44.45289" lon="4.99375">
        <ele>378.42</ele>
        <time>2015-09-06T09:30:14Z</time>
      </trkpt>
      <trkpt lat="44.45285" lon="4.99364">
        <ele>377.94</ele>
        <time>2015-09-06T09:30:15Z</time>
      </trkpt>
      <trkpt lat="44.45271" lon="4.99328">
        <ele>374.57</ele>
        <time>2015-09-06T09:30:18Z</time>
      </trkpt>
      <trkpt lat="44.45266" lon="4.99318">
        <ele>372.65</ele>
        <time>2015-09-06T09:30:19Z</time>
      </trkpt>
      <trkpt lat="44.45251" lon="4.99293">
        <ele>370.24</ele>
        <time>2015-09-06T09:30:22Z</time>
      </trkpt>
      <trkpt lat="44.45242" lon="4.99281">
        <ele>368.32</ele>
        <time>2015-09-06T09:30:25Z</time>
      </trkpt>
      <trkpt lat="44.45242" lon="4.99278">
        <ele>368.8</ele>
        <time>2015-09-06T09:30:26Z</time>
      </trkpt>
      <trkpt lat="44.45243" lon="4.99274">
        <ele>368.32</ele>
        <time>2015-09-06T09:30:27Z</time>
      </trkpt>
      <trkpt lat="44.45244" lon="4.9927">
        <ele>368.8</ele>
        <time>2015-09-06T09:30:28Z</time>
      </trkpt>
      <trkpt lat="44.45245" lon="4.99266">
        <ele>369.28</ele>
        <time>2015-09-06T09:30:29Z</time>
      </trkpt>
      <trkpt lat="44.45264" lon="4.99241">
        <ele>370.24</ele>
        <time>2015-09-06T09:30:37Z</time>
      </trkpt>
      <trkpt lat="44.45291" lon="4.99233">
        <ele>371.69</ele>
        <time>2015-09-06T09:30:48Z</time>
      </trkpt>
      <trkpt lat="44.45313" lon="4.99209">
        <ele>374.09</ele>
        <time>2015-09-06T09:30:57Z</time>
      </trkpt>
      <trkpt lat="44.45329" lon="4.99169">
        <ele>372.65</ele>
        <time>2015-09-06T09:31:08Z</time>
      </trkpt>
      <trkpt lat="44.45329" lon="4.99155">
        <ele>372.17</ele>
        <time>2015-09-06T09:31:10Z</time>
      </trkpt>
      <trkpt lat="44.45327" lon="4.99149">
        <ele>371.69</ele>
        <time>2015-09-06T09:31:11Z</time>
      </trkpt>
      <trkpt lat="44.45326" lon="4.99141">
        <ele>371.21</ele>
        <time>2015-09-06T09:31:12Z</time>
      </trkpt>
      <trkpt lat="44.45324" lon="4.99135">
        <ele>370.73</ele>
        <time>2015-09-06T09:31:13Z</time>
      </trkpt>
      <trkpt lat="44.45322" lon="4.99129">
        <ele>370.73</ele>
        <time>2015-09-06T09:31:14Z</time>
      </trkpt>
      <trkpt lat="44.4532" lon="4.99123">
        <ele>370.24</ele>
        <time>2015-09-06T09:31:15Z</time>
      </trkpt>
      <trkpt lat="44.45317" lon="4.99112">
        <ele>370.73</ele>
        <time>2015-09-06T09:31:17Z</time>
      </trkpt>
      <trkpt lat="44.45317" lon="4.99105">
        <ele>370.73</ele>
        <time>2015-09-06T09:31:18Z</time>
      </trkpt>
      <trkpt lat="44.45319" lon="4.99099">
        <ele>371.21</ele>
        <time>2015-09-06T09:31:19Z</time>
      </trkpt>
      <trkpt lat="44.45321" lon="4.99092">
        <ele>371.21</ele>
        <time>2015-09-06T09:31:20Z</time>
      </trkpt>
      <trkpt lat="44.45323" lon="4.99087">
        <ele>371.21</ele>
        <time>2015-09-06T09:31:21Z</time>
      </trkpt>
      <trkpt lat="44.45325" lon="4.99081">
        <ele>371.69</ele>
        <time>2015-09-06T09:31:22Z</time>
      </trkpt>
      <trkpt lat="44.45331" lon="4.99063">
        <ele>369.28</ele>
        <time>2015-09-06T09:31:25Z</time>
      </trkpt>
      <trkpt lat="44.45331" lon="4.99056">
        <ele>368.8</ele>
        <time>2015-09-06T09:31:26Z</time>
      </trkpt>
      <trkpt lat="44.45332" lon="4.99049">
        <ele>370.24</ele>
        <time>2015-09-06T09:31:27Z</time>
      </trkpt>
      <trkpt lat="44.45331" lon="4.99042">
        <ele>370.24</ele>
        <time>2015-09-06T09:31:28Z</time>
      </trkpt>
      <trkpt lat="44.45331" lon="4.99035">
        <ele>371.21</ele>
        <time>2015-09-06T09:31:29Z</time>
      </trkpt>
      <trkpt lat="44.45329" lon="4.99029">
        <ele>370.73</ele>
        <time>2015-09-06T09:31:30Z</time>
      </trkpt>
      <trkpt lat="44.45327" lon="4.99023">
        <ele>370.24</ele>
        <time>2015-09-06T09:31:31Z</time>
      </trkpt>
      <trkpt lat="44.45325" lon="4.9902">
        <ele>369.28</ele>
        <time>2015-09-06T09:31:32Z</time>
      </trkpt>
      <trkpt lat="44.45321" lon="4.99017">
        <ele>368.8</ele>
        <time>2015-09-06T09:31:33Z</time>
      </trkpt>
      <trkpt lat="44.45318" lon="4.99015">
        <ele>369.28</ele>
        <time>2015-09-06T09:31:34Z</time>
      </trkpt>
      <trkpt lat="44.45306" lon="4.99008">
        <ele>369.28</ele>
        <time>2015-09-06T09:31:37Z</time>
      </trkpt>
      <trkpt lat="44.45302" lon="4.99004">
        <ele>369.28</ele>
        <time>2015-09-06T09:31:38Z</time>
      </trkpt>
      <trkpt lat="44.45299" lon="4.99">
        <ele>369.28</ele>
        <time>2015-09-06T09:31:39Z</time>
      </trkpt>
      <trkpt lat="44.45297" lon="4.98994">
        <ele>369.28</ele>
        <time>2015-09-06T09:31:40Z</time>
      </trkpt>
      <trkpt lat="44.45295" lon="4.98988">
        <ele>367.36</ele>
        <time>2015-09-06T09:31:41Z</time>
      </trkpt>
      <trkpt lat="44.45294" lon="4.98982">
        <ele>367.36</ele>
        <time>2015-09-06T09:31:42Z</time>
      </trkpt>
      <trkpt lat="44.45294" lon="4.98975">
        <ele>367.36</ele>
        <time>2015-09-06T09:31:43Z</time>
      </trkpt>
      <trkpt lat="44.45293" lon="4.98969">
        <ele>368.32</ele>
        <time>2015-09-06T09:31:44Z</time>
      </trkpt>
      <trkpt lat="44.45294" lon="4.98963">
        <ele>368.32</ele>
        <time>2015-09-06T09:31:45Z</time>
      </trkpt>
      <trkpt lat="44.45294" lon="4.98936">
        <ele>367.36</ele>
        <time>2015-09-06T09:31:49Z</time>
      </trkpt>
      <trkpt lat="44.45294" lon="4.98888">
        <ele>367.36</ele>
        <time>2015-09-06T09:31:56Z</time>
      </trkpt>
      <trkpt lat="44.453" lon="4.98825">
        <ele>367.84</ele>
        <time>2015-09-06T09:32:08Z</time>
      </trkpt>
      <trkpt lat="44.45294" lon="4.98771">
        <ele>366.4</ele>
        <time>2015-09-06T09:32:18Z</time>
      </trkpt>
      <trkpt lat="44.45294" lon="4.98765">
        <ele>366.4</ele>
        <time>2015-09-06T09:32:19Z</time>
      </trkpt>
      <trkpt lat="44.45292" lon="4.9876">
        <ele>366.4</ele>
        <time>2015-09-06T09:32:20Z</time>
      </trkpt>
      <trkpt lat="44.45284" lon="4.98723">
        <ele>364.48</ele>
        <time>2015-09-06T09:32:26Z</time>
      </trkpt>
      <trkpt lat="44.45273" lon="4.9869">
        <ele>363.52</ele>
        <time>2015-09-06T09:32:32Z</time>
      </trkpt>
      <trkpt lat="44.45258" lon="4.98653">
        <ele>359.67</ele>
        <time>2015-09-06T09:32:39Z</time>
      </trkpt>
      <trkpt lat="44.45254" lon="4.98651">
        <ele>358.71</ele>
        <time>2015-09-06T09:32:40Z</time>
      </trkpt>
      <trkpt lat="44.45251" lon="4.9865">
        <ele>358.71</ele>
        <time>2015-09-06T09:32:41Z</time>
      </trkpt>
      <trkpt lat="44.45247" lon="4.98649">
        <ele>358.23</ele>
        <time>2015-09-06T09:32:42Z</time>
      </trkpt>
      <trkpt lat="44.45244" lon="4.98649">
        <ele>357.75</ele>
        <time>2015-09-06T09:32:43Z</time>
      </trkpt>
      <trkpt lat="44.45239" lon="4.98649">
        <ele>357.27</ele>
        <time>2015-09-06T09:32:44Z</time>
      </trkpt>
      <trkpt lat="44.45223" lon="4.98642">
        <ele>355.34</ele>
        <time>2015-09-06T09:32:48Z</time>
      </trkpt>
      <trkpt lat="44.45219" lon="4.98639">
        <ele>354.86</ele>
        <time>2015-09-06T09:32:49Z</time>
      </trkpt>
      <trkpt lat="44.45212" lon="4.98634">
        <ele>353.42</ele>
        <time>2015-09-06T09:32:51Z</time>
      </trkpt>
      <trkpt lat="44.45204" lon="4.9863">
        <ele>351.98</ele>
        <time>2015-09-06T09:32:53Z</time>
      </trkpt>
      <trkpt lat="44.452" lon="4.98629">
        <ele>351.5</ele>
        <time>2015-09-06T09:32:54Z</time>
      </trkpt>
      <trkpt lat="44.45195" lon="4.98629">
        <ele>351.02</ele>
        <time>2015-09-06T09:32:55Z</time>
      </trkpt>
      <trkpt lat="44.45186" lon="4.98628">
        <ele>350.06</ele>
        <time>2015-09-06T09:32:57Z</time>
      </trkpt>
      <trkpt lat="44.45165" lon="4.98628">
        <ele>349.1</ele>
        <time>2015-09-06T09:33:01Z</time>
      </trkpt>
      <trkpt lat="44.4516" lon="4.98628">
        <ele>349.1</ele>
        <time>2015-09-06T09:33:02Z</time>
      </trkpt>
      <trkpt lat="44.45144" lon="4.98627">
        <ele>348.13</ele>
        <time>2015-09-06T09:33:05Z</time>
      </trkpt>
      <trkpt lat="44.4514" lon="4.98626">
        <ele>347.17</ele>
        <time>2015-09-06T09:33:06Z</time>
      </trkpt>
      <trkpt lat="44.45136" lon="4.98625">
        <ele>345.73</ele>
        <time>2015-09-06T09:33:07Z</time>
      </trkpt>
      <trkpt lat="44.45131" lon="4.98624">
        <ele>345.73</ele>
        <time>2015-09-06T09:33:08Z</time>
      </trkpt>
      <trkpt lat="44.45127" lon="4.98622">
        <ele>345.25</ele>
        <time>2015-09-06T09:33:09Z</time>
      </trkpt>
      <trkpt lat="44.45109" lon="4.98619">
        <ele>344.77</ele>
        <time>2015-09-06T09:33:13Z</time>
      </trkpt>
      <trkpt lat="44.45106" lon="4.98618">
        <ele>344.29</ele>
        <time>2015-09-06T09:33:14Z</time>
      </trkpt>
      <trkpt lat="44.45103" lon="4.98616">
        <ele>343.33</ele>
        <time>2015-09-06T09:33:15Z</time>
      </trkpt>
      <trkpt lat="44.451" lon="4.98616">
        <ele>342.85</ele>
        <time>2015-09-06T09:33:16Z</time>
      </trkpt>
      <trkpt lat="44.45097" lon="4.98616">
        <ele>341.89</ele>
        <time>2015-09-06T09:33:17Z</time>
      </trkpt>
      <trkpt lat="44.45095" lon="4.98616">
        <ele>341.41</ele>
        <time>2015-09-06T09:33:18Z</time>
      </trkpt>
      <trkpt lat="44.45092" lon="4.98615">
        <ele>341.41</ele>
        <time>2015-09-06T09:33:19Z</time>
      </trkpt>
      <trkpt lat="44.45089" lon="4.98614">
        <ele>340.92</ele>
        <time>2015-09-06T09:33:20Z</time>
      </trkpt>
      <trkpt lat="44.45086" lon="4.98612">
        <ele>340.92</ele>
        <time>2015-09-06T09:33:21Z</time>
      </trkpt>
      <trkpt lat="44.45084" lon="4.98611">
        <ele>340.92</ele>
        <time>2015-09-06T09:33:22Z</time>
      </trkpt>
      <trkpt lat="44.45082" lon="4.9861">
        <ele>340.92</ele>
        <time>2015-09-06T09:33:23Z</time>
      </trkpt>
      <trkpt lat="44.45053" lon="4.98599">
        <ele>337.56</ele>
        <time>2015-09-06T09:33:32Z</time>
      </trkpt>
      <trkpt lat="44.4505" lon="4.98597">
        <ele>337.56</ele>
        <time>2015-09-06T09:33:33Z</time>
      </trkpt>
      <trkpt lat="44.45027" lon="4.98587">
        <ele>335.64</ele>
        <time>2015-09-06T09:33:40Z</time>
      </trkpt>
      <trkpt lat="44.45023" lon="4.98584">
        <ele>334.68</ele>
        <time>2015-09-06T09:33:41Z</time>
      </trkpt>
      <trkpt lat="44.45019" lon="4.9858">
        <ele>334.2</ele>
        <time>2015-09-06T09:33:42Z</time>
      </trkpt>
      <trkpt lat="44.45014" lon="4.98577">
        <ele>334.2</ele>
        <time>2015-09-06T09:33:43Z</time>
      </trkpt>
      <trkpt lat="44.4501" lon="4.98574">
        <ele>333.71</ele>
        <time>2015-09-06T09:33:44Z</time>
      </trkpt>
      <trkpt lat="44.45006" lon="4.98572">
        <ele>333.71</ele>
        <time>2015-09-06T09:33:45Z</time>
      </trkpt>
      <trkpt lat="44.44984" lon="4.98562">
        <ele>331.31</ele>
        <time>2015-09-06T09:33:50Z</time>
      </trkpt>
      <trkpt lat="44.4498" lon="4.98559">
        <ele>330.83</ele>
        <time>2015-09-06T09:33:51Z</time>
      </trkpt>
      <trkpt lat="44.44976" lon="4.98555">
        <ele>330.35</ele>
        <time>2015-09-06T09:33:52Z</time>
      </trkpt>
      <trkpt lat="44.44966" lon="4.98545">
        <ele>329.87</ele>
        <time>2015-09-06T09:33:54Z</time>
      </trkpt>
      <trkpt lat="44.44961" lon="4.98541">
        <ele>329.87</ele>
        <time>2015-09-06T09:33:55Z</time>
      </trkpt>
      <trkpt lat="44.44954" lon="4.98538">
        <ele>328.91</ele>
        <time>2015-09-06T09:33:56Z</time>
      </trkpt>
      <trkpt lat="44.44948" lon="4.98536">
        <ele>327.95</ele>
        <time>2015-09-06T09:33:57Z</time>
      </trkpt>
      <trkpt lat="44.4494" lon="4.98535">
        <ele>327.47</ele>
        <time>2015-09-06T09:33:58Z</time>
      </trkpt>
      <trkpt lat="44.44932" lon="4.98534">
        <ele>326.99</ele>
        <time>2015-09-06T09:33:59Z</time>
      </trkpt>
      <trkpt lat="44.44897" lon="4.98527">
        <ele>324.1</ele>
        <time>2015-09-06T09:34:03Z</time>
      </trkpt>
      <trkpt lat="44.44888" lon="4.98523">
        <ele>324.1</ele>
        <time>2015-09-06T09:34:04Z</time>
      </trkpt>
      <trkpt lat="44.4488" lon="4.98518">
        <ele>323.62</ele>
        <time>2015-09-06T09:34:05Z</time>
      </trkpt>
      <trkpt lat="44.44846" lon="4.98493">
        <ele>320.26</ele>
        <time>2015-09-06T09:34:09Z</time>
      </trkpt>
      <trkpt lat="44.44838" lon="4.98487">
        <ele>320.26</ele>
        <time>2015-09-06T09:34:10Z</time>
      </trkpt>
      <trkpt lat="44.44803" lon="4.98464">
        <ele>316.89</ele>
        <time>2015-09-06T09:34:14Z</time>
      </trkpt>
      <trkpt lat="44.44794" lon="4.98458">
        <ele>316.89</ele>
        <time>2015-09-06T09:34:15Z</time>
      </trkpt>
      <trkpt lat="44.44768" lon="4.98441">
        <ele>315.45</ele>
        <time>2015-09-06T09:34:18Z</time>
      </trkpt>
      <trkpt lat="44.44722" lon="4.9841">
        <ele>312.57</ele>
        <time>2015-09-06T09:34:24Z</time>
      </trkpt>
      <trkpt lat="44.44717" lon="4.98406">
        <ele>312.57</ele>
        <time>2015-09-06T09:34:25Z</time>
      </trkpt>
      <trkpt lat="44.44701" lon="4.98397">
        <ele>312.09</ele>
        <time>2015-09-06T09:34:29Z</time>
      </trkpt>
      <trkpt lat="44.44701" lon="4.98398">
        <ele>312.09</ele>
        <time>2015-09-06T09:34:30Z</time>
      </trkpt>
      <trkpt lat="44.44701" lon="4.984">
        <ele>312.09</ele>
        <time>2015-09-06T09:34:31Z</time>
      </trkpt>
      <trkpt lat="44.44703" lon="4.98401">
        <ele>312.09</ele>
        <time>2015-09-06T09:34:33Z</time>
      </trkpt>
      <trkpt lat="44.44723" lon="4.98385">
        <ele>313.53</ele>
        <time>2015-09-06T09:34:41Z</time>
      </trkpt>
      <trkpt lat="44.44724" lon="4.98379">
        <ele>313.53</ele>
        <time>2015-09-06T09:34:42Z</time>
      </trkpt>
      <trkpt lat="44.44725" lon="4.98373">
        <ele>314.01</ele>
        <time>2015-09-06T09:34:43Z</time>
      </trkpt>
      <trkpt lat="44.44726" lon="4.98367">
        <ele>313.53</ele>
        <time>2015-09-06T09:34:44Z</time>
      </trkpt>
      <trkpt lat="44.44727" lon="4.98361">
        <ele>314.01</ele>
        <time>2015-09-06T09:34:45Z</time>
      </trkpt>
      <trkpt lat="44.4474" lon="4.98275">
        <ele>312.09</ele>
        <time>2015-09-06T09:34:56Z</time>
      </trkpt>
      <trkpt lat="44.4474" lon="4.98267">
        <ele>312.09</ele>
        <time>2015-09-06T09:34:57Z</time>
      </trkpt>
      <trkpt lat="44.44741" lon="4.98259">
        <ele>312.09</ele>
        <time>2015-09-06T09:34:58Z</time>
      </trkpt>
      <trkpt lat="44.44744" lon="4.98226">
        <ele>312.57</ele>
        <time>2015-09-06T09:35:02Z</time>
      </trkpt>
      <trkpt lat="44.44745" lon="4.98217">
        <ele>312.09</ele>
        <time>2015-09-06T09:35:03Z</time>
      </trkpt>
      <trkpt lat="44.44746" lon="4.98209">
        <ele>312.57</ele>
        <time>2015-09-06T09:35:04Z</time>
      </trkpt>
      <trkpt lat="44.44756" lon="4.98112">
        <ele>312.57</ele>
        <time>2015-09-06T09:35:16Z</time>
      </trkpt>
      <trkpt lat="44.44758" lon="4.98094">
        <ele>311.12</ele>
        <time>2015-09-06T09:35:19Z</time>
      </trkpt>
      <trkpt lat="44.44761" lon="4.98066">
        <ele>311.6</ele>
        <time>2015-09-06T09:35:24Z</time>
      </trkpt>
      <trkpt lat="44.44761" lon="4.98061">
        <ele>311.6</ele>
        <time>2015-09-06T09:35:25Z</time>
      </trkpt>
      <trkpt lat="44.44759" lon="4.98056">
        <ele>312.09</ele>
        <time>2015-09-06T09:35:26Z</time>
      </trkpt>
      <trkpt lat="44.44756" lon="4.98052">
        <ele>312.09</ele>
        <time>2015-09-06T09:35:27Z</time>
      </trkpt>
      <trkpt lat="44.44751" lon="4.98049">
        <ele>311.6</ele>
        <time>2015-09-06T09:35:28Z</time>
      </trkpt>
      <trkpt lat="44.44746" lon="4.98048">
        <ele>311.6</ele>
        <time>2015-09-06T09:35:29Z</time>
      </trkpt>
      <trkpt lat="44.44741" lon="4.98047">
        <ele>311.12</ele>
        <time>2015-09-06T09:35:30Z</time>
      </trkpt>
      <trkpt lat="44.44735" lon="4.98046">
        <ele>310.64</ele>
        <time>2015-09-06T09:35:31Z</time>
      </trkpt>
      <trkpt lat="44.44729" lon="4.98047">
        <ele>310.64</ele>
        <time>2015-09-06T09:35:32Z</time>
      </trkpt>
      <trkpt lat="44.44723" lon="4.98048">
        <ele>310.64</ele>
        <time>2015-09-06T09:35:33Z</time>
      </trkpt>
      <trkpt lat="44.44716" lon="4.98049">
        <ele>310.16</ele>
        <time>2015-09-06T09:35:34Z</time>
      </trkpt>
      <trkpt lat="44.44672" lon="4.98051">
        <ele>308.24</ele>
        <time>2015-09-06T09:35:40Z</time>
      </trkpt>
      <trkpt lat="44.44651" lon="4.9805">
        <ele>306.8</ele>
        <time>2015-09-06T09:35:43Z</time>
      </trkpt>
      <trkpt lat="44.44645" lon="4.98049">
        <ele>306.32</ele>
        <time>2015-09-06T09:35:45Z</time>
      </trkpt>
      <trkpt lat="44.44646" lon="4.98052">
        <ele>306.8</ele>
        <time>2015-09-06T09:35:48Z</time>
      </trkpt>
      <trkpt lat="44.44648" lon="4.98053">
        <ele>307.28</ele>
        <time>2015-09-06T09:35:49Z</time>
      </trkpt>
      <trkpt lat="44.4465" lon="4.98053">
        <ele>307.28</ele>
        <time>2015-09-06T09:35:50Z</time>
      </trkpt>
      <trkpt lat="44.44652" lon="4.98052">
        <ele>307.28</ele>
        <time>2015-09-06T09:35:51Z</time>
      </trkpt>
      <trkpt lat="44.44654" lon="4.98052">
        <ele>307.28</ele>
        <time>2015-09-06T09:35:52Z</time>
      </trkpt>
      <trkpt lat="44.44656" lon="4.98052">
        <ele>307.28</ele>
        <time>2015-09-06T09:35:53Z</time>
      </trkpt>
      <trkpt lat="44.44659" lon="4.98052">
        <ele>307.76</ele>
        <time>2015-09-06T09:35:54Z</time>
      </trkpt>
      <trkpt lat="44.44661" lon="4.9805">
        <ele>308.24</ele>
        <time>2015-09-06T09:35:55Z</time>
      </trkpt>
      <trkpt lat="44.44663" lon="4.98048">
        <ele>308.24</ele>
        <time>2015-09-06T09:35:56Z</time>
      </trkpt>
      <trkpt lat="44.44683" lon="4.98019">
        <ele>308.72</ele>
        <time>2015-09-06T09:36:04Z</time>
      </trkpt>
      <trkpt lat="44.44684" lon="4.98014">
        <ele>309.2</ele>
        <time>2015-09-06T09:36:05Z</time>
      </trkpt>
      <trkpt lat="44.44704" lon="4.97936">
        <ele>311.12</ele>
        <time>2015-09-06T09:36:21Z</time>
      </trkpt>
      <trkpt lat="44.44703" lon="4.97931">
        <ele>311.12</ele>
        <time>2015-09-06T09:36:22Z</time>
      </trkpt>
      <trkpt lat="44.44702" lon="4.97928">
        <ele>310.64</ele>
        <time>2015-09-06T09:36:23Z</time>
      </trkpt>
      <trkpt lat="44.44699" lon="4.97925">
        <ele>310.64</ele>
        <time>2015-09-06T09:36:24Z</time>
      </trkpt>
      <trkpt lat="44.44696" lon="4.97925">
        <ele>310.16</ele>
        <time>2015-09-06T09:36:25Z</time>
      </trkpt>
      <trkpt lat="44.44684" lon="4.97925">
        <ele>310.16</ele>
        <time>2015-09-06T09:36:28Z</time>
      </trkpt>
      <trkpt lat="44.44675" lon="4.97924">
        <ele>309.2</ele>
        <time>2015-09-06T09:36:30Z</time>
      </trkpt>
      <trkpt lat="44.44645" lon="4.97925">
        <ele>307.76</ele>
        <time>2015-09-06T09:36:35Z</time>
      </trkpt>
      <trkpt lat="44.44638" lon="4.97924">
        <ele>306.8</ele>
        <time>2015-09-06T09:36:36Z</time>
      </trkpt>
      <trkpt lat="44.44623" lon="4.97921">
        <ele>305.84</ele>
        <time>2015-09-06T09:36:38Z</time>
      </trkpt>
      <trkpt lat="44.44615" lon="4.9792">
        <ele>305.36</ele>
        <time>2015-09-06T09:36:39Z</time>
      </trkpt>
      <trkpt lat="44.44583" lon="4.97917">
        <ele>302.95</ele>
        <time>2015-09-06T09:36:44Z</time>
      </trkpt>
      <trkpt lat="44.4458" lon="4.97916">
        <ele>302.47</ele>
        <time>2015-09-06T09:36:45Z</time>
      </trkpt>
      <trkpt lat="44.44578" lon="4.97914">
        <ele>302.47</ele>
        <time>2015-09-06T09:36:46Z</time>
      </trkpt>
      <trkpt lat="44.44576" lon="4.97913">
        <ele>302.47</ele>
        <time>2015-09-06T09:36:47Z</time>
      </trkpt>
      <trkpt lat="44.44573" lon="4.97913">
        <ele>302.47</ele>
        <time>2015-09-06T09:36:48Z</time>
      </trkpt>
      <trkpt lat="44.4457" lon="4.97914">
        <ele>302.47</ele>
        <time>2015-09-06T09:36:49Z</time>
      </trkpt>
      <trkpt lat="44.44566" lon="4.97915">
        <ele>301.99</ele>
        <time>2015-09-06T09:36:50Z</time>
      </trkpt>
      <trkpt lat="44.44562" lon="4.97915">
        <ele>301.99</ele>
        <time>2015-09-06T09:36:51Z</time>
      </trkpt>
      <trkpt lat="44.44557" lon="4.97914">
        <ele>301.99</ele>
        <time>2015-09-06T09:36:52Z</time>
      </trkpt>
      <trkpt lat="44.44552" lon="4.97913">
        <ele>301.51</ele>
        <time>2015-09-06T09:36:53Z</time>
      </trkpt>
      <trkpt lat="44.44546" lon="4.97913">
        <ele>301.51</ele>
        <time>2015-09-06T09:36:54Z</time>
      </trkpt>
      <trkpt lat="44.4454" lon="4.97912">
        <ele>301.03</ele>
        <time>2015-09-06T09:36:55Z</time>
      </trkpt>
      <trkpt lat="44.44515" lon="4.97909">
        <ele>299.59</ele>
        <time>2015-09-06T09:36:59Z</time>
      </trkpt>
      <trkpt lat="44.44508" lon="4.97909">
        <ele>299.11</ele>
        <time>2015-09-06T09:37:00Z</time>
      </trkpt>
      <trkpt lat="44.44501" lon="4.9791">
        <ele>299.11</ele>
        <time>2015-09-06T09:37:01Z</time>
      </trkpt>
      <trkpt lat="44.44486" lon="4.97908">
        <ele>298.63</ele>
        <time>2015-09-06T09:37:03Z</time>
      </trkpt>
      <trkpt lat="44.4448" lon="4.97907">
        <ele>298.15</ele>
        <time>2015-09-06T09:37:04Z</time>
      </trkpt>
      <trkpt lat="44.44452" lon="4.97897">
        <ele>295.74</ele>
        <time>2015-09-06T09:37:09Z</time>
      </trkpt>
      <trkpt lat="44.44416" lon="4.9787">
        <ele>294.78</ele>
        <time>2015-09-06T09:37:16Z</time>
      </trkpt>
      <trkpt lat="44.44413" lon="4.97866">
        <ele>294.78</ele>
        <time>2015-09-06T09:37:17Z</time>
      </trkpt>
      <trkpt lat="44.44408" lon="4.97857">
        <ele>294.78</ele>
        <time>2015-09-06T09:37:19Z</time>
      </trkpt>
      <trkpt lat="44.44397" lon="4.97833">
        <ele>291.42</ele>
        <time>2015-09-06T09:37:25Z</time>
      </trkpt>
      <trkpt lat="44.44393" lon="4.97825">
        <ele>290.94</ele>
        <time>2015-09-06T09:37:27Z</time>
      </trkpt>
      <trkpt lat="44.4438" lon="4.97805">
        <ele>291.42</ele>
        <time>2015-09-06T09:37:31Z</time>
      </trkpt>
      <trkpt lat="44.44366" lon="4.97789">
        <ele>290.46</ele>
        <time>2015-09-06T09:37:34Z</time>
      </trkpt>
      <trkpt lat="44.44362" lon="4.97786">
        <ele>289.97</ele>
        <time>2015-09-06T09:37:35Z</time>
      </trkpt>
      <trkpt lat="44.44357" lon="4.97785">
        <ele>289.49</ele>
        <time>2015-09-06T09:37:36Z</time>
      </trkpt>
      <trkpt lat="44.44353" lon="4.97787">
        <ele>289.01</ele>
        <time>2015-09-06T09:37:37Z</time>
      </trkpt>
      <trkpt lat="44.44349" lon="4.97789">
        <ele>287.57</ele>
        <time>2015-09-06T09:37:38Z</time>
      </trkpt>
      <trkpt lat="44.44346" lon="4.9779">
        <ele>287.09</ele>
        <time>2015-09-06T09:37:39Z</time>
      </trkpt>
      <trkpt lat="44.44343" lon="4.9779">
        <ele>287.09</ele>
        <time>2015-09-06T09:37:40Z</time>
      </trkpt>
      <trkpt lat="44.44341" lon="4.9779">
        <ele>288.05</ele>
        <time>2015-09-06T09:37:41Z</time>
      </trkpt>
      <trkpt lat="44.44337" lon="4.9779">
        <ele>288.53</ele>
        <time>2015-09-06T09:37:42Z</time>
      </trkpt>
      <trkpt lat="44.44334" lon="4.97788">
        <ele>287.57</ele>
        <time>2015-09-06T09:37:43Z</time>
      </trkpt>
      <trkpt lat="44.44329" lon="4.97785">
        <ele>287.09</ele>
        <time>2015-09-06T09:37:44Z</time>
      </trkpt>
      <trkpt lat="44.44325" lon="4.9778">
        <ele>286.61</ele>
        <time>2015-09-06T09:37:45Z</time>
      </trkpt>
      <trkpt lat="44.44322" lon="4.97775">
        <ele>285.65</ele>
        <time>2015-09-06T09:37:46Z</time>
      </trkpt>
      <trkpt lat="44.44318" lon="4.97769">
        <ele>284.69</ele>
        <time>2015-09-06T09:37:47Z</time>
      </trkpt>
      <trkpt lat="44.44256" lon="4.97664">
        <ele>282.77</ele>
        <time>2015-09-06T09:38:01Z</time>
      </trkpt>
      <trkpt lat="44.44251" lon="4.97657">
        <ele>283.25</ele>
        <time>2015-09-06T09:38:02Z</time>
      </trkpt>
      <trkpt lat="44.44247" lon="4.9765">
        <ele>283.73</ele>
        <time>2015-09-06T09:38:03Z</time>
      </trkpt>
      <trkpt lat="44.44241" lon="4.97646">
        <ele>283.25</ele>
        <time>2015-09-06T09:38:04Z</time>
      </trkpt>
      <trkpt lat="44.44234" lon="4.97645">
        <ele>283.25</ele>
        <time>2015-09-06T09:38:05Z</time>
      </trkpt>
      <trkpt lat="44.44217" lon="4.97662">
        <ele>282.77</ele>
        <time>2015-09-06T09:38:08Z</time>
      </trkpt>
      <trkpt lat="44.442" lon="4.97693">
        <ele>279.88</ele>
        <time>2015-09-06T09:38:12Z</time>
      </trkpt>
      <trkpt lat="44.44186" lon="4.97715">
        <ele>278.92</ele>
        <time>2015-09-06T09:38:15Z</time>
      </trkpt>
      <trkpt lat="44.44175" lon="4.97738">
        <ele>276.52</ele>
        <time>2015-09-06T09:38:18Z</time>
      </trkpt>
      <trkpt lat="44.44172" lon="4.97745">
        <ele>277</ele>
        <time>2015-09-06T09:38:19Z</time>
      </trkpt>
      <trkpt lat="44.44153" lon="4.97748">
        <ele>278.44</ele>
        <time>2015-09-06T09:38:26Z</time>
      </trkpt>
      <trkpt lat="44.44153" lon="4.97747">
        <ele>278.92</ele>
        <time>2015-09-06T09:38:27Z</time>
      </trkpt>
      <trkpt lat="44.44155" lon="4.97742">
        <ele>277.96</ele>
        <time>2015-09-06T09:38:37Z</time>
      </trkpt>
      <trkpt lat="44.44155" lon="4.97742">
        <ele>277</ele>
        <time>2015-09-06T09:38:39Z</time>
      </trkpt>
      <trkpt lat="44.44155" lon="4.97741">
        <ele>277.48</ele>
        <time>2015-09-06T09:38:51Z</time>
      </trkpt>
      <trkpt lat="44.44155" lon="4.97741">
        <ele>278.92</ele>
        <time>2015-09-06T09:39:00Z</time>
      </trkpt>
    </trkseg>
  </trk>
</gpx>